<?xml version="1.0" encoding="UTF-8" standalone="no" ?>
<gpx xmlns="http://www.topografix.com/GPX/1/1" xmlns:xsi="http://www.w3.org/2001/XMLSchema-instance" xsi:schemaLocation="http://www.topografix.com/GPX/1/1 http://www.topografix.com/GPX/1/1/gpx.xsd" version="1.1" creator="VisuGPX - https://www.visugpx.com">
  <metadata>
    <name>Un dimanche à vélo</name>
    <desc><![CDATA[De sarrebourg à Raon l\'étape, en passant par le Donon]]></desc>
  </metadata>
  <trk>
    <name><![CDATA[sarrebourg raon l'étape]]></name>
    <desc><![CDATA[<h1>OruxMaps</h1><br /><hr align="center" width="480" style="height: 2px; width: 517px"/><h2>Nom: sarrebourg raon l'étape</h2><br /><p>Temps de départ: 08/11/2013 09:00</p><p>Temps d'arrivée: 08/11/2013 16:25</p><p>Distance: 76,9 km (07:24)</p><p>Temps déplacement: 04:26</p><p>Vitesse moyenne: 10,4 km/h</p><p>Vitesse moyenne: 17,3 km/h</p><p>Vitess Max.: 48,4 km/h</p><p>Altitude minimale: 247 m</p><p>Altitude maximale: 816 m</p><p>Vitesse d'élévation: 541,1 m/h</p><p>Vitesse de descente: -416,2 m/h</p><p>Gain Altitude: 866 m</p><p>Perte Altitude: -835 m</p><p>Temps d'élévation: 01:36</p><p>Temps de descente: 02:00</p><hr align="center" width="480" style="height: 2px; width: 517px"/>]]></desc>
    <trkseg>
      <trkpt lat="48.73802" lon="7.05305">
        <ele>247.49</ele>
        <time>2013-08-11T07:00:24Z</time>
      </trkpt>
      <trkpt lat="48.73806" lon="7.05331">
        <ele>251.17</ele>
        <time>2013-08-11T07:04:57Z</time>
      </trkpt>
      <trkpt lat="48.73793" lon="7.05311">
        <ele>253.51</ele>
        <time>2013-08-11T07:08:10Z</time>
      </trkpt>
      <trkpt lat="48.73787" lon="7.05283">
        <ele>252.75</ele>
        <time>2013-08-11T07:08:15Z</time>
      </trkpt>
      <trkpt lat="48.7377" lon="7.05272">
        <ele>252.51</ele>
        <time>2013-08-11T07:08:21Z</time>
      </trkpt>
      <trkpt lat="48.73751" lon="7.05272">
        <ele>253.02</ele>
        <time>2013-08-11T07:08:27Z</time>
      </trkpt>
      <trkpt lat="48.73731" lon="7.0527">
        <ele>254.95</ele>
        <time>2013-08-11T07:08:34Z</time>
      </trkpt>
      <trkpt lat="48.73709" lon="7.05274">
        <ele>256.17</ele>
        <time>2013-08-11T07:08:40Z</time>
      </trkpt>
      <trkpt lat="48.73691" lon="7.05267">
        <ele>257.09</ele>
        <time>2013-08-11T07:08:51Z</time>
      </trkpt>
      <trkpt lat="48.73671" lon="7.05276">
        <ele>256.52</ele>
        <time>2013-08-11T07:09:00Z</time>
      </trkpt>
      <trkpt lat="48.7365" lon="7.05263">
        <ele>256.37</ele>
        <time>2013-08-11T07:09:07Z</time>
      </trkpt>
      <trkpt lat="48.73641" lon="7.0524">
        <ele>255.13</ele>
        <time>2013-08-11T07:09:20Z</time>
      </trkpt>
      <trkpt lat="48.73643" lon="7.05211">
        <ele>255.2</ele>
        <time>2013-08-11T07:09:25Z</time>
      </trkpt>
      <trkpt lat="48.73643" lon="7.05179">
        <ele>254.56</ele>
        <time>2013-08-11T07:09:30Z</time>
      </trkpt>
      <trkpt lat="48.73643" lon="7.05146">
        <ele>253.68</ele>
        <time>2013-08-11T07:09:35Z</time>
      </trkpt>
      <trkpt lat="48.73645" lon="7.05116">
        <ele>252.86</ele>
        <time>2013-08-11T07:09:39Z</time>
      </trkpt>
      <trkpt lat="48.73645" lon="7.05086">
        <ele>253.04</ele>
        <time>2013-08-11T07:09:44Z</time>
      </trkpt>
      <trkpt lat="48.73638" lon="7.05059">
        <ele>253</ele>
        <time>2013-08-11T07:09:52Z</time>
      </trkpt>
      <trkpt lat="48.73621" lon="7.05065">
        <ele>251.15</ele>
        <time>2013-08-11T07:10:02Z</time>
      </trkpt>
      <trkpt lat="48.73603" lon="7.05056">
        <ele>249.76</ele>
        <time>2013-08-11T07:10:48Z</time>
      </trkpt>
      <trkpt lat="48.73605" lon="7.05085">
        <ele>249.36</ele>
        <time>2013-08-11T07:11:01Z</time>
      </trkpt>
      <trkpt lat="48.73626" lon="7.05092">
        <ele>249.86</ele>
        <time>2013-08-11T07:11:07Z</time>
      </trkpt>
      <trkpt lat="48.73641" lon="7.05073">
        <ele>250.81</ele>
        <time>2013-08-11T07:11:15Z</time>
      </trkpt>
      <trkpt lat="48.73634" lon="7.05046">
        <ele>249.96</ele>
        <time>2013-08-11T07:11:37Z</time>
      </trkpt>
      <trkpt lat="48.73619" lon="7.0503">
        <ele>249.96</ele>
        <time>2013-08-11T07:11:42Z</time>
      </trkpt>
      <trkpt lat="48.73601" lon="7.0501">
        <ele>250.9</ele>
        <time>2013-08-11T07:11:46Z</time>
      </trkpt>
      <trkpt lat="48.73584" lon="7.04996">
        <ele>252.12</ele>
        <time>2013-08-11T07:11:50Z</time>
      </trkpt>
      <trkpt lat="48.73565" lon="7.04993">
        <ele>252.84</ele>
        <time>2013-08-11T07:11:56Z</time>
      </trkpt>
      <trkpt lat="48.73545" lon="7.04983">
        <ele>251.69</ele>
        <time>2013-08-11T07:12:03Z</time>
      </trkpt>
      <trkpt lat="48.73531" lon="7.04964">
        <ele>251.35</ele>
        <time>2013-08-11T07:12:10Z</time>
      </trkpt>
      <trkpt lat="48.73524" lon="7.04937">
        <ele>253.06</ele>
        <time>2013-08-11T07:12:48Z</time>
      </trkpt>
      <trkpt lat="48.73523" lon="7.04902">
        <ele>253.47</ele>
        <time>2013-08-11T07:12:53Z</time>
      </trkpt>
      <trkpt lat="48.73524" lon="7.04868">
        <ele>253.39</ele>
        <time>2013-08-11T07:12:57Z</time>
      </trkpt>
      <trkpt lat="48.73524" lon="7.04835">
        <ele>253.01</ele>
        <time>2013-08-11T07:13:01Z</time>
      </trkpt>
      <trkpt lat="48.73523" lon="7.04805">
        <ele>252.89</ele>
        <time>2013-08-11T07:13:05Z</time>
      </trkpt>
      <trkpt lat="48.73523" lon="7.04777">
        <ele>252.45</ele>
        <time>2013-08-11T07:13:09Z</time>
      </trkpt>
      <trkpt lat="48.73523" lon="7.04746">
        <ele>252.36</ele>
        <time>2013-08-11T07:13:13Z</time>
      </trkpt>
      <trkpt lat="48.73524" lon="7.04714">
        <ele>252.89</ele>
        <time>2013-08-11T07:13:18Z</time>
      </trkpt>
      <trkpt lat="48.73525" lon="7.04687">
        <ele>252.53</ele>
        <time>2013-08-11T07:13:23Z</time>
      </trkpt>
      <trkpt lat="48.73519" lon="7.04659">
        <ele>252.38</ele>
        <time>2013-08-11T07:13:28Z</time>
      </trkpt>
      <trkpt lat="48.73509" lon="7.04633">
        <ele>252.33</ele>
        <time>2013-08-11T07:13:33Z</time>
      </trkpt>
      <trkpt lat="48.73495" lon="7.04615">
        <ele>252.32</ele>
        <time>2013-08-11T07:13:37Z</time>
      </trkpt>
      <trkpt lat="48.7348" lon="7.046">
        <ele>252.4</ele>
        <time>2013-08-11T07:13:41Z</time>
      </trkpt>
      <trkpt lat="48.73462" lon="7.04584">
        <ele>253.09</ele>
        <time>2013-08-11T07:13:46Z</time>
      </trkpt>
      <trkpt lat="48.73442" lon="7.0457">
        <ele>253.09</ele>
        <time>2013-08-11T07:13:52Z</time>
      </trkpt>
      <trkpt lat="48.73426" lon="7.04548">
        <ele>252.5</ele>
        <time>2013-08-11T07:13:57Z</time>
      </trkpt>
      <trkpt lat="48.73421" lon="7.04579">
        <ele>250.4</ele>
        <time>2013-08-11T07:15:26Z</time>
      </trkpt>
      <trkpt lat="48.73423" lon="7.04607">
        <ele>250.43</ele>
        <time>2013-08-11T07:15:31Z</time>
      </trkpt>
      <trkpt lat="48.73426" lon="7.04639">
        <ele>250.47</ele>
        <time>2013-08-11T07:15:36Z</time>
      </trkpt>
      <trkpt lat="48.73431" lon="7.04666">
        <ele>250.49</ele>
        <time>2013-08-11T07:15:40Z</time>
      </trkpt>
      <trkpt lat="48.73439" lon="7.04694">
        <ele>250.53</ele>
        <time>2013-08-11T07:15:44Z</time>
      </trkpt>
      <trkpt lat="48.73442" lon="7.04725">
        <ele>250.8</ele>
        <time>2013-08-11T07:15:48Z</time>
      </trkpt>
      <trkpt lat="48.73447" lon="7.04758">
        <ele>251.11</ele>
        <time>2013-08-11T07:15:52Z</time>
      </trkpt>
      <trkpt lat="48.7345" lon="7.0479">
        <ele>251.52</ele>
        <time>2013-08-11T07:15:56Z</time>
      </trkpt>
      <trkpt lat="48.73455" lon="7.0482">
        <ele>251.75</ele>
        <time>2013-08-11T07:16:00Z</time>
      </trkpt>
      <trkpt lat="48.73458" lon="7.0485">
        <ele>251.75</ele>
        <time>2013-08-11T07:16:04Z</time>
      </trkpt>
      <trkpt lat="48.73456" lon="7.04882">
        <ele>251.74</ele>
        <time>2013-08-11T07:16:09Z</time>
      </trkpt>
      <trkpt lat="48.73439" lon="7.04903">
        <ele>252.43</ele>
        <time>2013-08-11T07:16:14Z</time>
      </trkpt>
      <trkpt lat="48.73423" lon="7.04919">
        <ele>252.5</ele>
        <time>2013-08-11T07:16:18Z</time>
      </trkpt>
      <trkpt lat="48.73408" lon="7.04941">
        <ele>252.92</ele>
        <time>2013-08-11T07:16:22Z</time>
      </trkpt>
      <trkpt lat="48.73408" lon="7.04968">
        <ele>249.68</ele>
        <time>2013-08-11T07:17:14Z</time>
      </trkpt>
      <trkpt lat="48.73398" lon="7.04996">
        <ele>250.66</ele>
        <time>2013-08-11T07:17:29Z</time>
      </trkpt>
      <trkpt lat="48.7339" lon="7.05021">
        <ele>250.71</ele>
        <time>2013-08-11T07:18:09Z</time>
      </trkpt>
      <trkpt lat="48.73376" lon="7.04998">
        <ele>249.97</ele>
        <time>2013-08-11T07:18:18Z</time>
      </trkpt>
      <trkpt lat="48.73361" lon="7.0498">
        <ele>250.35</ele>
        <time>2013-08-11T07:18:24Z</time>
      </trkpt>
      <trkpt lat="48.73345" lon="7.04963">
        <ele>250.57</ele>
        <time>2013-08-11T07:18:29Z</time>
      </trkpt>
      <trkpt lat="48.73328" lon="7.04945">
        <ele>250.85</ele>
        <time>2013-08-11T07:18:34Z</time>
      </trkpt>
      <trkpt lat="48.73311" lon="7.04925">
        <ele>251.03</ele>
        <time>2013-08-11T07:18:39Z</time>
      </trkpt>
      <trkpt lat="48.73293" lon="7.04906">
        <ele>250.78</ele>
        <time>2013-08-11T07:18:44Z</time>
      </trkpt>
      <trkpt lat="48.73277" lon="7.04888">
        <ele>250.86</ele>
        <time>2013-08-11T07:18:49Z</time>
      </trkpt>
      <trkpt lat="48.73263" lon="7.0487">
        <ele>251.35</ele>
        <time>2013-08-11T07:18:55Z</time>
      </trkpt>
      <trkpt lat="48.73243" lon="7.04868">
        <ele>251.92</ele>
        <time>2013-08-11T07:19:01Z</time>
      </trkpt>
      <trkpt lat="48.73224" lon="7.0487">
        <ele>251.63</ele>
        <time>2013-08-11T07:19:06Z</time>
      </trkpt>
      <trkpt lat="48.73203" lon="7.04864">
        <ele>251.63</ele>
        <time>2013-08-11T07:19:11Z</time>
      </trkpt>
      <trkpt lat="48.73187" lon="7.04845">
        <ele>251.44</ele>
        <time>2013-08-11T07:19:15Z</time>
      </trkpt>
      <trkpt lat="48.73172" lon="7.0482">
        <ele>251.57</ele>
        <time>2013-08-11T07:19:19Z</time>
      </trkpt>
      <trkpt lat="48.73158" lon="7.04797">
        <ele>251.47</ele>
        <time>2013-08-11T07:19:23Z</time>
      </trkpt>
      <trkpt lat="48.73145" lon="7.04775">
        <ele>251.19</ele>
        <time>2013-08-11T07:19:27Z</time>
      </trkpt>
      <trkpt lat="48.73132" lon="7.04752">
        <ele>250.09</ele>
        <time>2013-08-11T07:19:31Z</time>
      </trkpt>
      <trkpt lat="48.73118" lon="7.04728">
        <ele>249.63</ele>
        <time>2013-08-11T07:19:36Z</time>
      </trkpt>
      <trkpt lat="48.73107" lon="7.047">
        <ele>249.43</ele>
        <time>2013-08-11T07:19:41Z</time>
      </trkpt>
      <trkpt lat="48.731" lon="7.0467">
        <ele>248.98</ele>
        <time>2013-08-11T07:19:46Z</time>
      </trkpt>
      <trkpt lat="48.73089" lon="7.0464">
        <ele>248.85</ele>
        <time>2013-08-11T07:19:51Z</time>
      </trkpt>
      <trkpt lat="48.73077" lon="7.04612">
        <ele>248.79</ele>
        <time>2013-08-11T07:19:55Z</time>
      </trkpt>
      <trkpt lat="48.73068" lon="7.04586">
        <ele>248.7</ele>
        <time>2013-08-11T07:19:59Z</time>
      </trkpt>
      <trkpt lat="48.73059" lon="7.04561">
        <ele>248.65</ele>
        <time>2013-08-11T07:20:03Z</time>
      </trkpt>
      <trkpt lat="48.73047" lon="7.04541">
        <ele>248.95</ele>
        <time>2013-08-11T07:20:07Z</time>
      </trkpt>
      <trkpt lat="48.7303" lon="7.04521">
        <ele>249.58</ele>
        <time>2013-08-11T07:20:12Z</time>
      </trkpt>
      <trkpt lat="48.73011" lon="7.04506">
        <ele>251.97</ele>
        <time>2013-08-11T07:20:17Z</time>
      </trkpt>
      <trkpt lat="48.72996" lon="7.04488">
        <ele>253.05</ele>
        <time>2013-08-11T07:20:22Z</time>
      </trkpt>
      <trkpt lat="48.72986" lon="7.04459">
        <ele>254.28</ele>
        <time>2013-08-11T07:20:27Z</time>
      </trkpt>
      <trkpt lat="48.72975" lon="7.04433">
        <ele>254.72</ele>
        <time>2013-08-11T07:20:32Z</time>
      </trkpt>
      <trkpt lat="48.72963" lon="7.04407">
        <ele>255.88</ele>
        <time>2013-08-11T07:20:39Z</time>
      </trkpt>
      <trkpt lat="48.72946" lon="7.04392">
        <ele>256.29</ele>
        <time>2013-08-11T07:20:45Z</time>
      </trkpt>
      <trkpt lat="48.72928" lon="7.04379">
        <ele>255.83</ele>
        <time>2013-08-11T07:20:51Z</time>
      </trkpt>
      <trkpt lat="48.72912" lon="7.04363">
        <ele>255.44</ele>
        <time>2013-08-11T07:20:57Z</time>
      </trkpt>
      <trkpt lat="48.72894" lon="7.04349">
        <ele>254.59</ele>
        <time>2013-08-11T07:21:01Z</time>
      </trkpt>
      <trkpt lat="48.72881" lon="7.04327">
        <ele>253.5</ele>
        <time>2013-08-11T07:21:06Z</time>
      </trkpt>
      <trkpt lat="48.72867" lon="7.04308">
        <ele>252.84</ele>
        <time>2013-08-11T07:21:12Z</time>
      </trkpt>
      <trkpt lat="48.72863" lon="7.04281">
        <ele>252.74</ele>
        <time>2013-08-11T07:21:18Z</time>
      </trkpt>
      <trkpt lat="48.72861" lon="7.04251">
        <ele>252.28</ele>
        <time>2013-08-11T07:21:23Z</time>
      </trkpt>
      <trkpt lat="48.72851" lon="7.04227">
        <ele>252.37</ele>
        <time>2013-08-11T07:21:27Z</time>
      </trkpt>
      <trkpt lat="48.72837" lon="7.04201">
        <ele>252.59</ele>
        <time>2013-08-11T07:21:32Z</time>
      </trkpt>
      <trkpt lat="48.72831" lon="7.04174">
        <ele>252.31</ele>
        <time>2013-08-11T07:21:41Z</time>
      </trkpt>
      <trkpt lat="48.72835" lon="7.04143">
        <ele>252.01</ele>
        <time>2013-08-11T07:21:47Z</time>
      </trkpt>
      <trkpt lat="48.72843" lon="7.04117">
        <ele>251.22</ele>
        <time>2013-08-11T07:21:54Z</time>
      </trkpt>
      <trkpt lat="48.7286" lon="7.04105">
        <ele>250.49</ele>
        <time>2013-08-11T07:21:59Z</time>
      </trkpt>
      <trkpt lat="48.72875" lon="7.04081">
        <ele>250.29</ele>
        <time>2013-08-11T07:22:04Z</time>
      </trkpt>
      <trkpt lat="48.72878" lon="7.04051">
        <ele>250.03</ele>
        <time>2013-08-11T07:22:09Z</time>
      </trkpt>
      <trkpt lat="48.72867" lon="7.04025">
        <ele>249.99</ele>
        <time>2013-08-11T07:22:14Z</time>
      </trkpt>
      <trkpt lat="48.72849" lon="7.04008">
        <ele>248.41</ele>
        <time>2013-08-11T07:22:19Z</time>
      </trkpt>
      <trkpt lat="48.72841" lon="7.0398">
        <ele>247.48</ele>
        <time>2013-08-11T07:22:28Z</time>
      </trkpt>
      <trkpt lat="48.72837" lon="7.03952">
        <ele>248.21</ele>
        <time>2013-08-11T07:24:48Z</time>
      </trkpt>
      <trkpt lat="48.72834" lon="7.03924">
        <ele>248.59</ele>
        <time>2013-08-11T07:24:54Z</time>
      </trkpt>
      <trkpt lat="48.72818" lon="7.03903">
        <ele>248.44</ele>
        <time>2013-08-11T07:24:59Z</time>
      </trkpt>
      <trkpt lat="48.72803" lon="7.03879">
        <ele>248.38</ele>
        <time>2013-08-11T07:25:04Z</time>
      </trkpt>
      <trkpt lat="48.72791" lon="7.03856">
        <ele>248.99</ele>
        <time>2013-08-11T07:25:09Z</time>
      </trkpt>
      <trkpt lat="48.72786" lon="7.03827">
        <ele>249.42</ele>
        <time>2013-08-11T07:25:14Z</time>
      </trkpt>
      <trkpt lat="48.72788" lon="7.03797">
        <ele>249.63</ele>
        <time>2013-08-11T07:25:19Z</time>
      </trkpt>
      <trkpt lat="48.72797" lon="7.03773">
        <ele>249.44</ele>
        <time>2013-08-11T07:25:24Z</time>
      </trkpt>
      <trkpt lat="48.72808" lon="7.03751">
        <ele>248.72</ele>
        <time>2013-08-11T07:25:30Z</time>
      </trkpt>
      <trkpt lat="48.72823" lon="7.03735">
        <ele>248.75</ele>
        <time>2013-08-11T07:25:35Z</time>
      </trkpt>
      <trkpt lat="48.72822" lon="7.03704">
        <ele>248.87</ele>
        <time>2013-08-11T07:25:40Z</time>
      </trkpt>
      <trkpt lat="48.72814" lon="7.03674">
        <ele>248.76</ele>
        <time>2013-08-11T07:25:45Z</time>
      </trkpt>
      <trkpt lat="48.72807" lon="7.03647">
        <ele>248.9</ele>
        <time>2013-08-11T07:25:49Z</time>
      </trkpt>
      <trkpt lat="48.728" lon="7.03619">
        <ele>248.84</ele>
        <time>2013-08-11T07:25:53Z</time>
      </trkpt>
      <trkpt lat="48.72797" lon="7.03585">
        <ele>248.59</ele>
        <time>2013-08-11T07:25:58Z</time>
      </trkpt>
      <trkpt lat="48.72792" lon="7.03558">
        <ele>248.24</ele>
        <time>2013-08-11T07:26:02Z</time>
      </trkpt>
      <trkpt lat="48.72777" lon="7.03537">
        <ele>248.37</ele>
        <time>2013-08-11T07:26:06Z</time>
      </trkpt>
      <trkpt lat="48.72761" lon="7.03513">
        <ele>249.36</ele>
        <time>2013-08-11T07:26:10Z</time>
      </trkpt>
      <trkpt lat="48.72744" lon="7.03491">
        <ele>250.36</ele>
        <time>2013-08-11T07:26:14Z</time>
      </trkpt>
      <trkpt lat="48.72729" lon="7.0347">
        <ele>251.14</ele>
        <time>2013-08-11T07:26:18Z</time>
      </trkpt>
      <trkpt lat="48.72721" lon="7.03445">
        <ele>251.59</ele>
        <time>2013-08-11T07:26:22Z</time>
      </trkpt>
      <trkpt lat="48.7271" lon="7.03415">
        <ele>251.71</ele>
        <time>2013-08-11T07:26:27Z</time>
      </trkpt>
      <trkpt lat="48.72703" lon="7.03386">
        <ele>251.93</ele>
        <time>2013-08-11T07:26:32Z</time>
      </trkpt>
      <trkpt lat="48.72697" lon="7.03359">
        <ele>252.05</ele>
        <time>2013-08-11T07:26:36Z</time>
      </trkpt>
      <trkpt lat="48.72691" lon="7.03328">
        <ele>251.96</ele>
        <time>2013-08-11T07:26:40Z</time>
      </trkpt>
      <trkpt lat="48.72684" lon="7.03296">
        <ele>251.9</ele>
        <time>2013-08-11T07:26:44Z</time>
      </trkpt>
      <trkpt lat="48.72676" lon="7.03268">
        <ele>252.23</ele>
        <time>2013-08-11T07:26:48Z</time>
      </trkpt>
      <trkpt lat="48.72676" lon="7.0324">
        <ele>252.61</ele>
        <time>2013-08-11T07:26:53Z</time>
      </trkpt>
      <trkpt lat="48.72692" lon="7.03221">
        <ele>252.91</ele>
        <time>2013-08-11T07:26:58Z</time>
      </trkpt>
      <trkpt lat="48.72711" lon="7.03203">
        <ele>252.87</ele>
        <time>2013-08-11T07:27:02Z</time>
      </trkpt>
      <trkpt lat="48.72729" lon="7.03183">
        <ele>252.68</ele>
        <time>2013-08-11T07:27:06Z</time>
      </trkpt>
      <trkpt lat="48.72738" lon="7.03158">
        <ele>252.68</ele>
        <time>2013-08-11T07:27:10Z</time>
      </trkpt>
      <trkpt lat="48.7274" lon="7.03126">
        <ele>253.04</ele>
        <time>2013-08-11T07:27:14Z</time>
      </trkpt>
      <trkpt lat="48.72736" lon="7.03099">
        <ele>252.84</ele>
        <time>2013-08-11T07:27:19Z</time>
      </trkpt>
      <trkpt lat="48.7273" lon="7.03066">
        <ele>252.64</ele>
        <time>2013-08-11T07:27:24Z</time>
      </trkpt>
      <trkpt lat="48.72725" lon="7.03034">
        <ele>252.64</ele>
        <time>2013-08-11T07:27:28Z</time>
      </trkpt>
      <trkpt lat="48.72715" lon="7.03002">
        <ele>251.71</ele>
        <time>2013-08-11T07:27:32Z</time>
      </trkpt>
      <trkpt lat="48.72702" lon="7.02977">
        <ele>250.81</ele>
        <time>2013-08-11T07:27:35Z</time>
      </trkpt>
      <trkpt lat="48.72687" lon="7.02955">
        <ele>250.53</ele>
        <time>2013-08-11T07:27:38Z</time>
      </trkpt>
      <trkpt lat="48.72677" lon="7.02927">
        <ele>250.74</ele>
        <time>2013-08-11T07:27:43Z</time>
      </trkpt>
      <trkpt lat="48.72667" lon="7.029">
        <ele>250.69</ele>
        <time>2013-08-11T07:27:48Z</time>
      </trkpt>
      <trkpt lat="48.72648" lon="7.02892">
        <ele>251.08</ele>
        <time>2013-08-11T07:27:54Z</time>
      </trkpt>
      <trkpt lat="48.72632" lon="7.02907">
        <ele>252.4</ele>
        <time>2013-08-11T07:27:59Z</time>
      </trkpt>
      <trkpt lat="48.72615" lon="7.0292">
        <ele>253.3</ele>
        <time>2013-08-11T07:28:04Z</time>
      </trkpt>
      <trkpt lat="48.72597" lon="7.02934">
        <ele>253.43</ele>
        <time>2013-08-11T07:28:08Z</time>
      </trkpt>
      <trkpt lat="48.72579" lon="7.02947">
        <ele>253.16</ele>
        <time>2013-08-11T07:28:12Z</time>
      </trkpt>
      <trkpt lat="48.72566" lon="7.02969">
        <ele>252.91</ele>
        <time>2013-08-11T07:28:53Z</time>
      </trkpt>
      <trkpt lat="48.72585" lon="7.02961">
        <ele>252.04</ele>
        <time>2013-08-11T07:29:11Z</time>
      </trkpt>
      <trkpt lat="48.72601" lon="7.02948">
        <ele>251.29</ele>
        <time>2013-08-11T07:29:16Z</time>
      </trkpt>
      <trkpt lat="48.72616" lon="7.02929">
        <ele>250.39</ele>
        <time>2013-08-11T07:29:21Z</time>
      </trkpt>
      <trkpt lat="48.72634" lon="7.02915">
        <ele>250.21</ele>
        <time>2013-08-11T07:29:26Z</time>
      </trkpt>
      <trkpt lat="48.72646" lon="7.02892">
        <ele>251.38</ele>
        <time>2013-08-11T07:29:32Z</time>
      </trkpt>
      <trkpt lat="48.72663" lon="7.02871">
        <ele>251.65</ele>
        <time>2013-08-11T07:29:38Z</time>
      </trkpt>
      <trkpt lat="48.72678" lon="7.02854">
        <ele>252.21</ele>
        <time>2013-08-11T07:29:44Z</time>
      </trkpt>
      <trkpt lat="48.72694" lon="7.02839">
        <ele>252.51</ele>
        <time>2013-08-11T07:29:58Z</time>
      </trkpt>
      <trkpt lat="48.72686" lon="7.02812">
        <ele>250.37</ele>
        <time>2013-08-11T07:30:08Z</time>
      </trkpt>
      <trkpt lat="48.72675" lon="7.02783">
        <ele>249.77</ele>
        <time>2013-08-11T07:30:14Z</time>
      </trkpt>
      <trkpt lat="48.72663" lon="7.02758">
        <ele>250.04</ele>
        <time>2013-08-11T07:30:19Z</time>
      </trkpt>
      <trkpt lat="48.72651" lon="7.02735">
        <ele>249.95</ele>
        <time>2013-08-11T07:30:23Z</time>
      </trkpt>
      <trkpt lat="48.72641" lon="7.02712">
        <ele>250.03</ele>
        <time>2013-08-11T07:30:27Z</time>
      </trkpt>
      <trkpt lat="48.7263" lon="7.02687">
        <ele>249.99</ele>
        <time>2013-08-11T07:30:31Z</time>
      </trkpt>
      <trkpt lat="48.72618" lon="7.02662">
        <ele>249.94</ele>
        <time>2013-08-11T07:30:35Z</time>
      </trkpt>
      <trkpt lat="48.72605" lon="7.0264">
        <ele>250.04</ele>
        <time>2013-08-11T07:30:39Z</time>
      </trkpt>
      <trkpt lat="48.72592" lon="7.02615">
        <ele>250.31</ele>
        <time>2013-08-11T07:30:43Z</time>
      </trkpt>
      <trkpt lat="48.72579" lon="7.0259">
        <ele>250.75</ele>
        <time>2013-08-11T07:30:47Z</time>
      </trkpt>
      <trkpt lat="48.72567" lon="7.02568">
        <ele>251.18</ele>
        <time>2013-08-11T07:30:51Z</time>
      </trkpt>
      <trkpt lat="48.72553" lon="7.02547">
        <ele>251.33</ele>
        <time>2013-08-11T07:30:55Z</time>
      </trkpt>
      <trkpt lat="48.72538" lon="7.02525">
        <ele>251.75</ele>
        <time>2013-08-11T07:30:59Z</time>
      </trkpt>
      <trkpt lat="48.72525" lon="7.02502">
        <ele>252.21</ele>
        <time>2013-08-11T07:31:03Z</time>
      </trkpt>
      <trkpt lat="48.7251" lon="7.0248">
        <ele>252.95</ele>
        <time>2013-08-11T07:31:07Z</time>
      </trkpt>
      <trkpt lat="48.72495" lon="7.02459">
        <ele>253.28</ele>
        <time>2013-08-11T07:31:11Z</time>
      </trkpt>
      <trkpt lat="48.72481" lon="7.02439">
        <ele>253.73</ele>
        <time>2013-08-11T07:31:15Z</time>
      </trkpt>
      <trkpt lat="48.72466" lon="7.02418">
        <ele>254.44</ele>
        <time>2013-08-11T07:31:19Z</time>
      </trkpt>
      <trkpt lat="48.72452" lon="7.02399">
        <ele>254.65</ele>
        <time>2013-08-11T07:31:23Z</time>
      </trkpt>
      <trkpt lat="48.72438" lon="7.02381">
        <ele>254.7</ele>
        <time>2013-08-11T07:31:27Z</time>
      </trkpt>
      <trkpt lat="48.72425" lon="7.02363">
        <ele>254.7</ele>
        <time>2013-08-11T07:31:31Z</time>
      </trkpt>
      <trkpt lat="48.72411" lon="7.02346">
        <ele>254.74</ele>
        <time>2013-08-11T07:31:35Z</time>
      </trkpt>
      <trkpt lat="48.72396" lon="7.02329">
        <ele>254.58</ele>
        <time>2013-08-11T07:31:39Z</time>
      </trkpt>
      <trkpt lat="48.72378" lon="7.02309">
        <ele>254.18</ele>
        <time>2013-08-11T07:31:44Z</time>
      </trkpt>
      <trkpt lat="48.72364" lon="7.02291">
        <ele>253.87</ele>
        <time>2013-08-11T07:31:48Z</time>
      </trkpt>
      <trkpt lat="48.72348" lon="7.02273">
        <ele>253.55</ele>
        <time>2013-08-11T07:31:52Z</time>
      </trkpt>
      <trkpt lat="48.72331" lon="7.02256">
        <ele>253.19</ele>
        <time>2013-08-11T07:31:56Z</time>
      </trkpt>
      <trkpt lat="48.72314" lon="7.02237">
        <ele>253.12</ele>
        <time>2013-08-11T07:32:00Z</time>
      </trkpt>
      <trkpt lat="48.72297" lon="7.02219">
        <ele>253.22</ele>
        <time>2013-08-11T07:32:05Z</time>
      </trkpt>
      <trkpt lat="48.72281" lon="7.02203">
        <ele>252.9</ele>
        <time>2013-08-11T07:32:09Z</time>
      </trkpt>
      <trkpt lat="48.72262" lon="7.02187">
        <ele>252.54</ele>
        <time>2013-08-11T07:32:14Z</time>
      </trkpt>
      <trkpt lat="48.72244" lon="7.02174">
        <ele>252.13</ele>
        <time>2013-08-11T07:32:18Z</time>
      </trkpt>
      <trkpt lat="48.72227" lon="7.0216">
        <ele>251.69</ele>
        <time>2013-08-11T07:32:22Z</time>
      </trkpt>
      <trkpt lat="48.72209" lon="7.02146">
        <ele>251.31</ele>
        <time>2013-08-11T07:32:26Z</time>
      </trkpt>
      <trkpt lat="48.7219" lon="7.0213">
        <ele>251.16</ele>
        <time>2013-08-11T07:32:30Z</time>
      </trkpt>
      <trkpt lat="48.72173" lon="7.02115">
        <ele>251.05</ele>
        <time>2013-08-11T07:32:34Z</time>
      </trkpt>
      <trkpt lat="48.72155" lon="7.02103">
        <ele>251</ele>
        <time>2013-08-11T07:32:38Z</time>
      </trkpt>
      <trkpt lat="48.72137" lon="7.02089">
        <ele>251.66</ele>
        <time>2013-08-11T07:32:42Z</time>
      </trkpt>
      <trkpt lat="48.72118" lon="7.02076">
        <ele>252.19</ele>
        <time>2013-08-11T07:32:46Z</time>
      </trkpt>
      <trkpt lat="48.72099" lon="7.02063">
        <ele>252.54</ele>
        <time>2013-08-11T07:32:50Z</time>
      </trkpt>
      <trkpt lat="48.72079" lon="7.0205">
        <ele>252.62</ele>
        <time>2013-08-11T07:32:54Z</time>
      </trkpt>
      <trkpt lat="48.72058" lon="7.0204">
        <ele>252.56</ele>
        <time>2013-08-11T07:32:58Z</time>
      </trkpt>
      <trkpt lat="48.72037" lon="7.02029">
        <ele>252.52</ele>
        <time>2013-08-11T07:33:02Z</time>
      </trkpt>
      <trkpt lat="48.72014" lon="7.02018">
        <ele>252.73</ele>
        <time>2013-08-11T07:33:06Z</time>
      </trkpt>
      <trkpt lat="48.71992" lon="7.02009">
        <ele>252.93</ele>
        <time>2013-08-11T07:33:10Z</time>
      </trkpt>
      <trkpt lat="48.7197" lon="7.02">
        <ele>253.17</ele>
        <time>2013-08-11T07:33:14Z</time>
      </trkpt>
      <trkpt lat="48.71947" lon="7.01993">
        <ele>253.38</ele>
        <time>2013-08-11T07:33:18Z</time>
      </trkpt>
      <trkpt lat="48.71925" lon="7.01986">
        <ele>253.39</ele>
        <time>2013-08-11T07:33:22Z</time>
      </trkpt>
      <trkpt lat="48.71902" lon="7.0198">
        <ele>253.53</ele>
        <time>2013-08-11T07:33:26Z</time>
      </trkpt>
      <trkpt lat="48.71882" lon="7.01974">
        <ele>253.88</ele>
        <time>2013-08-11T07:33:30Z</time>
      </trkpt>
      <trkpt lat="48.71861" lon="7.01967">
        <ele>253.95</ele>
        <time>2013-08-11T07:33:35Z</time>
      </trkpt>
      <trkpt lat="48.71839" lon="7.01961">
        <ele>254.02</ele>
        <time>2013-08-11T07:33:40Z</time>
      </trkpt>
      <trkpt lat="48.71821" lon="7.01955">
        <ele>254.13</ele>
        <time>2013-08-11T07:33:45Z</time>
      </trkpt>
      <trkpt lat="48.71801" lon="7.0195">
        <ele>254.48</ele>
        <time>2013-08-11T07:33:52Z</time>
      </trkpt>
      <trkpt lat="48.71781" lon="7.01945">
        <ele>254.72</ele>
        <time>2013-08-11T07:35:21Z</time>
      </trkpt>
      <trkpt lat="48.71759" lon="7.0194">
        <ele>254.76</ele>
        <time>2013-08-11T07:35:26Z</time>
      </trkpt>
      <trkpt lat="48.71741" lon="7.01936">
        <ele>255</ele>
        <time>2013-08-11T07:35:30Z</time>
      </trkpt>
      <trkpt lat="48.7172" lon="7.01932">
        <ele>255.27</ele>
        <time>2013-08-11T07:35:34Z</time>
      </trkpt>
      <trkpt lat="48.71699" lon="7.01929">
        <ele>255.4</ele>
        <time>2013-08-11T07:35:38Z</time>
      </trkpt>
      <trkpt lat="48.71675" lon="7.01928">
        <ele>255.26</ele>
        <time>2013-08-11T07:35:42Z</time>
      </trkpt>
      <trkpt lat="48.71653" lon="7.01927">
        <ele>255.41</ele>
        <time>2013-08-11T07:35:46Z</time>
      </trkpt>
      <trkpt lat="48.7163" lon="7.01925">
        <ele>255.35</ele>
        <time>2013-08-11T07:35:50Z</time>
      </trkpt>
      <trkpt lat="48.7161" lon="7.01923">
        <ele>255.21</ele>
        <time>2013-08-11T07:35:54Z</time>
      </trkpt>
      <trkpt lat="48.7159" lon="7.01922">
        <ele>255.04</ele>
        <time>2013-08-11T07:35:58Z</time>
      </trkpt>
      <trkpt lat="48.71568" lon="7.01921">
        <ele>254.88</ele>
        <time>2013-08-11T07:36:02Z</time>
      </trkpt>
      <trkpt lat="48.71545" lon="7.01919">
        <ele>254.89</ele>
        <time>2013-08-11T07:36:06Z</time>
      </trkpt>
      <trkpt lat="48.71522" lon="7.01917">
        <ele>254.72</ele>
        <time>2013-08-11T07:36:10Z</time>
      </trkpt>
      <trkpt lat="48.71499" lon="7.01918">
        <ele>254.52</ele>
        <time>2013-08-11T07:36:14Z</time>
      </trkpt>
      <trkpt lat="48.71476" lon="7.01917">
        <ele>254.32</ele>
        <time>2013-08-11T07:36:18Z</time>
      </trkpt>
      <trkpt lat="48.71453" lon="7.01915">
        <ele>254.2</ele>
        <time>2013-08-11T07:36:22Z</time>
      </trkpt>
      <trkpt lat="48.71433" lon="7.01913">
        <ele>253.98</ele>
        <time>2013-08-11T07:36:26Z</time>
      </trkpt>
      <trkpt lat="48.71414" lon="7.01911">
        <ele>253.98</ele>
        <time>2013-08-11T07:36:30Z</time>
      </trkpt>
      <trkpt lat="48.71392" lon="7.01911">
        <ele>253.86</ele>
        <time>2013-08-11T07:36:34Z</time>
      </trkpt>
      <trkpt lat="48.71369" lon="7.0191">
        <ele>253.79</ele>
        <time>2013-08-11T07:36:38Z</time>
      </trkpt>
      <trkpt lat="48.71348" lon="7.01908">
        <ele>253.65</ele>
        <time>2013-08-11T07:36:42Z</time>
      </trkpt>
      <trkpt lat="48.71327" lon="7.01907">
        <ele>253.63</ele>
        <time>2013-08-11T07:36:46Z</time>
      </trkpt>
      <trkpt lat="48.71305" lon="7.01906">
        <ele>253.63</ele>
        <time>2013-08-11T07:36:50Z</time>
      </trkpt>
      <trkpt lat="48.71283" lon="7.01904">
        <ele>253.73</ele>
        <time>2013-08-11T07:36:54Z</time>
      </trkpt>
      <trkpt lat="48.71261" lon="7.01903">
        <ele>253.78</ele>
        <time>2013-08-11T07:36:58Z</time>
      </trkpt>
      <trkpt lat="48.7124" lon="7.01901">
        <ele>253.79</ele>
        <time>2013-08-11T07:37:02Z</time>
      </trkpt>
      <trkpt lat="48.71219" lon="7.01899">
        <ele>254.03</ele>
        <time>2013-08-11T07:37:06Z</time>
      </trkpt>
      <trkpt lat="48.71198" lon="7.01898">
        <ele>253.93</ele>
        <time>2013-08-11T07:37:10Z</time>
      </trkpt>
      <trkpt lat="48.71178" lon="7.01896">
        <ele>253.64</ele>
        <time>2013-08-11T07:37:14Z</time>
      </trkpt>
      <trkpt lat="48.71158" lon="7.01893">
        <ele>253.4</ele>
        <time>2013-08-11T07:37:18Z</time>
      </trkpt>
      <trkpt lat="48.71137" lon="7.01891">
        <ele>253.2</ele>
        <time>2013-08-11T07:37:22Z</time>
      </trkpt>
      <trkpt lat="48.71115" lon="7.01889">
        <ele>252.95</ele>
        <time>2013-08-11T07:37:26Z</time>
      </trkpt>
      <trkpt lat="48.71092" lon="7.01889">
        <ele>252.94</ele>
        <time>2013-08-11T07:37:30Z</time>
      </trkpt>
      <trkpt lat="48.7107" lon="7.01888">
        <ele>252.79</ele>
        <time>2013-08-11T07:37:34Z</time>
      </trkpt>
      <trkpt lat="48.71049" lon="7.01887">
        <ele>252.62</ele>
        <time>2013-08-11T07:37:38Z</time>
      </trkpt>
      <trkpt lat="48.71028" lon="7.01887">
        <ele>252.78</ele>
        <time>2013-08-11T07:37:42Z</time>
      </trkpt>
      <trkpt lat="48.71007" lon="7.0189">
        <ele>252.99</ele>
        <time>2013-08-11T07:37:46Z</time>
      </trkpt>
      <trkpt lat="48.70988" lon="7.01897">
        <ele>253.38</ele>
        <time>2013-08-11T07:37:50Z</time>
      </trkpt>
      <trkpt lat="48.70968" lon="7.01907">
        <ele>253.89</ele>
        <time>2013-08-11T07:37:54Z</time>
      </trkpt>
      <trkpt lat="48.7095" lon="7.01922">
        <ele>254.28</ele>
        <time>2013-08-11T07:37:58Z</time>
      </trkpt>
      <trkpt lat="48.70932" lon="7.0194">
        <ele>254.17</ele>
        <time>2013-08-11T07:38:02Z</time>
      </trkpt>
      <trkpt lat="48.70916" lon="7.01956">
        <ele>254.13</ele>
        <time>2013-08-11T07:38:06Z</time>
      </trkpt>
      <trkpt lat="48.70898" lon="7.01974">
        <ele>254.11</ele>
        <time>2013-08-11T07:38:11Z</time>
      </trkpt>
      <trkpt lat="48.70882" lon="7.0199">
        <ele>253.89</ele>
        <time>2013-08-11T07:38:15Z</time>
      </trkpt>
      <trkpt lat="48.70866" lon="7.02006">
        <ele>253.75</ele>
        <time>2013-08-11T07:38:19Z</time>
      </trkpt>
      <trkpt lat="48.70848" lon="7.02024">
        <ele>253.74</ele>
        <time>2013-08-11T07:38:24Z</time>
      </trkpt>
      <trkpt lat="48.70829" lon="7.02029">
        <ele>253.73</ele>
        <time>2013-08-11T07:38:29Z</time>
      </trkpt>
      <trkpt lat="48.70811" lon="7.02046">
        <ele>253.92</ele>
        <time>2013-08-11T07:38:34Z</time>
      </trkpt>
      <trkpt lat="48.70795" lon="7.02062">
        <ele>253.94</ele>
        <time>2013-08-11T07:38:38Z</time>
      </trkpt>
      <trkpt lat="48.70782" lon="7.02081">
        <ele>253.84</ele>
        <time>2013-08-11T07:38:41Z</time>
      </trkpt>
      <trkpt lat="48.70768" lon="7.02104">
        <ele>253.94</ele>
        <time>2013-08-11T07:38:45Z</time>
      </trkpt>
      <trkpt lat="48.7075" lon="7.02122">
        <ele>254.38</ele>
        <time>2013-08-11T07:38:49Z</time>
      </trkpt>
      <trkpt lat="48.70734" lon="7.02139">
        <ele>254.64</ele>
        <time>2013-08-11T07:38:53Z</time>
      </trkpt>
      <trkpt lat="48.70718" lon="7.02154">
        <ele>254.84</ele>
        <time>2013-08-11T07:38:57Z</time>
      </trkpt>
      <trkpt lat="48.70701" lon="7.0217">
        <ele>254.99</ele>
        <time>2013-08-11T07:39:01Z</time>
      </trkpt>
      <trkpt lat="48.70684" lon="7.02183">
        <ele>254.91</ele>
        <time>2013-08-11T07:39:05Z</time>
      </trkpt>
      <trkpt lat="48.70664" lon="7.02198">
        <ele>254.76</ele>
        <time>2013-08-11T07:39:09Z</time>
      </trkpt>
      <trkpt lat="48.70644" lon="7.02211">
        <ele>254.77</ele>
        <time>2013-08-11T07:39:13Z</time>
      </trkpt>
      <trkpt lat="48.70624" lon="7.02223">
        <ele>254.79</ele>
        <time>2013-08-11T07:39:17Z</time>
      </trkpt>
      <trkpt lat="48.70603" lon="7.02234">
        <ele>254.71</ele>
        <time>2013-08-11T07:39:21Z</time>
      </trkpt>
      <trkpt lat="48.70581" lon="7.02244">
        <ele>254.48</ele>
        <time>2013-08-11T07:39:25Z</time>
      </trkpt>
      <trkpt lat="48.7056" lon="7.02254">
        <ele>254.63</ele>
        <time>2013-08-11T07:39:29Z</time>
      </trkpt>
      <trkpt lat="48.70537" lon="7.02263">
        <ele>254.86</ele>
        <time>2013-08-11T07:39:33Z</time>
      </trkpt>
      <trkpt lat="48.70515" lon="7.02272">
        <ele>255.18</ele>
        <time>2013-08-11T07:39:37Z</time>
      </trkpt>
      <trkpt lat="48.70493" lon="7.0228">
        <ele>255.47</ele>
        <time>2013-08-11T07:39:41Z</time>
      </trkpt>
      <trkpt lat="48.70472" lon="7.02291">
        <ele>255.45</ele>
        <time>2013-08-11T07:39:45Z</time>
      </trkpt>
      <trkpt lat="48.70452" lon="7.02305">
        <ele>254.95</ele>
        <time>2013-08-11T07:39:49Z</time>
      </trkpt>
      <trkpt lat="48.70432" lon="7.02316">
        <ele>254.2</ele>
        <time>2013-08-11T07:39:53Z</time>
      </trkpt>
      <trkpt lat="48.70412" lon="7.02317">
        <ele>253.95</ele>
        <time>2013-08-11T07:39:59Z</time>
      </trkpt>
      <trkpt lat="48.70394" lon="7.02329">
        <ele>254.34</ele>
        <time>2013-08-11T07:40:05Z</time>
      </trkpt>
      <trkpt lat="48.70377" lon="7.02336">
        <ele>254.6</ele>
        <time>2013-08-11T07:40:10Z</time>
      </trkpt>
      <trkpt lat="48.70359" lon="7.02345">
        <ele>254.24</ele>
        <time>2013-08-11T07:40:15Z</time>
      </trkpt>
      <trkpt lat="48.70338" lon="7.02355">
        <ele>254.2</ele>
        <time>2013-08-11T07:40:20Z</time>
      </trkpt>
      <trkpt lat="48.70319" lon="7.02361">
        <ele>254.31</ele>
        <time>2013-08-11T07:40:24Z</time>
      </trkpt>
      <trkpt lat="48.703" lon="7.0237">
        <ele>254.65</ele>
        <time>2013-08-11T07:40:28Z</time>
      </trkpt>
      <trkpt lat="48.70274" lon="7.02381">
        <ele>254.69</ele>
        <time>2013-08-11T07:40:33Z</time>
      </trkpt>
      <trkpt lat="48.70257" lon="7.02389">
        <ele>254.36</ele>
        <time>2013-08-11T07:40:37Z</time>
      </trkpt>
      <trkpt lat="48.70239" lon="7.02398">
        <ele>254</ele>
        <time>2013-08-11T07:40:41Z</time>
      </trkpt>
      <trkpt lat="48.70222" lon="7.02406">
        <ele>254.14</ele>
        <time>2013-08-11T07:40:45Z</time>
      </trkpt>
      <trkpt lat="48.70203" lon="7.02413">
        <ele>255.47</ele>
        <time>2013-08-11T07:40:49Z</time>
      </trkpt>
      <trkpt lat="48.70184" lon="7.02419">
        <ele>257.87</ele>
        <time>2013-08-11T07:40:53Z</time>
      </trkpt>
      <trkpt lat="48.70164" lon="7.02426">
        <ele>259.41</ele>
        <time>2013-08-11T07:40:57Z</time>
      </trkpt>
      <trkpt lat="48.70145" lon="7.02433">
        <ele>260.08</ele>
        <time>2013-08-11T07:41:01Z</time>
      </trkpt>
      <trkpt lat="48.70125" lon="7.02439">
        <ele>260.22</ele>
        <time>2013-08-11T07:41:05Z</time>
      </trkpt>
      <trkpt lat="48.70103" lon="7.02445">
        <ele>260.07</ele>
        <time>2013-08-11T07:41:09Z</time>
      </trkpt>
      <trkpt lat="48.70081" lon="7.02451">
        <ele>259.78</ele>
        <time>2013-08-11T07:41:13Z</time>
      </trkpt>
      <trkpt lat="48.70059" lon="7.02457">
        <ele>259.61</ele>
        <time>2013-08-11T07:41:17Z</time>
      </trkpt>
      <trkpt lat="48.70037" lon="7.02462">
        <ele>259.5</ele>
        <time>2013-08-11T07:41:21Z</time>
      </trkpt>
      <trkpt lat="48.70016" lon="7.02468">
        <ele>259.55</ele>
        <time>2013-08-11T07:41:25Z</time>
      </trkpt>
      <trkpt lat="48.69994" lon="7.02475">
        <ele>259.84</ele>
        <time>2013-08-11T07:41:29Z</time>
      </trkpt>
      <trkpt lat="48.69973" lon="7.0248">
        <ele>260.08</ele>
        <time>2013-08-11T07:41:33Z</time>
      </trkpt>
      <trkpt lat="48.69953" lon="7.02485">
        <ele>260.27</ele>
        <time>2013-08-11T07:41:37Z</time>
      </trkpt>
      <trkpt lat="48.69931" lon="7.02491">
        <ele>260.38</ele>
        <time>2013-08-11T07:41:41Z</time>
      </trkpt>
      <trkpt lat="48.69909" lon="7.025">
        <ele>260.62</ele>
        <time>2013-08-11T07:41:45Z</time>
      </trkpt>
      <trkpt lat="48.69887" lon="7.02503">
        <ele>260.84</ele>
        <time>2013-08-11T07:41:49Z</time>
      </trkpt>
      <trkpt lat="48.69865" lon="7.02508">
        <ele>260.43</ele>
        <time>2013-08-11T07:41:53Z</time>
      </trkpt>
      <trkpt lat="48.69843" lon="7.02514">
        <ele>260.07</ele>
        <time>2013-08-11T07:41:57Z</time>
      </trkpt>
      <trkpt lat="48.69823" lon="7.02518">
        <ele>259.82</ele>
        <time>2013-08-11T07:42:01Z</time>
      </trkpt>
      <trkpt lat="48.69803" lon="7.02525">
        <ele>260.1</ele>
        <time>2013-08-11T07:42:06Z</time>
      </trkpt>
      <trkpt lat="48.69783" lon="7.02534">
        <ele>260.19</ele>
        <time>2013-08-11T07:42:10Z</time>
      </trkpt>
      <trkpt lat="48.69763" lon="7.02539">
        <ele>260.47</ele>
        <time>2013-08-11T07:42:14Z</time>
      </trkpt>
      <trkpt lat="48.69743" lon="7.02546">
        <ele>260.79</ele>
        <time>2013-08-11T07:42:18Z</time>
      </trkpt>
      <trkpt lat="48.69722" lon="7.02558">
        <ele>260.84</ele>
        <time>2013-08-11T07:42:23Z</time>
      </trkpt>
      <trkpt lat="48.69704" lon="7.02571">
        <ele>260.87</ele>
        <time>2013-08-11T07:42:27Z</time>
      </trkpt>
      <trkpt lat="48.69685" lon="7.02588">
        <ele>261.01</ele>
        <time>2013-08-11T07:42:32Z</time>
      </trkpt>
      <trkpt lat="48.69667" lon="7.02604">
        <ele>261</ele>
        <time>2013-08-11T07:42:37Z</time>
      </trkpt>
      <trkpt lat="48.69649" lon="7.02621">
        <ele>260.79</ele>
        <time>2013-08-11T07:42:42Z</time>
      </trkpt>
      <trkpt lat="48.69634" lon="7.02637">
        <ele>260.77</ele>
        <time>2013-08-11T07:42:46Z</time>
      </trkpt>
      <trkpt lat="48.69621" lon="7.02656">
        <ele>261</ele>
        <time>2013-08-11T07:42:50Z</time>
      </trkpt>
      <trkpt lat="48.69607" lon="7.02682">
        <ele>261.48</ele>
        <time>2013-08-11T07:42:55Z</time>
      </trkpt>
      <trkpt lat="48.69595" lon="7.02704">
        <ele>261.8</ele>
        <time>2013-08-11T07:42:59Z</time>
      </trkpt>
      <trkpt lat="48.69585" lon="7.02729">
        <ele>262.14</ele>
        <time>2013-08-11T07:43:03Z</time>
      </trkpt>
      <trkpt lat="48.69577" lon="7.02757">
        <ele>262.48</ele>
        <time>2013-08-11T07:43:07Z</time>
      </trkpt>
      <trkpt lat="48.69568" lon="7.02784">
        <ele>262.61</ele>
        <time>2013-08-11T07:43:11Z</time>
      </trkpt>
      <trkpt lat="48.69561" lon="7.0281">
        <ele>262.6</ele>
        <time>2013-08-11T07:43:15Z</time>
      </trkpt>
      <trkpt lat="48.69552" lon="7.02838">
        <ele>262.84</ele>
        <time>2013-08-11T07:43:20Z</time>
      </trkpt>
      <trkpt lat="48.69544" lon="7.02866">
        <ele>263.29</ele>
        <time>2013-08-11T07:43:24Z</time>
      </trkpt>
      <trkpt lat="48.69535" lon="7.02894">
        <ele>263.54</ele>
        <time>2013-08-11T07:43:28Z</time>
      </trkpt>
      <trkpt lat="48.69527" lon="7.0292">
        <ele>263.71</ele>
        <time>2013-08-11T07:43:32Z</time>
      </trkpt>
      <trkpt lat="48.6952" lon="7.02947">
        <ele>263.85</ele>
        <time>2013-08-11T07:43:36Z</time>
      </trkpt>
      <trkpt lat="48.69511" lon="7.02978">
        <ele>264.02</ele>
        <time>2013-08-11T07:43:41Z</time>
      </trkpt>
      <trkpt lat="48.69503" lon="7.03005">
        <ele>264.46</ele>
        <time>2013-08-11T07:43:45Z</time>
      </trkpt>
      <trkpt lat="48.69497" lon="7.03034">
        <ele>264.94</ele>
        <time>2013-08-11T07:43:50Z</time>
      </trkpt>
      <trkpt lat="48.69488" lon="7.03063">
        <ele>265.7</ele>
        <time>2013-08-11T07:43:54Z</time>
      </trkpt>
      <trkpt lat="48.69479" lon="7.03093">
        <ele>266.23</ele>
        <time>2013-08-11T07:43:58Z</time>
      </trkpt>
      <trkpt lat="48.69469" lon="7.03122">
        <ele>266.52</ele>
        <time>2013-08-11T07:44:02Z</time>
      </trkpt>
      <trkpt lat="48.6946" lon="7.03151">
        <ele>267.4</ele>
        <time>2013-08-11T07:44:06Z</time>
      </trkpt>
      <trkpt lat="48.69451" lon="7.03179">
        <ele>267.77</ele>
        <time>2013-08-11T07:44:10Z</time>
      </trkpt>
      <trkpt lat="48.69444" lon="7.03204">
        <ele>267.59</ele>
        <time>2013-08-11T07:44:14Z</time>
      </trkpt>
      <trkpt lat="48.69436" lon="7.03232">
        <ele>267.44</ele>
        <time>2013-08-11T07:44:18Z</time>
      </trkpt>
      <trkpt lat="48.69429" lon="7.0326">
        <ele>267.67</ele>
        <time>2013-08-11T07:44:22Z</time>
      </trkpt>
      <trkpt lat="48.6942" lon="7.03288">
        <ele>267.97</ele>
        <time>2013-08-11T07:44:26Z</time>
      </trkpt>
      <trkpt lat="48.69412" lon="7.03315">
        <ele>268.16</ele>
        <time>2013-08-11T07:44:30Z</time>
      </trkpt>
      <trkpt lat="48.69404" lon="7.03343">
        <ele>268.22</ele>
        <time>2013-08-11T07:44:34Z</time>
      </trkpt>
      <trkpt lat="48.69396" lon="7.0337">
        <ele>268.43</ele>
        <time>2013-08-11T07:44:38Z</time>
      </trkpt>
      <trkpt lat="48.69389" lon="7.03398">
        <ele>268.82</ele>
        <time>2013-08-11T07:44:42Z</time>
      </trkpt>
      <trkpt lat="48.69383" lon="7.03426">
        <ele>269.05</ele>
        <time>2013-08-11T07:44:46Z</time>
      </trkpt>
      <trkpt lat="48.69376" lon="7.03455">
        <ele>269.2</ele>
        <time>2013-08-11T07:44:50Z</time>
      </trkpt>
      <trkpt lat="48.69369" lon="7.03485">
        <ele>269.15</ele>
        <time>2013-08-11T07:44:54Z</time>
      </trkpt>
      <trkpt lat="48.69361" lon="7.03512">
        <ele>269.17</ele>
        <time>2013-08-11T07:44:58Z</time>
      </trkpt>
      <trkpt lat="48.69354" lon="7.03541">
        <ele>269.25</ele>
        <time>2013-08-11T07:45:02Z</time>
      </trkpt>
      <trkpt lat="48.69346" lon="7.0357">
        <ele>269.58</ele>
        <time>2013-08-11T07:45:06Z</time>
      </trkpt>
      <trkpt lat="48.69339" lon="7.03599">
        <ele>269.74</ele>
        <time>2013-08-11T07:45:10Z</time>
      </trkpt>
      <trkpt lat="48.69331" lon="7.03629">
        <ele>269.91</ele>
        <time>2013-08-11T07:45:14Z</time>
      </trkpt>
      <trkpt lat="48.69324" lon="7.0366">
        <ele>269.95</ele>
        <time>2013-08-11T07:45:18Z</time>
      </trkpt>
      <trkpt lat="48.69316" lon="7.03692">
        <ele>270.04</ele>
        <time>2013-08-11T07:45:22Z</time>
      </trkpt>
      <trkpt lat="48.69309" lon="7.03724">
        <ele>270.17</ele>
        <time>2013-08-11T07:45:26Z</time>
      </trkpt>
      <trkpt lat="48.693" lon="7.03754">
        <ele>270.23</ele>
        <time>2013-08-11T07:45:30Z</time>
      </trkpt>
      <trkpt lat="48.69294" lon="7.03786">
        <ele>270.22</ele>
        <time>2013-08-11T07:45:34Z</time>
      </trkpt>
      <trkpt lat="48.69287" lon="7.03818">
        <ele>269.99</ele>
        <time>2013-08-11T07:45:38Z</time>
      </trkpt>
      <trkpt lat="48.69282" lon="7.03849">
        <ele>269.87</ele>
        <time>2013-08-11T07:45:42Z</time>
      </trkpt>
      <trkpt lat="48.69276" lon="7.03879">
        <ele>269.9</ele>
        <time>2013-08-11T07:45:46Z</time>
      </trkpt>
      <trkpt lat="48.69267" lon="7.03909">
        <ele>270.16</ele>
        <time>2013-08-11T07:45:51Z</time>
      </trkpt>
      <trkpt lat="48.69256" lon="7.03931">
        <ele>270.87</ele>
        <time>2013-08-11T07:45:58Z</time>
      </trkpt>
      <trkpt lat="48.69264" lon="7.03905">
        <ele>275.98</ele>
        <time>2013-08-11T07:47:45Z</time>
      </trkpt>
      <trkpt lat="48.69274" lon="7.03878">
        <ele>275.5</ele>
        <time>2013-08-11T07:47:50Z</time>
      </trkpt>
      <trkpt lat="48.6928" lon="7.03848">
        <ele>274.88</ele>
        <time>2013-08-11T07:47:55Z</time>
      </trkpt>
      <trkpt lat="48.69287" lon="7.03819">
        <ele>274.68</ele>
        <time>2013-08-11T07:48:01Z</time>
      </trkpt>
      <trkpt lat="48.69295" lon="7.0379">
        <ele>274.08</ele>
        <time>2013-08-11T07:48:05Z</time>
      </trkpt>
      <trkpt lat="48.69301" lon="7.03761">
        <ele>273.89</ele>
        <time>2013-08-11T07:48:09Z</time>
      </trkpt>
      <trkpt lat="48.69307" lon="7.03735">
        <ele>273.74</ele>
        <time>2013-08-11T07:48:12Z</time>
      </trkpt>
      <trkpt lat="48.69315" lon="7.03703">
        <ele>274.3</ele>
        <time>2013-08-11T07:48:16Z</time>
      </trkpt>
      <trkpt lat="48.69321" lon="7.03675">
        <ele>275.02</ele>
        <time>2013-08-11T07:48:20Z</time>
      </trkpt>
      <trkpt lat="48.69326" lon="7.03647">
        <ele>275.47</ele>
        <time>2013-08-11T07:48:24Z</time>
      </trkpt>
      <trkpt lat="48.69333" lon="7.0362">
        <ele>274.9</ele>
        <time>2013-08-11T07:48:28Z</time>
      </trkpt>
      <trkpt lat="48.69339" lon="7.03593">
        <ele>273.95</ele>
        <time>2013-08-11T07:48:32Z</time>
      </trkpt>
      <trkpt lat="48.69346" lon="7.03565">
        <ele>273.67</ele>
        <time>2013-08-11T07:48:36Z</time>
      </trkpt>
      <trkpt lat="48.69355" lon="7.03536">
        <ele>273.55</ele>
        <time>2013-08-11T07:48:40Z</time>
      </trkpt>
      <trkpt lat="48.69362" lon="7.03507">
        <ele>273.15</ele>
        <time>2013-08-11T07:48:44Z</time>
      </trkpt>
      <trkpt lat="48.6937" lon="7.03479">
        <ele>272.67</ele>
        <time>2013-08-11T07:48:48Z</time>
      </trkpt>
      <trkpt lat="48.69377" lon="7.03451">
        <ele>272.51</ele>
        <time>2013-08-11T07:48:52Z</time>
      </trkpt>
      <trkpt lat="48.69384" lon="7.03421">
        <ele>272.53</ele>
        <time>2013-08-11T07:48:56Z</time>
      </trkpt>
      <trkpt lat="48.69392" lon="7.03392">
        <ele>272.36</ele>
        <time>2013-08-11T07:49:00Z</time>
      </trkpt>
      <trkpt lat="48.69401" lon="7.03362">
        <ele>272.04</ele>
        <time>2013-08-11T07:49:04Z</time>
      </trkpt>
      <trkpt lat="48.69409" lon="7.03332">
        <ele>271.7</ele>
        <time>2013-08-11T07:49:08Z</time>
      </trkpt>
      <trkpt lat="48.69417" lon="7.03302">
        <ele>271.64</ele>
        <time>2013-08-11T07:49:12Z</time>
      </trkpt>
      <trkpt lat="48.69425" lon="7.03274">
        <ele>271.78</ele>
        <time>2013-08-11T07:49:16Z</time>
      </trkpt>
      <trkpt lat="48.69434" lon="7.03245">
        <ele>271.92</ele>
        <time>2013-08-11T07:49:20Z</time>
      </trkpt>
      <trkpt lat="48.69441" lon="7.0322">
        <ele>272.08</ele>
        <time>2013-08-11T07:49:23Z</time>
      </trkpt>
      <trkpt lat="48.69451" lon="7.0319">
        <ele>272.29</ele>
        <time>2013-08-11T07:49:28Z</time>
      </trkpt>
      <trkpt lat="48.69459" lon="7.0316">
        <ele>272.25</ele>
        <time>2013-08-11T07:49:32Z</time>
      </trkpt>
      <trkpt lat="48.69466" lon="7.03132">
        <ele>272.24</ele>
        <time>2013-08-11T07:49:35Z</time>
      </trkpt>
      <trkpt lat="48.69473" lon="7.03101">
        <ele>272.29</ele>
        <time>2013-08-11T07:49:38Z</time>
      </trkpt>
      <trkpt lat="48.69481" lon="7.0307">
        <ele>272.37</ele>
        <time>2013-08-11T07:49:41Z</time>
      </trkpt>
      <trkpt lat="48.6949" lon="7.03045">
        <ele>272.48</ele>
        <time>2013-08-11T07:49:44Z</time>
      </trkpt>
      <trkpt lat="48.69502" lon="7.03011">
        <ele>272.24</ele>
        <time>2013-08-11T07:49:48Z</time>
      </trkpt>
      <trkpt lat="48.69513" lon="7.0298">
        <ele>271.37</ele>
        <time>2013-08-11T07:49:51Z</time>
      </trkpt>
      <trkpt lat="48.69521" lon="7.0295">
        <ele>270.84</ele>
        <time>2013-08-11T07:49:54Z</time>
      </trkpt>
      <trkpt lat="48.69531" lon="7.02921">
        <ele>270.39</ele>
        <time>2013-08-11T07:49:57Z</time>
      </trkpt>
      <trkpt lat="48.6954" lon="7.02894">
        <ele>270.31</ele>
        <time>2013-08-11T07:50:00Z</time>
      </trkpt>
      <trkpt lat="48.69548" lon="7.02863">
        <ele>270.66</ele>
        <time>2013-08-11T07:50:03Z</time>
      </trkpt>
      <trkpt lat="48.69557" lon="7.02833">
        <ele>270.97</ele>
        <time>2013-08-11T07:50:06Z</time>
      </trkpt>
      <trkpt lat="48.69565" lon="7.02806">
        <ele>270.76</ele>
        <time>2013-08-11T07:50:09Z</time>
      </trkpt>
      <trkpt lat="48.69574" lon="7.02781">
        <ele>271</ele>
        <time>2013-08-11T07:50:11Z</time>
      </trkpt>
      <trkpt lat="48.69585" lon="7.0275">
        <ele>271.32</ele>
        <time>2013-08-11T07:50:14Z</time>
      </trkpt>
      <trkpt lat="48.69594" lon="7.02727">
        <ele>272.08</ele>
        <time>2013-08-11T07:50:17Z</time>
      </trkpt>
      <trkpt lat="48.69605" lon="7.02701">
        <ele>272.41</ele>
        <time>2013-08-11T07:50:20Z</time>
      </trkpt>
      <trkpt lat="48.69616" lon="7.0268">
        <ele>272.94</ele>
        <time>2013-08-11T07:50:23Z</time>
      </trkpt>
      <trkpt lat="48.69633" lon="7.02657">
        <ele>273.44</ele>
        <time>2013-08-11T07:50:27Z</time>
      </trkpt>
      <trkpt lat="48.6965" lon="7.02638">
        <ele>273.36</ele>
        <time>2013-08-11T07:50:30Z</time>
      </trkpt>
      <trkpt lat="48.69665" lon="7.0262">
        <ele>273.28</ele>
        <time>2013-08-11T07:50:33Z</time>
      </trkpt>
      <trkpt lat="48.69684" lon="7.02599">
        <ele>271.79</ele>
        <time>2013-08-11T07:50:36Z</time>
      </trkpt>
      <trkpt lat="48.69703" lon="7.02583">
        <ele>269.68</ele>
        <time>2013-08-11T07:50:39Z</time>
      </trkpt>
      <trkpt lat="48.69718" lon="7.02565">
        <ele>266.7</ele>
        <time>2013-08-11T07:50:43Z</time>
      </trkpt>
      <trkpt lat="48.69699" lon="7.02555">
        <ele>265.41</ele>
        <time>2013-08-11T07:50:47Z</time>
      </trkpt>
      <trkpt lat="48.69679" lon="7.0255">
        <ele>266.74</ele>
        <time>2013-08-11T07:50:51Z</time>
      </trkpt>
      <trkpt lat="48.69659" lon="7.02542">
        <ele>268.46</ele>
        <time>2013-08-11T07:50:55Z</time>
      </trkpt>
      <trkpt lat="48.6964" lon="7.02536">
        <ele>269.98</ele>
        <time>2013-08-11T07:50:59Z</time>
      </trkpt>
      <trkpt lat="48.69622" lon="7.02526">
        <ele>271.1</ele>
        <time>2013-08-11T07:51:03Z</time>
      </trkpt>
      <trkpt lat="48.69603" lon="7.02518">
        <ele>271.37</ele>
        <time>2013-08-11T07:51:08Z</time>
      </trkpt>
      <trkpt lat="48.69583" lon="7.02501">
        <ele>269.91</ele>
        <time>2013-08-11T07:51:12Z</time>
      </trkpt>
      <trkpt lat="48.69566" lon="7.02484">
        <ele>269.16</ele>
        <time>2013-08-11T07:51:16Z</time>
      </trkpt>
      <trkpt lat="48.69548" lon="7.02467">
        <ele>268.14</ele>
        <time>2013-08-11T07:51:20Z</time>
      </trkpt>
      <trkpt lat="48.6953" lon="7.02448">
        <ele>266.55</ele>
        <time>2013-08-11T07:51:24Z</time>
      </trkpt>
      <trkpt lat="48.69514" lon="7.02433">
        <ele>264.97</ele>
        <time>2013-08-11T07:51:28Z</time>
      </trkpt>
      <trkpt lat="48.69498" lon="7.02415">
        <ele>264</ele>
        <time>2013-08-11T07:51:32Z</time>
      </trkpt>
      <trkpt lat="48.69481" lon="7.02396">
        <ele>263.82</ele>
        <time>2013-08-11T07:51:36Z</time>
      </trkpt>
      <trkpt lat="48.69464" lon="7.02379">
        <ele>263.67</ele>
        <time>2013-08-11T07:51:40Z</time>
      </trkpt>
      <trkpt lat="48.69449" lon="7.02362">
        <ele>264.32</ele>
        <time>2013-08-11T07:51:44Z</time>
      </trkpt>
      <trkpt lat="48.69431" lon="7.02345">
        <ele>265.08</ele>
        <time>2013-08-11T07:51:49Z</time>
      </trkpt>
      <trkpt lat="48.69414" lon="7.02334">
        <ele>265.71</ele>
        <time>2013-08-11T07:51:56Z</time>
      </trkpt>
      <trkpt lat="48.69397" lon="7.02317">
        <ele>265.54</ele>
        <time>2013-08-11T07:52:02Z</time>
      </trkpt>
      <trkpt lat="48.69379" lon="7.02299">
        <ele>265.43</ele>
        <time>2013-08-11T07:52:07Z</time>
      </trkpt>
      <trkpt lat="48.69363" lon="7.02283">
        <ele>265.39</ele>
        <time>2013-08-11T07:52:11Z</time>
      </trkpt>
      <trkpt lat="48.69347" lon="7.02268">
        <ele>265.32</ele>
        <time>2013-08-11T07:52:15Z</time>
      </trkpt>
      <trkpt lat="48.69331" lon="7.02252">
        <ele>265.3</ele>
        <time>2013-08-11T07:52:19Z</time>
      </trkpt>
      <trkpt lat="48.69315" lon="7.02233">
        <ele>265.54</ele>
        <time>2013-08-11T07:52:24Z</time>
      </trkpt>
      <trkpt lat="48.69297" lon="7.02216">
        <ele>266.17</ele>
        <time>2013-08-11T07:52:30Z</time>
      </trkpt>
      <trkpt lat="48.6928" lon="7.02199">
        <ele>266.49</ele>
        <time>2013-08-11T07:52:36Z</time>
      </trkpt>
      <trkpt lat="48.69263" lon="7.02184">
        <ele>266.51</ele>
        <time>2013-08-11T07:52:41Z</time>
      </trkpt>
      <trkpt lat="48.69245" lon="7.02168">
        <ele>266.3</ele>
        <time>2013-08-11T07:52:46Z</time>
      </trkpt>
      <trkpt lat="48.69228" lon="7.0215">
        <ele>266.15</ele>
        <time>2013-08-11T07:52:51Z</time>
      </trkpt>
      <trkpt lat="48.6921" lon="7.02133">
        <ele>265.88</ele>
        <time>2013-08-11T07:52:57Z</time>
      </trkpt>
      <trkpt lat="48.69192" lon="7.02114">
        <ele>266.28</ele>
        <time>2013-08-11T07:53:03Z</time>
      </trkpt>
      <trkpt lat="48.69176" lon="7.02098">
        <ele>266.32</ele>
        <time>2013-08-11T07:53:08Z</time>
      </trkpt>
      <trkpt lat="48.69157" lon="7.0208">
        <ele>266.36</ele>
        <time>2013-08-11T07:53:13Z</time>
      </trkpt>
      <trkpt lat="48.69142" lon="7.02064">
        <ele>266.21</ele>
        <time>2013-08-11T07:53:17Z</time>
      </trkpt>
      <trkpt lat="48.69125" lon="7.02047">
        <ele>266.37</ele>
        <time>2013-08-11T07:53:21Z</time>
      </trkpt>
      <trkpt lat="48.69107" lon="7.02029">
        <ele>266.37</ele>
        <time>2013-08-11T07:53:25Z</time>
      </trkpt>
      <trkpt lat="48.69088" lon="7.02011">
        <ele>266.2</ele>
        <time>2013-08-11T07:53:29Z</time>
      </trkpt>
      <trkpt lat="48.69069" lon="7.01993">
        <ele>266.01</ele>
        <time>2013-08-11T07:53:33Z</time>
      </trkpt>
      <trkpt lat="48.6905" lon="7.01975">
        <ele>265.71</ele>
        <time>2013-08-11T07:53:37Z</time>
      </trkpt>
      <trkpt lat="48.69032" lon="7.01957">
        <ele>265.32</ele>
        <time>2013-08-11T07:53:41Z</time>
      </trkpt>
      <trkpt lat="48.69013" lon="7.01938">
        <ele>264.67</ele>
        <time>2013-08-11T07:53:45Z</time>
      </trkpt>
      <trkpt lat="48.68996" lon="7.01923">
        <ele>264.24</ele>
        <time>2013-08-11T07:53:49Z</time>
      </trkpt>
      <trkpt lat="48.68977" lon="7.01906">
        <ele>263.79</ele>
        <time>2013-08-11T07:53:53Z</time>
      </trkpt>
      <trkpt lat="48.68959" lon="7.01887">
        <ele>263.25</ele>
        <time>2013-08-11T07:53:57Z</time>
      </trkpt>
      <trkpt lat="48.68942" lon="7.0187">
        <ele>262.95</ele>
        <time>2013-08-11T07:54:01Z</time>
      </trkpt>
      <trkpt lat="48.68924" lon="7.01851">
        <ele>263.12</ele>
        <time>2013-08-11T07:54:05Z</time>
      </trkpt>
      <trkpt lat="48.68907" lon="7.01834">
        <ele>263.86</ele>
        <time>2013-08-11T07:54:09Z</time>
      </trkpt>
      <trkpt lat="48.68891" lon="7.01817">
        <ele>264.51</ele>
        <time>2013-08-11T07:54:13Z</time>
      </trkpt>
      <trkpt lat="48.68875" lon="7.01801">
        <ele>264.73</ele>
        <time>2013-08-11T07:54:17Z</time>
      </trkpt>
      <trkpt lat="48.68858" lon="7.01784">
        <ele>264.83</ele>
        <time>2013-08-11T07:54:21Z</time>
      </trkpt>
      <trkpt lat="48.6884" lon="7.01766">
        <ele>264.88</ele>
        <time>2013-08-11T07:54:25Z</time>
      </trkpt>
      <trkpt lat="48.68822" lon="7.01748">
        <ele>264.97</ele>
        <time>2013-08-11T07:54:29Z</time>
      </trkpt>
      <trkpt lat="48.68804" lon="7.0173">
        <ele>265.7</ele>
        <time>2013-08-11T07:54:33Z</time>
      </trkpt>
      <trkpt lat="48.68787" lon="7.01713">
        <ele>265.97</ele>
        <time>2013-08-11T07:54:37Z</time>
      </trkpt>
      <trkpt lat="48.68769" lon="7.01695">
        <ele>266.08</ele>
        <time>2013-08-11T07:54:41Z</time>
      </trkpt>
      <trkpt lat="48.68751" lon="7.01678">
        <ele>266.07</ele>
        <time>2013-08-11T07:54:45Z</time>
      </trkpt>
      <trkpt lat="48.68733" lon="7.0166">
        <ele>266.07</ele>
        <time>2013-08-11T07:54:49Z</time>
      </trkpt>
      <trkpt lat="48.68715" lon="7.01643">
        <ele>266.06</ele>
        <time>2013-08-11T07:54:53Z</time>
      </trkpt>
      <trkpt lat="48.68697" lon="7.01625">
        <ele>266.3</ele>
        <time>2013-08-11T07:54:57Z</time>
      </trkpt>
      <trkpt lat="48.68679" lon="7.01608">
        <ele>266.34</ele>
        <time>2013-08-11T07:55:01Z</time>
      </trkpt>
      <trkpt lat="48.68661" lon="7.0159">
        <ele>266.39</ele>
        <time>2013-08-11T07:55:05Z</time>
      </trkpt>
      <trkpt lat="48.68644" lon="7.01573">
        <ele>266.33</ele>
        <time>2013-08-11T07:55:09Z</time>
      </trkpt>
      <trkpt lat="48.68626" lon="7.01555">
        <ele>266.26</ele>
        <time>2013-08-11T07:55:13Z</time>
      </trkpt>
      <trkpt lat="48.68607" lon="7.01537">
        <ele>266.2</ele>
        <time>2013-08-11T07:55:17Z</time>
      </trkpt>
      <trkpt lat="48.68589" lon="7.01519">
        <ele>266.25</ele>
        <time>2013-08-11T07:55:21Z</time>
      </trkpt>
      <trkpt lat="48.6857" lon="7.01501">
        <ele>266.45</ele>
        <time>2013-08-11T07:55:25Z</time>
      </trkpt>
      <trkpt lat="48.68551" lon="7.01482">
        <ele>266.93</ele>
        <time>2013-08-11T07:55:29Z</time>
      </trkpt>
      <trkpt lat="48.68533" lon="7.01465">
        <ele>267.23</ele>
        <time>2013-08-11T07:55:33Z</time>
      </trkpt>
      <trkpt lat="48.68515" lon="7.01447">
        <ele>267.21</ele>
        <time>2013-08-11T07:55:37Z</time>
      </trkpt>
      <trkpt lat="48.68498" lon="7.01429">
        <ele>267.6</ele>
        <time>2013-08-11T07:55:41Z</time>
      </trkpt>
      <trkpt lat="48.6848" lon="7.01411">
        <ele>267.93</ele>
        <time>2013-08-11T07:55:45Z</time>
      </trkpt>
      <trkpt lat="48.68461" lon="7.01393">
        <ele>267.8</ele>
        <time>2013-08-11T07:55:49Z</time>
      </trkpt>
      <trkpt lat="48.68443" lon="7.01375">
        <ele>267.15</ele>
        <time>2013-08-11T07:55:53Z</time>
      </trkpt>
      <trkpt lat="48.68425" lon="7.01358">
        <ele>266.62</ele>
        <time>2013-08-11T07:55:57Z</time>
      </trkpt>
      <trkpt lat="48.68407" lon="7.01341">
        <ele>266.17</ele>
        <time>2013-08-11T07:56:01Z</time>
      </trkpt>
      <trkpt lat="48.68389" lon="7.01324">
        <ele>266.16</ele>
        <time>2013-08-11T07:56:05Z</time>
      </trkpt>
      <trkpt lat="48.68372" lon="7.01306">
        <ele>266.57</ele>
        <time>2013-08-11T07:56:09Z</time>
      </trkpt>
      <trkpt lat="48.68355" lon="7.01289">
        <ele>266.98</ele>
        <time>2013-08-11T07:56:13Z</time>
      </trkpt>
      <trkpt lat="48.68338" lon="7.01272">
        <ele>267.34</ele>
        <time>2013-08-11T07:56:17Z</time>
      </trkpt>
      <trkpt lat="48.68321" lon="7.01255">
        <ele>267.62</ele>
        <time>2013-08-11T07:56:21Z</time>
      </trkpt>
      <trkpt lat="48.68304" lon="7.01238">
        <ele>267.85</ele>
        <time>2013-08-11T07:56:25Z</time>
      </trkpt>
      <trkpt lat="48.68286" lon="7.01221">
        <ele>268</ele>
        <time>2013-08-11T07:56:29Z</time>
      </trkpt>
      <trkpt lat="48.68269" lon="7.01202">
        <ele>268.06</ele>
        <time>2013-08-11T07:56:33Z</time>
      </trkpt>
      <trkpt lat="48.68251" lon="7.01185">
        <ele>268.19</ele>
        <time>2013-08-11T07:56:37Z</time>
      </trkpt>
      <trkpt lat="48.68233" lon="7.01168">
        <ele>268.44</ele>
        <time>2013-08-11T07:56:41Z</time>
      </trkpt>
      <trkpt lat="48.68215" lon="7.01151">
        <ele>268.51</ele>
        <time>2013-08-11T07:56:45Z</time>
      </trkpt>
      <trkpt lat="48.68198" lon="7.01133">
        <ele>268.53</ele>
        <time>2013-08-11T07:56:49Z</time>
      </trkpt>
      <trkpt lat="48.68181" lon="7.01117">
        <ele>268.6</ele>
        <time>2013-08-11T07:56:53Z</time>
      </trkpt>
      <trkpt lat="48.68164" lon="7.01102">
        <ele>268.69</ele>
        <time>2013-08-11T07:56:58Z</time>
      </trkpt>
      <trkpt lat="48.68148" lon="7.01084">
        <ele>268.44</ele>
        <time>2013-08-11T07:57:03Z</time>
      </trkpt>
      <trkpt lat="48.68129" lon="7.01065">
        <ele>268.71</ele>
        <time>2013-08-11T07:57:08Z</time>
      </trkpt>
      <trkpt lat="48.68113" lon="7.0105">
        <ele>268.97</ele>
        <time>2013-08-11T07:57:12Z</time>
      </trkpt>
      <trkpt lat="48.68097" lon="7.01034">
        <ele>269.15</ele>
        <time>2013-08-11T07:57:16Z</time>
      </trkpt>
      <trkpt lat="48.68081" lon="7.01017">
        <ele>269.16</ele>
        <time>2013-08-11T07:57:20Z</time>
      </trkpt>
      <trkpt lat="48.68064" lon="7.01002">
        <ele>269</ele>
        <time>2013-08-11T07:57:24Z</time>
      </trkpt>
      <trkpt lat="48.68047" lon="7.00991">
        <ele>268.8</ele>
        <time>2013-08-11T07:57:28Z</time>
      </trkpt>
      <trkpt lat="48.68028" lon="7.00979">
        <ele>268.53</ele>
        <time>2013-08-11T07:57:32Z</time>
      </trkpt>
      <trkpt lat="48.6801" lon="7.00972">
        <ele>268.17</ele>
        <time>2013-08-11T07:57:36Z</time>
      </trkpt>
      <trkpt lat="48.67991" lon="7.00966">
        <ele>267.81</ele>
        <time>2013-08-11T07:57:40Z</time>
      </trkpt>
      <trkpt lat="48.6797" lon="7.00961">
        <ele>267.75</ele>
        <time>2013-08-11T07:57:44Z</time>
      </trkpt>
      <trkpt lat="48.67949" lon="7.00954">
        <ele>267.63</ele>
        <time>2013-08-11T07:57:48Z</time>
      </trkpt>
      <trkpt lat="48.67928" lon="7.00949">
        <ele>267.4</ele>
        <time>2013-08-11T07:57:52Z</time>
      </trkpt>
      <trkpt lat="48.67907" lon="7.00943">
        <ele>266.99</ele>
        <time>2013-08-11T07:57:56Z</time>
      </trkpt>
      <trkpt lat="48.67886" lon="7.00937">
        <ele>266.83</ele>
        <time>2013-08-11T07:58:00Z</time>
      </trkpt>
      <trkpt lat="48.67864" lon="7.00931">
        <ele>266.97</ele>
        <time>2013-08-11T07:58:04Z</time>
      </trkpt>
      <trkpt lat="48.67843" lon="7.00926">
        <ele>267.05</ele>
        <time>2013-08-11T07:58:08Z</time>
      </trkpt>
      <trkpt lat="48.67822" lon="7.00921">
        <ele>266.96</ele>
        <time>2013-08-11T07:58:12Z</time>
      </trkpt>
      <trkpt lat="48.678" lon="7.00915">
        <ele>266.94</ele>
        <time>2013-08-11T07:58:16Z</time>
      </trkpt>
      <trkpt lat="48.67778" lon="7.00909">
        <ele>267.59</ele>
        <time>2013-08-11T07:58:20Z</time>
      </trkpt>
      <trkpt lat="48.67756" lon="7.00902">
        <ele>268.17</ele>
        <time>2013-08-11T07:58:24Z</time>
      </trkpt>
      <trkpt lat="48.67733" lon="7.00896">
        <ele>268.42</ele>
        <time>2013-08-11T07:58:28Z</time>
      </trkpt>
      <trkpt lat="48.67711" lon="7.0089">
        <ele>268.7</ele>
        <time>2013-08-11T07:58:32Z</time>
      </trkpt>
      <trkpt lat="48.67689" lon="7.0089">
        <ele>268.91</ele>
        <time>2013-08-11T07:58:36Z</time>
      </trkpt>
      <trkpt lat="48.67666" lon="7.00881">
        <ele>269.37</ele>
        <time>2013-08-11T07:58:40Z</time>
      </trkpt>
      <trkpt lat="48.67644" lon="7.0087">
        <ele>269.53</ele>
        <time>2013-08-11T07:58:44Z</time>
      </trkpt>
      <trkpt lat="48.67625" lon="7.00865">
        <ele>269.83</ele>
        <time>2013-08-11T07:58:47Z</time>
      </trkpt>
      <trkpt lat="48.67607" lon="7.00858">
        <ele>269.35</ele>
        <time>2013-08-11T07:58:50Z</time>
      </trkpt>
      <trkpt lat="48.67589" lon="7.00853">
        <ele>269</ele>
        <time>2013-08-11T07:58:53Z</time>
      </trkpt>
      <trkpt lat="48.67567" lon="7.00847">
        <ele>268.8</ele>
        <time>2013-08-11T07:58:57Z</time>
      </trkpt>
      <trkpt lat="48.67547" lon="7.00842">
        <ele>268.66</ele>
        <time>2013-08-11T07:59:01Z</time>
      </trkpt>
      <trkpt lat="48.67527" lon="7.00837">
        <ele>268.92</ele>
        <time>2013-08-11T07:59:05Z</time>
      </trkpt>
      <trkpt lat="48.67506" lon="7.00831">
        <ele>269.21</ele>
        <time>2013-08-11T07:59:09Z</time>
      </trkpt>
      <trkpt lat="48.67484" lon="7.00826">
        <ele>270.21</ele>
        <time>2013-08-11T07:59:13Z</time>
      </trkpt>
      <trkpt lat="48.67463" lon="7.0082">
        <ele>270.69</ele>
        <time>2013-08-11T07:59:17Z</time>
      </trkpt>
      <trkpt lat="48.67442" lon="7.00814">
        <ele>270.41</ele>
        <time>2013-08-11T07:59:21Z</time>
      </trkpt>
      <trkpt lat="48.6742" lon="7.0081">
        <ele>270.22</ele>
        <time>2013-08-11T07:59:25Z</time>
      </trkpt>
      <trkpt lat="48.67399" lon="7.00808">
        <ele>269.78</ele>
        <time>2013-08-11T07:59:29Z</time>
      </trkpt>
      <trkpt lat="48.67379" lon="7.00807">
        <ele>269.7</ele>
        <time>2013-08-11T07:59:35Z</time>
      </trkpt>
      <trkpt lat="48.6736" lon="7.0081">
        <ele>270.32</ele>
        <time>2013-08-11T07:59:40Z</time>
      </trkpt>
      <trkpt lat="48.67338" lon="7.00812">
        <ele>270.9</ele>
        <time>2013-08-11T07:59:45Z</time>
      </trkpt>
      <trkpt lat="48.67316" lon="7.00819">
        <ele>271.24</ele>
        <time>2013-08-11T07:59:50Z</time>
      </trkpt>
      <trkpt lat="48.67298" lon="7.00824">
        <ele>271.37</ele>
        <time>2013-08-11T07:59:54Z</time>
      </trkpt>
      <trkpt lat="48.67277" lon="7.00833">
        <ele>271.52</ele>
        <time>2013-08-11T07:59:59Z</time>
      </trkpt>
      <trkpt lat="48.67259" lon="7.00844">
        <ele>271.57</ele>
        <time>2013-08-11T08:00:03Z</time>
      </trkpt>
      <trkpt lat="48.6724" lon="7.00855">
        <ele>271.63</ele>
        <time>2013-08-11T08:00:07Z</time>
      </trkpt>
      <trkpt lat="48.67222" lon="7.0087">
        <ele>271.73</ele>
        <time>2013-08-11T08:00:11Z</time>
      </trkpt>
      <trkpt lat="48.67205" lon="7.00883">
        <ele>271.77</ele>
        <time>2013-08-11T08:00:15Z</time>
      </trkpt>
      <trkpt lat="48.67185" lon="7.00902">
        <ele>271.85</ele>
        <time>2013-08-11T08:00:20Z</time>
      </trkpt>
      <trkpt lat="48.67169" lon="7.00921">
        <ele>271.97</ele>
        <time>2013-08-11T08:00:24Z</time>
      </trkpt>
      <trkpt lat="48.67152" lon="7.00942">
        <ele>272.01</ele>
        <time>2013-08-11T08:00:28Z</time>
      </trkpt>
      <trkpt lat="48.67136" lon="7.00965">
        <ele>272</ele>
        <time>2013-08-11T08:00:32Z</time>
      </trkpt>
      <trkpt lat="48.67121" lon="7.00989">
        <ele>271.92</ele>
        <time>2013-08-11T08:00:36Z</time>
      </trkpt>
      <trkpt lat="48.67108" lon="7.01012">
        <ele>271.9</ele>
        <time>2013-08-11T08:00:40Z</time>
      </trkpt>
      <trkpt lat="48.67096" lon="7.01035">
        <ele>272.18</ele>
        <time>2013-08-11T08:00:44Z</time>
      </trkpt>
      <trkpt lat="48.67086" lon="7.0106">
        <ele>272.74</ele>
        <time>2013-08-11T08:00:48Z</time>
      </trkpt>
      <trkpt lat="48.67076" lon="7.01085">
        <ele>273.57</ele>
        <time>2013-08-11T08:00:52Z</time>
      </trkpt>
      <trkpt lat="48.67065" lon="7.01115">
        <ele>275.33</ele>
        <time>2013-08-11T08:00:56Z</time>
      </trkpt>
      <trkpt lat="48.67056" lon="7.01144">
        <ele>276.86</ele>
        <time>2013-08-11T08:01:00Z</time>
      </trkpt>
      <trkpt lat="48.67048" lon="7.01171">
        <ele>277.91</ele>
        <time>2013-08-11T08:01:04Z</time>
      </trkpt>
      <trkpt lat="48.67041" lon="7.012">
        <ele>278.13</ele>
        <time>2013-08-11T08:01:08Z</time>
      </trkpt>
      <trkpt lat="48.67036" lon="7.01231">
        <ele>278.26</ele>
        <time>2013-08-11T08:01:12Z</time>
      </trkpt>
      <trkpt lat="48.67031" lon="7.01263">
        <ele>278.73</ele>
        <time>2013-08-11T08:01:16Z</time>
      </trkpt>
      <trkpt lat="48.67028" lon="7.01293">
        <ele>279.89</ele>
        <time>2013-08-11T08:01:20Z</time>
      </trkpt>
      <trkpt lat="48.67025" lon="7.01326">
        <ele>281.34</ele>
        <time>2013-08-11T08:01:24Z</time>
      </trkpt>
      <trkpt lat="48.67024" lon="7.01357">
        <ele>282.96</ele>
        <time>2013-08-11T08:01:28Z</time>
      </trkpt>
      <trkpt lat="48.67025" lon="7.01384">
        <ele>284.13</ele>
        <time>2013-08-11T08:01:32Z</time>
      </trkpt>
      <trkpt lat="48.67028" lon="7.01414">
        <ele>283.66</ele>
        <time>2013-08-11T08:01:36Z</time>
      </trkpt>
      <trkpt lat="48.67029" lon="7.01444">
        <ele>282.86</ele>
        <time>2013-08-11T08:01:41Z</time>
      </trkpt>
      <trkpt lat="48.67029" lon="7.01475">
        <ele>281.98</ele>
        <time>2013-08-11T08:01:46Z</time>
      </trkpt>
      <trkpt lat="48.67029" lon="7.01505">
        <ele>280.41</ele>
        <time>2013-08-11T08:01:51Z</time>
      </trkpt>
      <trkpt lat="48.6703" lon="7.01539">
        <ele>278.2</ele>
        <time>2013-08-11T08:01:56Z</time>
      </trkpt>
      <trkpt lat="48.67031" lon="7.01567">
        <ele>276.87</ele>
        <time>2013-08-11T08:02:00Z</time>
      </trkpt>
      <trkpt lat="48.67032" lon="7.01594">
        <ele>276.14</ele>
        <time>2013-08-11T08:02:04Z</time>
      </trkpt>
      <trkpt lat="48.67033" lon="7.01623">
        <ele>275.61</ele>
        <time>2013-08-11T08:02:08Z</time>
      </trkpt>
      <trkpt lat="48.67034" lon="7.01652">
        <ele>275.35</ele>
        <time>2013-08-11T08:02:12Z</time>
      </trkpt>
      <trkpt lat="48.67034" lon="7.01682">
        <ele>275.18</ele>
        <time>2013-08-11T08:02:16Z</time>
      </trkpt>
      <trkpt lat="48.67035" lon="7.01712">
        <ele>275.17</ele>
        <time>2013-08-11T08:02:20Z</time>
      </trkpt>
      <trkpt lat="48.67036" lon="7.01741">
        <ele>274.73</ele>
        <time>2013-08-11T08:02:24Z</time>
      </trkpt>
      <trkpt lat="48.67033" lon="7.01771">
        <ele>274.57</ele>
        <time>2013-08-11T08:02:28Z</time>
      </trkpt>
      <trkpt lat="48.67031" lon="7.01801">
        <ele>274.92</ele>
        <time>2013-08-11T08:02:32Z</time>
      </trkpt>
      <trkpt lat="48.67027" lon="7.01832">
        <ele>275.66</ele>
        <time>2013-08-11T08:02:36Z</time>
      </trkpt>
      <trkpt lat="48.67019" lon="7.01864">
        <ele>276.75</ele>
        <time>2013-08-11T08:02:40Z</time>
      </trkpt>
      <trkpt lat="48.67009" lon="7.01893">
        <ele>277.36</ele>
        <time>2013-08-11T08:02:44Z</time>
      </trkpt>
      <trkpt lat="48.66998" lon="7.01921">
        <ele>277.33</ele>
        <time>2013-08-11T08:02:48Z</time>
      </trkpt>
      <trkpt lat="48.66984" lon="7.01949">
        <ele>277.41</ele>
        <time>2013-08-11T08:02:52Z</time>
      </trkpt>
      <trkpt lat="48.66971" lon="7.01974">
        <ele>277.08</ele>
        <time>2013-08-11T08:02:56Z</time>
      </trkpt>
      <trkpt lat="48.66957" lon="7.01999">
        <ele>276.81</ele>
        <time>2013-08-11T08:03:00Z</time>
      </trkpt>
      <trkpt lat="48.66943" lon="7.02025">
        <ele>276.64</ele>
        <time>2013-08-11T08:03:04Z</time>
      </trkpt>
      <trkpt lat="48.66928" lon="7.02052">
        <ele>276.66</ele>
        <time>2013-08-11T08:03:08Z</time>
      </trkpt>
      <trkpt lat="48.66917" lon="7.02074">
        <ele>276.61</ele>
        <time>2013-08-11T08:03:12Z</time>
      </trkpt>
      <trkpt lat="48.66904" lon="7.02098">
        <ele>277.13</ele>
        <time>2013-08-11T08:03:16Z</time>
      </trkpt>
      <trkpt lat="48.6689" lon="7.02124">
        <ele>278.05</ele>
        <time>2013-08-11T08:03:20Z</time>
      </trkpt>
      <trkpt lat="48.6688" lon="7.02151">
        <ele>278.65</ele>
        <time>2013-08-11T08:03:24Z</time>
      </trkpt>
      <trkpt lat="48.66868" lon="7.02179">
        <ele>278.42</ele>
        <time>2013-08-11T08:03:28Z</time>
      </trkpt>
      <trkpt lat="48.66857" lon="7.02209">
        <ele>278</ele>
        <time>2013-08-11T08:03:32Z</time>
      </trkpt>
      <trkpt lat="48.66846" lon="7.02239">
        <ele>277.56</ele>
        <time>2013-08-11T08:03:36Z</time>
      </trkpt>
      <trkpt lat="48.66834" lon="7.02269">
        <ele>277.53</ele>
        <time>2013-08-11T08:03:40Z</time>
      </trkpt>
      <trkpt lat="48.66822" lon="7.023">
        <ele>277.67</ele>
        <time>2013-08-11T08:03:44Z</time>
      </trkpt>
      <trkpt lat="48.66813" lon="7.02324">
        <ele>277.24</ele>
        <time>2013-08-11T08:03:47Z</time>
      </trkpt>
      <trkpt lat="48.66805" lon="7.02347">
        <ele>276.67</ele>
        <time>2013-08-11T08:03:50Z</time>
      </trkpt>
      <trkpt lat="48.66793" lon="7.02378">
        <ele>275.88</ele>
        <time>2013-08-11T08:03:54Z</time>
      </trkpt>
      <trkpt lat="48.66782" lon="7.02409">
        <ele>275.11</ele>
        <time>2013-08-11T08:03:58Z</time>
      </trkpt>
      <trkpt lat="48.6677" lon="7.0244">
        <ele>274.56</ele>
        <time>2013-08-11T08:04:02Z</time>
      </trkpt>
      <trkpt lat="48.6676" lon="7.02469">
        <ele>274.04</ele>
        <time>2013-08-11T08:04:06Z</time>
      </trkpt>
      <trkpt lat="48.66749" lon="7.02497">
        <ele>273.69</ele>
        <time>2013-08-11T08:04:10Z</time>
      </trkpt>
      <trkpt lat="48.6674" lon="7.02521">
        <ele>273.53</ele>
        <time>2013-08-11T08:04:14Z</time>
      </trkpt>
      <trkpt lat="48.66731" lon="7.02546">
        <ele>273.37</ele>
        <time>2013-08-11T08:04:20Z</time>
      </trkpt>
      <trkpt lat="48.6672" lon="7.02572">
        <ele>273.17</ele>
        <time>2013-08-11T08:04:26Z</time>
      </trkpt>
      <trkpt lat="48.66712" lon="7.02597">
        <ele>272.94</ele>
        <time>2013-08-11T08:04:30Z</time>
      </trkpt>
      <trkpt lat="48.667" lon="7.02626">
        <ele>272.71</ele>
        <time>2013-08-11T08:04:34Z</time>
      </trkpt>
      <trkpt lat="48.66691" lon="7.0265">
        <ele>272.5</ele>
        <time>2013-08-11T08:04:37Z</time>
      </trkpt>
      <trkpt lat="48.66683" lon="7.02675">
        <ele>272.38</ele>
        <time>2013-08-11T08:04:40Z</time>
      </trkpt>
      <trkpt lat="48.66673" lon="7.027">
        <ele>272.29</ele>
        <time>2013-08-11T08:04:43Z</time>
      </trkpt>
      <trkpt lat="48.66663" lon="7.02723">
        <ele>272.42</ele>
        <time>2013-08-11T08:04:46Z</time>
      </trkpt>
      <trkpt lat="48.66651" lon="7.02753">
        <ele>273.29</ele>
        <time>2013-08-11T08:04:50Z</time>
      </trkpt>
      <trkpt lat="48.66639" lon="7.02783">
        <ele>274.44</ele>
        <time>2013-08-11T08:04:54Z</time>
      </trkpt>
      <trkpt lat="48.66628" lon="7.02813">
        <ele>274.54</ele>
        <time>2013-08-11T08:04:58Z</time>
      </trkpt>
      <trkpt lat="48.66618" lon="7.02837">
        <ele>274.88</ele>
        <time>2013-08-11T08:05:01Z</time>
      </trkpt>
      <trkpt lat="48.66609" lon="7.02861">
        <ele>275.14</ele>
        <time>2013-08-11T08:05:04Z</time>
      </trkpt>
      <trkpt lat="48.66599" lon="7.02893">
        <ele>275.04</ele>
        <time>2013-08-11T08:05:08Z</time>
      </trkpt>
      <trkpt lat="48.66589" lon="7.02916">
        <ele>275.22</ele>
        <time>2013-08-11T08:05:11Z</time>
      </trkpt>
      <trkpt lat="48.66578" lon="7.02946">
        <ele>275.54</ele>
        <time>2013-08-11T08:05:15Z</time>
      </trkpt>
      <trkpt lat="48.66567" lon="7.02976">
        <ele>276</ele>
        <time>2013-08-11T08:05:19Z</time>
      </trkpt>
      <trkpt lat="48.66558" lon="7.03">
        <ele>276.27</ele>
        <time>2013-08-11T08:05:22Z</time>
      </trkpt>
      <trkpt lat="48.66547" lon="7.03031">
        <ele>277.16</ele>
        <time>2013-08-11T08:05:26Z</time>
      </trkpt>
      <trkpt lat="48.66535" lon="7.03063">
        <ele>277.95</ele>
        <time>2013-08-11T08:05:30Z</time>
      </trkpt>
      <trkpt lat="48.66525" lon="7.03093">
        <ele>278.26</ele>
        <time>2013-08-11T08:05:34Z</time>
      </trkpt>
      <trkpt lat="48.66515" lon="7.03122">
        <ele>278.48</ele>
        <time>2013-08-11T08:05:38Z</time>
      </trkpt>
      <trkpt lat="48.66503" lon="7.03151">
        <ele>277.35</ele>
        <time>2013-08-11T08:05:42Z</time>
      </trkpt>
      <trkpt lat="48.66492" lon="7.03182">
        <ele>277.1</ele>
        <time>2013-08-11T08:05:46Z</time>
      </trkpt>
      <trkpt lat="48.66482" lon="7.03211">
        <ele>277.48</ele>
        <time>2013-08-11T08:05:50Z</time>
      </trkpt>
      <trkpt lat="48.6647" lon="7.03241">
        <ele>278.23</ele>
        <time>2013-08-11T08:05:54Z</time>
      </trkpt>
      <trkpt lat="48.66459" lon="7.03263">
        <ele>278.8</ele>
        <time>2013-08-11T08:05:57Z</time>
      </trkpt>
      <trkpt lat="48.66445" lon="7.03291">
        <ele>279.37</ele>
        <time>2013-08-11T08:06:01Z</time>
      </trkpt>
      <trkpt lat="48.6643" lon="7.03318">
        <ele>279.74</ele>
        <time>2013-08-11T08:06:05Z</time>
      </trkpt>
      <trkpt lat="48.66416" lon="7.03342">
        <ele>280.06</ele>
        <time>2013-08-11T08:06:09Z</time>
      </trkpt>
      <trkpt lat="48.66404" lon="7.03365">
        <ele>280.34</ele>
        <time>2013-08-11T08:06:13Z</time>
      </trkpt>
      <trkpt lat="48.66391" lon="7.0339">
        <ele>280.79</ele>
        <time>2013-08-11T08:06:17Z</time>
      </trkpt>
      <trkpt lat="48.66377" lon="7.03414">
        <ele>280.74</ele>
        <time>2013-08-11T08:06:21Z</time>
      </trkpt>
      <trkpt lat="48.66362" lon="7.03442">
        <ele>280.62</ele>
        <time>2013-08-11T08:06:25Z</time>
      </trkpt>
      <trkpt lat="48.66348" lon="7.03465">
        <ele>281.04</ele>
        <time>2013-08-11T08:06:29Z</time>
      </trkpt>
      <trkpt lat="48.66334" lon="7.03491">
        <ele>281.29</ele>
        <time>2013-08-11T08:06:33Z</time>
      </trkpt>
      <trkpt lat="48.66322" lon="7.03512">
        <ele>281.45</ele>
        <time>2013-08-11T08:06:36Z</time>
      </trkpt>
      <trkpt lat="48.66307" lon="7.03538">
        <ele>281.26</ele>
        <time>2013-08-11T08:06:40Z</time>
      </trkpt>
      <trkpt lat="48.66293" lon="7.03562">
        <ele>280.47</ele>
        <time>2013-08-11T08:06:44Z</time>
      </trkpt>
      <trkpt lat="48.6628" lon="7.03587">
        <ele>280.2</ele>
        <time>2013-08-11T08:06:48Z</time>
      </trkpt>
      <trkpt lat="48.66266" lon="7.03614">
        <ele>280.4</ele>
        <time>2013-08-11T08:06:52Z</time>
      </trkpt>
      <trkpt lat="48.66251" lon="7.0364">
        <ele>281.04</ele>
        <time>2013-08-11T08:06:56Z</time>
      </trkpt>
      <trkpt lat="48.66237" lon="7.03664">
        <ele>281.68</ele>
        <time>2013-08-11T08:07:00Z</time>
      </trkpt>
      <trkpt lat="48.66224" lon="7.03686">
        <ele>282.07</ele>
        <time>2013-08-11T08:07:04Z</time>
      </trkpt>
      <trkpt lat="48.66209" lon="7.0371">
        <ele>282.48</ele>
        <time>2013-08-11T08:07:08Z</time>
      </trkpt>
      <trkpt lat="48.66195" lon="7.03735">
        <ele>281.23</ele>
        <time>2013-08-11T08:07:12Z</time>
      </trkpt>
      <trkpt lat="48.66181" lon="7.0376">
        <ele>280.86</ele>
        <time>2013-08-11T08:07:16Z</time>
      </trkpt>
      <trkpt lat="48.66167" lon="7.03787">
        <ele>280.68</ele>
        <time>2013-08-11T08:07:20Z</time>
      </trkpt>
      <trkpt lat="48.66152" lon="7.03813">
        <ele>280.12</ele>
        <time>2013-08-11T08:07:24Z</time>
      </trkpt>
      <trkpt lat="48.66137" lon="7.0384">
        <ele>279.31</ele>
        <time>2013-08-11T08:07:28Z</time>
      </trkpt>
      <trkpt lat="48.66121" lon="7.03867">
        <ele>279.06</ele>
        <time>2013-08-11T08:07:32Z</time>
      </trkpt>
      <trkpt lat="48.66106" lon="7.03893">
        <ele>278.85</ele>
        <time>2013-08-11T08:07:36Z</time>
      </trkpt>
      <trkpt lat="48.66091" lon="7.03919">
        <ele>278.13</ele>
        <time>2013-08-11T08:07:40Z</time>
      </trkpt>
      <trkpt lat="48.66076" lon="7.03947">
        <ele>277.61</ele>
        <time>2013-08-11T08:07:44Z</time>
      </trkpt>
      <trkpt lat="48.66064" lon="7.03968">
        <ele>277.45</ele>
        <time>2013-08-11T08:07:47Z</time>
      </trkpt>
      <trkpt lat="48.66053" lon="7.0399">
        <ele>277.29</ele>
        <time>2013-08-11T08:07:50Z</time>
      </trkpt>
      <trkpt lat="48.66041" lon="7.04012">
        <ele>277.11</ele>
        <time>2013-08-11T08:07:53Z</time>
      </trkpt>
      <trkpt lat="48.6603" lon="7.04033">
        <ele>277.22</ele>
        <time>2013-08-11T08:07:56Z</time>
      </trkpt>
      <trkpt lat="48.66014" lon="7.0406">
        <ele>277.39</ele>
        <time>2013-08-11T08:08:00Z</time>
      </trkpt>
      <trkpt lat="48.65999" lon="7.04087">
        <ele>277.42</ele>
        <time>2013-08-11T08:08:04Z</time>
      </trkpt>
      <trkpt lat="48.65986" lon="7.04108">
        <ele>277.87</ele>
        <time>2013-08-11T08:08:07Z</time>
      </trkpt>
      <trkpt lat="48.65973" lon="7.04128">
        <ele>278.35</ele>
        <time>2013-08-11T08:08:10Z</time>
      </trkpt>
      <trkpt lat="48.65959" lon="7.04148">
        <ele>278.9</ele>
        <time>2013-08-11T08:08:13Z</time>
      </trkpt>
      <trkpt lat="48.65946" lon="7.04168">
        <ele>279.25</ele>
        <time>2013-08-11T08:08:16Z</time>
      </trkpt>
      <trkpt lat="48.65933" lon="7.04188">
        <ele>279.55</ele>
        <time>2013-08-11T08:08:19Z</time>
      </trkpt>
      <trkpt lat="48.65916" lon="7.04212">
        <ele>279.63</ele>
        <time>2013-08-11T08:08:23Z</time>
      </trkpt>
      <trkpt lat="48.65899" lon="7.04235">
        <ele>278.63</ele>
        <time>2013-08-11T08:08:27Z</time>
      </trkpt>
      <trkpt lat="48.65883" lon="7.04259">
        <ele>277.92</ele>
        <time>2013-08-11T08:08:31Z</time>
      </trkpt>
      <trkpt lat="48.65866" lon="7.04283">
        <ele>277.59</ele>
        <time>2013-08-11T08:08:35Z</time>
      </trkpt>
      <trkpt lat="48.6585" lon="7.04307">
        <ele>277.45</ele>
        <time>2013-08-11T08:08:39Z</time>
      </trkpt>
      <trkpt lat="48.65834" lon="7.0433">
        <ele>277.45</ele>
        <time>2013-08-11T08:08:43Z</time>
      </trkpt>
      <trkpt lat="48.65818" lon="7.04352">
        <ele>277.43</ele>
        <time>2013-08-11T08:08:47Z</time>
      </trkpt>
      <trkpt lat="48.65803" lon="7.04373">
        <ele>277.35</ele>
        <time>2013-08-11T08:08:51Z</time>
      </trkpt>
      <trkpt lat="48.65787" lon="7.04394">
        <ele>277.34</ele>
        <time>2013-08-11T08:08:55Z</time>
      </trkpt>
      <trkpt lat="48.65769" lon="7.04413">
        <ele>277.43</ele>
        <time>2013-08-11T08:08:59Z</time>
      </trkpt>
      <trkpt lat="48.65751" lon="7.04431">
        <ele>277.5</ele>
        <time>2013-08-11T08:09:03Z</time>
      </trkpt>
      <trkpt lat="48.65731" lon="7.04447">
        <ele>277.38</ele>
        <time>2013-08-11T08:09:07Z</time>
      </trkpt>
      <trkpt lat="48.65712" lon="7.04462">
        <ele>277.32</ele>
        <time>2013-08-11T08:09:11Z</time>
      </trkpt>
      <trkpt lat="48.65693" lon="7.04474">
        <ele>277.26</ele>
        <time>2013-08-11T08:09:15Z</time>
      </trkpt>
      <trkpt lat="48.65675" lon="7.04484">
        <ele>277.19</ele>
        <time>2013-08-11T08:09:19Z</time>
      </trkpt>
      <trkpt lat="48.65656" lon="7.04493">
        <ele>277.27</ele>
        <time>2013-08-11T08:09:24Z</time>
      </trkpt>
      <trkpt lat="48.65637" lon="7.04501">
        <ele>277.24</ele>
        <time>2013-08-11T08:09:29Z</time>
      </trkpt>
      <trkpt lat="48.65615" lon="7.04507">
        <ele>277.53</ele>
        <time>2013-08-11T08:09:34Z</time>
      </trkpt>
      <trkpt lat="48.65596" lon="7.04513">
        <ele>278.21</ele>
        <time>2013-08-11T08:09:38Z</time>
      </trkpt>
      <trkpt lat="48.65575" lon="7.04519">
        <ele>278.83</ele>
        <time>2013-08-11T08:09:42Z</time>
      </trkpt>
      <trkpt lat="48.65554" lon="7.04524">
        <ele>278.95</ele>
        <time>2013-08-11T08:09:46Z</time>
      </trkpt>
      <trkpt lat="48.65535" lon="7.04528">
        <ele>278.84</ele>
        <time>2013-08-11T08:09:50Z</time>
      </trkpt>
      <trkpt lat="48.65513" lon="7.04533">
        <ele>278.63</ele>
        <time>2013-08-11T08:09:54Z</time>
      </trkpt>
      <trkpt lat="48.65491" lon="7.04539">
        <ele>278.28</ele>
        <time>2013-08-11T08:09:58Z</time>
      </trkpt>
      <trkpt lat="48.65468" lon="7.04546">
        <ele>277.9</ele>
        <time>2013-08-11T08:10:02Z</time>
      </trkpt>
      <trkpt lat="48.65445" lon="7.04552">
        <ele>277.92</ele>
        <time>2013-08-11T08:10:06Z</time>
      </trkpt>
      <trkpt lat="48.65421" lon="7.04558">
        <ele>278.21</ele>
        <time>2013-08-11T08:10:10Z</time>
      </trkpt>
      <trkpt lat="48.65398" lon="7.04564">
        <ele>278.48</ele>
        <time>2013-08-11T08:10:14Z</time>
      </trkpt>
      <trkpt lat="48.65375" lon="7.04571">
        <ele>278.56</ele>
        <time>2013-08-11T08:10:18Z</time>
      </trkpt>
      <trkpt lat="48.65353" lon="7.04579">
        <ele>278.69</ele>
        <time>2013-08-11T08:10:22Z</time>
      </trkpt>
      <trkpt lat="48.65332" lon="7.04587">
        <ele>279.44</ele>
        <time>2013-08-11T08:10:26Z</time>
      </trkpt>
      <trkpt lat="48.65312" lon="7.04601">
        <ele>279.89</ele>
        <time>2013-08-11T08:10:30Z</time>
      </trkpt>
      <trkpt lat="48.65291" lon="7.04616">
        <ele>280.6</ele>
        <time>2013-08-11T08:10:34Z</time>
      </trkpt>
      <trkpt lat="48.65273" lon="7.04632">
        <ele>281.84</ele>
        <time>2013-08-11T08:10:38Z</time>
      </trkpt>
      <trkpt lat="48.65255" lon="7.0465">
        <ele>283.57</ele>
        <time>2013-08-11T08:10:42Z</time>
      </trkpt>
      <trkpt lat="48.65238" lon="7.04669">
        <ele>285.46</ele>
        <time>2013-08-11T08:10:46Z</time>
      </trkpt>
      <trkpt lat="48.65222" lon="7.04695">
        <ele>286.8</ele>
        <time>2013-08-11T08:10:50Z</time>
      </trkpt>
      <trkpt lat="48.65207" lon="7.04721">
        <ele>286.99</ele>
        <time>2013-08-11T08:10:54Z</time>
      </trkpt>
      <trkpt lat="48.65192" lon="7.04748">
        <ele>287.45</ele>
        <time>2013-08-11T08:10:58Z</time>
      </trkpt>
      <trkpt lat="48.65181" lon="7.04769">
        <ele>287.98</ele>
        <time>2013-08-11T08:11:01Z</time>
      </trkpt>
      <trkpt lat="48.65166" lon="7.04797">
        <ele>288.32</ele>
        <time>2013-08-11T08:11:05Z</time>
      </trkpt>
      <trkpt lat="48.65152" lon="7.04825">
        <ele>288.48</ele>
        <time>2013-08-11T08:11:09Z</time>
      </trkpt>
      <trkpt lat="48.65139" lon="7.04847">
        <ele>288.99</ele>
        <time>2013-08-11T08:11:12Z</time>
      </trkpt>
      <trkpt lat="48.65124" lon="7.04872">
        <ele>289.21</ele>
        <time>2013-08-11T08:11:16Z</time>
      </trkpt>
      <trkpt lat="48.65108" lon="7.04893">
        <ele>289.56</ele>
        <time>2013-08-11T08:11:20Z</time>
      </trkpt>
      <trkpt lat="48.65096" lon="7.04915">
        <ele>289.7</ele>
        <time>2013-08-11T08:11:23Z</time>
      </trkpt>
      <trkpt lat="48.65077" lon="7.04941">
        <ele>290.22</ele>
        <time>2013-08-11T08:11:27Z</time>
      </trkpt>
      <trkpt lat="48.65062" lon="7.0496">
        <ele>290.6</ele>
        <time>2013-08-11T08:11:30Z</time>
      </trkpt>
      <trkpt lat="48.65047" lon="7.04978">
        <ele>290.45</ele>
        <time>2013-08-11T08:11:33Z</time>
      </trkpt>
      <trkpt lat="48.65032" lon="7.04996">
        <ele>290.87</ele>
        <time>2013-08-11T08:11:36Z</time>
      </trkpt>
      <trkpt lat="48.65013" lon="7.05013">
        <ele>290.93</ele>
        <time>2013-08-11T08:11:40Z</time>
      </trkpt>
      <trkpt lat="48.64997" lon="7.05029">
        <ele>288.56</ele>
        <time>2013-08-11T08:11:44Z</time>
      </trkpt>
      <trkpt lat="48.6498" lon="7.05045">
        <ele>285.56</ele>
        <time>2013-08-11T08:11:48Z</time>
      </trkpt>
      <trkpt lat="48.64961" lon="7.05059">
        <ele>284.19</ele>
        <time>2013-08-11T08:11:52Z</time>
      </trkpt>
      <trkpt lat="48.6494" lon="7.05072">
        <ele>283.72</ele>
        <time>2013-08-11T08:11:56Z</time>
      </trkpt>
      <trkpt lat="48.64918" lon="7.05082">
        <ele>284.48</ele>
        <time>2013-08-11T08:12:00Z</time>
      </trkpt>
      <trkpt lat="48.64898" lon="7.05092">
        <ele>285.6</ele>
        <time>2013-08-11T08:12:04Z</time>
      </trkpt>
      <trkpt lat="48.64877" lon="7.05103">
        <ele>286.62</ele>
        <time>2013-08-11T08:12:08Z</time>
      </trkpt>
      <trkpt lat="48.64854" lon="7.05114">
        <ele>288.22</ele>
        <time>2013-08-11T08:12:12Z</time>
      </trkpt>
      <trkpt lat="48.64836" lon="7.0512">
        <ele>289.16</ele>
        <time>2013-08-11T08:12:15Z</time>
      </trkpt>
      <trkpt lat="48.64817" lon="7.05127">
        <ele>289.82</ele>
        <time>2013-08-11T08:12:18Z</time>
      </trkpt>
      <trkpt lat="48.64799" lon="7.05132">
        <ele>289.44</ele>
        <time>2013-08-11T08:12:21Z</time>
      </trkpt>
      <trkpt lat="48.6478" lon="7.05137">
        <ele>289.5</ele>
        <time>2013-08-11T08:12:24Z</time>
      </trkpt>
      <trkpt lat="48.64761" lon="7.05145">
        <ele>289.6</ele>
        <time>2013-08-11T08:12:27Z</time>
      </trkpt>
      <trkpt lat="48.64738" lon="7.05154">
        <ele>288.74</ele>
        <time>2013-08-11T08:12:31Z</time>
      </trkpt>
      <trkpt lat="48.6472" lon="7.0516">
        <ele>288.57</ele>
        <time>2013-08-11T08:12:34Z</time>
      </trkpt>
      <trkpt lat="48.64698" lon="7.05169">
        <ele>288.26</ele>
        <time>2013-08-11T08:12:38Z</time>
      </trkpt>
      <trkpt lat="48.64676" lon="7.05178">
        <ele>287.83</ele>
        <time>2013-08-11T08:12:42Z</time>
      </trkpt>
      <trkpt lat="48.64653" lon="7.05185">
        <ele>286.64</ele>
        <time>2013-08-11T08:12:46Z</time>
      </trkpt>
      <trkpt lat="48.64635" lon="7.05188">
        <ele>285.49</ele>
        <time>2013-08-11T08:12:49Z</time>
      </trkpt>
      <trkpt lat="48.64611" lon="7.05189">
        <ele>284.25</ele>
        <time>2013-08-11T08:12:53Z</time>
      </trkpt>
      <trkpt lat="48.64591" lon="7.05192">
        <ele>283.49</ele>
        <time>2013-08-11T08:12:57Z</time>
      </trkpt>
      <trkpt lat="48.6457" lon="7.05197">
        <ele>283.13</ele>
        <time>2013-08-11T08:13:02Z</time>
      </trkpt>
      <trkpt lat="48.64551" lon="7.05203">
        <ele>283.15</ele>
        <time>2013-08-11T08:13:06Z</time>
      </trkpt>
      <trkpt lat="48.64529" lon="7.05215">
        <ele>283.33</ele>
        <time>2013-08-11T08:13:10Z</time>
      </trkpt>
      <trkpt lat="48.64509" lon="7.0523">
        <ele>283.83</ele>
        <time>2013-08-11T08:13:14Z</time>
      </trkpt>
      <trkpt lat="48.64489" lon="7.05247">
        <ele>284.41</ele>
        <time>2013-08-11T08:13:18Z</time>
      </trkpt>
      <trkpt lat="48.64471" lon="7.05267">
        <ele>284.7</ele>
        <time>2013-08-11T08:13:22Z</time>
      </trkpt>
      <trkpt lat="48.64457" lon="7.05294">
        <ele>284.12</ele>
        <time>2013-08-11T08:13:26Z</time>
      </trkpt>
      <trkpt lat="48.64443" lon="7.05321">
        <ele>284.04</ele>
        <time>2013-08-11T08:13:30Z</time>
      </trkpt>
      <trkpt lat="48.64431" lon="7.05353">
        <ele>284.26</ele>
        <time>2013-08-11T08:13:34Z</time>
      </trkpt>
      <trkpt lat="48.64423" lon="7.05385">
        <ele>284.3</ele>
        <time>2013-08-11T08:13:38Z</time>
      </trkpt>
      <trkpt lat="48.64419" lon="7.05419">
        <ele>284.13</ele>
        <time>2013-08-11T08:13:42Z</time>
      </trkpt>
      <trkpt lat="48.64416" lon="7.05454">
        <ele>284.02</ele>
        <time>2013-08-11T08:13:46Z</time>
      </trkpt>
      <trkpt lat="48.64412" lon="7.05489">
        <ele>283.76</ele>
        <time>2013-08-11T08:13:50Z</time>
      </trkpt>
      <trkpt lat="48.64409" lon="7.05523">
        <ele>283.59</ele>
        <time>2013-08-11T08:13:54Z</time>
      </trkpt>
      <trkpt lat="48.64406" lon="7.05558">
        <ele>283.45</ele>
        <time>2013-08-11T08:13:58Z</time>
      </trkpt>
      <trkpt lat="48.64401" lon="7.05592">
        <ele>283.41</ele>
        <time>2013-08-11T08:14:02Z</time>
      </trkpt>
      <trkpt lat="48.64392" lon="7.05623">
        <ele>283.46</ele>
        <time>2013-08-11T08:14:06Z</time>
      </trkpt>
      <trkpt lat="48.6438" lon="7.05653">
        <ele>283.59</ele>
        <time>2013-08-11T08:14:10Z</time>
      </trkpt>
      <trkpt lat="48.64366" lon="7.05682">
        <ele>283.77</ele>
        <time>2013-08-11T08:14:14Z</time>
      </trkpt>
      <trkpt lat="48.64349" lon="7.05706">
        <ele>283.95</ele>
        <time>2013-08-11T08:14:18Z</time>
      </trkpt>
      <trkpt lat="48.64332" lon="7.05729">
        <ele>283.9</ele>
        <time>2013-08-11T08:14:22Z</time>
      </trkpt>
      <trkpt lat="48.64314" lon="7.0575">
        <ele>283.64</ele>
        <time>2013-08-11T08:14:26Z</time>
      </trkpt>
      <trkpt lat="48.64295" lon="7.05772">
        <ele>283.48</ele>
        <time>2013-08-11T08:14:30Z</time>
      </trkpt>
      <trkpt lat="48.64277" lon="7.05795">
        <ele>283.44</ele>
        <time>2013-08-11T08:14:34Z</time>
      </trkpt>
      <trkpt lat="48.64259" lon="7.05817">
        <ele>283.36</ele>
        <time>2013-08-11T08:14:38Z</time>
      </trkpt>
      <trkpt lat="48.64242" lon="7.05838">
        <ele>283.57</ele>
        <time>2013-08-11T08:14:42Z</time>
      </trkpt>
      <trkpt lat="48.64225" lon="7.05859">
        <ele>283.83</ele>
        <time>2013-08-11T08:14:46Z</time>
      </trkpt>
      <trkpt lat="48.64207" lon="7.05879">
        <ele>284.28</ele>
        <time>2013-08-11T08:14:50Z</time>
      </trkpt>
      <trkpt lat="48.64189" lon="7.05899">
        <ele>285.46</ele>
        <time>2013-08-11T08:14:54Z</time>
      </trkpt>
      <trkpt lat="48.64172" lon="7.0592">
        <ele>286.47</ele>
        <time>2013-08-11T08:14:58Z</time>
      </trkpt>
      <trkpt lat="48.64155" lon="7.05943">
        <ele>287.67</ele>
        <time>2013-08-11T08:15:02Z</time>
      </trkpt>
      <trkpt lat="48.64139" lon="7.05963">
        <ele>289.4</ele>
        <time>2013-08-11T08:15:06Z</time>
      </trkpt>
      <trkpt lat="48.64122" lon="7.05985">
        <ele>291.44</ele>
        <time>2013-08-11T08:15:10Z</time>
      </trkpt>
      <trkpt lat="48.64109" lon="7.06012">
        <ele>293.58</ele>
        <time>2013-08-11T08:15:14Z</time>
      </trkpt>
      <trkpt lat="48.64099" lon="7.06036">
        <ele>295.42</ele>
        <time>2013-08-11T08:15:17Z</time>
      </trkpt>
      <trkpt lat="48.64089" lon="7.06061">
        <ele>297.21</ele>
        <time>2013-08-11T08:15:20Z</time>
      </trkpt>
      <trkpt lat="48.6408" lon="7.06087">
        <ele>298.79</ele>
        <time>2013-08-11T08:15:23Z</time>
      </trkpt>
      <trkpt lat="48.6407" lon="7.06119">
        <ele>301.22</ele>
        <time>2013-08-11T08:15:27Z</time>
      </trkpt>
      <trkpt lat="48.64061" lon="7.06147">
        <ele>303.53</ele>
        <time>2013-08-11T08:15:31Z</time>
      </trkpt>
      <trkpt lat="48.64053" lon="7.06176">
        <ele>303.52</ele>
        <time>2013-08-11T08:15:36Z</time>
      </trkpt>
      <trkpt lat="48.64047" lon="7.06203">
        <ele>301.42</ele>
        <time>2013-08-11T08:15:42Z</time>
      </trkpt>
      <trkpt lat="48.64042" lon="7.06233">
        <ele>299.79</ele>
        <time>2013-08-11T08:26:20Z</time>
      </trkpt>
      <trkpt lat="48.64036" lon="7.06259">
        <ele>298.76</ele>
        <time>2013-08-11T08:26:24Z</time>
      </trkpt>
      <trkpt lat="48.64031" lon="7.06289">
        <ele>298.14</ele>
        <time>2013-08-11T08:26:28Z</time>
      </trkpt>
      <trkpt lat="48.64029" lon="7.06317">
        <ele>296.5</ele>
        <time>2013-08-11T08:26:32Z</time>
      </trkpt>
      <trkpt lat="48.64029" lon="7.06346">
        <ele>293.21</ele>
        <time>2013-08-11T08:26:39Z</time>
      </trkpt>
      <trkpt lat="48.64031" lon="7.06373">
        <ele>291.35</ele>
        <time>2013-08-11T08:28:35Z</time>
      </trkpt>
      <trkpt lat="48.64032" lon="7.06404">
        <ele>290.76</ele>
        <time>2013-08-11T08:28:40Z</time>
      </trkpt>
      <trkpt lat="48.64031" lon="7.06436">
        <ele>290.81</ele>
        <time>2013-08-11T08:28:46Z</time>
      </trkpt>
      <trkpt lat="48.64034" lon="7.06468">
        <ele>291.24</ele>
        <time>2013-08-11T08:28:52Z</time>
      </trkpt>
      <trkpt lat="48.64035" lon="7.06495">
        <ele>291.3</ele>
        <time>2013-08-11T08:28:56Z</time>
      </trkpt>
      <trkpt lat="48.64034" lon="7.06528">
        <ele>292.06</ele>
        <time>2013-08-11T08:29:01Z</time>
      </trkpt>
      <trkpt lat="48.64034" lon="7.06555">
        <ele>292.8</ele>
        <time>2013-08-11T08:29:06Z</time>
      </trkpt>
      <trkpt lat="48.64034" lon="7.06584">
        <ele>292.58</ele>
        <time>2013-08-11T08:29:10Z</time>
      </trkpt>
      <trkpt lat="48.64035" lon="7.06614">
        <ele>292.07</ele>
        <time>2013-08-11T08:29:14Z</time>
      </trkpt>
      <trkpt lat="48.64039" lon="7.06645">
        <ele>291.22</ele>
        <time>2013-08-11T08:29:19Z</time>
      </trkpt>
      <trkpt lat="48.6404" lon="7.06679">
        <ele>291.07</ele>
        <time>2013-08-11T08:29:24Z</time>
      </trkpt>
      <trkpt lat="48.64043" lon="7.06709">
        <ele>291.29</ele>
        <time>2013-08-11T08:29:29Z</time>
      </trkpt>
      <trkpt lat="48.64046" lon="7.0674">
        <ele>292.26</ele>
        <time>2013-08-11T08:29:34Z</time>
      </trkpt>
      <trkpt lat="48.64048" lon="7.0677">
        <ele>292.2</ele>
        <time>2013-08-11T08:29:38Z</time>
      </trkpt>
      <trkpt lat="48.6405" lon="7.068">
        <ele>292.39</ele>
        <time>2013-08-11T08:29:42Z</time>
      </trkpt>
      <trkpt lat="48.64051" lon="7.06834">
        <ele>292.49</ele>
        <time>2013-08-11T08:29:47Z</time>
      </trkpt>
      <trkpt lat="48.64052" lon="7.06862">
        <ele>292.9</ele>
        <time>2013-08-11T08:29:51Z</time>
      </trkpt>
      <trkpt lat="48.64052" lon="7.06897">
        <ele>293.24</ele>
        <time>2013-08-11T08:29:56Z</time>
      </trkpt>
      <trkpt lat="48.64051" lon="7.06928">
        <ele>293.48</ele>
        <time>2013-08-11T08:30:00Z</time>
      </trkpt>
      <trkpt lat="48.64048" lon="7.0696">
        <ele>293.81</ele>
        <time>2013-08-11T08:30:04Z</time>
      </trkpt>
      <trkpt lat="48.64046" lon="7.06993">
        <ele>293.96</ele>
        <time>2013-08-11T08:30:08Z</time>
      </trkpt>
      <trkpt lat="48.64044" lon="7.07025">
        <ele>294</ele>
        <time>2013-08-11T08:30:12Z</time>
      </trkpt>
      <trkpt lat="48.64039" lon="7.07058">
        <ele>294.43</ele>
        <time>2013-08-11T08:30:16Z</time>
      </trkpt>
      <trkpt lat="48.64035" lon="7.07092">
        <ele>294.22</ele>
        <time>2013-08-11T08:30:20Z</time>
      </trkpt>
      <trkpt lat="48.64032" lon="7.07126">
        <ele>294.57</ele>
        <time>2013-08-11T08:30:24Z</time>
      </trkpt>
      <trkpt lat="48.64032" lon="7.07157">
        <ele>294.24</ele>
        <time>2013-08-11T08:30:28Z</time>
      </trkpt>
      <trkpt lat="48.64032" lon="7.07188">
        <ele>294.07</ele>
        <time>2013-08-11T08:30:32Z</time>
      </trkpt>
      <trkpt lat="48.64033" lon="7.07221">
        <ele>294.68</ele>
        <time>2013-08-11T08:30:36Z</time>
      </trkpt>
      <trkpt lat="48.64036" lon="7.07255">
        <ele>295.45</ele>
        <time>2013-08-11T08:30:40Z</time>
      </trkpt>
      <trkpt lat="48.6404" lon="7.07288">
        <ele>296.1</ele>
        <time>2013-08-11T08:30:44Z</time>
      </trkpt>
      <trkpt lat="48.64045" lon="7.07318">
        <ele>296.74</ele>
        <time>2013-08-11T08:30:48Z</time>
      </trkpt>
      <trkpt lat="48.64049" lon="7.07345">
        <ele>296.96</ele>
        <time>2013-08-11T08:30:53Z</time>
      </trkpt>
      <trkpt lat="48.64033" lon="7.0736">
        <ele>293.7</ele>
        <time>2013-08-11T08:31:00Z</time>
      </trkpt>
      <trkpt lat="48.6401" lon="7.07354">
        <ele>290.16</ele>
        <time>2013-08-11T08:31:04Z</time>
      </trkpt>
      <trkpt lat="48.63992" lon="7.0735">
        <ele>288.87</ele>
        <time>2013-08-11T08:31:07Z</time>
      </trkpt>
      <trkpt lat="48.63969" lon="7.07343">
        <ele>288.52</ele>
        <time>2013-08-11T08:31:11Z</time>
      </trkpt>
      <trkpt lat="48.63946" lon="7.07336">
        <ele>288.76</ele>
        <time>2013-08-11T08:31:15Z</time>
      </trkpt>
      <trkpt lat="48.63923" lon="7.07331">
        <ele>288.57</ele>
        <time>2013-08-11T08:31:19Z</time>
      </trkpt>
      <trkpt lat="48.63905" lon="7.07327">
        <ele>288.75</ele>
        <time>2013-08-11T08:31:22Z</time>
      </trkpt>
      <trkpt lat="48.63886" lon="7.0732">
        <ele>289.44</ele>
        <time>2013-08-11T08:31:25Z</time>
      </trkpt>
      <trkpt lat="48.63865" lon="7.07315">
        <ele>291.07</ele>
        <time>2013-08-11T08:31:29Z</time>
      </trkpt>
      <trkpt lat="48.63846" lon="7.07313">
        <ele>292.22</ele>
        <time>2013-08-11T08:31:34Z</time>
      </trkpt>
      <trkpt lat="48.63837" lon="7.07336">
        <ele>291.85</ele>
        <time>2013-08-11T08:31:38Z</time>
      </trkpt>
      <trkpt lat="48.63835" lon="7.0737">
        <ele>291.25</ele>
        <time>2013-08-11T08:31:42Z</time>
      </trkpt>
      <trkpt lat="48.63836" lon="7.07403">
        <ele>291.93</ele>
        <time>2013-08-11T08:31:46Z</time>
      </trkpt>
      <trkpt lat="48.63838" lon="7.07434">
        <ele>293.19</ele>
        <time>2013-08-11T08:31:50Z</time>
      </trkpt>
      <trkpt lat="48.63839" lon="7.07466">
        <ele>294.14</ele>
        <time>2013-08-11T08:31:54Z</time>
      </trkpt>
      <trkpt lat="48.63842" lon="7.07495">
        <ele>295.07</ele>
        <time>2013-08-11T08:31:58Z</time>
      </trkpt>
      <trkpt lat="48.63841" lon="7.07523">
        <ele>295.92</ele>
        <time>2013-08-11T08:32:02Z</time>
      </trkpt>
      <trkpt lat="48.63833" lon="7.0755">
        <ele>295.66</ele>
        <time>2013-08-11T08:32:07Z</time>
      </trkpt>
      <trkpt lat="48.63827" lon="7.07577">
        <ele>295.26</ele>
        <time>2013-08-11T08:32:11Z</time>
      </trkpt>
      <trkpt lat="48.63823" lon="7.07605">
        <ele>295.41</ele>
        <time>2013-08-11T08:32:15Z</time>
      </trkpt>
      <trkpt lat="48.63818" lon="7.07638">
        <ele>295.84</ele>
        <time>2013-08-11T08:32:20Z</time>
      </trkpt>
      <trkpt lat="48.6381" lon="7.07664">
        <ele>296.19</ele>
        <time>2013-08-11T08:32:24Z</time>
      </trkpt>
      <trkpt lat="48.63798" lon="7.07689">
        <ele>296.72</ele>
        <time>2013-08-11T08:32:28Z</time>
      </trkpt>
      <trkpt lat="48.63783" lon="7.07712">
        <ele>296.47</ele>
        <time>2013-08-11T08:32:32Z</time>
      </trkpt>
      <trkpt lat="48.63769" lon="7.07733">
        <ele>296.37</ele>
        <time>2013-08-11T08:32:36Z</time>
      </trkpt>
      <trkpt lat="48.63758" lon="7.07759">
        <ele>296.51</ele>
        <time>2013-08-11T08:32:40Z</time>
      </trkpt>
      <trkpt lat="48.63753" lon="7.07788">
        <ele>295.79</ele>
        <time>2013-08-11T08:32:44Z</time>
      </trkpt>
      <trkpt lat="48.63748" lon="7.07819">
        <ele>294.59</ele>
        <time>2013-08-11T08:32:48Z</time>
      </trkpt>
      <trkpt lat="48.63744" lon="7.07853">
        <ele>294.74</ele>
        <time>2013-08-11T08:32:52Z</time>
      </trkpt>
      <trkpt lat="48.63739" lon="7.07885">
        <ele>295.47</ele>
        <time>2013-08-11T08:32:56Z</time>
      </trkpt>
      <trkpt lat="48.63735" lon="7.07918">
        <ele>296.34</ele>
        <time>2013-08-11T08:33:00Z</time>
      </trkpt>
      <trkpt lat="48.63732" lon="7.07946">
        <ele>296.64</ele>
        <time>2013-08-11T08:33:04Z</time>
      </trkpt>
      <trkpt lat="48.63729" lon="7.07976">
        <ele>295.63</ele>
        <time>2013-08-11T08:33:09Z</time>
      </trkpt>
      <trkpt lat="48.63727" lon="7.08007">
        <ele>295.04</ele>
        <time>2013-08-11T08:33:44Z</time>
      </trkpt>
      <trkpt lat="48.63723" lon="7.08033">
        <ele>294.77</ele>
        <time>2013-08-11T08:33:49Z</time>
      </trkpt>
      <trkpt lat="48.63719" lon="7.08061">
        <ele>294.37</ele>
        <time>2013-08-11T08:33:54Z</time>
      </trkpt>
      <trkpt lat="48.63713" lon="7.08093">
        <ele>293.85</ele>
        <time>2013-08-11T08:33:59Z</time>
      </trkpt>
      <trkpt lat="48.63706" lon="7.08125">
        <ele>293.75</ele>
        <time>2013-08-11T08:34:04Z</time>
      </trkpt>
      <trkpt lat="48.63701" lon="7.08152">
        <ele>293.73</ele>
        <time>2013-08-11T08:34:08Z</time>
      </trkpt>
      <trkpt lat="48.63694" lon="7.0818">
        <ele>294.16</ele>
        <time>2013-08-11T08:34:13Z</time>
      </trkpt>
      <trkpt lat="48.63684" lon="7.08205">
        <ele>295.22</ele>
        <time>2013-08-11T08:34:20Z</time>
      </trkpt>
      <trkpt lat="48.63673" lon="7.08227">
        <ele>295.86</ele>
        <time>2013-08-11T08:34:26Z</time>
      </trkpt>
      <trkpt lat="48.63664" lon="7.08253">
        <ele>296.56</ele>
        <time>2013-08-11T08:34:32Z</time>
      </trkpt>
      <trkpt lat="48.63658" lon="7.08283">
        <ele>296.69</ele>
        <time>2013-08-11T08:34:38Z</time>
      </trkpt>
      <trkpt lat="48.63656" lon="7.08314">
        <ele>297.1</ele>
        <time>2013-08-11T08:34:44Z</time>
      </trkpt>
      <trkpt lat="48.63655" lon="7.08347">
        <ele>297.85</ele>
        <time>2013-08-11T08:34:50Z</time>
      </trkpt>
      <trkpt lat="48.63657" lon="7.08375">
        <ele>298.7</ele>
        <time>2013-08-11T08:34:55Z</time>
      </trkpt>
      <trkpt lat="48.6366" lon="7.08403">
        <ele>300.51</ele>
        <time>2013-08-11T08:35:00Z</time>
      </trkpt>
      <trkpt lat="48.63663" lon="7.08433">
        <ele>302.1</ele>
        <time>2013-08-11T08:35:05Z</time>
      </trkpt>
      <trkpt lat="48.63668" lon="7.08465">
        <ele>303.55</ele>
        <time>2013-08-11T08:35:09Z</time>
      </trkpt>
      <trkpt lat="48.6367" lon="7.08499">
        <ele>305.82</ele>
        <time>2013-08-11T08:35:13Z</time>
      </trkpt>
      <trkpt lat="48.63675" lon="7.08531">
        <ele>307.72</ele>
        <time>2013-08-11T08:35:17Z</time>
      </trkpt>
      <trkpt lat="48.63676" lon="7.08562">
        <ele>308.38</ele>
        <time>2013-08-11T08:35:21Z</time>
      </trkpt>
      <trkpt lat="48.63674" lon="7.0859">
        <ele>308.68</ele>
        <time>2013-08-11T08:35:25Z</time>
      </trkpt>
      <trkpt lat="48.63671" lon="7.08623">
        <ele>309.95</ele>
        <time>2013-08-11T08:35:30Z</time>
      </trkpt>
      <trkpt lat="48.63671" lon="7.08651">
        <ele>311.85</ele>
        <time>2013-08-11T08:35:35Z</time>
      </trkpt>
      <trkpt lat="48.63668" lon="7.08679">
        <ele>312.99</ele>
        <time>2013-08-11T08:35:42Z</time>
      </trkpt>
      <trkpt lat="48.63666" lon="7.08709">
        <ele>314.92</ele>
        <time>2013-08-11T08:35:51Z</time>
      </trkpt>
      <trkpt lat="48.63661" lon="7.08739">
        <ele>314.7</ele>
        <time>2013-08-11T08:35:57Z</time>
      </trkpt>
      <trkpt lat="48.63659" lon="7.0877">
        <ele>313.58</ele>
        <time>2013-08-11T08:36:01Z</time>
      </trkpt>
      <trkpt lat="48.63657" lon="7.08804">
        <ele>312.8</ele>
        <time>2013-08-11T08:36:05Z</time>
      </trkpt>
      <trkpt lat="48.63659" lon="7.08832">
        <ele>312.47</ele>
        <time>2013-08-11T08:36:09Z</time>
      </trkpt>
      <trkpt lat="48.6366" lon="7.08861">
        <ele>312.15</ele>
        <time>2013-08-11T08:36:13Z</time>
      </trkpt>
      <trkpt lat="48.63657" lon="7.08894">
        <ele>311.88</ele>
        <time>2013-08-11T08:36:17Z</time>
      </trkpt>
      <trkpt lat="48.63652" lon="7.08921">
        <ele>311.6</ele>
        <time>2013-08-11T08:36:20Z</time>
      </trkpt>
      <trkpt lat="48.63643" lon="7.08951">
        <ele>311.38</ele>
        <time>2013-08-11T08:36:23Z</time>
      </trkpt>
      <trkpt lat="48.63624" lon="7.08984">
        <ele>310.03</ele>
        <time>2013-08-11T08:36:26Z</time>
      </trkpt>
      <trkpt lat="48.63607" lon="7.09008">
        <ele>306.63</ele>
        <time>2013-08-11T08:36:29Z</time>
      </trkpt>
      <trkpt lat="48.63594" lon="7.09028">
        <ele>304.11</ele>
        <time>2013-08-11T08:36:32Z</time>
      </trkpt>
      <trkpt lat="48.6358" lon="7.09046">
        <ele>302.38</ele>
        <time>2013-08-11T08:36:35Z</time>
      </trkpt>
      <trkpt lat="48.63566" lon="7.09066">
        <ele>300.82</ele>
        <time>2013-08-11T08:36:38Z</time>
      </trkpt>
      <trkpt lat="48.63553" lon="7.09085">
        <ele>299.6</ele>
        <time>2013-08-11T08:36:41Z</time>
      </trkpt>
      <trkpt lat="48.63536" lon="7.0911">
        <ele>298.54</ele>
        <time>2013-08-11T08:36:45Z</time>
      </trkpt>
      <trkpt lat="48.6352" lon="7.09135">
        <ele>298.12</ele>
        <time>2013-08-11T08:36:49Z</time>
      </trkpt>
      <trkpt lat="48.63503" lon="7.0916">
        <ele>298.1</ele>
        <time>2013-08-11T08:36:53Z</time>
      </trkpt>
      <trkpt lat="48.63486" lon="7.09184">
        <ele>297.96</ele>
        <time>2013-08-11T08:36:57Z</time>
      </trkpt>
      <trkpt lat="48.63468" lon="7.09205">
        <ele>297.66</ele>
        <time>2013-08-11T08:37:01Z</time>
      </trkpt>
      <trkpt lat="48.6345" lon="7.09225">
        <ele>297.73</ele>
        <time>2013-08-11T08:37:05Z</time>
      </trkpt>
      <trkpt lat="48.63436" lon="7.09243">
        <ele>298.36</ele>
        <time>2013-08-11T08:37:09Z</time>
      </trkpt>
      <trkpt lat="48.63426" lon="7.09266">
        <ele>297.99</ele>
        <time>2013-08-11T08:37:15Z</time>
      </trkpt>
      <trkpt lat="48.63408" lon="7.09275">
        <ele>297.8</ele>
        <time>2013-08-11T08:37:30Z</time>
      </trkpt>
      <trkpt lat="48.63407" lon="7.09304">
        <ele>298.67</ele>
        <time>2013-08-11T08:37:37Z</time>
      </trkpt>
      <trkpt lat="48.63409" lon="7.09336">
        <ele>299.17</ele>
        <time>2013-08-11T08:37:43Z</time>
      </trkpt>
      <trkpt lat="48.63407" lon="7.09368">
        <ele>299.39</ele>
        <time>2013-08-11T08:37:48Z</time>
      </trkpt>
      <trkpt lat="48.63404" lon="7.09396">
        <ele>298.62</ele>
        <time>2013-08-11T08:37:52Z</time>
      </trkpt>
      <trkpt lat="48.63401" lon="7.09423">
        <ele>298.2</ele>
        <time>2013-08-11T08:37:56Z</time>
      </trkpt>
      <trkpt lat="48.63395" lon="7.09451">
        <ele>297.82</ele>
        <time>2013-08-11T08:38:00Z</time>
      </trkpt>
      <trkpt lat="48.63388" lon="7.09476">
        <ele>296.98</ele>
        <time>2013-08-11T08:38:04Z</time>
      </trkpt>
      <trkpt lat="48.63379" lon="7.09502">
        <ele>296.69</ele>
        <time>2013-08-11T08:38:08Z</time>
      </trkpt>
      <trkpt lat="48.63368" lon="7.09524">
        <ele>296.83</ele>
        <time>2013-08-11T08:38:12Z</time>
      </trkpt>
      <trkpt lat="48.63354" lon="7.09544">
        <ele>297.26</ele>
        <time>2013-08-11T08:38:17Z</time>
      </trkpt>
      <trkpt lat="48.6334" lon="7.0957">
        <ele>297.87</ele>
        <time>2013-08-11T08:38:23Z</time>
      </trkpt>
      <trkpt lat="48.63326" lon="7.09596">
        <ele>298.71</ele>
        <time>2013-08-11T08:38:27Z</time>
      </trkpt>
      <trkpt lat="48.63312" lon="7.09617">
        <ele>300</ele>
        <time>2013-08-11T08:38:31Z</time>
      </trkpt>
      <trkpt lat="48.63298" lon="7.09635">
        <ele>301.74</ele>
        <time>2013-08-11T08:38:35Z</time>
      </trkpt>
      <trkpt lat="48.63278" lon="7.09655">
        <ele>303.76</ele>
        <time>2013-08-11T08:38:40Z</time>
      </trkpt>
      <trkpt lat="48.63261" lon="7.0967">
        <ele>303.21</ele>
        <time>2013-08-11T08:38:43Z</time>
      </trkpt>
      <trkpt lat="48.63244" lon="7.09684">
        <ele>302.74</ele>
        <time>2013-08-11T08:38:48Z</time>
      </trkpt>
      <trkpt lat="48.63225" lon="7.09698">
        <ele>303.91</ele>
        <time>2013-08-11T08:38:53Z</time>
      </trkpt>
      <trkpt lat="48.63214" lon="7.09722">
        <ele>304.01</ele>
        <time>2013-08-11T08:38:57Z</time>
      </trkpt>
      <trkpt lat="48.63204" lon="7.09747">
        <ele>302.65</ele>
        <time>2013-08-11T08:39:01Z</time>
      </trkpt>
      <trkpt lat="48.63197" lon="7.09776">
        <ele>302.6</ele>
        <time>2013-08-11T08:39:05Z</time>
      </trkpt>
      <trkpt lat="48.63194" lon="7.09809">
        <ele>304.65</ele>
        <time>2013-08-11T08:39:10Z</time>
      </trkpt>
      <trkpt lat="48.63194" lon="7.09837">
        <ele>306.31</ele>
        <time>2013-08-11T08:39:14Z</time>
      </trkpt>
      <trkpt lat="48.63202" lon="7.09869">
        <ele>307.21</ele>
        <time>2013-08-11T08:39:20Z</time>
      </trkpt>
      <trkpt lat="48.63206" lon="7.099">
        <ele>308</ele>
        <time>2013-08-11T08:39:25Z</time>
      </trkpt>
      <trkpt lat="48.63212" lon="7.09929">
        <ele>308.88</ele>
        <time>2013-08-11T08:39:30Z</time>
      </trkpt>
      <trkpt lat="48.63216" lon="7.09962">
        <ele>309.36</ele>
        <time>2013-08-11T08:39:36Z</time>
      </trkpt>
      <trkpt lat="48.63208" lon="7.09991">
        <ele>305.24</ele>
        <time>2013-08-11T08:39:42Z</time>
      </trkpt>
      <trkpt lat="48.63208" lon="7.0996">
        <ele>294.32</ele>
        <time>2013-08-11T08:40:09Z</time>
      </trkpt>
      <trkpt lat="48.63203" lon="7.0999">
        <ele>298.53</ele>
        <time>2013-08-11T08:41:47Z</time>
      </trkpt>
      <trkpt lat="48.63201" lon="7.10021">
        <ele>298.85</ele>
        <time>2013-08-11T08:41:53Z</time>
      </trkpt>
      <trkpt lat="48.63197" lon="7.10053">
        <ele>298.74</ele>
        <time>2013-08-11T08:41:59Z</time>
      </trkpt>
      <trkpt lat="48.63187" lon="7.1008">
        <ele>298.58</ele>
        <time>2013-08-11T08:42:04Z</time>
      </trkpt>
      <trkpt lat="48.63177" lon="7.10106">
        <ele>299.04</ele>
        <time>2013-08-11T08:42:09Z</time>
      </trkpt>
      <trkpt lat="48.63164" lon="7.1013">
        <ele>300.7</ele>
        <time>2013-08-11T08:42:14Z</time>
      </trkpt>
      <trkpt lat="48.63152" lon="7.10151">
        <ele>302.33</ele>
        <time>2013-08-11T08:42:18Z</time>
      </trkpt>
      <trkpt lat="48.63137" lon="7.10175">
        <ele>304.47</ele>
        <time>2013-08-11T08:42:23Z</time>
      </trkpt>
      <trkpt lat="48.6312" lon="7.10196">
        <ele>305.37</ele>
        <time>2013-08-11T08:42:27Z</time>
      </trkpt>
      <trkpt lat="48.63104" lon="7.10216">
        <ele>305.92</ele>
        <time>2013-08-11T08:42:31Z</time>
      </trkpt>
      <trkpt lat="48.63091" lon="7.10236">
        <ele>306.27</ele>
        <time>2013-08-11T08:42:35Z</time>
      </trkpt>
      <trkpt lat="48.63075" lon="7.10255">
        <ele>306.68</ele>
        <time>2013-08-11T08:42:39Z</time>
      </trkpt>
      <trkpt lat="48.63058" lon="7.10275">
        <ele>307.32</ele>
        <time>2013-08-11T08:42:43Z</time>
      </trkpt>
      <trkpt lat="48.6304" lon="7.10296">
        <ele>307.7</ele>
        <time>2013-08-11T08:42:47Z</time>
      </trkpt>
      <trkpt lat="48.63025" lon="7.1032">
        <ele>307.87</ele>
        <time>2013-08-11T08:42:51Z</time>
      </trkpt>
      <trkpt lat="48.63009" lon="7.10344">
        <ele>307.05</ele>
        <time>2013-08-11T08:42:55Z</time>
      </trkpt>
      <trkpt lat="48.62995" lon="7.10365">
        <ele>307.06</ele>
        <time>2013-08-11T08:42:59Z</time>
      </trkpt>
      <trkpt lat="48.6298" lon="7.10382">
        <ele>307.92</ele>
        <time>2013-08-11T08:43:03Z</time>
      </trkpt>
      <trkpt lat="48.62964" lon="7.10397">
        <ele>309.14</ele>
        <time>2013-08-11T08:43:08Z</time>
      </trkpt>
      <trkpt lat="48.62944" lon="7.10409">
        <ele>309.64</ele>
        <time>2013-08-11T08:43:14Z</time>
      </trkpt>
      <trkpt lat="48.62924" lon="7.10418">
        <ele>309.67</ele>
        <time>2013-08-11T08:43:19Z</time>
      </trkpt>
      <trkpt lat="48.62905" lon="7.10424">
        <ele>309.01</ele>
        <time>2013-08-11T08:43:23Z</time>
      </trkpt>
      <trkpt lat="48.62886" lon="7.10427">
        <ele>307.92</ele>
        <time>2013-08-11T08:43:25Z</time>
      </trkpt>
      <trkpt lat="48.62862" lon="7.10434">
        <ele>306.59</ele>
        <time>2013-08-11T08:43:28Z</time>
      </trkpt>
      <trkpt lat="48.62842" lon="7.10447">
        <ele>305.38</ele>
        <time>2013-08-11T08:43:32Z</time>
      </trkpt>
      <trkpt lat="48.62831" lon="7.10475">
        <ele>303.12</ele>
        <time>2013-08-11T08:43:37Z</time>
      </trkpt>
      <trkpt lat="48.62828" lon="7.10508">
        <ele>301.27</ele>
        <time>2013-08-11T08:43:42Z</time>
      </trkpt>
      <trkpt lat="48.62825" lon="7.10538">
        <ele>300.38</ele>
        <time>2013-08-11T08:43:48Z</time>
      </trkpt>
      <trkpt lat="48.62836" lon="7.10561">
        <ele>299.86</ele>
        <time>2013-08-11T08:43:55Z</time>
      </trkpt>
      <trkpt lat="48.62856" lon="7.10575">
        <ele>299.31</ele>
        <time>2013-08-11T08:44:00Z</time>
      </trkpt>
      <trkpt lat="48.62873" lon="7.10586">
        <ele>299.6</ele>
        <time>2013-08-11T08:44:04Z</time>
      </trkpt>
      <trkpt lat="48.62892" lon="7.10601">
        <ele>300.31</ele>
        <time>2013-08-11T08:44:09Z</time>
      </trkpt>
      <trkpt lat="48.62912" lon="7.10615">
        <ele>300.86</ele>
        <time>2013-08-11T08:44:14Z</time>
      </trkpt>
      <trkpt lat="48.6293" lon="7.10626">
        <ele>300.57</ele>
        <time>2013-08-11T08:44:18Z</time>
      </trkpt>
      <trkpt lat="48.62948" lon="7.10638">
        <ele>300.12</ele>
        <time>2013-08-11T08:44:22Z</time>
      </trkpt>
      <trkpt lat="48.62966" lon="7.10651">
        <ele>299.81</ele>
        <time>2013-08-11T08:44:26Z</time>
      </trkpt>
      <trkpt lat="48.62984" lon="7.10664">
        <ele>299.92</ele>
        <time>2013-08-11T08:44:30Z</time>
      </trkpt>
      <trkpt lat="48.63003" lon="7.10676">
        <ele>300.34</ele>
        <time>2013-08-11T08:44:34Z</time>
      </trkpt>
      <trkpt lat="48.6302" lon="7.10689">
        <ele>300.41</ele>
        <time>2013-08-11T08:44:38Z</time>
      </trkpt>
      <trkpt lat="48.63038" lon="7.10702">
        <ele>300.46</ele>
        <time>2013-08-11T08:44:42Z</time>
      </trkpt>
      <trkpt lat="48.63055" lon="7.10715">
        <ele>300.88</ele>
        <time>2013-08-11T08:44:46Z</time>
      </trkpt>
      <trkpt lat="48.63071" lon="7.10728">
        <ele>301.53</ele>
        <time>2013-08-11T08:44:50Z</time>
      </trkpt>
      <trkpt lat="48.6309" lon="7.10741">
        <ele>302.11</ele>
        <time>2013-08-11T08:44:55Z</time>
      </trkpt>
      <trkpt lat="48.63108" lon="7.10753">
        <ele>302.75</ele>
        <time>2013-08-11T08:45:01Z</time>
      </trkpt>
      <trkpt lat="48.63123" lon="7.10769">
        <ele>303.4</ele>
        <time>2013-08-11T08:45:09Z</time>
      </trkpt>
      <trkpt lat="48.63118" lon="7.10795">
        <ele>304.39</ele>
        <time>2013-08-11T08:45:14Z</time>
      </trkpt>
      <trkpt lat="48.63112" lon="7.10824">
        <ele>304.92</ele>
        <time>2013-08-11T08:45:19Z</time>
      </trkpt>
      <trkpt lat="48.63105" lon="7.10855">
        <ele>305.08</ele>
        <time>2013-08-11T08:45:24Z</time>
      </trkpt>
      <trkpt lat="48.63099" lon="7.10882">
        <ele>305.21</ele>
        <time>2013-08-11T08:45:28Z</time>
      </trkpt>
      <trkpt lat="48.63094" lon="7.1091">
        <ele>305.42</ele>
        <time>2013-08-11T08:45:32Z</time>
      </trkpt>
      <trkpt lat="48.63088" lon="7.10938">
        <ele>305.53</ele>
        <time>2013-08-11T08:45:36Z</time>
      </trkpt>
      <trkpt lat="48.63082" lon="7.10966">
        <ele>305.74</ele>
        <time>2013-08-11T08:45:40Z</time>
      </trkpt>
      <trkpt lat="48.63076" lon="7.10994">
        <ele>305.8</ele>
        <time>2013-08-11T08:45:44Z</time>
      </trkpt>
      <trkpt lat="48.6307" lon="7.11025">
        <ele>305.78</ele>
        <time>2013-08-11T08:45:48Z</time>
      </trkpt>
      <trkpt lat="48.63065" lon="7.11055">
        <ele>306.09</ele>
        <time>2013-08-11T08:45:52Z</time>
      </trkpt>
      <trkpt lat="48.63059" lon="7.11086">
        <ele>306.1</ele>
        <time>2013-08-11T08:45:56Z</time>
      </trkpt>
      <trkpt lat="48.63054" lon="7.11116">
        <ele>306.15</ele>
        <time>2013-08-11T08:46:00Z</time>
      </trkpt>
      <trkpt lat="48.63048" lon="7.11147">
        <ele>306.2</ele>
        <time>2013-08-11T08:46:04Z</time>
      </trkpt>
      <trkpt lat="48.63044" lon="7.11178">
        <ele>306.36</ele>
        <time>2013-08-11T08:46:08Z</time>
      </trkpt>
      <trkpt lat="48.63041" lon="7.1121">
        <ele>306.51</ele>
        <time>2013-08-11T08:46:12Z</time>
      </trkpt>
      <trkpt lat="48.63038" lon="7.11242">
        <ele>306.66</ele>
        <time>2013-08-11T08:46:16Z</time>
      </trkpt>
      <trkpt lat="48.63035" lon="7.11274">
        <ele>306.83</ele>
        <time>2013-08-11T08:46:20Z</time>
      </trkpt>
      <trkpt lat="48.63031" lon="7.11306">
        <ele>307.02</ele>
        <time>2013-08-11T08:46:24Z</time>
      </trkpt>
      <trkpt lat="48.63027" lon="7.11337">
        <ele>307.18</ele>
        <time>2013-08-11T08:46:28Z</time>
      </trkpt>
      <trkpt lat="48.63024" lon="7.1137">
        <ele>307.25</ele>
        <time>2013-08-11T08:46:32Z</time>
      </trkpt>
      <trkpt lat="48.6302" lon="7.11402">
        <ele>307.47</ele>
        <time>2013-08-11T08:46:36Z</time>
      </trkpt>
      <trkpt lat="48.63018" lon="7.11435">
        <ele>307.91</ele>
        <time>2013-08-11T08:46:40Z</time>
      </trkpt>
      <trkpt lat="48.63016" lon="7.11467">
        <ele>308.39</ele>
        <time>2013-08-11T08:46:44Z</time>
      </trkpt>
      <trkpt lat="48.63015" lon="7.11501">
        <ele>308.59</ele>
        <time>2013-08-11T08:46:48Z</time>
      </trkpt>
      <trkpt lat="48.63017" lon="7.11535">
        <ele>308.55</ele>
        <time>2013-08-11T08:46:52Z</time>
      </trkpt>
      <trkpt lat="48.63019" lon="7.1157">
        <ele>308.19</ele>
        <time>2013-08-11T08:46:56Z</time>
      </trkpt>
      <trkpt lat="48.63021" lon="7.11605">
        <ele>307.82</ele>
        <time>2013-08-11T08:47:00Z</time>
      </trkpt>
      <trkpt lat="48.63023" lon="7.11637">
        <ele>307.96</ele>
        <time>2013-08-11T08:47:04Z</time>
      </trkpt>
      <trkpt lat="48.63024" lon="7.11672">
        <ele>308.34</ele>
        <time>2013-08-11T08:47:08Z</time>
      </trkpt>
      <trkpt lat="48.63024" lon="7.11704">
        <ele>308.02</ele>
        <time>2013-08-11T08:47:12Z</time>
      </trkpt>
      <trkpt lat="48.63024" lon="7.11735">
        <ele>307.52</ele>
        <time>2013-08-11T08:47:16Z</time>
      </trkpt>
      <trkpt lat="48.63022" lon="7.11767">
        <ele>307.21</ele>
        <time>2013-08-11T08:47:20Z</time>
      </trkpt>
      <trkpt lat="48.63015" lon="7.11798">
        <ele>307.11</ele>
        <time>2013-08-11T08:47:24Z</time>
      </trkpt>
      <trkpt lat="48.63005" lon="7.11825">
        <ele>307.23</ele>
        <time>2013-08-11T08:47:28Z</time>
      </trkpt>
      <trkpt lat="48.62996" lon="7.1185">
        <ele>307.66</ele>
        <time>2013-08-11T08:47:32Z</time>
      </trkpt>
      <trkpt lat="48.62983" lon="7.11873">
        <ele>308.5</ele>
        <time>2013-08-11T08:47:38Z</time>
      </trkpt>
      <trkpt lat="48.62968" lon="7.11895">
        <ele>309.26</ele>
        <time>2013-08-11T08:47:44Z</time>
      </trkpt>
      <trkpt lat="48.62952" lon="7.11912">
        <ele>309.77</ele>
        <time>2013-08-11T08:47:50Z</time>
      </trkpt>
      <trkpt lat="48.62936" lon="7.11925">
        <ele>310.46</ele>
        <time>2013-08-11T08:47:56Z</time>
      </trkpt>
      <trkpt lat="48.62919" lon="7.1194">
        <ele>311.13</ele>
        <time>2013-08-11T08:48:02Z</time>
      </trkpt>
      <trkpt lat="48.62903" lon="7.11957">
        <ele>312.39</ele>
        <time>2013-08-11T08:48:08Z</time>
      </trkpt>
      <trkpt lat="48.62892" lon="7.11978">
        <ele>314.12</ele>
        <time>2013-08-11T08:48:14Z</time>
      </trkpt>
      <trkpt lat="48.6288" lon="7.12001">
        <ele>315.49</ele>
        <time>2013-08-11T08:48:20Z</time>
      </trkpt>
      <trkpt lat="48.62868" lon="7.12025">
        <ele>317.84</ele>
        <time>2013-08-11T08:48:26Z</time>
      </trkpt>
      <trkpt lat="48.62859" lon="7.1205">
        <ele>318.88</ele>
        <time>2013-08-11T08:48:31Z</time>
      </trkpt>
      <trkpt lat="48.6285" lon="7.12076">
        <ele>319.79</ele>
        <time>2013-08-11T08:48:36Z</time>
      </trkpt>
      <trkpt lat="48.62843" lon="7.12105">
        <ele>319.92</ele>
        <time>2013-08-11T08:48:41Z</time>
      </trkpt>
      <trkpt lat="48.62841" lon="7.12133">
        <ele>319.27</ele>
        <time>2013-08-11T08:48:45Z</time>
      </trkpt>
      <trkpt lat="48.62841" lon="7.12162">
        <ele>318.78</ele>
        <time>2013-08-11T08:48:49Z</time>
      </trkpt>
      <trkpt lat="48.62842" lon="7.12198">
        <ele>319.26</ele>
        <time>2013-08-11T08:48:53Z</time>
      </trkpt>
      <trkpt lat="48.62842" lon="7.12227">
        <ele>320.07</ele>
        <time>2013-08-11T08:48:56Z</time>
      </trkpt>
      <trkpt lat="48.62841" lon="7.12257">
        <ele>320.96</ele>
        <time>2013-08-11T08:48:59Z</time>
      </trkpt>
      <trkpt lat="48.6284" lon="7.12288">
        <ele>321.53</ele>
        <time>2013-08-11T08:49:02Z</time>
      </trkpt>
      <trkpt lat="48.62838" lon="7.12317">
        <ele>321.91</ele>
        <time>2013-08-11T08:49:05Z</time>
      </trkpt>
      <trkpt lat="48.62835" lon="7.12345">
        <ele>322.22</ele>
        <time>2013-08-11T08:49:08Z</time>
      </trkpt>
      <trkpt lat="48.6283" lon="7.12371">
        <ele>322.13</ele>
        <time>2013-08-11T08:49:11Z</time>
      </trkpt>
      <trkpt lat="48.62818" lon="7.124">
        <ele>320.89</ele>
        <time>2013-08-11T08:49:15Z</time>
      </trkpt>
      <trkpt lat="48.62803" lon="7.12423">
        <ele>319.8</ele>
        <time>2013-08-11T08:49:19Z</time>
      </trkpt>
      <trkpt lat="48.62787" lon="7.12447">
        <ele>318.42</ele>
        <time>2013-08-11T08:49:23Z</time>
      </trkpt>
      <trkpt lat="48.62767" lon="7.12465">
        <ele>318.03</ele>
        <time>2013-08-11T08:49:27Z</time>
      </trkpt>
      <trkpt lat="48.62748" lon="7.12479">
        <ele>317.52</ele>
        <time>2013-08-11T08:49:31Z</time>
      </trkpt>
      <trkpt lat="48.62725" lon="7.1249">
        <ele>315.68</ele>
        <time>2013-08-11T08:49:35Z</time>
      </trkpt>
      <trkpt lat="48.62707" lon="7.12496">
        <ele>314.34</ele>
        <time>2013-08-11T08:49:38Z</time>
      </trkpt>
      <trkpt lat="48.62689" lon="7.125">
        <ele>313.29</ele>
        <time>2013-08-11T08:49:41Z</time>
      </trkpt>
      <trkpt lat="48.62669" lon="7.12503">
        <ele>313.44</ele>
        <time>2013-08-11T08:49:44Z</time>
      </trkpt>
      <trkpt lat="48.62649" lon="7.12506">
        <ele>314.66</ele>
        <time>2013-08-11T08:49:47Z</time>
      </trkpt>
      <trkpt lat="48.62626" lon="7.12507">
        <ele>316.97</ele>
        <time>2013-08-11T08:49:50Z</time>
      </trkpt>
      <trkpt lat="48.62606" lon="7.12511">
        <ele>319.42</ele>
        <time>2013-08-11T08:49:53Z</time>
      </trkpt>
      <trkpt lat="48.62588" lon="7.12519">
        <ele>321.62</ele>
        <time>2013-08-11T08:49:56Z</time>
      </trkpt>
      <trkpt lat="48.62569" lon="7.12538">
        <ele>324.29</ele>
        <time>2013-08-11T08:50:00Z</time>
      </trkpt>
      <trkpt lat="48.6256" lon="7.12565">
        <ele>324.45</ele>
        <time>2013-08-11T08:50:04Z</time>
      </trkpt>
      <trkpt lat="48.62558" lon="7.12597">
        <ele>321.95</ele>
        <time>2013-08-11T08:50:08Z</time>
      </trkpt>
      <trkpt lat="48.62555" lon="7.12627">
        <ele>318.93</ele>
        <time>2013-08-11T08:50:12Z</time>
      </trkpt>
      <trkpt lat="48.62554" lon="7.12656">
        <ele>318.41</ele>
        <time>2013-08-11T08:50:16Z</time>
      </trkpt>
      <trkpt lat="48.62555" lon="7.12683">
        <ele>318.3</ele>
        <time>2013-08-11T08:50:20Z</time>
      </trkpt>
      <trkpt lat="48.62558" lon="7.12712">
        <ele>317.93</ele>
        <time>2013-08-11T08:50:24Z</time>
      </trkpt>
      <trkpt lat="48.62562" lon="7.12741">
        <ele>317.8</ele>
        <time>2013-08-11T08:50:28Z</time>
      </trkpt>
      <trkpt lat="48.62566" lon="7.12769">
        <ele>317.84</ele>
        <time>2013-08-11T08:50:32Z</time>
      </trkpt>
      <trkpt lat="48.6257" lon="7.12797">
        <ele>318.12</ele>
        <time>2013-08-11T08:50:36Z</time>
      </trkpt>
      <trkpt lat="48.62573" lon="7.12826">
        <ele>318.32</ele>
        <time>2013-08-11T08:50:40Z</time>
      </trkpt>
      <trkpt lat="48.62573" lon="7.12855">
        <ele>318.63</ele>
        <time>2013-08-11T08:50:44Z</time>
      </trkpt>
      <trkpt lat="48.62569" lon="7.12884">
        <ele>318.9</ele>
        <time>2013-08-11T08:50:48Z</time>
      </trkpt>
      <trkpt lat="48.62569" lon="7.12917">
        <ele>318.17</ele>
        <time>2013-08-11T08:50:52Z</time>
      </trkpt>
      <trkpt lat="48.62566" lon="7.1295">
        <ele>317.91</ele>
        <time>2013-08-11T08:50:56Z</time>
      </trkpt>
      <trkpt lat="48.62561" lon="7.1298">
        <ele>317.99</ele>
        <time>2013-08-11T08:51:00Z</time>
      </trkpt>
      <trkpt lat="48.62551" lon="7.13004">
        <ele>317.87</ele>
        <time>2013-08-11T08:51:04Z</time>
      </trkpt>
      <trkpt lat="48.62537" lon="7.13025">
        <ele>318.09</ele>
        <time>2013-08-11T08:51:08Z</time>
      </trkpt>
      <trkpt lat="48.62521" lon="7.1304">
        <ele>318.27</ele>
        <time>2013-08-11T08:51:12Z</time>
      </trkpt>
      <trkpt lat="48.62502" lon="7.13051">
        <ele>319.09</ele>
        <time>2013-08-11T08:51:16Z</time>
      </trkpt>
      <trkpt lat="48.62484" lon="7.1306">
        <ele>319.84</ele>
        <time>2013-08-11T08:51:20Z</time>
      </trkpt>
      <trkpt lat="48.62466" lon="7.13067">
        <ele>320.45</ele>
        <time>2013-08-11T08:51:24Z</time>
      </trkpt>
      <trkpt lat="48.62448" lon="7.13069">
        <ele>321.45</ele>
        <time>2013-08-11T08:51:28Z</time>
      </trkpt>
      <trkpt lat="48.62427" lon="7.13067">
        <ele>322.45</ele>
        <time>2013-08-11T08:51:32Z</time>
      </trkpt>
      <trkpt lat="48.62409" lon="7.13058">
        <ele>322.87</ele>
        <time>2013-08-11T08:51:36Z</time>
      </trkpt>
      <trkpt lat="48.62391" lon="7.13049">
        <ele>322.9</ele>
        <time>2013-08-11T08:51:40Z</time>
      </trkpt>
      <trkpt lat="48.62372" lon="7.13039">
        <ele>322.47</ele>
        <time>2013-08-11T08:51:44Z</time>
      </trkpt>
      <trkpt lat="48.62355" lon="7.13029">
        <ele>321.44</ele>
        <time>2013-08-11T08:51:47Z</time>
      </trkpt>
      <trkpt lat="48.62339" lon="7.13017">
        <ele>320.52</ele>
        <time>2013-08-11T08:51:50Z</time>
      </trkpt>
      <trkpt lat="48.62319" lon="7.13001">
        <ele>319.47</ele>
        <time>2013-08-11T08:51:54Z</time>
      </trkpt>
      <trkpt lat="48.62302" lon="7.12984">
        <ele>318.13</ele>
        <time>2013-08-11T08:51:58Z</time>
      </trkpt>
      <trkpt lat="48.62284" lon="7.12967">
        <ele>317.22</ele>
        <time>2013-08-11T08:52:02Z</time>
      </trkpt>
      <trkpt lat="48.62264" lon="7.12949">
        <ele>316.69</ele>
        <time>2013-08-11T08:52:06Z</time>
      </trkpt>
      <trkpt lat="48.62245" lon="7.12931">
        <ele>316.46</ele>
        <time>2013-08-11T08:52:10Z</time>
      </trkpt>
      <trkpt lat="48.62228" lon="7.12912">
        <ele>316.1</ele>
        <time>2013-08-11T08:52:14Z</time>
      </trkpt>
      <trkpt lat="48.6221" lon="7.12893">
        <ele>316.08</ele>
        <time>2013-08-11T08:52:18Z</time>
      </trkpt>
      <trkpt lat="48.62191" lon="7.1289">
        <ele>316.02</ele>
        <time>2013-08-11T08:52:21Z</time>
      </trkpt>
      <trkpt lat="48.62173" lon="7.12894">
        <ele>316.68</ele>
        <time>2013-08-11T08:52:24Z</time>
      </trkpt>
      <trkpt lat="48.62153" lon="7.12902">
        <ele>317.95</ele>
        <time>2013-08-11T08:52:27Z</time>
      </trkpt>
      <trkpt lat="48.62132" lon="7.12913">
        <ele>319.74</ele>
        <time>2013-08-11T08:52:30Z</time>
      </trkpt>
      <trkpt lat="48.62111" lon="7.1293">
        <ele>321.67</ele>
        <time>2013-08-11T08:52:34Z</time>
      </trkpt>
      <trkpt lat="48.62089" lon="7.12945">
        <ele>323.09</ele>
        <time>2013-08-11T08:52:38Z</time>
      </trkpt>
      <trkpt lat="48.62069" lon="7.12957">
        <ele>324.14</ele>
        <time>2013-08-11T08:52:42Z</time>
      </trkpt>
      <trkpt lat="48.6205" lon="7.12964">
        <ele>324.91</ele>
        <time>2013-08-11T08:52:46Z</time>
      </trkpt>
      <trkpt lat="48.62028" lon="7.12965">
        <ele>326.34</ele>
        <time>2013-08-11T08:52:50Z</time>
      </trkpt>
      <trkpt lat="48.62008" lon="7.12962">
        <ele>326.93</ele>
        <time>2013-08-11T08:52:54Z</time>
      </trkpt>
      <trkpt lat="48.61987" lon="7.12958">
        <ele>326.57</ele>
        <time>2013-08-11T08:52:58Z</time>
      </trkpt>
      <trkpt lat="48.61965" lon="7.12954">
        <ele>326.59</ele>
        <time>2013-08-11T08:53:02Z</time>
      </trkpt>
      <trkpt lat="48.61945" lon="7.12949">
        <ele>326.16</ele>
        <time>2013-08-11T08:53:06Z</time>
      </trkpt>
      <trkpt lat="48.61926" lon="7.12939">
        <ele>324.83</ele>
        <time>2013-08-11T08:53:10Z</time>
      </trkpt>
      <trkpt lat="48.61907" lon="7.12924">
        <ele>323.37</ele>
        <time>2013-08-11T08:53:14Z</time>
      </trkpt>
      <trkpt lat="48.61888" lon="7.12904">
        <ele>322.24</ele>
        <time>2013-08-11T08:53:18Z</time>
      </trkpt>
      <trkpt lat="48.6187" lon="7.12882">
        <ele>321.71</ele>
        <time>2013-08-11T08:53:22Z</time>
      </trkpt>
      <trkpt lat="48.61856" lon="7.12864">
        <ele>321.41</ele>
        <time>2013-08-11T08:53:25Z</time>
      </trkpt>
      <trkpt lat="48.61842" lon="7.12846">
        <ele>320.95</ele>
        <time>2013-08-11T08:53:28Z</time>
      </trkpt>
      <trkpt lat="48.61827" lon="7.12829">
        <ele>320.37</ele>
        <time>2013-08-11T08:53:31Z</time>
      </trkpt>
      <trkpt lat="48.61811" lon="7.12817">
        <ele>319.9</ele>
        <time>2013-08-11T08:53:34Z</time>
      </trkpt>
      <trkpt lat="48.61792" lon="7.12813">
        <ele>319.84</ele>
        <time>2013-08-11T08:53:37Z</time>
      </trkpt>
      <trkpt lat="48.61774" lon="7.12822">
        <ele>320.18</ele>
        <time>2013-08-11T08:53:40Z</time>
      </trkpt>
      <trkpt lat="48.61759" lon="7.12842">
        <ele>321.01</ele>
        <time>2013-08-11T08:53:43Z</time>
      </trkpt>
      <trkpt lat="48.61751" lon="7.12876">
        <ele>321.71</ele>
        <time>2013-08-11T08:53:47Z</time>
      </trkpt>
      <trkpt lat="48.61746" lon="7.12902">
        <ele>322.87</ele>
        <time>2013-08-11T08:53:50Z</time>
      </trkpt>
      <trkpt lat="48.61736" lon="7.12926">
        <ele>324.38</ele>
        <time>2013-08-11T08:53:53Z</time>
      </trkpt>
      <trkpt lat="48.61726" lon="7.12948">
        <ele>326.22</ele>
        <time>2013-08-11T08:53:56Z</time>
      </trkpt>
      <trkpt lat="48.61714" lon="7.12973">
        <ele>327.12</ele>
        <time>2013-08-11T08:54:00Z</time>
      </trkpt>
      <trkpt lat="48.61698" lon="7.12992">
        <ele>327.05</ele>
        <time>2013-08-11T08:54:04Z</time>
      </trkpt>
      <trkpt lat="48.61676" lon="7.13003">
        <ele>326.52</ele>
        <time>2013-08-11T08:54:08Z</time>
      </trkpt>
      <trkpt lat="48.61658" lon="7.13009">
        <ele>326.64</ele>
        <time>2013-08-11T08:54:12Z</time>
      </trkpt>
      <trkpt lat="48.61639" lon="7.13011">
        <ele>327.94</ele>
        <time>2013-08-11T08:54:15Z</time>
      </trkpt>
      <trkpt lat="48.61619" lon="7.13012">
        <ele>329.53</ele>
        <time>2013-08-11T08:54:20Z</time>
      </trkpt>
      <trkpt lat="48.616" lon="7.13013">
        <ele>331.89</ele>
        <time>2013-08-11T08:54:27Z</time>
      </trkpt>
      <trkpt lat="48.61582" lon="7.13006">
        <ele>333.95</ele>
        <time>2013-08-11T08:54:32Z</time>
      </trkpt>
      <trkpt lat="48.61561" lon="7.13">
        <ele>335.56</ele>
        <time>2013-08-11T08:54:37Z</time>
      </trkpt>
      <trkpt lat="48.61542" lon="7.12991">
        <ele>336.04</ele>
        <time>2013-08-11T08:54:42Z</time>
      </trkpt>
      <trkpt lat="48.61521" lon="7.12983">
        <ele>336.51</ele>
        <time>2013-08-11T08:54:47Z</time>
      </trkpt>
      <trkpt lat="48.61503" lon="7.12976">
        <ele>337.08</ele>
        <time>2013-08-11T08:54:52Z</time>
      </trkpt>
      <trkpt lat="48.61483" lon="7.12965">
        <ele>337.68</ele>
        <time>2013-08-11T08:54:58Z</time>
      </trkpt>
      <trkpt lat="48.61464" lon="7.12953">
        <ele>338.45</ele>
        <time>2013-08-11T08:55:03Z</time>
      </trkpt>
      <trkpt lat="48.61446" lon="7.1294">
        <ele>338.8</ele>
        <time>2013-08-11T08:55:08Z</time>
      </trkpt>
      <trkpt lat="48.6143" lon="7.12926">
        <ele>339.1</ele>
        <time>2013-08-11T08:55:12Z</time>
      </trkpt>
      <trkpt lat="48.61414" lon="7.12912">
        <ele>340.14</ele>
        <time>2013-08-11T08:55:16Z</time>
      </trkpt>
      <trkpt lat="48.61395" lon="7.12898">
        <ele>341.64</ele>
        <time>2013-08-11T08:55:20Z</time>
      </trkpt>
      <trkpt lat="48.61379" lon="7.12883">
        <ele>342.36</ele>
        <time>2013-08-11T08:55:24Z</time>
      </trkpt>
      <trkpt lat="48.6136" lon="7.12868">
        <ele>342.56</ele>
        <time>2013-08-11T08:55:28Z</time>
      </trkpt>
      <trkpt lat="48.61339" lon="7.12861">
        <ele>341.48</ele>
        <time>2013-08-11T08:55:31Z</time>
      </trkpt>
      <trkpt lat="48.6132" lon="7.12858">
        <ele>340.5</ele>
        <time>2013-08-11T08:55:34Z</time>
      </trkpt>
      <trkpt lat="48.61298" lon="7.12859">
        <ele>339.64</ele>
        <time>2013-08-11T08:55:38Z</time>
      </trkpt>
      <trkpt lat="48.61278" lon="7.12862">
        <ele>339.04</ele>
        <time>2013-08-11T08:55:41Z</time>
      </trkpt>
      <trkpt lat="48.61255" lon="7.12866">
        <ele>339.15</ele>
        <time>2013-08-11T08:55:45Z</time>
      </trkpt>
      <trkpt lat="48.61232" lon="7.12871">
        <ele>339.24</ele>
        <time>2013-08-11T08:55:49Z</time>
      </trkpt>
      <trkpt lat="48.61211" lon="7.12875">
        <ele>338.91</ele>
        <time>2013-08-11T08:55:53Z</time>
      </trkpt>
      <trkpt lat="48.6119" lon="7.12879">
        <ele>337.82</ele>
        <time>2013-08-11T08:55:57Z</time>
      </trkpt>
      <trkpt lat="48.61169" lon="7.12883">
        <ele>336.99</ele>
        <time>2013-08-11T08:56:01Z</time>
      </trkpt>
      <trkpt lat="48.61149" lon="7.12887">
        <ele>337</ele>
        <time>2013-08-11T08:56:05Z</time>
      </trkpt>
      <trkpt lat="48.61126" lon="7.12893">
        <ele>337.56</ele>
        <time>2013-08-11T08:56:10Z</time>
      </trkpt>
      <trkpt lat="48.61104" lon="7.12895">
        <ele>339.15</ele>
        <time>2013-08-11T08:56:14Z</time>
      </trkpt>
      <trkpt lat="48.61084" lon="7.12889">
        <ele>340.59</ele>
        <time>2013-08-11T08:56:18Z</time>
      </trkpt>
      <trkpt lat="48.61066" lon="7.12875">
        <ele>341.03</ele>
        <time>2013-08-11T08:56:22Z</time>
      </trkpt>
      <trkpt lat="48.6105" lon="7.1286">
        <ele>340.5</ele>
        <time>2013-08-11T08:56:26Z</time>
      </trkpt>
      <trkpt lat="48.61034" lon="7.12843">
        <ele>340.31</ele>
        <time>2013-08-11T08:56:30Z</time>
      </trkpt>
      <trkpt lat="48.61019" lon="7.12823">
        <ele>340.32</ele>
        <time>2013-08-11T08:56:34Z</time>
      </trkpt>
      <trkpt lat="48.61001" lon="7.12802">
        <ele>340.23</ele>
        <time>2013-08-11T08:56:38Z</time>
      </trkpt>
      <trkpt lat="48.60981" lon="7.12786">
        <ele>339.66</ele>
        <time>2013-08-11T08:56:41Z</time>
      </trkpt>
      <trkpt lat="48.60962" lon="7.1278">
        <ele>338.16</ele>
        <time>2013-08-11T08:56:44Z</time>
      </trkpt>
      <trkpt lat="48.6094" lon="7.12784">
        <ele>338.46</ele>
        <time>2013-08-11T08:56:48Z</time>
      </trkpt>
      <trkpt lat="48.6092" lon="7.12797">
        <ele>339.7</ele>
        <time>2013-08-11T08:56:52Z</time>
      </trkpt>
      <trkpt lat="48.60901" lon="7.12809">
        <ele>340.13</ele>
        <time>2013-08-11T08:56:55Z</time>
      </trkpt>
      <trkpt lat="48.60882" lon="7.12822">
        <ele>340.74</ele>
        <time>2013-08-11T08:56:58Z</time>
      </trkpt>
      <trkpt lat="48.60864" lon="7.12827">
        <ele>341.34</ele>
        <time>2013-08-11T08:57:01Z</time>
      </trkpt>
      <trkpt lat="48.60845" lon="7.12825">
        <ele>341.73</ele>
        <time>2013-08-11T08:57:04Z</time>
      </trkpt>
      <trkpt lat="48.60827" lon="7.12819">
        <ele>342.19</ele>
        <time>2013-08-11T08:57:07Z</time>
      </trkpt>
      <trkpt lat="48.60805" lon="7.1281">
        <ele>341.08</ele>
        <time>2013-08-11T08:57:11Z</time>
      </trkpt>
      <trkpt lat="48.60788" lon="7.12801">
        <ele>339.43</ele>
        <time>2013-08-11T08:57:14Z</time>
      </trkpt>
      <trkpt lat="48.60771" lon="7.1279">
        <ele>337.66</ele>
        <time>2013-08-11T08:57:17Z</time>
      </trkpt>
      <trkpt lat="48.60754" lon="7.1278">
        <ele>336.21</ele>
        <time>2013-08-11T08:57:20Z</time>
      </trkpt>
      <trkpt lat="48.60732" lon="7.12768">
        <ele>335.43</ele>
        <time>2013-08-11T08:57:24Z</time>
      </trkpt>
      <trkpt lat="48.60715" lon="7.12758">
        <ele>335.36</ele>
        <time>2013-08-11T08:57:27Z</time>
      </trkpt>
      <trkpt lat="48.60698" lon="7.1275">
        <ele>335.18</ele>
        <time>2013-08-11T08:57:30Z</time>
      </trkpt>
      <trkpt lat="48.60679" lon="7.12744">
        <ele>334.47</ele>
        <time>2013-08-11T08:57:33Z</time>
      </trkpt>
      <trkpt lat="48.6066" lon="7.12739">
        <ele>333.77</ele>
        <time>2013-08-11T08:57:36Z</time>
      </trkpt>
      <trkpt lat="48.60642" lon="7.12733">
        <ele>333.32</ele>
        <time>2013-08-11T08:57:39Z</time>
      </trkpt>
      <trkpt lat="48.60624" lon="7.12725">
        <ele>333.18</ele>
        <time>2013-08-11T08:57:42Z</time>
      </trkpt>
      <trkpt lat="48.60606" lon="7.12717">
        <ele>333.28</ele>
        <time>2013-08-11T08:57:45Z</time>
      </trkpt>
      <trkpt lat="48.60584" lon="7.12702">
        <ele>334.35</ele>
        <time>2013-08-11T08:57:49Z</time>
      </trkpt>
      <trkpt lat="48.60564" lon="7.1269">
        <ele>334.9</ele>
        <time>2013-08-11T08:57:53Z</time>
      </trkpt>
      <trkpt lat="48.60546" lon="7.12687">
        <ele>334.45</ele>
        <time>2013-08-11T08:57:56Z</time>
      </trkpt>
      <trkpt lat="48.60526" lon="7.12683">
        <ele>334.31</ele>
        <time>2013-08-11T08:57:59Z</time>
      </trkpt>
      <trkpt lat="48.60506" lon="7.12683">
        <ele>334.93</ele>
        <time>2013-08-11T08:58:02Z</time>
      </trkpt>
      <trkpt lat="48.60485" lon="7.1268">
        <ele>336.2</ele>
        <time>2013-08-11T08:58:06Z</time>
      </trkpt>
      <trkpt lat="48.60466" lon="7.12677">
        <ele>338.23</ele>
        <time>2013-08-11T08:58:09Z</time>
      </trkpt>
      <trkpt lat="48.60443" lon="7.12675">
        <ele>340.92</ele>
        <time>2013-08-11T08:58:13Z</time>
      </trkpt>
      <trkpt lat="48.60421" lon="7.12678">
        <ele>343.14</ele>
        <time>2013-08-11T08:58:18Z</time>
      </trkpt>
      <trkpt lat="48.60403" lon="7.12685">
        <ele>345.11</ele>
        <time>2013-08-11T08:58:22Z</time>
      </trkpt>
      <trkpt lat="48.60382" lon="7.12694">
        <ele>346.91</ele>
        <time>2013-08-11T08:58:26Z</time>
      </trkpt>
      <trkpt lat="48.60363" lon="7.12707">
        <ele>349.27</ele>
        <time>2013-08-11T08:58:30Z</time>
      </trkpt>
      <trkpt lat="48.60344" lon="7.12718">
        <ele>351.37</ele>
        <time>2013-08-11T08:58:34Z</time>
      </trkpt>
      <trkpt lat="48.60329" lon="7.12738">
        <ele>354.12</ele>
        <time>2013-08-11T08:58:39Z</time>
      </trkpt>
      <trkpt lat="48.60313" lon="7.12758">
        <ele>356.12</ele>
        <time>2013-08-11T08:58:44Z</time>
      </trkpt>
      <trkpt lat="48.60294" lon="7.12773">
        <ele>357.29</ele>
        <time>2013-08-11T08:58:49Z</time>
      </trkpt>
      <trkpt lat="48.60278" lon="7.12785">
        <ele>357.84</ele>
        <time>2013-08-11T08:58:53Z</time>
      </trkpt>
      <trkpt lat="48.60259" lon="7.12793">
        <ele>357.93</ele>
        <time>2013-08-11T08:58:57Z</time>
      </trkpt>
      <trkpt lat="48.6024" lon="7.12798">
        <ele>356.51</ele>
        <time>2013-08-11T08:59:03Z</time>
      </trkpt>
      <trkpt lat="48.60222" lon="7.1279">
        <ele>355.1</ele>
        <time>2013-08-11T08:59:07Z</time>
      </trkpt>
      <trkpt lat="48.60205" lon="7.12776">
        <ele>352.98</ele>
        <time>2013-08-11T08:59:12Z</time>
      </trkpt>
      <trkpt lat="48.60189" lon="7.12762">
        <ele>350.65</ele>
        <time>2013-08-11T08:59:17Z</time>
      </trkpt>
      <trkpt lat="48.60175" lon="7.12737">
        <ele>349.9</ele>
        <time>2013-08-11T08:59:23Z</time>
      </trkpt>
      <trkpt lat="48.60167" lon="7.1271">
        <ele>350.24</ele>
        <time>2013-08-11T08:59:27Z</time>
      </trkpt>
      <trkpt lat="48.6017" lon="7.12682">
        <ele>350.65</ele>
        <time>2013-08-11T08:59:31Z</time>
      </trkpt>
      <trkpt lat="48.60179" lon="7.12657">
        <ele>350.89</ele>
        <time>2013-08-11T08:59:35Z</time>
      </trkpt>
      <trkpt lat="48.6019" lon="7.12629">
        <ele>351.21</ele>
        <time>2013-08-11T08:59:39Z</time>
      </trkpt>
      <trkpt lat="48.60201" lon="7.126">
        <ele>351.3</ele>
        <time>2013-08-11T08:59:43Z</time>
      </trkpt>
      <trkpt lat="48.60207" lon="7.12566">
        <ele>350.1</ele>
        <time>2013-08-11T08:59:47Z</time>
      </trkpt>
      <trkpt lat="48.60206" lon="7.12537">
        <ele>348.1</ele>
        <time>2013-08-11T08:59:50Z</time>
      </trkpt>
      <trkpt lat="48.60198" lon="7.12511">
        <ele>346.19</ele>
        <time>2013-08-11T08:59:53Z</time>
      </trkpt>
      <trkpt lat="48.60188" lon="7.12479">
        <ele>344.33</ele>
        <time>2013-08-11T08:59:57Z</time>
      </trkpt>
      <trkpt lat="48.60179" lon="7.12451">
        <ele>343.36</ele>
        <time>2013-08-11T09:00:01Z</time>
      </trkpt>
      <trkpt lat="48.60169" lon="7.1242">
        <ele>342.91</ele>
        <time>2013-08-11T09:00:05Z</time>
      </trkpt>
      <trkpt lat="48.60157" lon="7.12389">
        <ele>343.05</ele>
        <time>2013-08-11T09:00:09Z</time>
      </trkpt>
      <trkpt lat="48.60144" lon="7.12369">
        <ele>343.43</ele>
        <time>2013-08-11T09:00:12Z</time>
      </trkpt>
      <trkpt lat="48.60128" lon="7.12349">
        <ele>343.5</ele>
        <time>2013-08-11T09:00:16Z</time>
      </trkpt>
      <trkpt lat="48.60108" lon="7.1233">
        <ele>342.69</ele>
        <time>2013-08-11T09:00:20Z</time>
      </trkpt>
      <trkpt lat="48.60087" lon="7.12314">
        <ele>342.24</ele>
        <time>2013-08-11T09:00:24Z</time>
      </trkpt>
      <trkpt lat="48.60065" lon="7.12299">
        <ele>341.75</ele>
        <time>2013-08-11T09:00:28Z</time>
      </trkpt>
      <trkpt lat="48.60046" lon="7.12288">
        <ele>341.97</ele>
        <time>2013-08-11T09:00:31Z</time>
      </trkpt>
      <trkpt lat="48.60026" lon="7.12277">
        <ele>342.82</ele>
        <time>2013-08-11T09:00:34Z</time>
      </trkpt>
      <trkpt lat="48.60008" lon="7.12266">
        <ele>343.41</ele>
        <time>2013-08-11T09:00:37Z</time>
      </trkpt>
      <trkpt lat="48.5999" lon="7.12256">
        <ele>343.65</ele>
        <time>2013-08-11T09:00:40Z</time>
      </trkpt>
      <trkpt lat="48.59969" lon="7.12245">
        <ele>344.02</ele>
        <time>2013-08-11T09:00:44Z</time>
      </trkpt>
      <trkpt lat="48.59947" lon="7.12236">
        <ele>344.56</ele>
        <time>2013-08-11T09:00:48Z</time>
      </trkpt>
      <trkpt lat="48.59926" lon="7.12225">
        <ele>345.22</ele>
        <time>2013-08-11T09:00:52Z</time>
      </trkpt>
      <trkpt lat="48.59905" lon="7.12218">
        <ele>345.1</ele>
        <time>2013-08-11T09:00:56Z</time>
      </trkpt>
      <trkpt lat="48.59885" lon="7.12211">
        <ele>345.32</ele>
        <time>2013-08-11T09:00:59Z</time>
      </trkpt>
      <trkpt lat="48.59866" lon="7.12207">
        <ele>345.78</ele>
        <time>2013-08-11T09:01:03Z</time>
      </trkpt>
      <trkpt lat="48.59842" lon="7.12206">
        <ele>347.56</ele>
        <time>2013-08-11T09:01:07Z</time>
      </trkpt>
      <trkpt lat="48.5982" lon="7.12203">
        <ele>350.04</ele>
        <time>2013-08-11T09:01:11Z</time>
      </trkpt>
      <trkpt lat="48.598" lon="7.12203">
        <ele>352.4</ele>
        <time>2013-08-11T09:01:15Z</time>
      </trkpt>
      <trkpt lat="48.59777" lon="7.12203">
        <ele>355.32</ele>
        <time>2013-08-11T09:01:20Z</time>
      </trkpt>
      <trkpt lat="48.59757" lon="7.12204">
        <ele>355.47</ele>
        <time>2013-08-11T09:01:25Z</time>
      </trkpt>
      <trkpt lat="48.59738" lon="7.12207">
        <ele>353.92</ele>
        <time>2013-08-11T09:01:30Z</time>
      </trkpt>
      <trkpt lat="48.59717" lon="7.12211">
        <ele>352.3</ele>
        <time>2013-08-11T09:01:35Z</time>
      </trkpt>
      <trkpt lat="48.59697" lon="7.12214">
        <ele>351.28</ele>
        <time>2013-08-11T09:01:39Z</time>
      </trkpt>
      <trkpt lat="48.59676" lon="7.12219">
        <ele>351.26</ele>
        <time>2013-08-11T09:01:43Z</time>
      </trkpt>
      <trkpt lat="48.59655" lon="7.12224">
        <ele>352.25</ele>
        <time>2013-08-11T09:01:47Z</time>
      </trkpt>
      <trkpt lat="48.59634" lon="7.1223">
        <ele>352.57</ele>
        <time>2013-08-11T09:01:51Z</time>
      </trkpt>
      <trkpt lat="48.59613" lon="7.12236">
        <ele>352.03</ele>
        <time>2013-08-11T09:01:55Z</time>
      </trkpt>
      <trkpt lat="48.59593" lon="7.1224">
        <ele>351.97</ele>
        <time>2013-08-11T09:01:59Z</time>
      </trkpt>
      <trkpt lat="48.59571" lon="7.12245">
        <ele>351.14</ele>
        <time>2013-08-11T09:02:03Z</time>
      </trkpt>
      <trkpt lat="48.5955" lon="7.12247">
        <ele>350.99</ele>
        <time>2013-08-11T09:02:07Z</time>
      </trkpt>
      <trkpt lat="48.5953" lon="7.12253">
        <ele>348.78</ele>
        <time>2013-08-11T09:02:24Z</time>
      </trkpt>
      <trkpt lat="48.59512" lon="7.12256">
        <ele>344.48</ele>
        <time>2013-08-11T09:02:30Z</time>
      </trkpt>
      <trkpt lat="48.59493" lon="7.12256">
        <ele>342.98</ele>
        <time>2013-08-11T09:02:37Z</time>
      </trkpt>
      <trkpt lat="48.59475" lon="7.12254">
        <ele>340.48</ele>
        <time>2013-08-11T09:02:45Z</time>
      </trkpt>
      <trkpt lat="48.59454" lon="7.12255">
        <ele>339.72</ele>
        <time>2013-08-11T09:02:50Z</time>
      </trkpt>
      <trkpt lat="48.59433" lon="7.12254">
        <ele>341.42</ele>
        <time>2013-08-11T09:02:55Z</time>
      </trkpt>
      <trkpt lat="48.59411" lon="7.12252">
        <ele>343.69</ele>
        <time>2013-08-11T09:03:00Z</time>
      </trkpt>
      <trkpt lat="48.59392" lon="7.12253">
        <ele>346.01</ele>
        <time>2013-08-11T09:03:04Z</time>
      </trkpt>
      <trkpt lat="48.59374" lon="7.12258">
        <ele>348.51</ele>
        <time>2013-08-11T09:03:08Z</time>
      </trkpt>
      <trkpt lat="48.59352" lon="7.12263">
        <ele>351.54</ele>
        <time>2013-08-11T09:03:12Z</time>
      </trkpt>
      <trkpt lat="48.59329" lon="7.12269">
        <ele>355.02</ele>
        <time>2013-08-11T09:03:16Z</time>
      </trkpt>
      <trkpt lat="48.59309" lon="7.12282">
        <ele>359.06</ele>
        <time>2013-08-11T09:03:21Z</time>
      </trkpt>
      <trkpt lat="48.59289" lon="7.12294">
        <ele>361.22</ele>
        <time>2013-08-11T09:03:25Z</time>
      </trkpt>
      <trkpt lat="48.59273" lon="7.1231">
        <ele>362.9</ele>
        <time>2013-08-11T09:03:29Z</time>
      </trkpt>
      <trkpt lat="48.5925" lon="7.12323">
        <ele>364.49</ele>
        <time>2013-08-11T09:03:33Z</time>
      </trkpt>
      <trkpt lat="48.59233" lon="7.1234">
        <ele>365.63</ele>
        <time>2013-08-11T09:03:37Z</time>
      </trkpt>
      <trkpt lat="48.59217" lon="7.12358">
        <ele>366.09</ele>
        <time>2013-08-11T09:03:41Z</time>
      </trkpt>
      <trkpt lat="48.59202" lon="7.12376">
        <ele>366.9</ele>
        <time>2013-08-11T09:03:45Z</time>
      </trkpt>
      <trkpt lat="48.59186" lon="7.124">
        <ele>366.83</ele>
        <time>2013-08-11T09:03:50Z</time>
      </trkpt>
      <trkpt lat="48.59168" lon="7.12413">
        <ele>366.43</ele>
        <time>2013-08-11T09:03:54Z</time>
      </trkpt>
      <trkpt lat="48.59149" lon="7.12423">
        <ele>365.25</ele>
        <time>2013-08-11T09:03:58Z</time>
      </trkpt>
      <trkpt lat="48.5913" lon="7.12431">
        <ele>362.55</ele>
        <time>2013-08-11T09:04:03Z</time>
      </trkpt>
      <trkpt lat="48.59108" lon="7.1243">
        <ele>360.37</ele>
        <time>2013-08-11T09:04:08Z</time>
      </trkpt>
      <trkpt lat="48.59086" lon="7.12426">
        <ele>361.23</ele>
        <time>2013-08-11T09:04:13Z</time>
      </trkpt>
      <trkpt lat="48.59065" lon="7.12425">
        <ele>361.5</ele>
        <time>2013-08-11T09:04:18Z</time>
      </trkpt>
      <trkpt lat="48.59047" lon="7.12429">
        <ele>362.04</ele>
        <time>2013-08-11T09:04:22Z</time>
      </trkpt>
      <trkpt lat="48.59027" lon="7.12437">
        <ele>363.04</ele>
        <time>2013-08-11T09:04:26Z</time>
      </trkpt>
      <trkpt lat="48.59011" lon="7.12451">
        <ele>363.84</ele>
        <time>2013-08-11T09:04:30Z</time>
      </trkpt>
      <trkpt lat="48.58994" lon="7.12459">
        <ele>364.78</ele>
        <time>2013-08-11T09:04:33Z</time>
      </trkpt>
      <trkpt lat="48.58977" lon="7.12476">
        <ele>365.63</ele>
        <time>2013-08-11T09:04:37Z</time>
      </trkpt>
      <trkpt lat="48.58967" lon="7.12505">
        <ele>364.35</ele>
        <time>2013-08-11T09:04:42Z</time>
      </trkpt>
      <trkpt lat="48.5896" lon="7.12532">
        <ele>362.26</ele>
        <time>2013-08-11T09:04:46Z</time>
      </trkpt>
      <trkpt lat="48.58947" lon="7.12555">
        <ele>360.27</ele>
        <time>2013-08-11T09:04:50Z</time>
      </trkpt>
      <trkpt lat="48.58939" lon="7.12582">
        <ele>359.52</ele>
        <time>2013-08-11T09:04:54Z</time>
      </trkpt>
      <trkpt lat="48.58925" lon="7.12603">
        <ele>359.81</ele>
        <time>2013-08-11T09:04:58Z</time>
      </trkpt>
      <trkpt lat="48.58908" lon="7.12617">
        <ele>360.44</ele>
        <time>2013-08-11T09:05:02Z</time>
      </trkpt>
      <trkpt lat="48.58891" lon="7.12628">
        <ele>360.24</ele>
        <time>2013-08-11T09:05:06Z</time>
      </trkpt>
      <trkpt lat="48.58868" lon="7.12632">
        <ele>359.95</ele>
        <time>2013-08-11T09:05:10Z</time>
      </trkpt>
      <trkpt lat="48.5885" lon="7.1264">
        <ele>359.57</ele>
        <time>2013-08-11T09:05:14Z</time>
      </trkpt>
      <trkpt lat="48.58831" lon="7.12648">
        <ele>359.77</ele>
        <time>2013-08-11T09:05:18Z</time>
      </trkpt>
      <trkpt lat="48.58811" lon="7.12648">
        <ele>360.91</ele>
        <time>2013-08-11T09:05:21Z</time>
      </trkpt>
      <trkpt lat="48.58789" lon="7.12647">
        <ele>364.13</ele>
        <time>2013-08-11T09:05:25Z</time>
      </trkpt>
      <trkpt lat="48.5877" lon="7.12646">
        <ele>366.71</ele>
        <time>2013-08-11T09:05:29Z</time>
      </trkpt>
      <trkpt lat="48.58747" lon="7.12639">
        <ele>369.59</ele>
        <time>2013-08-11T09:05:33Z</time>
      </trkpt>
      <trkpt lat="48.58729" lon="7.12631">
        <ele>371.48</ele>
        <time>2013-08-11T09:05:37Z</time>
      </trkpt>
      <trkpt lat="48.58713" lon="7.12616">
        <ele>372.63</ele>
        <time>2013-08-11T09:05:40Z</time>
      </trkpt>
      <trkpt lat="48.58693" lon="7.12602">
        <ele>374.49</ele>
        <time>2013-08-11T09:05:44Z</time>
      </trkpt>
      <trkpt lat="48.58675" lon="7.12602">
        <ele>376.09</ele>
        <time>2013-08-11T09:05:47Z</time>
      </trkpt>
      <trkpt lat="48.58673" lon="7.12633">
        <ele>374.01</ele>
        <time>2013-08-11T09:05:51Z</time>
      </trkpt>
      <trkpt lat="48.58671" lon="7.1266">
        <ele>369.17</ele>
        <time>2013-08-11T09:05:58Z</time>
      </trkpt>
      <trkpt lat="48.58667" lon="7.12688">
        <ele>370.66</ele>
        <time>2013-08-11T09:06:18Z</time>
      </trkpt>
      <trkpt lat="48.58667" lon="7.12722">
        <ele>373.01</ele>
        <time>2013-08-11T09:06:23Z</time>
      </trkpt>
      <trkpt lat="48.58668" lon="7.12754">
        <ele>374.43</ele>
        <time>2013-08-11T09:06:27Z</time>
      </trkpt>
      <trkpt lat="48.58678" lon="7.1279">
        <ele>375.59</ele>
        <time>2013-08-11T09:06:30Z</time>
      </trkpt>
      <trkpt lat="48.58672" lon="7.1282">
        <ele>376.15</ele>
        <time>2013-08-11T09:06:34Z</time>
      </trkpt>
      <trkpt lat="48.58655" lon="7.12837">
        <ele>374.1</ele>
        <time>2013-08-11T09:06:38Z</time>
      </trkpt>
      <trkpt lat="48.5864" lon="7.12855">
        <ele>371.9</ele>
        <time>2013-08-11T09:06:42Z</time>
      </trkpt>
      <trkpt lat="48.58626" lon="7.12875">
        <ele>370.4</ele>
        <time>2013-08-11T09:06:46Z</time>
      </trkpt>
      <trkpt lat="48.58611" lon="7.12894">
        <ele>370.16</ele>
        <time>2013-08-11T09:06:50Z</time>
      </trkpt>
      <trkpt lat="48.58593" lon="7.12909">
        <ele>370.74</ele>
        <time>2013-08-11T09:06:54Z</time>
      </trkpt>
      <trkpt lat="48.58577" lon="7.1293">
        <ele>370.6</ele>
        <time>2013-08-11T09:06:59Z</time>
      </trkpt>
      <trkpt lat="48.58567" lon="7.12954">
        <ele>371.33</ele>
        <time>2013-08-11T09:07:04Z</time>
      </trkpt>
      <trkpt lat="48.58563" lon="7.12986">
        <ele>374.27</ele>
        <time>2013-08-11T09:07:09Z</time>
      </trkpt>
      <trkpt lat="48.58556" lon="7.13015">
        <ele>377.91</ele>
        <time>2013-08-11T09:07:14Z</time>
      </trkpt>
      <trkpt lat="48.58557" lon="7.13044">
        <ele>380.34</ele>
        <time>2013-08-11T09:07:18Z</time>
      </trkpt>
      <trkpt lat="48.58569" lon="7.13068">
        <ele>381.07</ele>
        <time>2013-08-11T09:07:20Z</time>
      </trkpt>
      <trkpt lat="48.58569" lon="7.13095">
        <ele>382.14</ele>
        <time>2013-08-11T09:07:24Z</time>
      </trkpt>
      <trkpt lat="48.58562" lon="7.13122">
        <ele>382.57</ele>
        <time>2013-08-11T09:07:29Z</time>
      </trkpt>
      <trkpt lat="48.5855" lon="7.13142">
        <ele>381.06</ele>
        <time>2013-08-11T09:07:34Z</time>
      </trkpt>
      <trkpt lat="48.58539" lon="7.13164">
        <ele>378.01</ele>
        <time>2013-08-11T09:07:39Z</time>
      </trkpt>
      <trkpt lat="48.58521" lon="7.13177">
        <ele>376.9</ele>
        <time>2013-08-11T09:07:44Z</time>
      </trkpt>
      <trkpt lat="48.58499" lon="7.13183">
        <ele>376.61</ele>
        <time>2013-08-11T09:07:50Z</time>
      </trkpt>
      <trkpt lat="48.58479" lon="7.13184">
        <ele>378.99</ele>
        <time>2013-08-11T09:07:56Z</time>
      </trkpt>
      <trkpt lat="48.58461" lon="7.13177">
        <ele>380.1</ele>
        <time>2013-08-11T09:08:00Z</time>
      </trkpt>
      <trkpt lat="48.58441" lon="7.13177">
        <ele>382.55</ele>
        <time>2013-08-11T09:08:05Z</time>
      </trkpt>
      <trkpt lat="48.58423" lon="7.13185">
        <ele>386.04</ele>
        <time>2013-08-11T09:08:10Z</time>
      </trkpt>
      <trkpt lat="48.58411" lon="7.13205">
        <ele>387.77</ele>
        <time>2013-08-11T09:08:16Z</time>
      </trkpt>
      <trkpt lat="48.58394" lon="7.13222">
        <ele>386.17</ele>
        <time>2013-08-11T09:08:22Z</time>
      </trkpt>
      <trkpt lat="48.58388" lon="7.13249">
        <ele>385.82</ele>
        <time>2013-08-11T09:08:27Z</time>
      </trkpt>
      <trkpt lat="48.58388" lon="7.13277">
        <ele>387.16</ele>
        <time>2013-08-11T09:08:32Z</time>
      </trkpt>
      <trkpt lat="48.58386" lon="7.13309">
        <ele>389.01</ele>
        <time>2013-08-11T09:08:38Z</time>
      </trkpt>
      <trkpt lat="48.58377" lon="7.13338">
        <ele>391.88</ele>
        <time>2013-08-11T09:08:44Z</time>
      </trkpt>
      <trkpt lat="48.58377" lon="7.13367">
        <ele>393.7</ele>
        <time>2013-08-11T09:08:49Z</time>
      </trkpt>
      <trkpt lat="48.5837" lon="7.13393">
        <ele>394.53</ele>
        <time>2013-08-11T09:08:54Z</time>
      </trkpt>
      <trkpt lat="48.58362" lon="7.13419">
        <ele>395.93</ele>
        <time>2013-08-11T09:08:59Z</time>
      </trkpt>
      <trkpt lat="48.58358" lon="7.13446">
        <ele>393.54</ele>
        <time>2013-08-11T09:09:04Z</time>
      </trkpt>
      <trkpt lat="48.58341" lon="7.13463">
        <ele>392.09</ele>
        <time>2013-08-11T09:09:10Z</time>
      </trkpt>
      <trkpt lat="48.5832" lon="7.13468">
        <ele>390.71</ele>
        <time>2013-08-11T09:09:16Z</time>
      </trkpt>
      <trkpt lat="48.583" lon="7.1347">
        <ele>390.56</ele>
        <time>2013-08-11T09:09:21Z</time>
      </trkpt>
      <trkpt lat="48.5828" lon="7.13472">
        <ele>391.31</ele>
        <time>2013-08-11T09:09:26Z</time>
      </trkpt>
      <trkpt lat="48.5826" lon="7.13472">
        <ele>392.66</ele>
        <time>2013-08-11T09:09:31Z</time>
      </trkpt>
      <trkpt lat="48.58241" lon="7.13472">
        <ele>394.12</ele>
        <time>2013-08-11T09:09:36Z</time>
      </trkpt>
      <trkpt lat="48.58222" lon="7.13471">
        <ele>394.82</ele>
        <time>2013-08-11T09:09:41Z</time>
      </trkpt>
      <trkpt lat="48.58203" lon="7.13472">
        <ele>395.22</ele>
        <time>2013-08-11T09:09:46Z</time>
      </trkpt>
      <trkpt lat="48.58184" lon="7.13479">
        <ele>395.75</ele>
        <time>2013-08-11T09:09:52Z</time>
      </trkpt>
      <trkpt lat="48.58165" lon="7.13491">
        <ele>394.39</ele>
        <time>2013-08-11T09:09:59Z</time>
      </trkpt>
      <trkpt lat="48.58148" lon="7.13502">
        <ele>395.22</ele>
        <time>2013-08-11T09:10:04Z</time>
      </trkpt>
      <trkpt lat="48.58132" lon="7.13522">
        <ele>395.98</ele>
        <time>2013-08-11T09:10:10Z</time>
      </trkpt>
      <trkpt lat="48.58127" lon="7.13551">
        <ele>395.76</ele>
        <time>2013-08-11T09:10:16Z</time>
      </trkpt>
      <trkpt lat="48.58136" lon="7.13578">
        <ele>395.92</ele>
        <time>2013-08-11T09:10:21Z</time>
      </trkpt>
      <trkpt lat="48.5815" lon="7.136">
        <ele>397.26</ele>
        <time>2013-08-11T09:10:26Z</time>
      </trkpt>
      <trkpt lat="48.58161" lon="7.13624">
        <ele>399.98</ele>
        <time>2013-08-11T09:10:32Z</time>
      </trkpt>
      <trkpt lat="48.58161" lon="7.13652">
        <ele>402.58</ele>
        <time>2013-08-11T09:10:37Z</time>
      </trkpt>
      <trkpt lat="48.58154" lon="7.13681">
        <ele>403.94</ele>
        <time>2013-08-11T09:10:43Z</time>
      </trkpt>
      <trkpt lat="48.58136" lon="7.13692">
        <ele>402.94</ele>
        <time>2013-08-11T09:10:49Z</time>
      </trkpt>
      <trkpt lat="48.58118" lon="7.13695">
        <ele>401.86</ele>
        <time>2013-08-11T09:10:54Z</time>
      </trkpt>
      <trkpt lat="48.58097" lon="7.13702">
        <ele>400.98</ele>
        <time>2013-08-11T09:11:00Z</time>
      </trkpt>
      <trkpt lat="48.58077" lon="7.13712">
        <ele>399.62</ele>
        <time>2013-08-11T09:11:06Z</time>
      </trkpt>
      <trkpt lat="48.58058" lon="7.13722">
        <ele>399.34</ele>
        <time>2013-08-11T09:11:11Z</time>
      </trkpt>
      <trkpt lat="48.58042" lon="7.13738">
        <ele>400.67</ele>
        <time>2013-08-11T09:11:16Z</time>
      </trkpt>
      <trkpt lat="48.58035" lon="7.13766">
        <ele>399.71</ele>
        <time>2013-08-11T09:11:22Z</time>
      </trkpt>
      <trkpt lat="48.58029" lon="7.13794">
        <ele>399.82</ele>
        <time>2013-08-11T09:11:27Z</time>
      </trkpt>
      <trkpt lat="48.58029" lon="7.13821">
        <ele>401.46</ele>
        <time>2013-08-11T09:11:31Z</time>
      </trkpt>
      <trkpt lat="48.58032" lon="7.1385">
        <ele>403.13</ele>
        <time>2013-08-11T09:11:35Z</time>
      </trkpt>
      <trkpt lat="48.58026" lon="7.1388">
        <ele>405.51</ele>
        <time>2013-08-11T09:11:40Z</time>
      </trkpt>
      <trkpt lat="48.58018" lon="7.13909">
        <ele>406.68</ele>
        <time>2013-08-11T09:11:45Z</time>
      </trkpt>
      <trkpt lat="48.58013" lon="7.13939">
        <ele>404.97</ele>
        <time>2013-08-11T09:11:50Z</time>
      </trkpt>
      <trkpt lat="48.57999" lon="7.13961">
        <ele>402.79</ele>
        <time>2013-08-11T09:11:55Z</time>
      </trkpt>
      <trkpt lat="48.57979" lon="7.13966">
        <ele>402.28</ele>
        <time>2013-08-11T09:12:00Z</time>
      </trkpt>
      <trkpt lat="48.57959" lon="7.13961">
        <ele>402.24</ele>
        <time>2013-08-11T09:12:05Z</time>
      </trkpt>
      <trkpt lat="48.57938" lon="7.13956">
        <ele>401.76</ele>
        <time>2013-08-11T09:12:10Z</time>
      </trkpt>
      <trkpt lat="48.57918" lon="7.13954">
        <ele>400.66</ele>
        <time>2013-08-11T09:12:15Z</time>
      </trkpt>
      <trkpt lat="48.579" lon="7.13953">
        <ele>400.45</ele>
        <time>2013-08-11T09:12:19Z</time>
      </trkpt>
      <trkpt lat="48.57878" lon="7.13951">
        <ele>401.61</ele>
        <time>2013-08-11T09:12:23Z</time>
      </trkpt>
      <trkpt lat="48.57856" lon="7.13955">
        <ele>402.91</ele>
        <time>2013-08-11T09:12:28Z</time>
      </trkpt>
      <trkpt lat="48.57837" lon="7.13963">
        <ele>403.35</ele>
        <time>2013-08-11T09:12:32Z</time>
      </trkpt>
      <trkpt lat="48.57819" lon="7.13975">
        <ele>404.22</ele>
        <time>2013-08-11T09:12:36Z</time>
      </trkpt>
      <trkpt lat="48.57807" lon="7.14004">
        <ele>403.55</ele>
        <time>2013-08-11T09:12:41Z</time>
      </trkpt>
      <trkpt lat="48.578" lon="7.14029">
        <ele>402.48</ele>
        <time>2013-08-11T09:12:45Z</time>
      </trkpt>
      <trkpt lat="48.57788" lon="7.14056">
        <ele>401.29</ele>
        <time>2013-08-11T09:12:50Z</time>
      </trkpt>
      <trkpt lat="48.57776" lon="7.14082">
        <ele>400.04</ele>
        <time>2013-08-11T09:12:55Z</time>
      </trkpt>
      <trkpt lat="48.5776" lon="7.14096">
        <ele>400.25</ele>
        <time>2013-08-11T09:12:59Z</time>
      </trkpt>
      <trkpt lat="48.57741" lon="7.14109">
        <ele>401.5</ele>
        <time>2013-08-11T09:13:04Z</time>
      </trkpt>
      <trkpt lat="48.57723" lon="7.14115">
        <ele>401.9</ele>
        <time>2013-08-11T09:13:09Z</time>
      </trkpt>
      <trkpt lat="48.57705" lon="7.14118">
        <ele>401.99</ele>
        <time>2013-08-11T09:13:13Z</time>
      </trkpt>
      <trkpt lat="48.57685" lon="7.1412">
        <ele>402.36</ele>
        <time>2013-08-11T09:13:18Z</time>
      </trkpt>
      <trkpt lat="48.57663" lon="7.14116">
        <ele>403.4</ele>
        <time>2013-08-11T09:13:23Z</time>
      </trkpt>
      <trkpt lat="48.57645" lon="7.14108">
        <ele>404.65</ele>
        <time>2013-08-11T09:13:27Z</time>
      </trkpt>
      <trkpt lat="48.57624" lon="7.14098">
        <ele>405.17</ele>
        <time>2013-08-11T09:13:32Z</time>
      </trkpt>
      <trkpt lat="48.57602" lon="7.14097">
        <ele>405.11</ele>
        <time>2013-08-11T09:13:37Z</time>
      </trkpt>
      <trkpt lat="48.57582" lon="7.14099">
        <ele>405.45</ele>
        <time>2013-08-11T09:13:41Z</time>
      </trkpt>
      <trkpt lat="48.57563" lon="7.14103">
        <ele>405.68</ele>
        <time>2013-08-11T09:13:45Z</time>
      </trkpt>
      <trkpt lat="48.57544" lon="7.14107">
        <ele>406.86</ele>
        <time>2013-08-11T09:13:49Z</time>
      </trkpt>
      <trkpt lat="48.57521" lon="7.14109">
        <ele>406.91</ele>
        <time>2013-08-11T09:13:54Z</time>
      </trkpt>
      <trkpt lat="48.57499" lon="7.14106">
        <ele>407.73</ele>
        <time>2013-08-11T09:13:58Z</time>
      </trkpt>
      <trkpt lat="48.57478" lon="7.14106">
        <ele>409.01</ele>
        <time>2013-08-11T09:14:02Z</time>
      </trkpt>
      <trkpt lat="48.57459" lon="7.1411">
        <ele>410.1</ele>
        <time>2013-08-11T09:14:06Z</time>
      </trkpt>
      <trkpt lat="48.57439" lon="7.14118">
        <ele>410.87</ele>
        <time>2013-08-11T09:14:10Z</time>
      </trkpt>
      <trkpt lat="48.57417" lon="7.14124">
        <ele>412.45</ele>
        <time>2013-08-11T09:14:14Z</time>
      </trkpt>
      <trkpt lat="48.57401" lon="7.14136">
        <ele>413.69</ele>
        <time>2013-08-11T09:14:18Z</time>
      </trkpt>
      <trkpt lat="48.5738" lon="7.14145">
        <ele>414.99</ele>
        <time>2013-08-11T09:14:22Z</time>
      </trkpt>
      <trkpt lat="48.57359" lon="7.14154">
        <ele>417.12</ele>
        <time>2013-08-11T09:14:27Z</time>
      </trkpt>
      <trkpt lat="48.57338" lon="7.14157">
        <ele>417.64</ele>
        <time>2013-08-11T09:14:32Z</time>
      </trkpt>
      <trkpt lat="48.57318" lon="7.14156">
        <ele>418.72</ele>
        <time>2013-08-11T09:14:36Z</time>
      </trkpt>
      <trkpt lat="48.57299" lon="7.14158">
        <ele>419.21</ele>
        <time>2013-08-11T09:14:41Z</time>
      </trkpt>
      <trkpt lat="48.57281" lon="7.14166">
        <ele>418.94</ele>
        <time>2013-08-11T09:15:52Z</time>
      </trkpt>
      <trkpt lat="48.57261" lon="7.14177">
        <ele>420</ele>
        <time>2013-08-11T09:15:58Z</time>
      </trkpt>
      <trkpt lat="48.57242" lon="7.14191">
        <ele>421.54</ele>
        <time>2013-08-11T09:16:03Z</time>
      </trkpt>
      <trkpt lat="48.57225" lon="7.14204">
        <ele>422.9</ele>
        <time>2013-08-11T09:16:07Z</time>
      </trkpt>
      <trkpt lat="48.57207" lon="7.14213">
        <ele>424.59</ele>
        <time>2013-08-11T09:16:11Z</time>
      </trkpt>
      <trkpt lat="48.57185" lon="7.1422">
        <ele>425.91</ele>
        <time>2013-08-11T09:16:16Z</time>
      </trkpt>
      <trkpt lat="48.57167" lon="7.14232">
        <ele>427.73</ele>
        <time>2013-08-11T09:16:21Z</time>
      </trkpt>
      <trkpt lat="48.57149" lon="7.14245">
        <ele>428.6</ele>
        <time>2013-08-11T09:16:27Z</time>
      </trkpt>
      <trkpt lat="48.5713" lon="7.14254">
        <ele>428.69</ele>
        <time>2013-08-11T09:16:33Z</time>
      </trkpt>
      <trkpt lat="48.5711" lon="7.14264">
        <ele>429.22</ele>
        <time>2013-08-11T09:16:39Z</time>
      </trkpt>
      <trkpt lat="48.57091" lon="7.14273">
        <ele>430.91</ele>
        <time>2013-08-11T09:16:44Z</time>
      </trkpt>
      <trkpt lat="48.57073" lon="7.1429">
        <ele>433.26</ele>
        <time>2013-08-11T09:16:49Z</time>
      </trkpt>
      <trkpt lat="48.57059" lon="7.14309">
        <ele>434.33</ele>
        <time>2013-08-11T09:16:54Z</time>
      </trkpt>
      <trkpt lat="48.57045" lon="7.14328">
        <ele>434.82</ele>
        <time>2013-08-11T09:16:59Z</time>
      </trkpt>
      <trkpt lat="48.57029" lon="7.14348">
        <ele>436.47</ele>
        <time>2013-08-11T09:17:04Z</time>
      </trkpt>
      <trkpt lat="48.57014" lon="7.14368">
        <ele>436.46</ele>
        <time>2013-08-11T09:17:09Z</time>
      </trkpt>
      <trkpt lat="48.57" lon="7.1439">
        <ele>435.17</ele>
        <time>2013-08-11T09:17:14Z</time>
      </trkpt>
      <trkpt lat="48.56991" lon="7.14414">
        <ele>433.14</ele>
        <time>2013-08-11T09:17:19Z</time>
      </trkpt>
      <trkpt lat="48.56981" lon="7.14439">
        <ele>431.66</ele>
        <time>2013-08-11T09:17:24Z</time>
      </trkpt>
      <trkpt lat="48.56978" lon="7.14467">
        <ele>432.14</ele>
        <time>2013-08-11T09:17:28Z</time>
      </trkpt>
      <trkpt lat="48.5697" lon="7.14495">
        <ele>432.28</ele>
        <time>2013-08-11T09:17:33Z</time>
      </trkpt>
      <trkpt lat="48.56962" lon="7.14521">
        <ele>431.06</ele>
        <time>2013-08-11T09:17:38Z</time>
      </trkpt>
      <trkpt lat="48.56952" lon="7.14548">
        <ele>429.65</ele>
        <time>2013-08-11T09:17:43Z</time>
      </trkpt>
      <trkpt lat="48.56943" lon="7.14578">
        <ele>428.11</ele>
        <time>2013-08-11T09:17:48Z</time>
      </trkpt>
      <trkpt lat="48.56929" lon="7.14603">
        <ele>426.96</ele>
        <time>2013-08-11T09:17:53Z</time>
      </trkpt>
      <trkpt lat="48.56917" lon="7.14622">
        <ele>427.3</ele>
        <time>2013-08-11T09:17:57Z</time>
      </trkpt>
      <trkpt lat="48.56901" lon="7.14643">
        <ele>428.5</ele>
        <time>2013-08-11T09:18:02Z</time>
      </trkpt>
      <trkpt lat="48.56885" lon="7.14664">
        <ele>429.69</ele>
        <time>2013-08-11T09:18:07Z</time>
      </trkpt>
      <trkpt lat="48.56869" lon="7.14684">
        <ele>430.39</ele>
        <time>2013-08-11T09:18:12Z</time>
      </trkpt>
      <trkpt lat="48.56852" lon="7.14694">
        <ele>431.07</ele>
        <time>2013-08-11T09:18:16Z</time>
      </trkpt>
      <trkpt lat="48.56837" lon="7.14717">
        <ele>432.21</ele>
        <time>2013-08-11T09:18:21Z</time>
      </trkpt>
      <trkpt lat="48.56818" lon="7.14735">
        <ele>433.09</ele>
        <time>2013-08-11T09:18:26Z</time>
      </trkpt>
      <trkpt lat="48.568" lon="7.14753">
        <ele>435.22</ele>
        <time>2013-08-11T09:18:31Z</time>
      </trkpt>
      <trkpt lat="48.56787" lon="7.14775">
        <ele>436.7</ele>
        <time>2013-08-11T09:18:36Z</time>
      </trkpt>
      <trkpt lat="48.56773" lon="7.14797">
        <ele>437.71</ele>
        <time>2013-08-11T09:18:41Z</time>
      </trkpt>
      <trkpt lat="48.56762" lon="7.14822">
        <ele>437.48</ele>
        <time>2013-08-11T09:18:46Z</time>
      </trkpt>
      <trkpt lat="48.56752" lon="7.14847">
        <ele>436.49</ele>
        <time>2013-08-11T09:18:51Z</time>
      </trkpt>
      <trkpt lat="48.56744" lon="7.14875">
        <ele>435.6</ele>
        <time>2013-08-11T09:18:56Z</time>
      </trkpt>
      <trkpt lat="48.56731" lon="7.14896">
        <ele>435.74</ele>
        <time>2013-08-11T09:19:01Z</time>
      </trkpt>
      <trkpt lat="48.5672" lon="7.1492">
        <ele>436.14</ele>
        <time>2013-08-11T09:19:06Z</time>
      </trkpt>
      <trkpt lat="48.56712" lon="7.1495">
        <ele>435.66</ele>
        <time>2013-08-11T09:19:11Z</time>
      </trkpt>
      <trkpt lat="48.56701" lon="7.14977">
        <ele>435.22</ele>
        <time>2013-08-11T09:19:16Z</time>
      </trkpt>
      <trkpt lat="48.56691" lon="7.15001">
        <ele>434.74</ele>
        <time>2013-08-11T09:19:21Z</time>
      </trkpt>
      <trkpt lat="48.56681" lon="7.15025">
        <ele>434.76</ele>
        <time>2013-08-11T09:19:26Z</time>
      </trkpt>
      <trkpt lat="48.56671" lon="7.1505">
        <ele>434.68</ele>
        <time>2013-08-11T09:19:31Z</time>
      </trkpt>
      <trkpt lat="48.5666" lon="7.15073">
        <ele>434.67</ele>
        <time>2013-08-11T09:19:36Z</time>
      </trkpt>
      <trkpt lat="48.56648" lon="7.15095">
        <ele>434.55</ele>
        <time>2013-08-11T09:19:41Z</time>
      </trkpt>
      <trkpt lat="48.56635" lon="7.15117">
        <ele>434.6</ele>
        <time>2013-08-11T09:19:46Z</time>
      </trkpt>
      <trkpt lat="48.56621" lon="7.15136">
        <ele>434.75</ele>
        <time>2013-08-11T09:19:51Z</time>
      </trkpt>
      <trkpt lat="48.56607" lon="7.15156">
        <ele>434.57</ele>
        <time>2013-08-11T09:19:56Z</time>
      </trkpt>
      <trkpt lat="48.56591" lon="7.15176">
        <ele>434.89</ele>
        <time>2013-08-11T09:20:01Z</time>
      </trkpt>
      <trkpt lat="48.56576" lon="7.15198">
        <ele>435.8</ele>
        <time>2013-08-11T09:20:06Z</time>
      </trkpt>
      <trkpt lat="48.56567" lon="7.15224">
        <ele>436.2</ele>
        <time>2013-08-11T09:20:11Z</time>
      </trkpt>
      <trkpt lat="48.56562" lon="7.15252">
        <ele>436.88</ele>
        <time>2013-08-11T09:20:16Z</time>
      </trkpt>
      <trkpt lat="48.56564" lon="7.15282">
        <ele>436.86</ele>
        <time>2013-08-11T09:20:21Z</time>
      </trkpt>
      <trkpt lat="48.56566" lon="7.15312">
        <ele>437.95</ele>
        <time>2013-08-11T09:20:26Z</time>
      </trkpt>
      <trkpt lat="48.56568" lon="7.15341">
        <ele>440.2</ele>
        <time>2013-08-11T09:20:31Z</time>
      </trkpt>
      <trkpt lat="48.5657" lon="7.15372">
        <ele>442.9</ele>
        <time>2013-08-11T09:20:36Z</time>
      </trkpt>
      <trkpt lat="48.56572" lon="7.15404">
        <ele>445.14</ele>
        <time>2013-08-11T09:20:41Z</time>
      </trkpt>
      <trkpt lat="48.5657" lon="7.15435">
        <ele>446.96</ele>
        <time>2013-08-11T09:20:46Z</time>
      </trkpt>
      <trkpt lat="48.56561" lon="7.15462">
        <ele>449.15</ele>
        <time>2013-08-11T09:20:51Z</time>
      </trkpt>
      <trkpt lat="48.56552" lon="7.15489">
        <ele>448.78</ele>
        <time>2013-08-11T09:20:56Z</time>
      </trkpt>
      <trkpt lat="48.5654" lon="7.15514">
        <ele>447.42</ele>
        <time>2013-08-11T09:21:01Z</time>
      </trkpt>
      <trkpt lat="48.5653" lon="7.15542">
        <ele>446</ele>
        <time>2013-08-11T09:21:06Z</time>
      </trkpt>
      <trkpt lat="48.5652" lon="7.1557">
        <ele>444.57</ele>
        <time>2013-08-11T09:21:11Z</time>
      </trkpt>
      <trkpt lat="48.56506" lon="7.15593">
        <ele>443.4</ele>
        <time>2013-08-11T09:21:16Z</time>
      </trkpt>
      <trkpt lat="48.56488" lon="7.1561">
        <ele>444.19</ele>
        <time>2013-08-11T09:21:21Z</time>
      </trkpt>
      <trkpt lat="48.56466" lon="7.15621">
        <ele>445.8</ele>
        <time>2013-08-11T09:21:26Z</time>
      </trkpt>
      <trkpt lat="48.56445" lon="7.15631">
        <ele>448.5</ele>
        <time>2013-08-11T09:21:31Z</time>
      </trkpt>
      <trkpt lat="48.56431" lon="7.15647">
        <ele>448.72</ele>
        <time>2013-08-11T09:21:36Z</time>
      </trkpt>
      <trkpt lat="48.56415" lon="7.15666">
        <ele>446.9</ele>
        <time>2013-08-11T09:21:41Z</time>
      </trkpt>
      <trkpt lat="48.56397" lon="7.15683">
        <ele>446.99</ele>
        <time>2013-08-11T09:21:46Z</time>
      </trkpt>
      <trkpt lat="48.56382" lon="7.157">
        <ele>446.89</ele>
        <time>2013-08-11T09:21:51Z</time>
      </trkpt>
      <trkpt lat="48.56368" lon="7.15718">
        <ele>445.89</ele>
        <time>2013-08-11T09:21:56Z</time>
      </trkpt>
      <trkpt lat="48.56355" lon="7.15737">
        <ele>446.02</ele>
        <time>2013-08-11T09:22:01Z</time>
      </trkpt>
      <trkpt lat="48.56339" lon="7.15759">
        <ele>446.09</ele>
        <time>2013-08-11T09:22:07Z</time>
      </trkpt>
      <trkpt lat="48.56324" lon="7.15778">
        <ele>446.74</ele>
        <time>2013-08-11T09:22:12Z</time>
      </trkpt>
      <trkpt lat="48.56311" lon="7.15797">
        <ele>447.87</ele>
        <time>2013-08-11T09:22:17Z</time>
      </trkpt>
      <trkpt lat="48.563" lon="7.15823">
        <ele>449.48</ele>
        <time>2013-08-11T09:22:23Z</time>
      </trkpt>
      <trkpt lat="48.5629" lon="7.15852">
        <ele>450.12</ele>
        <time>2013-08-11T09:22:29Z</time>
      </trkpt>
      <trkpt lat="48.56279" lon="7.15878">
        <ele>450.32</ele>
        <time>2013-08-11T09:22:35Z</time>
      </trkpt>
      <trkpt lat="48.56267" lon="7.15899">
        <ele>451.32</ele>
        <time>2013-08-11T09:22:41Z</time>
      </trkpt>
      <trkpt lat="48.56255" lon="7.15924">
        <ele>452.68</ele>
        <time>2013-08-11T09:22:47Z</time>
      </trkpt>
      <trkpt lat="48.5624" lon="7.15944">
        <ele>453.6</ele>
        <time>2013-08-11T09:22:53Z</time>
      </trkpt>
      <trkpt lat="48.5623" lon="7.15972">
        <ele>453.74</ele>
        <time>2013-08-11T09:22:59Z</time>
      </trkpt>
      <trkpt lat="48.56218" lon="7.15996">
        <ele>454.67</ele>
        <time>2013-08-11T09:23:05Z</time>
      </trkpt>
      <trkpt lat="48.56205" lon="7.16019">
        <ele>456.22</ele>
        <time>2013-08-11T09:23:11Z</time>
      </trkpt>
      <trkpt lat="48.5619" lon="7.1604">
        <ele>457.53</ele>
        <time>2013-08-11T09:23:17Z</time>
      </trkpt>
      <trkpt lat="48.56175" lon="7.16056">
        <ele>459.27</ele>
        <time>2013-08-11T09:23:22Z</time>
      </trkpt>
      <trkpt lat="48.56157" lon="7.16066">
        <ele>461.23</ele>
        <time>2013-08-11T09:23:27Z</time>
      </trkpt>
      <trkpt lat="48.5614" lon="7.16084">
        <ele>463.13</ele>
        <time>2013-08-11T09:23:33Z</time>
      </trkpt>
      <trkpt lat="48.56122" lon="7.161">
        <ele>464.55</ele>
        <time>2013-08-11T09:23:39Z</time>
      </trkpt>
      <trkpt lat="48.56107" lon="7.16118">
        <ele>467.75</ele>
        <time>2013-08-11T09:23:45Z</time>
      </trkpt>
      <trkpt lat="48.56089" lon="7.16131">
        <ele>470.35</ele>
        <time>2013-08-11T09:23:51Z</time>
      </trkpt>
      <trkpt lat="48.56074" lon="7.16146">
        <ele>471.29</ele>
        <time>2013-08-11T09:23:57Z</time>
      </trkpt>
      <trkpt lat="48.56055" lon="7.16157">
        <ele>471.51</ele>
        <time>2013-08-11T09:24:04Z</time>
      </trkpt>
      <trkpt lat="48.56038" lon="7.16168">
        <ele>470.43</ele>
        <time>2013-08-11T09:24:10Z</time>
      </trkpt>
      <trkpt lat="48.5602" lon="7.16182">
        <ele>468.74</ele>
        <time>2013-08-11T09:24:17Z</time>
      </trkpt>
      <trkpt lat="48.56003" lon="7.16194">
        <ele>467.8</ele>
        <time>2013-08-11T09:24:23Z</time>
      </trkpt>
      <trkpt lat="48.55985" lon="7.16203">
        <ele>468.79</ele>
        <time>2013-08-11T09:24:29Z</time>
      </trkpt>
      <trkpt lat="48.55967" lon="7.16217">
        <ele>469.36</ele>
        <time>2013-08-11T09:24:35Z</time>
      </trkpt>
      <trkpt lat="48.55949" lon="7.16232">
        <ele>471.1</ele>
        <time>2013-08-11T09:24:41Z</time>
      </trkpt>
      <trkpt lat="48.55933" lon="7.16244">
        <ele>472.85</ele>
        <time>2013-08-11T09:24:46Z</time>
      </trkpt>
      <trkpt lat="48.55915" lon="7.16258">
        <ele>474.39</ele>
        <time>2013-08-11T09:24:52Z</time>
      </trkpt>
      <trkpt lat="48.55899" lon="7.16273">
        <ele>475.41</ele>
        <time>2013-08-11T09:24:58Z</time>
      </trkpt>
      <trkpt lat="48.55882" lon="7.16289">
        <ele>476.34</ele>
        <time>2013-08-11T09:25:04Z</time>
      </trkpt>
      <trkpt lat="48.55863" lon="7.16304">
        <ele>477.49</ele>
        <time>2013-08-11T09:25:10Z</time>
      </trkpt>
      <trkpt lat="48.55845" lon="7.16318">
        <ele>479.84</ele>
        <time>2013-08-11T09:25:16Z</time>
      </trkpt>
      <trkpt lat="48.55827" lon="7.16335">
        <ele>481.94</ele>
        <time>2013-08-11T09:25:22Z</time>
      </trkpt>
      <trkpt lat="48.55812" lon="7.16357">
        <ele>485.03</ele>
        <time>2013-08-11T09:25:28Z</time>
      </trkpt>
      <trkpt lat="48.55798" lon="7.16378">
        <ele>486.74</ele>
        <time>2013-08-11T09:25:34Z</time>
      </trkpt>
      <trkpt lat="48.55785" lon="7.16399">
        <ele>489.34</ele>
        <time>2013-08-11T09:25:40Z</time>
      </trkpt>
      <trkpt lat="48.55774" lon="7.16421">
        <ele>490.14</ele>
        <time>2013-08-11T09:25:46Z</time>
      </trkpt>
      <trkpt lat="48.55765" lon="7.16447">
        <ele>488.5</ele>
        <time>2013-08-11T09:25:52Z</time>
      </trkpt>
      <trkpt lat="48.55755" lon="7.16471">
        <ele>486.49</ele>
        <time>2013-08-11T09:25:58Z</time>
      </trkpt>
      <trkpt lat="48.55744" lon="7.16493">
        <ele>485.59</ele>
        <time>2013-08-11T09:26:04Z</time>
      </trkpt>
      <trkpt lat="48.55734" lon="7.1652">
        <ele>485.34</ele>
        <time>2013-08-11T09:26:10Z</time>
      </trkpt>
      <trkpt lat="48.55723" lon="7.16546">
        <ele>485.5</ele>
        <time>2013-08-11T09:26:16Z</time>
      </trkpt>
      <trkpt lat="48.5571" lon="7.16568">
        <ele>485.73</ele>
        <time>2013-08-11T09:26:22Z</time>
      </trkpt>
      <trkpt lat="48.55695" lon="7.16585">
        <ele>487.13</ele>
        <time>2013-08-11T09:26:28Z</time>
      </trkpt>
      <trkpt lat="48.5568" lon="7.16604">
        <ele>488.98</ele>
        <time>2013-08-11T09:26:34Z</time>
      </trkpt>
      <trkpt lat="48.55663" lon="7.16623">
        <ele>491.27</ele>
        <time>2013-08-11T09:26:40Z</time>
      </trkpt>
      <trkpt lat="48.55652" lon="7.16645">
        <ele>493.01</ele>
        <time>2013-08-11T09:26:45Z</time>
      </trkpt>
      <trkpt lat="48.55636" lon="7.16665">
        <ele>495.87</ele>
        <time>2013-08-11T09:26:51Z</time>
      </trkpt>
      <trkpt lat="48.55625" lon="7.16686">
        <ele>499.24</ele>
        <time>2013-08-11T09:26:57Z</time>
      </trkpt>
      <trkpt lat="48.55619" lon="7.16714">
        <ele>500.35</ele>
        <time>2013-08-11T09:27:04Z</time>
      </trkpt>
      <trkpt lat="48.5561" lon="7.16741">
        <ele>502.23</ele>
        <time>2013-08-11T09:27:11Z</time>
      </trkpt>
      <trkpt lat="48.55604" lon="7.16767">
        <ele>503.49</ele>
        <time>2013-08-11T09:27:16Z</time>
      </trkpt>
      <trkpt lat="48.55593" lon="7.16792">
        <ele>504.37</ele>
        <time>2013-08-11T09:27:22Z</time>
      </trkpt>
      <trkpt lat="48.55582" lon="7.16818">
        <ele>504.76</ele>
        <time>2013-08-11T09:27:28Z</time>
      </trkpt>
      <trkpt lat="48.55567" lon="7.16835">
        <ele>506.8</ele>
        <time>2013-08-11T09:27:33Z</time>
      </trkpt>
      <trkpt lat="48.55552" lon="7.1685">
        <ele>508.84</ele>
        <time>2013-08-11T09:27:38Z</time>
      </trkpt>
      <trkpt lat="48.55535" lon="7.1686">
        <ele>510.08</ele>
        <time>2013-08-11T09:27:43Z</time>
      </trkpt>
      <trkpt lat="48.55518" lon="7.16873">
        <ele>510.1</ele>
        <time>2013-08-11T09:27:49Z</time>
      </trkpt>
      <trkpt lat="48.55501" lon="7.16883">
        <ele>510.9</ele>
        <time>2013-08-11T09:27:54Z</time>
      </trkpt>
      <trkpt lat="48.55483" lon="7.16892">
        <ele>511.52</ele>
        <time>2013-08-11T09:27:59Z</time>
      </trkpt>
      <trkpt lat="48.55468" lon="7.16911">
        <ele>511.96</ele>
        <time>2013-08-11T09:28:05Z</time>
      </trkpt>
      <trkpt lat="48.55465" lon="7.16942">
        <ele>512.89</ele>
        <time>2013-08-11T09:28:12Z</time>
      </trkpt>
      <trkpt lat="48.55465" lon="7.16972">
        <ele>514.74</ele>
        <time>2013-08-11T09:28:17Z</time>
      </trkpt>
      <trkpt lat="48.55464" lon="7.17001">
        <ele>517.58</ele>
        <time>2013-08-11T09:28:22Z</time>
      </trkpt>
      <trkpt lat="48.55465" lon="7.17032">
        <ele>520.14</ele>
        <time>2013-08-11T09:28:27Z</time>
      </trkpt>
      <trkpt lat="48.55457" lon="7.17058">
        <ele>522.15</ele>
        <time>2013-08-11T09:28:31Z</time>
      </trkpt>
      <trkpt lat="48.55437" lon="7.17061">
        <ele>523.26</ele>
        <time>2013-08-11T09:28:36Z</time>
      </trkpt>
      <trkpt lat="48.55422" lon="7.17042">
        <ele>523.77</ele>
        <time>2013-08-11T09:28:40Z</time>
      </trkpt>
      <trkpt lat="48.55412" lon="7.17015">
        <ele>523.53</ele>
        <time>2013-08-11T09:28:45Z</time>
      </trkpt>
      <trkpt lat="48.55402" lon="7.16991">
        <ele>523.25</ele>
        <time>2013-08-11T09:28:50Z</time>
      </trkpt>
      <trkpt lat="48.55384" lon="7.16973">
        <ele>523.45</ele>
        <time>2013-08-11T09:28:56Z</time>
      </trkpt>
      <trkpt lat="48.55366" lon="7.16965">
        <ele>524.58</ele>
        <time>2013-08-11T09:29:01Z</time>
      </trkpt>
      <trkpt lat="48.55347" lon="7.16962">
        <ele>525.77</ele>
        <time>2013-08-11T09:29:06Z</time>
      </trkpt>
      <trkpt lat="48.55328" lon="7.16968">
        <ele>526.15</ele>
        <time>2013-08-11T09:29:11Z</time>
      </trkpt>
      <trkpt lat="48.5531" lon="7.16977">
        <ele>526.45</ele>
        <time>2013-08-11T09:29:16Z</time>
      </trkpt>
      <trkpt lat="48.55293" lon="7.16986">
        <ele>526.38</ele>
        <time>2013-08-11T09:29:21Z</time>
      </trkpt>
      <trkpt lat="48.55275" lon="7.16995">
        <ele>526.53</ele>
        <time>2013-08-11T09:29:26Z</time>
      </trkpt>
      <trkpt lat="48.55256" lon="7.17006">
        <ele>526.44</ele>
        <time>2013-08-11T09:29:32Z</time>
      </trkpt>
      <trkpt lat="48.55236" lon="7.17016">
        <ele>526.07</ele>
        <time>2013-08-11T09:29:38Z</time>
      </trkpt>
      <trkpt lat="48.55219" lon="7.17028">
        <ele>525.55</ele>
        <time>2013-08-11T09:29:44Z</time>
      </trkpt>
      <trkpt lat="48.55202" lon="7.17043">
        <ele>525.34</ele>
        <time>2013-08-11T09:29:50Z</time>
      </trkpt>
      <trkpt lat="48.55186" lon="7.17061">
        <ele>524.77</ele>
        <time>2013-08-11T09:29:56Z</time>
      </trkpt>
      <trkpt lat="48.55168" lon="7.17071">
        <ele>524.92</ele>
        <time>2013-08-11T09:30:01Z</time>
      </trkpt>
      <trkpt lat="48.55149" lon="7.17085">
        <ele>525.8</ele>
        <time>2013-08-11T09:30:07Z</time>
      </trkpt>
      <trkpt lat="48.55133" lon="7.17096">
        <ele>526.01</ele>
        <time>2013-08-11T09:30:12Z</time>
      </trkpt>
      <trkpt lat="48.55114" lon="7.1711">
        <ele>525.59</ele>
        <time>2013-08-11T09:30:18Z</time>
      </trkpt>
      <trkpt lat="48.55096" lon="7.17119">
        <ele>526.45</ele>
        <time>2013-08-11T09:30:24Z</time>
      </trkpt>
      <trkpt lat="48.55079" lon="7.1713">
        <ele>527.29</ele>
        <time>2013-08-11T09:30:31Z</time>
      </trkpt>
      <trkpt lat="48.55059" lon="7.17141">
        <ele>527.73</ele>
        <time>2013-08-11T09:30:38Z</time>
      </trkpt>
      <trkpt lat="48.5504" lon="7.17154">
        <ele>527.84</ele>
        <time>2013-08-11T09:30:44Z</time>
      </trkpt>
      <trkpt lat="48.55022" lon="7.17172">
        <ele>528.85</ele>
        <time>2013-08-11T09:30:50Z</time>
      </trkpt>
      <trkpt lat="48.55009" lon="7.17192">
        <ele>530.23</ele>
        <time>2013-08-11T09:30:55Z</time>
      </trkpt>
      <trkpt lat="48.54997" lon="7.17218">
        <ele>531.28</ele>
        <time>2013-08-11T09:31:01Z</time>
      </trkpt>
      <trkpt lat="48.54982" lon="7.1724">
        <ele>532.02</ele>
        <time>2013-08-11T09:31:08Z</time>
      </trkpt>
      <trkpt lat="48.54971" lon="7.17263">
        <ele>532.03</ele>
        <time>2013-08-11T09:31:14Z</time>
      </trkpt>
      <trkpt lat="48.5496" lon="7.17287">
        <ele>532.28</ele>
        <time>2013-08-11T09:31:20Z</time>
      </trkpt>
      <trkpt lat="48.54951" lon="7.17313">
        <ele>532.43</ele>
        <time>2013-08-11T09:31:26Z</time>
      </trkpt>
      <trkpt lat="48.54938" lon="7.17334">
        <ele>532.99</ele>
        <time>2013-08-11T09:31:32Z</time>
      </trkpt>
      <trkpt lat="48.54923" lon="7.17353">
        <ele>535.82</ele>
        <time>2013-08-11T09:31:38Z</time>
      </trkpt>
      <trkpt lat="48.54909" lon="7.1737">
        <ele>540.82</ele>
        <time>2013-08-11T09:31:44Z</time>
      </trkpt>
      <trkpt lat="48.54896" lon="7.17392">
        <ele>545.19</ele>
        <time>2013-08-11T09:31:50Z</time>
      </trkpt>
      <trkpt lat="48.54885" lon="7.17416">
        <ele>548.8</ele>
        <time>2013-08-11T09:31:56Z</time>
      </trkpt>
      <trkpt lat="48.54873" lon="7.17439">
        <ele>551.03</ele>
        <time>2013-08-11T09:32:02Z</time>
      </trkpt>
      <trkpt lat="48.5486" lon="7.17462">
        <ele>552.7</ele>
        <time>2013-08-11T09:32:08Z</time>
      </trkpt>
      <trkpt lat="48.54849" lon="7.17484">
        <ele>554</ele>
        <time>2013-08-11T09:32:14Z</time>
      </trkpt>
      <trkpt lat="48.54841" lon="7.17512">
        <ele>554.16</ele>
        <time>2013-08-11T09:32:20Z</time>
      </trkpt>
      <trkpt lat="48.54833" lon="7.17537">
        <ele>554.2</ele>
        <time>2013-08-11T09:32:25Z</time>
      </trkpt>
      <trkpt lat="48.54823" lon="7.17561">
        <ele>554.88</ele>
        <time>2013-08-11T09:32:30Z</time>
      </trkpt>
      <trkpt lat="48.5481" lon="7.17583">
        <ele>556</ele>
        <time>2013-08-11T09:32:36Z</time>
      </trkpt>
      <trkpt lat="48.54802" lon="7.17609">
        <ele>557.04</ele>
        <time>2013-08-11T09:32:41Z</time>
      </trkpt>
      <trkpt lat="48.54799" lon="7.17636">
        <ele>557.52</ele>
        <time>2013-08-11T09:32:46Z</time>
      </trkpt>
      <trkpt lat="48.54799" lon="7.17668">
        <ele>556.57</ele>
        <time>2013-08-11T09:32:51Z</time>
      </trkpt>
      <trkpt lat="48.548" lon="7.17696">
        <ele>556.07</ele>
        <time>2013-08-11T09:32:56Z</time>
      </trkpt>
      <trkpt lat="48.54804" lon="7.17724">
        <ele>556.01</ele>
        <time>2013-08-11T09:33:01Z</time>
      </trkpt>
      <trkpt lat="48.54808" lon="7.17753">
        <ele>556.85</ele>
        <time>2013-08-11T09:33:07Z</time>
      </trkpt>
      <trkpt lat="48.54811" lon="7.17782">
        <ele>558.34</ele>
        <time>2013-08-11T09:33:13Z</time>
      </trkpt>
      <trkpt lat="48.54808" lon="7.17809">
        <ele>560.5</ele>
        <time>2013-08-11T09:33:18Z</time>
      </trkpt>
      <trkpt lat="48.54791" lon="7.17824">
        <ele>562.18</ele>
        <time>2013-08-11T09:33:23Z</time>
      </trkpt>
      <trkpt lat="48.54773" lon="7.17811">
        <ele>564.23</ele>
        <time>2013-08-11T09:33:30Z</time>
      </trkpt>
      <trkpt lat="48.54756" lon="7.17795">
        <ele>566.82</ele>
        <time>2013-08-11T09:33:37Z</time>
      </trkpt>
      <trkpt lat="48.54735" lon="7.1779">
        <ele>569.67</ele>
        <time>2013-08-11T09:33:43Z</time>
      </trkpt>
      <trkpt lat="48.54714" lon="7.17791">
        <ele>571.87</ele>
        <time>2013-08-11T09:33:49Z</time>
      </trkpt>
      <trkpt lat="48.54698" lon="7.17804">
        <ele>573.32</ele>
        <time>2013-08-11T09:33:55Z</time>
      </trkpt>
      <trkpt lat="48.54681" lon="7.17817">
        <ele>575.14</ele>
        <time>2013-08-11T09:34:01Z</time>
      </trkpt>
      <trkpt lat="48.54671" lon="7.17842">
        <ele>577.69</ele>
        <time>2013-08-11T09:34:08Z</time>
      </trkpt>
      <trkpt lat="48.5466" lon="7.17869">
        <ele>579.49</ele>
        <time>2013-08-11T09:34:15Z</time>
      </trkpt>
      <trkpt lat="48.54651" lon="7.17894">
        <ele>580.97</ele>
        <time>2013-08-11T09:34:21Z</time>
      </trkpt>
      <trkpt lat="48.54635" lon="7.17915">
        <ele>581.71</ele>
        <time>2013-08-11T09:34:27Z</time>
      </trkpt>
      <trkpt lat="48.54627" lon="7.17945">
        <ele>582.41</ele>
        <time>2013-08-11T09:34:33Z</time>
      </trkpt>
      <trkpt lat="48.54624" lon="7.17979">
        <ele>582.43</ele>
        <time>2013-08-11T09:34:40Z</time>
      </trkpt>
      <trkpt lat="48.54625" lon="7.18009">
        <ele>581.3</ele>
        <time>2013-08-11T09:34:44Z</time>
      </trkpt>
      <trkpt lat="48.54626" lon="7.18038">
        <ele>581.42</ele>
        <time>2013-08-11T09:34:49Z</time>
      </trkpt>
      <trkpt lat="48.54629" lon="7.18067">
        <ele>582.07</ele>
        <time>2013-08-11T09:34:55Z</time>
      </trkpt>
      <trkpt lat="48.54627" lon="7.18096">
        <ele>583.73</ele>
        <time>2013-08-11T09:35:01Z</time>
      </trkpt>
      <trkpt lat="48.54608" lon="7.18108">
        <ele>584.85</ele>
        <time>2013-08-11T09:35:07Z</time>
      </trkpt>
      <trkpt lat="48.54594" lon="7.1809">
        <ele>585.66</ele>
        <time>2013-08-11T09:35:12Z</time>
      </trkpt>
      <trkpt lat="48.54583" lon="7.18064">
        <ele>586.34</ele>
        <time>2013-08-11T09:35:18Z</time>
      </trkpt>
      <trkpt lat="48.54572" lon="7.18041">
        <ele>586.34</ele>
        <time>2013-08-11T09:35:23Z</time>
      </trkpt>
      <trkpt lat="48.54562" lon="7.18014">
        <ele>586.63</ele>
        <time>2013-08-11T09:35:29Z</time>
      </trkpt>
      <trkpt lat="48.54553" lon="7.1799">
        <ele>588.62</ele>
        <time>2013-08-11T09:35:34Z</time>
      </trkpt>
      <trkpt lat="48.54539" lon="7.17968">
        <ele>590.01</ele>
        <time>2013-08-11T09:35:39Z</time>
      </trkpt>
      <trkpt lat="48.54525" lon="7.1795">
        <ele>591.78</ele>
        <time>2013-08-11T09:35:45Z</time>
      </trkpt>
      <trkpt lat="48.54506" lon="7.17942">
        <ele>594.37</ele>
        <time>2013-08-11T09:35:51Z</time>
      </trkpt>
      <trkpt lat="48.54487" lon="7.1794">
        <ele>596.38</ele>
        <time>2013-08-11T09:35:57Z</time>
      </trkpt>
      <trkpt lat="48.54467" lon="7.17942">
        <ele>598.09</ele>
        <time>2013-08-11T09:36:03Z</time>
      </trkpt>
      <trkpt lat="48.54447" lon="7.17943">
        <ele>599.06</ele>
        <time>2013-08-11T09:36:09Z</time>
      </trkpt>
      <trkpt lat="48.54426" lon="7.17944">
        <ele>600.25</ele>
        <time>2013-08-11T09:36:15Z</time>
      </trkpt>
      <trkpt lat="48.54405" lon="7.17947">
        <ele>602.53</ele>
        <time>2013-08-11T09:36:21Z</time>
      </trkpt>
      <trkpt lat="48.54386" lon="7.17958">
        <ele>602.75</ele>
        <time>2013-08-11T09:36:27Z</time>
      </trkpt>
      <trkpt lat="48.54368" lon="7.1797">
        <ele>605.15</ele>
        <time>2013-08-11T09:36:33Z</time>
      </trkpt>
      <trkpt lat="48.54351" lon="7.17981">
        <ele>606.71</ele>
        <time>2013-08-11T09:36:38Z</time>
      </trkpt>
      <trkpt lat="48.54334" lon="7.17989">
        <ele>607.46</ele>
        <time>2013-08-11T09:36:44Z</time>
      </trkpt>
      <trkpt lat="48.54316" lon="7.17996">
        <ele>607.99</ele>
        <time>2013-08-11T09:36:49Z</time>
      </trkpt>
      <trkpt lat="48.54298" lon="7.18004">
        <ele>608.02</ele>
        <time>2013-08-11T09:36:54Z</time>
      </trkpt>
      <trkpt lat="48.5428" lon="7.18013">
        <ele>607.87</ele>
        <time>2013-08-11T09:36:59Z</time>
      </trkpt>
      <trkpt lat="48.5426" lon="7.18019">
        <ele>607.92</ele>
        <time>2013-08-11T09:37:04Z</time>
      </trkpt>
      <trkpt lat="48.5424" lon="7.18009">
        <ele>607.59</ele>
        <time>2013-08-11T09:37:09Z</time>
      </trkpt>
      <trkpt lat="48.54229" lon="7.17982">
        <ele>607.14</ele>
        <time>2013-08-11T09:37:14Z</time>
      </trkpt>
      <trkpt lat="48.54234" lon="7.17953">
        <ele>607.08</ele>
        <time>2013-08-11T09:37:19Z</time>
      </trkpt>
      <trkpt lat="48.54243" lon="7.17928">
        <ele>607.61</ele>
        <time>2013-08-11T09:37:24Z</time>
      </trkpt>
      <trkpt lat="48.54252" lon="7.17899">
        <ele>609.72</ele>
        <time>2013-08-11T09:37:30Z</time>
      </trkpt>
      <trkpt lat="48.54261" lon="7.17871">
        <ele>612</ele>
        <time>2013-08-11T09:37:36Z</time>
      </trkpt>
      <trkpt lat="48.54269" lon="7.17845">
        <ele>613.6</ele>
        <time>2013-08-11T09:37:42Z</time>
      </trkpt>
      <trkpt lat="48.54277" lon="7.1782">
        <ele>614.22</ele>
        <time>2013-08-11T09:37:48Z</time>
      </trkpt>
      <trkpt lat="48.54286" lon="7.17794">
        <ele>614.8</ele>
        <time>2013-08-11T09:37:54Z</time>
      </trkpt>
      <trkpt lat="48.54295" lon="7.17768">
        <ele>615.67</ele>
        <time>2013-08-11T09:38:00Z</time>
      </trkpt>
      <trkpt lat="48.54307" lon="7.17745">
        <ele>616.55</ele>
        <time>2013-08-11T09:38:06Z</time>
      </trkpt>
      <trkpt lat="48.54324" lon="7.17726">
        <ele>616.91</ele>
        <time>2013-08-11T09:38:12Z</time>
      </trkpt>
      <trkpt lat="48.54337" lon="7.17704">
        <ele>617.07</ele>
        <time>2013-08-11T09:38:18Z</time>
      </trkpt>
      <trkpt lat="48.54341" lon="7.17676">
        <ele>617.31</ele>
        <time>2013-08-11T09:38:24Z</time>
      </trkpt>
      <trkpt lat="48.54336" lon="7.17645">
        <ele>616.94</ele>
        <time>2013-08-11T09:38:30Z</time>
      </trkpt>
      <trkpt lat="48.54325" lon="7.17622">
        <ele>615.67</ele>
        <time>2013-08-11T09:38:35Z</time>
      </trkpt>
      <trkpt lat="48.54311" lon="7.17604">
        <ele>614.51</ele>
        <time>2013-08-11T09:38:40Z</time>
      </trkpt>
      <trkpt lat="48.54295" lon="7.17583">
        <ele>614.15</ele>
        <time>2013-08-11T09:38:46Z</time>
      </trkpt>
      <trkpt lat="48.5428" lon="7.17562">
        <ele>614.53</ele>
        <time>2013-08-11T09:38:52Z</time>
      </trkpt>
      <trkpt lat="48.54267" lon="7.1754">
        <ele>615.07</ele>
        <time>2013-08-11T09:38:58Z</time>
      </trkpt>
      <trkpt lat="48.54256" lon="7.17516">
        <ele>615.53</ele>
        <time>2013-08-11T09:39:04Z</time>
      </trkpt>
      <trkpt lat="48.54244" lon="7.17493">
        <ele>616.29</ele>
        <time>2013-08-11T09:39:10Z</time>
      </trkpt>
      <trkpt lat="48.54229" lon="7.17472">
        <ele>617.45</ele>
        <time>2013-08-11T09:39:16Z</time>
      </trkpt>
      <trkpt lat="48.54213" lon="7.17451">
        <ele>618.54</ele>
        <time>2013-08-11T09:39:22Z</time>
      </trkpt>
      <trkpt lat="48.54199" lon="7.17434">
        <ele>619.14</ele>
        <time>2013-08-11T09:39:27Z</time>
      </trkpt>
      <trkpt lat="48.54181" lon="7.1742">
        <ele>620.23</ele>
        <time>2013-08-11T09:39:33Z</time>
      </trkpt>
      <trkpt lat="48.54164" lon="7.17408">
        <ele>621.79</ele>
        <time>2013-08-11T09:39:39Z</time>
      </trkpt>
      <trkpt lat="48.54145" lon="7.17398">
        <ele>624.31</ele>
        <time>2013-08-11T09:39:47Z</time>
      </trkpt>
      <trkpt lat="48.54127" lon="7.17391">
        <ele>625.51</ele>
        <time>2013-08-11T09:39:53Z</time>
      </trkpt>
      <trkpt lat="48.54107" lon="7.17386">
        <ele>626.98</ele>
        <time>2013-08-11T09:40:02Z</time>
      </trkpt>
      <trkpt lat="48.54089" lon="7.17378">
        <ele>628.5</ele>
        <time>2013-08-11T09:40:08Z</time>
      </trkpt>
      <trkpt lat="48.5407" lon="7.17371">
        <ele>631.2</ele>
        <time>2013-08-11T09:40:14Z</time>
      </trkpt>
      <trkpt lat="48.5405" lon="7.17364">
        <ele>633.44</ele>
        <time>2013-08-11T09:40:20Z</time>
      </trkpt>
      <trkpt lat="48.54032" lon="7.17355">
        <ele>634.8</ele>
        <time>2013-08-11T09:40:26Z</time>
      </trkpt>
      <trkpt lat="48.54014" lon="7.1734">
        <ele>635.59</ele>
        <time>2013-08-11T09:40:32Z</time>
      </trkpt>
      <trkpt lat="48.53996" lon="7.17329">
        <ele>636.59</ele>
        <time>2013-08-11T09:40:38Z</time>
      </trkpt>
      <trkpt lat="48.53977" lon="7.17317">
        <ele>638.6</ele>
        <time>2013-08-11T09:40:44Z</time>
      </trkpt>
      <trkpt lat="48.53958" lon="7.17307">
        <ele>640.76</ele>
        <time>2013-08-11T09:40:50Z</time>
      </trkpt>
      <trkpt lat="48.53941" lon="7.17296">
        <ele>643.06</ele>
        <time>2013-08-11T09:40:55Z</time>
      </trkpt>
      <trkpt lat="48.53923" lon="7.17281">
        <ele>645.23</ele>
        <time>2013-08-11T09:41:01Z</time>
      </trkpt>
      <trkpt lat="48.53906" lon="7.17267">
        <ele>647.42</ele>
        <time>2013-08-11T09:41:07Z</time>
      </trkpt>
      <trkpt lat="48.53899" lon="7.17239">
        <ele>647.58</ele>
        <time>2013-08-11T09:41:14Z</time>
      </trkpt>
      <trkpt lat="48.53912" lon="7.17215">
        <ele>648.33</ele>
        <time>2013-08-11T09:41:21Z</time>
      </trkpt>
      <trkpt lat="48.53927" lon="7.17196">
        <ele>648.18</ele>
        <time>2013-08-11T09:41:27Z</time>
      </trkpt>
      <trkpt lat="48.53943" lon="7.17181">
        <ele>648.58</ele>
        <time>2013-08-11T09:41:32Z</time>
      </trkpt>
      <trkpt lat="48.5396" lon="7.17167">
        <ele>649.43</ele>
        <time>2013-08-11T09:41:37Z</time>
      </trkpt>
      <trkpt lat="48.53978" lon="7.17163">
        <ele>648.69</ele>
        <time>2013-08-11T09:41:43Z</time>
      </trkpt>
      <trkpt lat="48.53999" lon="7.17169">
        <ele>647.44</ele>
        <time>2013-08-11T09:41:49Z</time>
      </trkpt>
      <trkpt lat="48.54018" lon="7.17172">
        <ele>647.61</ele>
        <time>2013-08-11T09:41:54Z</time>
      </trkpt>
      <trkpt lat="48.54038" lon="7.17169">
        <ele>647.9</ele>
        <time>2013-08-11T09:42:00Z</time>
      </trkpt>
      <trkpt lat="48.54057" lon="7.17161">
        <ele>648.54</ele>
        <time>2013-08-11T09:42:06Z</time>
      </trkpt>
      <trkpt lat="48.54074" lon="7.17151">
        <ele>649.67</ele>
        <time>2013-08-11T09:42:11Z</time>
      </trkpt>
      <trkpt lat="48.54091" lon="7.1714">
        <ele>649.56</ele>
        <time>2013-08-11T09:42:16Z</time>
      </trkpt>
      <trkpt lat="48.54111" lon="7.17131">
        <ele>649.98</ele>
        <time>2013-08-11T09:42:22Z</time>
      </trkpt>
      <trkpt lat="48.54129" lon="7.17122">
        <ele>650.72</ele>
        <time>2013-08-11T09:42:29Z</time>
      </trkpt>
      <trkpt lat="48.5415" lon="7.17112">
        <ele>650.39</ele>
        <time>2013-08-11T09:42:36Z</time>
      </trkpt>
      <trkpt lat="48.54169" lon="7.17101">
        <ele>650.7</ele>
        <time>2013-08-11T09:42:42Z</time>
      </trkpt>
      <trkpt lat="48.54186" lon="7.1709">
        <ele>651.57</ele>
        <time>2013-08-11T09:42:48Z</time>
      </trkpt>
      <trkpt lat="48.54205" lon="7.17077">
        <ele>652.93</ele>
        <time>2013-08-11T09:42:54Z</time>
      </trkpt>
      <trkpt lat="48.54221" lon="7.17062">
        <ele>654.27</ele>
        <time>2013-08-11T09:42:59Z</time>
      </trkpt>
      <trkpt lat="48.54235" lon="7.17041">
        <ele>656.2</ele>
        <time>2013-08-11T09:43:04Z</time>
      </trkpt>
      <trkpt lat="48.54247" lon="7.17015">
        <ele>658.28</ele>
        <time>2013-08-11T09:43:10Z</time>
      </trkpt>
      <trkpt lat="48.54256" lon="7.1699">
        <ele>660.22</ele>
        <time>2013-08-11T09:43:16Z</time>
      </trkpt>
      <trkpt lat="48.54264" lon="7.16965">
        <ele>662.22</ele>
        <time>2013-08-11T09:43:22Z</time>
      </trkpt>
      <trkpt lat="48.54273" lon="7.1694">
        <ele>663.86</ele>
        <time>2013-08-11T09:43:28Z</time>
      </trkpt>
      <trkpt lat="48.54281" lon="7.16913">
        <ele>667.28</ele>
        <time>2013-08-11T09:56:38Z</time>
      </trkpt>
      <trkpt lat="48.5429" lon="7.16886">
        <ele>668.47</ele>
        <time>2013-08-11T09:56:44Z</time>
      </trkpt>
      <trkpt lat="48.54306" lon="7.16871">
        <ele>668.92</ele>
        <time>2013-08-11T09:56:49Z</time>
      </trkpt>
      <trkpt lat="48.54325" lon="7.16876">
        <ele>668.35</ele>
        <time>2013-08-11T09:56:53Z</time>
      </trkpt>
      <trkpt lat="48.54342" lon="7.16892">
        <ele>668.67</ele>
        <time>2013-08-11T09:56:58Z</time>
      </trkpt>
      <trkpt lat="48.54357" lon="7.16909">
        <ele>669.73</ele>
        <time>2013-08-11T09:57:04Z</time>
      </trkpt>
      <trkpt lat="48.54373" lon="7.16927">
        <ele>672.11</ele>
        <time>2013-08-11T09:57:10Z</time>
      </trkpt>
      <trkpt lat="48.54389" lon="7.16946">
        <ele>674.84</ele>
        <time>2013-08-11T09:57:16Z</time>
      </trkpt>
      <trkpt lat="48.54404" lon="7.16965">
        <ele>675.87</ele>
        <time>2013-08-11T09:57:22Z</time>
      </trkpt>
      <trkpt lat="48.54418" lon="7.16982">
        <ele>677.23</ele>
        <time>2013-08-11T09:57:27Z</time>
      </trkpt>
      <trkpt lat="48.54432" lon="7.17">
        <ele>678.08</ele>
        <time>2013-08-11T09:57:32Z</time>
      </trkpt>
      <trkpt lat="48.54445" lon="7.1702">
        <ele>679.01</ele>
        <time>2013-08-11T09:57:37Z</time>
      </trkpt>
      <trkpt lat="48.54458" lon="7.17043">
        <ele>679.56</ele>
        <time>2013-08-11T09:57:43Z</time>
      </trkpt>
      <trkpt lat="48.54468" lon="7.17067">
        <ele>680.87</ele>
        <time>2013-08-11T09:57:49Z</time>
      </trkpt>
      <trkpt lat="48.54479" lon="7.17088">
        <ele>682.39</ele>
        <time>2013-08-11T09:57:54Z</time>
      </trkpt>
      <trkpt lat="48.54492" lon="7.1711">
        <ele>683.47</ele>
        <time>2013-08-11T09:57:59Z</time>
      </trkpt>
      <trkpt lat="48.54504" lon="7.17135">
        <ele>683.83</ele>
        <time>2013-08-11T09:58:05Z</time>
      </trkpt>
      <trkpt lat="48.54516" lon="7.17157">
        <ele>684.02</ele>
        <time>2013-08-11T09:58:11Z</time>
      </trkpt>
      <trkpt lat="48.54534" lon="7.17174">
        <ele>684.53</ele>
        <time>2013-08-11T09:58:18Z</time>
      </trkpt>
      <trkpt lat="48.54554" lon="7.1717">
        <ele>684.59</ele>
        <time>2013-08-11T09:58:25Z</time>
      </trkpt>
      <trkpt lat="48.54564" lon="7.17147">
        <ele>684.61</ele>
        <time>2013-08-11T09:58:31Z</time>
      </trkpt>
      <trkpt lat="48.5457" lon="7.17117">
        <ele>685.2</ele>
        <time>2013-08-11T09:58:37Z</time>
      </trkpt>
      <trkpt lat="48.54574" lon="7.17086">
        <ele>686.15</ele>
        <time>2013-08-11T09:58:43Z</time>
      </trkpt>
      <trkpt lat="48.54574" lon="7.17057">
        <ele>687.74</ele>
        <time>2013-08-11T09:58:49Z</time>
      </trkpt>
      <trkpt lat="48.54572" lon="7.17025">
        <ele>691.28</ele>
        <time>2013-08-11T09:58:56Z</time>
      </trkpt>
      <trkpt lat="48.54568" lon="7.16998">
        <ele>694.92</ele>
        <time>2013-08-11T09:59:02Z</time>
      </trkpt>
      <trkpt lat="48.54564" lon="7.1697">
        <ele>698.68</ele>
        <time>2013-08-11T09:59:08Z</time>
      </trkpt>
      <trkpt lat="48.54559" lon="7.16942">
        <ele>702.26</ele>
        <time>2013-08-11T09:59:14Z</time>
      </trkpt>
      <trkpt lat="48.54553" lon="7.16913">
        <ele>707.53</ele>
        <time>2013-08-11T09:59:21Z</time>
      </trkpt>
      <trkpt lat="48.54546" lon="7.16884">
        <ele>711.88</ele>
        <time>2013-08-11T09:59:28Z</time>
      </trkpt>
      <trkpt lat="48.54537" lon="7.16858">
        <ele>714.04</ele>
        <time>2013-08-11T09:59:34Z</time>
      </trkpt>
      <trkpt lat="48.54525" lon="7.16835">
        <ele>714.72</ele>
        <time>2013-08-11T09:59:41Z</time>
      </trkpt>
      <trkpt lat="48.54506" lon="7.16826">
        <ele>713.36</ele>
        <time>2013-08-11T09:59:49Z</time>
      </trkpt>
      <trkpt lat="48.54487" lon="7.16833">
        <ele>712.51</ele>
        <time>2013-08-11T09:59:56Z</time>
      </trkpt>
      <trkpt lat="48.54468" lon="7.16837">
        <ele>711.71</ele>
        <time>2013-08-11T10:00:03Z</time>
      </trkpt>
      <trkpt lat="48.54447" lon="7.1683">
        <ele>711.42</ele>
        <time>2013-08-11T10:00:09Z</time>
      </trkpt>
      <trkpt lat="48.5443" lon="7.16817">
        <ele>711.56</ele>
        <time>2013-08-11T10:00:14Z</time>
      </trkpt>
      <trkpt lat="48.54412" lon="7.16804">
        <ele>711.96</ele>
        <time>2013-08-11T10:00:19Z</time>
      </trkpt>
      <trkpt lat="48.54393" lon="7.16791">
        <ele>713.71</ele>
        <time>2013-08-11T10:00:24Z</time>
      </trkpt>
      <trkpt lat="48.54377" lon="7.16778">
        <ele>714.46</ele>
        <time>2013-08-11T10:00:29Z</time>
      </trkpt>
      <trkpt lat="48.54358" lon="7.16768">
        <ele>714.86</ele>
        <time>2013-08-11T10:00:35Z</time>
      </trkpt>
      <trkpt lat="48.5434" lon="7.16756">
        <ele>714.5</ele>
        <time>2013-08-11T10:00:41Z</time>
      </trkpt>
      <trkpt lat="48.54323" lon="7.16744">
        <ele>713.66</ele>
        <time>2013-08-11T10:00:47Z</time>
      </trkpt>
      <trkpt lat="48.54306" lon="7.16735">
        <ele>713.65</ele>
        <time>2013-08-11T10:00:53Z</time>
      </trkpt>
      <trkpt lat="48.54288" lon="7.16729">
        <ele>714.32</ele>
        <time>2013-08-11T10:00:59Z</time>
      </trkpt>
      <trkpt lat="48.54269" lon="7.16723">
        <ele>714.81</ele>
        <time>2013-08-11T10:01:05Z</time>
      </trkpt>
      <trkpt lat="48.54249" lon="7.16719">
        <ele>716.07</ele>
        <time>2013-08-11T10:01:11Z</time>
      </trkpt>
      <trkpt lat="48.54228" lon="7.16722">
        <ele>716.63</ele>
        <time>2013-08-11T10:01:17Z</time>
      </trkpt>
      <trkpt lat="48.54216" lon="7.16745">
        <ele>715.33</ele>
        <time>2013-08-11T10:01:22Z</time>
      </trkpt>
      <trkpt lat="48.54212" lon="7.16775">
        <ele>714.72</ele>
        <time>2013-08-11T10:01:27Z</time>
      </trkpt>
      <trkpt lat="48.54207" lon="7.16803">
        <ele>714.64</ele>
        <time>2013-08-11T10:01:32Z</time>
      </trkpt>
      <trkpt lat="48.54198" lon="7.1683">
        <ele>715.18</ele>
        <time>2013-08-11T10:01:38Z</time>
      </trkpt>
      <trkpt lat="48.54189" lon="7.16854">
        <ele>716.11</ele>
        <time>2013-08-11T10:01:44Z</time>
      </trkpt>
      <trkpt lat="48.54179" lon="7.16878">
        <ele>717.41</ele>
        <time>2013-08-11T10:01:50Z</time>
      </trkpt>
      <trkpt lat="48.54168" lon="7.169">
        <ele>718.87</ele>
        <time>2013-08-11T10:01:56Z</time>
      </trkpt>
      <trkpt lat="48.54155" lon="7.16919">
        <ele>720.55</ele>
        <time>2013-08-11T10:02:02Z</time>
      </trkpt>
      <trkpt lat="48.54139" lon="7.16936">
        <ele>722.8</ele>
        <time>2013-08-11T10:02:08Z</time>
      </trkpt>
      <trkpt lat="48.54121" lon="7.16945">
        <ele>724.86</ele>
        <time>2013-08-11T10:02:14Z</time>
      </trkpt>
      <trkpt lat="48.54102" lon="7.16946">
        <ele>726.86</ele>
        <time>2013-08-11T10:02:20Z</time>
      </trkpt>
      <trkpt lat="48.54083" lon="7.16941">
        <ele>728.54</ele>
        <time>2013-08-11T10:02:26Z</time>
      </trkpt>
      <trkpt lat="48.54064" lon="7.1693">
        <ele>729.91</ele>
        <time>2013-08-11T10:02:32Z</time>
      </trkpt>
      <trkpt lat="48.54046" lon="7.16917">
        <ele>730.71</ele>
        <time>2013-08-11T10:02:38Z</time>
      </trkpt>
      <trkpt lat="48.5403" lon="7.16902">
        <ele>731.49</ele>
        <time>2013-08-11T10:02:44Z</time>
      </trkpt>
      <trkpt lat="48.54014" lon="7.16882">
        <ele>732.1</ele>
        <time>2013-08-11T10:02:50Z</time>
      </trkpt>
      <trkpt lat="48.53998" lon="7.16862">
        <ele>733.77</ele>
        <time>2013-08-11T10:02:56Z</time>
      </trkpt>
      <trkpt lat="48.53982" lon="7.16845">
        <ele>735.97</ele>
        <time>2013-08-11T10:03:02Z</time>
      </trkpt>
      <trkpt lat="48.53968" lon="7.16822">
        <ele>738.96</ele>
        <time>2013-08-11T10:03:08Z</time>
      </trkpt>
      <trkpt lat="48.53953" lon="7.16803">
        <ele>741.78</ele>
        <time>2013-08-11T10:03:14Z</time>
      </trkpt>
      <trkpt lat="48.53936" lon="7.16783">
        <ele>744.87</ele>
        <time>2013-08-11T10:03:20Z</time>
      </trkpt>
      <trkpt lat="48.53921" lon="7.16766">
        <ele>747.43</ele>
        <time>2013-08-11T10:03:25Z</time>
      </trkpt>
      <trkpt lat="48.53905" lon="7.16746">
        <ele>745.62</ele>
        <time>2013-08-11T10:03:31Z</time>
      </trkpt>
      <trkpt lat="48.53886" lon="7.16739">
        <ele>743.79</ele>
        <time>2013-08-11T10:03:36Z</time>
      </trkpt>
      <trkpt lat="48.53866" lon="7.16746">
        <ele>743.17</ele>
        <time>2013-08-11T10:03:41Z</time>
      </trkpt>
      <trkpt lat="48.53847" lon="7.1676">
        <ele>742.07</ele>
        <time>2013-08-11T10:03:47Z</time>
      </trkpt>
      <trkpt lat="48.5383" lon="7.16775">
        <ele>741.72</ele>
        <time>2013-08-11T10:03:53Z</time>
      </trkpt>
      <trkpt lat="48.53814" lon="7.16794">
        <ele>742.2</ele>
        <time>2013-08-11T10:03:59Z</time>
      </trkpt>
      <trkpt lat="48.538" lon="7.16818">
        <ele>743.6</ele>
        <time>2013-08-11T10:04:05Z</time>
      </trkpt>
      <trkpt lat="48.53786" lon="7.16843">
        <ele>745.13</ele>
        <time>2013-08-11T10:04:11Z</time>
      </trkpt>
      <trkpt lat="48.53775" lon="7.16869">
        <ele>746.81</ele>
        <time>2013-08-11T10:04:17Z</time>
      </trkpt>
      <trkpt lat="48.53764" lon="7.16893">
        <ele>748.18</ele>
        <time>2013-08-11T10:04:23Z</time>
      </trkpt>
      <trkpt lat="48.53753" lon="7.16916">
        <ele>749.51</ele>
        <time>2013-08-11T10:04:29Z</time>
      </trkpt>
      <trkpt lat="48.53736" lon="7.16931">
        <ele>749.94</ele>
        <time>2013-08-11T10:04:35Z</time>
      </trkpt>
      <trkpt lat="48.53717" lon="7.16935">
        <ele>750.35</ele>
        <time>2013-08-11T10:04:41Z</time>
      </trkpt>
      <trkpt lat="48.53697" lon="7.16933">
        <ele>751.29</ele>
        <time>2013-08-11T10:04:47Z</time>
      </trkpt>
      <trkpt lat="48.53679" lon="7.16925">
        <ele>752.03</ele>
        <time>2013-08-11T10:04:53Z</time>
      </trkpt>
      <trkpt lat="48.53661" lon="7.16914">
        <ele>752.6</ele>
        <time>2013-08-11T10:04:59Z</time>
      </trkpt>
      <trkpt lat="48.53643" lon="7.16904">
        <ele>753.42</ele>
        <time>2013-08-11T10:05:05Z</time>
      </trkpt>
      <trkpt lat="48.53624" lon="7.16895">
        <ele>754.48</ele>
        <time>2013-08-11T10:05:11Z</time>
      </trkpt>
      <trkpt lat="48.53606" lon="7.16886">
        <ele>755.49</ele>
        <time>2013-08-11T10:05:17Z</time>
      </trkpt>
      <trkpt lat="48.53587" lon="7.16877">
        <ele>757.11</ele>
        <time>2013-08-11T10:05:23Z</time>
      </trkpt>
      <trkpt lat="48.53568" lon="7.1687">
        <ele>758.65</ele>
        <time>2013-08-11T10:05:29Z</time>
      </trkpt>
      <trkpt lat="48.53549" lon="7.16863">
        <ele>760.07</ele>
        <time>2013-08-11T10:05:35Z</time>
      </trkpt>
      <trkpt lat="48.53529" lon="7.16858">
        <ele>761.85</ele>
        <time>2013-08-11T10:05:41Z</time>
      </trkpt>
      <trkpt lat="48.5351" lon="7.16856">
        <ele>763.95</ele>
        <time>2013-08-11T10:05:47Z</time>
      </trkpt>
      <trkpt lat="48.5349" lon="7.16862">
        <ele>765.54</ele>
        <time>2013-08-11T10:05:54Z</time>
      </trkpt>
      <trkpt lat="48.53472" lon="7.16878">
        <ele>765.95</ele>
        <time>2013-08-11T10:06:02Z</time>
      </trkpt>
      <trkpt lat="48.53458" lon="7.16895">
        <ele>766.11</ele>
        <time>2013-08-11T10:06:08Z</time>
      </trkpt>
      <trkpt lat="48.53444" lon="7.16912">
        <ele>766.76</ele>
        <time>2013-08-11T10:06:14Z</time>
      </trkpt>
      <trkpt lat="48.5343" lon="7.1693">
        <ele>768.06</ele>
        <time>2013-08-11T10:06:20Z</time>
      </trkpt>
      <trkpt lat="48.53417" lon="7.16951">
        <ele>769.73</ele>
        <time>2013-08-11T10:06:26Z</time>
      </trkpt>
      <trkpt lat="48.53406" lon="7.16973">
        <ele>770.82</ele>
        <time>2013-08-11T10:06:32Z</time>
      </trkpt>
      <trkpt lat="48.534" lon="7.16998">
        <ele>771.5</ele>
        <time>2013-08-11T10:06:38Z</time>
      </trkpt>
      <trkpt lat="48.53397" lon="7.17026">
        <ele>772.06</ele>
        <time>2013-08-11T10:06:44Z</time>
      </trkpt>
      <trkpt lat="48.53395" lon="7.17055">
        <ele>772.4</ele>
        <time>2013-08-11T10:06:50Z</time>
      </trkpt>
      <trkpt lat="48.53395" lon="7.17083">
        <ele>773.13</ele>
        <time>2013-08-11T10:06:56Z</time>
      </trkpt>
      <trkpt lat="48.53397" lon="7.17111">
        <ele>773.84</ele>
        <time>2013-08-11T10:07:02Z</time>
      </trkpt>
      <trkpt lat="48.53404" lon="7.17139">
        <ele>775.26</ele>
        <time>2013-08-11T10:07:08Z</time>
      </trkpt>
      <trkpt lat="48.53413" lon="7.17164">
        <ele>776.52</ele>
        <time>2013-08-11T10:07:14Z</time>
      </trkpt>
      <trkpt lat="48.53421" lon="7.17194">
        <ele>777.28</ele>
        <time>2013-08-11T10:07:21Z</time>
      </trkpt>
      <trkpt lat="48.53432" lon="7.17218">
        <ele>778.74</ele>
        <time>2013-08-11T10:07:27Z</time>
      </trkpt>
      <trkpt lat="48.53445" lon="7.17241">
        <ele>780.38</ele>
        <time>2013-08-11T10:07:33Z</time>
      </trkpt>
      <trkpt lat="48.53453" lon="7.1727">
        <ele>780.97</ele>
        <time>2013-08-11T10:07:40Z</time>
      </trkpt>
      <trkpt lat="48.53466" lon="7.17291">
        <ele>782</ele>
        <time>2013-08-11T10:07:46Z</time>
      </trkpt>
      <trkpt lat="48.53477" lon="7.17313">
        <ele>783.17</ele>
        <time>2013-08-11T10:07:52Z</time>
      </trkpt>
      <trkpt lat="48.53486" lon="7.17339">
        <ele>784.11</ele>
        <time>2013-08-11T10:07:59Z</time>
      </trkpt>
      <trkpt lat="48.53498" lon="7.17364">
        <ele>785.44</ele>
        <time>2013-08-11T10:08:06Z</time>
      </trkpt>
      <trkpt lat="48.53511" lon="7.17388">
        <ele>787.5</ele>
        <time>2013-08-11T10:08:13Z</time>
      </trkpt>
      <trkpt lat="48.53522" lon="7.1741">
        <ele>790.08</ele>
        <time>2013-08-11T10:08:20Z</time>
      </trkpt>
      <trkpt lat="48.53533" lon="7.17435">
        <ele>792.49</ele>
        <time>2013-08-11T10:08:28Z</time>
      </trkpt>
      <trkpt lat="48.53547" lon="7.17455">
        <ele>793.42</ele>
        <time>2013-08-11T10:08:34Z</time>
      </trkpt>
      <trkpt lat="48.53563" lon="7.1747">
        <ele>792.38</ele>
        <time>2013-08-11T10:08:39Z</time>
      </trkpt>
      <trkpt lat="48.53578" lon="7.17486">
        <ele>791.8</ele>
        <time>2013-08-11T10:08:45Z</time>
      </trkpt>
      <trkpt lat="48.53558" lon="7.17482">
        <ele>792.24</ele>
        <time>2013-08-11T10:09:02Z</time>
      </trkpt>
      <trkpt lat="48.53541" lon="7.17465">
        <ele>793.28</ele>
        <time>2013-08-11T10:09:07Z</time>
      </trkpt>
      <trkpt lat="48.53526" lon="7.1745">
        <ele>794.36</ele>
        <time>2013-08-11T10:09:12Z</time>
      </trkpt>
      <trkpt lat="48.53508" lon="7.17435">
        <ele>795.96</ele>
        <time>2013-08-11T10:09:18Z</time>
      </trkpt>
      <trkpt lat="48.53492" lon="7.17421">
        <ele>797.9</ele>
        <time>2013-08-11T10:09:24Z</time>
      </trkpt>
      <trkpt lat="48.53476" lon="7.17406">
        <ele>800.18</ele>
        <time>2013-08-11T10:09:30Z</time>
      </trkpt>
      <trkpt lat="48.5346" lon="7.17391">
        <ele>802.47</ele>
        <time>2013-08-11T10:09:36Z</time>
      </trkpt>
      <trkpt lat="48.53444" lon="7.17376">
        <ele>804.9</ele>
        <time>2013-08-11T10:09:42Z</time>
      </trkpt>
      <trkpt lat="48.53429" lon="7.17359">
        <ele>806.78</ele>
        <time>2013-08-11T10:09:48Z</time>
      </trkpt>
      <trkpt lat="48.53414" lon="7.17341">
        <ele>807.64</ele>
        <time>2013-08-11T10:09:54Z</time>
      </trkpt>
      <trkpt lat="48.53398" lon="7.17321">
        <ele>807.74</ele>
        <time>2013-08-11T10:10:00Z</time>
      </trkpt>
      <trkpt lat="48.53382" lon="7.17301">
        <ele>808.16</ele>
        <time>2013-08-11T10:10:06Z</time>
      </trkpt>
      <trkpt lat="48.53366" lon="7.17281">
        <ele>808.94</ele>
        <time>2013-08-11T10:10:12Z</time>
      </trkpt>
      <trkpt lat="48.53349" lon="7.17262">
        <ele>809.82</ele>
        <time>2013-08-11T10:10:18Z</time>
      </trkpt>
      <trkpt lat="48.53333" lon="7.17245">
        <ele>810.21</ele>
        <time>2013-08-11T10:10:24Z</time>
      </trkpt>
      <trkpt lat="48.53317" lon="7.17228">
        <ele>810.87</ele>
        <time>2013-08-11T10:10:30Z</time>
      </trkpt>
      <trkpt lat="48.53301" lon="7.17215">
        <ele>811.47</ele>
        <time>2013-08-11T10:10:36Z</time>
      </trkpt>
      <trkpt lat="48.53283" lon="7.17203">
        <ele>812.11</ele>
        <time>2013-08-11T10:10:43Z</time>
      </trkpt>
      <trkpt lat="48.53265" lon="7.17194">
        <ele>813.17</ele>
        <time>2013-08-11T10:10:50Z</time>
      </trkpt>
      <trkpt lat="48.53247" lon="7.17185">
        <ele>814.3</ele>
        <time>2013-08-11T10:10:58Z</time>
      </trkpt>
      <trkpt lat="48.53253" lon="7.17215">
        <ele>812.09</ele>
        <time>2013-08-11T10:13:41Z</time>
      </trkpt>
      <trkpt lat="48.53262" lon="7.17239">
        <ele>812.87</ele>
        <time>2013-08-11T10:13:47Z</time>
      </trkpt>
      <trkpt lat="48.53247" lon="7.17218">
        <ele>813.88</ele>
        <time>2013-08-11T10:14:26Z</time>
      </trkpt>
      <trkpt lat="48.53233" lon="7.17197">
        <ele>814.18</ele>
        <time>2013-08-11T10:14:34Z</time>
      </trkpt>
      <trkpt lat="48.53258" lon="7.17233">
        <ele>814.04</ele>
        <time>2013-08-11T10:21:52Z</time>
      </trkpt>
      <trkpt lat="48.53248" lon="7.17209">
        <ele>815.94</ele>
        <time>2013-08-11T10:26:19Z</time>
      </trkpt>
      <trkpt lat="48.53254" lon="7.17182">
        <ele>816.82</ele>
        <time>2013-08-11T10:26:32Z</time>
      </trkpt>
      <trkpt lat="48.53256" lon="7.17154">
        <ele>816.62</ele>
        <time>2013-08-11T10:39:34Z</time>
      </trkpt>
      <trkpt lat="48.53238" lon="7.17176">
        <ele>814.59</ele>
        <time>2013-08-11T11:15:48Z</time>
      </trkpt>
      <trkpt lat="48.5322" lon="7.17164">
        <ele>816.01</ele>
        <time>2013-08-11T11:15:58Z</time>
      </trkpt>
      <trkpt lat="48.53206" lon="7.17146">
        <ele>815.69</ele>
        <time>2013-08-11T11:16:04Z</time>
      </trkpt>
      <trkpt lat="48.5319" lon="7.17124">
        <ele>814.73</ele>
        <time>2013-08-11T11:16:10Z</time>
      </trkpt>
      <trkpt lat="48.53178" lon="7.17102">
        <ele>813.57</ele>
        <time>2013-08-11T11:16:15Z</time>
      </trkpt>
      <trkpt lat="48.53164" lon="7.17084">
        <ele>812.9</ele>
        <time>2013-08-11T11:16:19Z</time>
      </trkpt>
      <trkpt lat="48.53146" lon="7.17064">
        <ele>812.34</ele>
        <time>2013-08-11T11:16:23Z</time>
      </trkpt>
      <trkpt lat="48.53131" lon="7.17048">
        <ele>811.99</ele>
        <time>2013-08-11T11:16:26Z</time>
      </trkpt>
      <trkpt lat="48.53111" lon="7.17029">
        <ele>811.55</ele>
        <time>2013-08-11T11:16:30Z</time>
      </trkpt>
      <trkpt lat="48.53096" lon="7.17011">
        <ele>811.12</ele>
        <time>2013-08-11T11:16:33Z</time>
      </trkpt>
      <trkpt lat="48.5308" lon="7.16994">
        <ele>810.56</ele>
        <time>2013-08-11T11:16:36Z</time>
      </trkpt>
      <trkpt lat="48.53064" lon="7.16975">
        <ele>810.09</ele>
        <time>2013-08-11T11:16:39Z</time>
      </trkpt>
      <trkpt lat="48.53043" lon="7.16961">
        <ele>808.1</ele>
        <time>2013-08-11T11:16:43Z</time>
      </trkpt>
      <trkpt lat="48.53024" lon="7.16948">
        <ele>806.04</ele>
        <time>2013-08-11T11:16:48Z</time>
      </trkpt>
      <trkpt lat="48.53007" lon="7.16934">
        <ele>802.39</ele>
        <time>2013-08-11T11:21:01Z</time>
      </trkpt>
      <trkpt lat="48.52991" lon="7.16918">
        <ele>801.75</ele>
        <time>2013-08-11T11:21:07Z</time>
      </trkpt>
      <trkpt lat="48.52974" lon="7.16903">
        <ele>800.54</ele>
        <time>2013-08-11T11:21:12Z</time>
      </trkpt>
      <trkpt lat="48.52953" lon="7.16892">
        <ele>799.29</ele>
        <time>2013-08-11T11:21:17Z</time>
      </trkpt>
      <trkpt lat="48.52934" lon="7.16886">
        <ele>798.42</ele>
        <time>2013-08-11T11:21:21Z</time>
      </trkpt>
      <trkpt lat="48.52914" lon="7.16881">
        <ele>797.44</ele>
        <time>2013-08-11T11:21:26Z</time>
      </trkpt>
      <trkpt lat="48.52896" lon="7.16874">
        <ele>796.57</ele>
        <time>2013-08-11T11:21:30Z</time>
      </trkpt>
      <trkpt lat="48.52874" lon="7.16865">
        <ele>795.45</ele>
        <time>2013-08-11T11:21:34Z</time>
      </trkpt>
      <trkpt lat="48.52856" lon="7.16859">
        <ele>794.57</ele>
        <time>2013-08-11T11:21:37Z</time>
      </trkpt>
      <trkpt lat="48.52839" lon="7.16849">
        <ele>793.68</ele>
        <time>2013-08-11T11:21:40Z</time>
      </trkpt>
      <trkpt lat="48.52823" lon="7.16836">
        <ele>792.92</ele>
        <time>2013-08-11T11:21:43Z</time>
      </trkpt>
      <trkpt lat="48.52807" lon="7.16822">
        <ele>792.43</ele>
        <time>2013-08-11T11:21:46Z</time>
      </trkpt>
      <trkpt lat="48.52788" lon="7.16803">
        <ele>791.96</ele>
        <time>2013-08-11T11:21:50Z</time>
      </trkpt>
      <trkpt lat="48.52772" lon="7.16786">
        <ele>791.61</ele>
        <time>2013-08-11T11:21:54Z</time>
      </trkpt>
      <trkpt lat="48.52755" lon="7.16765">
        <ele>791.31</ele>
        <time>2013-08-11T11:21:59Z</time>
      </trkpt>
      <trkpt lat="48.52741" lon="7.16747">
        <ele>791.23</ele>
        <time>2013-08-11T11:22:03Z</time>
      </trkpt>
      <trkpt lat="48.52725" lon="7.16726">
        <ele>790.92</ele>
        <time>2013-08-11T11:22:08Z</time>
      </trkpt>
      <trkpt lat="48.52709" lon="7.16708">
        <ele>790.8</ele>
        <time>2013-08-11T11:22:13Z</time>
      </trkpt>
      <trkpt lat="48.52691" lon="7.16691">
        <ele>790.84</ele>
        <time>2013-08-11T11:22:18Z</time>
      </trkpt>
      <trkpt lat="48.52671" lon="7.16676">
        <ele>790.8</ele>
        <time>2013-08-11T11:22:23Z</time>
      </trkpt>
      <trkpt lat="48.52651" lon="7.16663">
        <ele>790.63</ele>
        <time>2013-08-11T11:22:28Z</time>
      </trkpt>
      <trkpt lat="48.52631" lon="7.16653">
        <ele>790.32</ele>
        <time>2013-08-11T11:22:33Z</time>
      </trkpt>
      <trkpt lat="48.52609" lon="7.16645">
        <ele>790.02</ele>
        <time>2013-08-11T11:22:38Z</time>
      </trkpt>
      <trkpt lat="48.52591" lon="7.16639">
        <ele>789.96</ele>
        <time>2013-08-11T11:22:42Z</time>
      </trkpt>
      <trkpt lat="48.52569" lon="7.16634">
        <ele>790.06</ele>
        <time>2013-08-11T11:22:47Z</time>
      </trkpt>
      <trkpt lat="48.52548" lon="7.16626">
        <ele>789.82</ele>
        <time>2013-08-11T11:22:52Z</time>
      </trkpt>
      <trkpt lat="48.52526" lon="7.1662">
        <ele>789.49</ele>
        <time>2013-08-11T11:22:57Z</time>
      </trkpt>
      <trkpt lat="48.52508" lon="7.16613">
        <ele>789.16</ele>
        <time>2013-08-11T11:23:01Z</time>
      </trkpt>
      <trkpt lat="48.52489" lon="7.16607">
        <ele>788.89</ele>
        <time>2013-08-11T11:23:05Z</time>
      </trkpt>
      <trkpt lat="48.52469" lon="7.16601">
        <ele>788.56</ele>
        <time>2013-08-11T11:23:09Z</time>
      </trkpt>
      <trkpt lat="48.52449" lon="7.16596">
        <ele>788.2</ele>
        <time>2013-08-11T11:23:13Z</time>
      </trkpt>
      <trkpt lat="48.5243" lon="7.16589">
        <ele>787.52</ele>
        <time>2013-08-11T11:23:17Z</time>
      </trkpt>
      <trkpt lat="48.5241" lon="7.16582">
        <ele>786.84</ele>
        <time>2013-08-11T11:23:21Z</time>
      </trkpt>
      <trkpt lat="48.52388" lon="7.16577">
        <ele>786.37</ele>
        <time>2013-08-11T11:23:25Z</time>
      </trkpt>
      <trkpt lat="48.52367" lon="7.16575">
        <ele>785.96</ele>
        <time>2013-08-11T11:23:29Z</time>
      </trkpt>
      <trkpt lat="48.52344" lon="7.16576">
        <ele>785.57</ele>
        <time>2013-08-11T11:23:33Z</time>
      </trkpt>
      <trkpt lat="48.52324" lon="7.1658">
        <ele>785.26</ele>
        <time>2013-08-11T11:23:37Z</time>
      </trkpt>
      <trkpt lat="48.52302" lon="7.16589">
        <ele>784.94</ele>
        <time>2013-08-11T11:23:41Z</time>
      </trkpt>
      <trkpt lat="48.52281" lon="7.16602">
        <ele>784.52</ele>
        <time>2013-08-11T11:23:45Z</time>
      </trkpt>
      <trkpt lat="48.52264" lon="7.16614">
        <ele>784.44</ele>
        <time>2013-08-11T11:23:48Z</time>
      </trkpt>
      <trkpt lat="48.52248" lon="7.1663">
        <ele>785.02</ele>
        <time>2013-08-11T11:23:51Z</time>
      </trkpt>
      <trkpt lat="48.52233" lon="7.1665">
        <ele>786.38</ele>
        <time>2013-08-11T11:23:55Z</time>
      </trkpt>
      <trkpt lat="48.52218" lon="7.16677">
        <ele>787.86</ele>
        <time>2013-08-11T11:23:59Z</time>
      </trkpt>
      <trkpt lat="48.52205" lon="7.16703">
        <ele>788.42</ele>
        <time>2013-08-11T11:24:03Z</time>
      </trkpt>
      <trkpt lat="48.52192" lon="7.16726">
        <ele>788.27</ele>
        <time>2013-08-11T11:24:07Z</time>
      </trkpt>
      <trkpt lat="48.52179" lon="7.16747">
        <ele>789.39</ele>
        <time>2013-08-11T11:24:10Z</time>
      </trkpt>
      <trkpt lat="48.52162" lon="7.16765">
        <ele>791.04</ele>
        <time>2013-08-11T11:24:14Z</time>
      </trkpt>
      <trkpt lat="48.52143" lon="7.16779">
        <ele>792.2</ele>
        <time>2013-08-11T11:24:17Z</time>
      </trkpt>
      <trkpt lat="48.52123" lon="7.16785">
        <ele>793.09</ele>
        <time>2013-08-11T11:24:22Z</time>
      </trkpt>
      <trkpt lat="48.52101" lon="7.16797">
        <ele>793</ele>
        <time>2013-08-11T11:24:26Z</time>
      </trkpt>
      <trkpt lat="48.52084" lon="7.16805">
        <ele>792.69</ele>
        <time>2013-08-11T11:24:29Z</time>
      </trkpt>
      <trkpt lat="48.52061" lon="7.16811">
        <ele>792.97</ele>
        <time>2013-08-11T11:24:33Z</time>
      </trkpt>
      <trkpt lat="48.52039" lon="7.1682">
        <ele>793.1</ele>
        <time>2013-08-11T11:24:36Z</time>
      </trkpt>
      <trkpt lat="48.52017" lon="7.16815">
        <ele>793.27</ele>
        <time>2013-08-11T11:24:40Z</time>
      </trkpt>
      <trkpt lat="48.51999" lon="7.16812">
        <ele>793.36</ele>
        <time>2013-08-11T11:24:43Z</time>
      </trkpt>
      <trkpt lat="48.51977" lon="7.16804">
        <ele>793.45</ele>
        <time>2013-08-11T11:24:47Z</time>
      </trkpt>
      <trkpt lat="48.51956" lon="7.16794">
        <ele>792.55</ele>
        <time>2013-08-11T11:24:51Z</time>
      </trkpt>
      <trkpt lat="48.51934" lon="7.16792">
        <ele>791.89</ele>
        <time>2013-08-11T11:24:54Z</time>
      </trkpt>
      <trkpt lat="48.51917" lon="7.16788">
        <ele>791.2</ele>
        <time>2013-08-11T11:24:57Z</time>
      </trkpt>
      <trkpt lat="48.51898" lon="7.16787">
        <ele>790.18</ele>
        <time>2013-08-11T11:25:00Z</time>
      </trkpt>
      <trkpt lat="48.5188" lon="7.16788">
        <ele>789.1</ele>
        <time>2013-08-11T11:25:03Z</time>
      </trkpt>
      <trkpt lat="48.51858" lon="7.16791">
        <ele>787.59</ele>
        <time>2013-08-11T11:25:07Z</time>
      </trkpt>
      <trkpt lat="48.51839" lon="7.16794">
        <ele>786.67</ele>
        <time>2013-08-11T11:25:11Z</time>
      </trkpt>
      <trkpt lat="48.51818" lon="7.16792">
        <ele>786.14</ele>
        <time>2013-08-11T11:25:17Z</time>
      </trkpt>
      <trkpt lat="48.51797" lon="7.16792">
        <ele>786.53</ele>
        <time>2013-08-11T11:25:22Z</time>
      </trkpt>
      <trkpt lat="48.51778" lon="7.16778">
        <ele>787.51</ele>
        <time>2013-08-11T11:25:26Z</time>
      </trkpt>
      <trkpt lat="48.51775" lon="7.16746">
        <ele>788.07</ele>
        <time>2013-08-11T11:25:30Z</time>
      </trkpt>
      <trkpt lat="48.51785" lon="7.16724">
        <ele>787.21</ele>
        <time>2013-08-11T11:25:56Z</time>
      </trkpt>
      <trkpt lat="48.518" lon="7.16702">
        <ele>785.29</ele>
        <time>2013-08-11T11:26:01Z</time>
      </trkpt>
      <trkpt lat="48.51809" lon="7.16669">
        <ele>784.28</ele>
        <time>2013-08-11T11:26:05Z</time>
      </trkpt>
      <trkpt lat="48.5181" lon="7.16639">
        <ele>783.53</ele>
        <time>2013-08-11T11:26:08Z</time>
      </trkpt>
      <trkpt lat="48.5181" lon="7.16605">
        <ele>781.94</ele>
        <time>2013-08-11T11:26:11Z</time>
      </trkpt>
      <trkpt lat="48.51814" lon="7.16571">
        <ele>779.69</ele>
        <time>2013-08-11T11:26:14Z</time>
      </trkpt>
      <trkpt lat="48.51821" lon="7.16536">
        <ele>778.8</ele>
        <time>2013-08-11T11:26:17Z</time>
      </trkpt>
      <trkpt lat="48.5183" lon="7.16503">
        <ele>778.48</ele>
        <time>2013-08-11T11:26:20Z</time>
      </trkpt>
      <trkpt lat="48.51841" lon="7.16472">
        <ele>777.06</ele>
        <time>2013-08-11T11:26:23Z</time>
      </trkpt>
      <trkpt lat="48.5185" lon="7.1644">
        <ele>774.95</ele>
        <time>2013-08-11T11:26:26Z</time>
      </trkpt>
      <trkpt lat="48.51851" lon="7.16403">
        <ele>773.61</ele>
        <time>2013-08-11T11:26:29Z</time>
      </trkpt>
      <trkpt lat="48.51847" lon="7.16366">
        <ele>772.72</ele>
        <time>2013-08-11T11:26:32Z</time>
      </trkpt>
      <trkpt lat="48.51841" lon="7.16328">
        <ele>771.82</ele>
        <time>2013-08-11T11:26:35Z</time>
      </trkpt>
      <trkpt lat="48.51835" lon="7.1629">
        <ele>770.72</ele>
        <time>2013-08-11T11:26:38Z</time>
      </trkpt>
      <trkpt lat="48.51829" lon="7.1625">
        <ele>769.83</ele>
        <time>2013-08-11T11:26:41Z</time>
      </trkpt>
      <trkpt lat="48.5182" lon="7.16212">
        <ele>769.23</ele>
        <time>2013-08-11T11:26:44Z</time>
      </trkpt>
      <trkpt lat="48.51809" lon="7.16175">
        <ele>768.42</ele>
        <time>2013-08-11T11:26:47Z</time>
      </trkpt>
      <trkpt lat="48.51798" lon="7.16139">
        <ele>767.97</ele>
        <time>2013-08-11T11:26:50Z</time>
      </trkpt>
      <trkpt lat="48.51785" lon="7.16105">
        <ele>766.42</ele>
        <time>2013-08-11T11:26:53Z</time>
      </trkpt>
      <trkpt lat="48.51772" lon="7.1607">
        <ele>764.82</ele>
        <time>2013-08-11T11:26:56Z</time>
      </trkpt>
      <trkpt lat="48.51759" lon="7.16038">
        <ele>762.92</ele>
        <time>2013-08-11T11:26:59Z</time>
      </trkpt>
      <trkpt lat="48.51746" lon="7.16008">
        <ele>761.16</ele>
        <time>2013-08-11T11:27:02Z</time>
      </trkpt>
      <trkpt lat="48.5173" lon="7.15982">
        <ele>759.75</ele>
        <time>2013-08-11T11:27:05Z</time>
      </trkpt>
      <trkpt lat="48.51714" lon="7.15961">
        <ele>758.34</ele>
        <time>2013-08-11T11:27:08Z</time>
      </trkpt>
      <trkpt lat="48.517" lon="7.1594">
        <ele>757.13</ele>
        <time>2013-08-11T11:27:11Z</time>
      </trkpt>
      <trkpt lat="48.51686" lon="7.15921">
        <ele>756.34</ele>
        <time>2013-08-11T11:27:14Z</time>
      </trkpt>
      <trkpt lat="48.51668" lon="7.15897">
        <ele>756.11</ele>
        <time>2013-08-11T11:27:18Z</time>
      </trkpt>
      <trkpt lat="48.51653" lon="7.15881">
        <ele>756.81</ele>
        <time>2013-08-11T11:27:21Z</time>
      </trkpt>
      <trkpt lat="48.51639" lon="7.15864">
        <ele>757.52</ele>
        <time>2013-08-11T11:27:24Z</time>
      </trkpt>
      <trkpt lat="48.51621" lon="7.15843">
        <ele>758.88</ele>
        <time>2013-08-11T11:27:28Z</time>
      </trkpt>
      <trkpt lat="48.51605" lon="7.15828">
        <ele>759.93</ele>
        <time>2013-08-11T11:27:31Z</time>
      </trkpt>
      <trkpt lat="48.51584" lon="7.15815">
        <ele>761.29</ele>
        <time>2013-08-11T11:27:35Z</time>
      </trkpt>
      <trkpt lat="48.51569" lon="7.15801">
        <ele>761.8</ele>
        <time>2013-08-11T11:27:39Z</time>
      </trkpt>
      <trkpt lat="48.51554" lon="7.15784">
        <ele>762.89</ele>
        <time>2013-08-11T11:27:43Z</time>
      </trkpt>
      <trkpt lat="48.51535" lon="7.15766">
        <ele>764.01</ele>
        <time>2013-08-11T11:27:48Z</time>
      </trkpt>
      <trkpt lat="48.5152" lon="7.15748">
        <ele>765.3</ele>
        <time>2013-08-11T11:27:52Z</time>
      </trkpt>
      <trkpt lat="48.515" lon="7.15736">
        <ele>766.6</ele>
        <time>2013-08-11T11:27:56Z</time>
      </trkpt>
      <trkpt lat="48.51481" lon="7.15727">
        <ele>767.04</ele>
        <time>2013-08-11T11:28:00Z</time>
      </trkpt>
      <trkpt lat="48.51465" lon="7.15712">
        <ele>767.54</ele>
        <time>2013-08-11T11:28:04Z</time>
      </trkpt>
      <trkpt lat="48.51445" lon="7.15695">
        <ele>767.92</ele>
        <time>2013-08-11T11:28:09Z</time>
      </trkpt>
      <trkpt lat="48.51426" lon="7.15681">
        <ele>768.12</ele>
        <time>2013-08-11T11:28:14Z</time>
      </trkpt>
      <trkpt lat="48.51406" lon="7.15671">
        <ele>768.11</ele>
        <time>2013-08-11T11:28:19Z</time>
      </trkpt>
      <trkpt lat="48.51387" lon="7.15655">
        <ele>768.07</ele>
        <time>2013-08-11T11:28:24Z</time>
      </trkpt>
      <trkpt lat="48.51369" lon="7.15641">
        <ele>768.39</ele>
        <time>2013-08-11T11:28:29Z</time>
      </trkpt>
      <trkpt lat="48.5135" lon="7.15627">
        <ele>768.95</ele>
        <time>2013-08-11T11:28:33Z</time>
      </trkpt>
      <trkpt lat="48.51333" lon="7.1561">
        <ele>769.45</ele>
        <time>2013-08-11T11:28:37Z</time>
      </trkpt>
      <trkpt lat="48.51315" lon="7.15592">
        <ele>770.42</ele>
        <time>2013-08-11T11:28:41Z</time>
      </trkpt>
      <trkpt lat="48.513" lon="7.1557">
        <ele>771.43</ele>
        <time>2013-08-11T11:28:45Z</time>
      </trkpt>
      <trkpt lat="48.51285" lon="7.15549">
        <ele>772.35</ele>
        <time>2013-08-11T11:28:49Z</time>
      </trkpt>
      <trkpt lat="48.5127" lon="7.15533">
        <ele>773.12</ele>
        <time>2013-08-11T11:28:53Z</time>
      </trkpt>
      <trkpt lat="48.51248" lon="7.15528">
        <ele>773.03</ele>
        <time>2013-08-11T11:28:57Z</time>
      </trkpt>
      <trkpt lat="48.5123" lon="7.15521">
        <ele>772.96</ele>
        <time>2013-08-11T11:29:00Z</time>
      </trkpt>
      <trkpt lat="48.51216" lon="7.15493">
        <ele>773.97</ele>
        <time>2013-08-11T11:29:04Z</time>
      </trkpt>
      <trkpt lat="48.51205" lon="7.15465">
        <ele>774.78</ele>
        <time>2013-08-11T11:29:08Z</time>
      </trkpt>
      <trkpt lat="48.51187" lon="7.1544">
        <ele>775.39</ele>
        <time>2013-08-11T11:29:12Z</time>
      </trkpt>
      <trkpt lat="48.51169" lon="7.1543">
        <ele>775.68</ele>
        <time>2013-08-11T11:29:15Z</time>
      </trkpt>
      <trkpt lat="48.51149" lon="7.15429">
        <ele>774.77</ele>
        <time>2013-08-11T11:29:18Z</time>
      </trkpt>
      <trkpt lat="48.51131" lon="7.15433">
        <ele>773.16</ele>
        <time>2013-08-11T11:29:21Z</time>
      </trkpt>
      <trkpt lat="48.51112" lon="7.15434">
        <ele>771.62</ele>
        <time>2013-08-11T11:29:24Z</time>
      </trkpt>
      <trkpt lat="48.51095" lon="7.15423">
        <ele>770.34</ele>
        <time>2013-08-11T11:29:27Z</time>
      </trkpt>
      <trkpt lat="48.51082" lon="7.154">
        <ele>768.66</ele>
        <time>2013-08-11T11:29:30Z</time>
      </trkpt>
      <trkpt lat="48.51074" lon="7.15374">
        <ele>767.04</ele>
        <time>2013-08-11T11:29:33Z</time>
      </trkpt>
      <trkpt lat="48.51068" lon="7.15348">
        <ele>765.76</ele>
        <time>2013-08-11T11:29:36Z</time>
      </trkpt>
      <trkpt lat="48.51052" lon="7.15321">
        <ele>765.4</ele>
        <time>2013-08-11T11:29:40Z</time>
      </trkpt>
      <trkpt lat="48.51034" lon="7.15301">
        <ele>765.21</ele>
        <time>2013-08-11T11:29:44Z</time>
      </trkpt>
      <trkpt lat="48.51015" lon="7.15292">
        <ele>764.87</ele>
        <time>2013-08-11T11:29:47Z</time>
      </trkpt>
      <trkpt lat="48.51" lon="7.15279">
        <ele>764.28</ele>
        <time>2013-08-11T11:29:50Z</time>
      </trkpt>
      <trkpt lat="48.50983" lon="7.15257">
        <ele>763.82</ele>
        <time>2013-08-11T11:29:54Z</time>
      </trkpt>
      <trkpt lat="48.50965" lon="7.15241">
        <ele>763.3</ele>
        <time>2013-08-11T11:29:58Z</time>
      </trkpt>
      <trkpt lat="48.50946" lon="7.15225">
        <ele>761.93</ele>
        <time>2013-08-11T11:30:02Z</time>
      </trkpt>
      <trkpt lat="48.50926" lon="7.15207">
        <ele>760.07</ele>
        <time>2013-08-11T11:30:06Z</time>
      </trkpt>
      <trkpt lat="48.50909" lon="7.15193">
        <ele>758.79</ele>
        <time>2013-08-11T11:30:09Z</time>
      </trkpt>
      <trkpt lat="48.50894" lon="7.15177">
        <ele>757.61</ele>
        <time>2013-08-11T11:30:12Z</time>
      </trkpt>
      <trkpt lat="48.50879" lon="7.15158">
        <ele>756.58</ele>
        <time>2013-08-11T11:30:15Z</time>
      </trkpt>
      <trkpt lat="48.50866" lon="7.15134">
        <ele>755.71</ele>
        <time>2013-08-11T11:30:18Z</time>
      </trkpt>
      <trkpt lat="48.50857" lon="7.1511">
        <ele>755.28</ele>
        <time>2013-08-11T11:30:21Z</time>
      </trkpt>
      <trkpt lat="48.50848" lon="7.15085">
        <ele>754.84</ele>
        <time>2013-08-11T11:30:24Z</time>
      </trkpt>
      <trkpt lat="48.5084" lon="7.15059">
        <ele>754.48</ele>
        <time>2013-08-11T11:30:27Z</time>
      </trkpt>
      <trkpt lat="48.50835" lon="7.1503">
        <ele>754.34</ele>
        <time>2013-08-11T11:30:30Z</time>
      </trkpt>
      <trkpt lat="48.50829" lon="7.14999">
        <ele>754.22</ele>
        <time>2013-08-11T11:30:33Z</time>
      </trkpt>
      <trkpt lat="48.50824" lon="7.14971">
        <ele>754.26</ele>
        <time>2013-08-11T11:30:36Z</time>
      </trkpt>
      <trkpt lat="48.50821" lon="7.14937">
        <ele>753.07</ele>
        <time>2013-08-11T11:30:40Z</time>
      </trkpt>
      <trkpt lat="48.50816" lon="7.14904">
        <ele>751.86</ele>
        <time>2013-08-11T11:30:44Z</time>
      </trkpt>
      <trkpt lat="48.50809" lon="7.14872">
        <ele>750.46</ele>
        <time>2013-08-11T11:30:48Z</time>
      </trkpt>
      <trkpt lat="48.50804" lon="7.14837">
        <ele>748.13</ele>
        <time>2013-08-11T11:30:52Z</time>
      </trkpt>
      <trkpt lat="48.508" lon="7.1481">
        <ele>746.44</ele>
        <time>2013-08-11T11:30:55Z</time>
      </trkpt>
      <trkpt lat="48.50797" lon="7.14782">
        <ele>745.06</ele>
        <time>2013-08-11T11:30:58Z</time>
      </trkpt>
      <trkpt lat="48.50794" lon="7.14754">
        <ele>743.72</ele>
        <time>2013-08-11T11:31:01Z</time>
      </trkpt>
      <trkpt lat="48.50793" lon="7.14722">
        <ele>742.79</ele>
        <time>2013-08-11T11:31:06Z</time>
      </trkpt>
      <trkpt lat="48.50795" lon="7.14692">
        <ele>740.3</ele>
        <time>2013-08-11T11:31:28Z</time>
      </trkpt>
      <trkpt lat="48.50797" lon="7.14663">
        <ele>740.12</ele>
        <time>2013-08-11T11:31:33Z</time>
      </trkpt>
      <trkpt lat="48.50799" lon="7.14636">
        <ele>740.2</ele>
        <time>2013-08-11T11:31:37Z</time>
      </trkpt>
      <trkpt lat="48.50793" lon="7.14607">
        <ele>742</ele>
        <time>2013-08-11T11:31:42Z</time>
      </trkpt>
      <trkpt lat="48.50776" lon="7.14588">
        <ele>742.67</ele>
        <time>2013-08-11T11:31:47Z</time>
      </trkpt>
      <trkpt lat="48.50756" lon="7.14593">
        <ele>741.15</ele>
        <time>2013-08-11T11:31:51Z</time>
      </trkpt>
      <trkpt lat="48.50739" lon="7.14606">
        <ele>739.25</ele>
        <time>2013-08-11T11:31:55Z</time>
      </trkpt>
      <trkpt lat="48.50721" lon="7.14601">
        <ele>737.03</ele>
        <time>2013-08-11T11:32:00Z</time>
      </trkpt>
      <trkpt lat="48.5071" lon="7.14576">
        <ele>734.5</ele>
        <time>2013-08-11T11:32:07Z</time>
      </trkpt>
      <trkpt lat="48.507" lon="7.14553">
        <ele>732.94</ele>
        <time>2013-08-11T11:34:01Z</time>
      </trkpt>
      <trkpt lat="48.5069" lon="7.14526">
        <ele>733.21</ele>
        <time>2013-08-11T11:34:07Z</time>
      </trkpt>
      <trkpt lat="48.5068" lon="7.14499">
        <ele>733.41</ele>
        <time>2013-08-11T11:34:13Z</time>
      </trkpt>
      <trkpt lat="48.5067" lon="7.14476">
        <ele>733.89</ele>
        <time>2013-08-11T11:34:18Z</time>
      </trkpt>
      <trkpt lat="48.5066" lon="7.14454">
        <ele>734.87</ele>
        <time>2013-08-11T11:34:23Z</time>
      </trkpt>
      <trkpt lat="48.50651" lon="7.14426">
        <ele>735.89</ele>
        <time>2013-08-11T11:34:29Z</time>
      </trkpt>
      <trkpt lat="48.50641" lon="7.14402">
        <ele>735.75</ele>
        <time>2013-08-11T11:34:35Z</time>
      </trkpt>
      <trkpt lat="48.50633" lon="7.14377">
        <ele>735.46</ele>
        <time>2013-08-11T11:34:40Z</time>
      </trkpt>
      <trkpt lat="48.50625" lon="7.14351">
        <ele>735.18</ele>
        <time>2013-08-11T11:34:45Z</time>
      </trkpt>
      <trkpt lat="48.50615" lon="7.14324">
        <ele>734.83</ele>
        <time>2013-08-11T11:34:50Z</time>
      </trkpt>
      <trkpt lat="48.50604" lon="7.14302">
        <ele>734.45</ele>
        <time>2013-08-11T11:34:55Z</time>
      </trkpt>
      <trkpt lat="48.50593" lon="7.14273">
        <ele>734.08</ele>
        <time>2013-08-11T11:35:01Z</time>
      </trkpt>
      <trkpt lat="48.50583" lon="7.14249">
        <ele>734.05</ele>
        <time>2013-08-11T11:35:06Z</time>
      </trkpt>
      <trkpt lat="48.50572" lon="7.14223">
        <ele>733.77</ele>
        <time>2013-08-11T11:35:12Z</time>
      </trkpt>
      <trkpt lat="48.50561" lon="7.14195">
        <ele>733.41</ele>
        <time>2013-08-11T11:35:19Z</time>
      </trkpt>
      <trkpt lat="48.50551" lon="7.14168">
        <ele>733.26</ele>
        <time>2013-08-11T11:35:24Z</time>
      </trkpt>
      <trkpt lat="48.50544" lon="7.1414">
        <ele>733.84</ele>
        <time>2013-08-11T11:35:29Z</time>
      </trkpt>
      <trkpt lat="48.5054" lon="7.14111">
        <ele>733.98</ele>
        <time>2013-08-11T11:35:34Z</time>
      </trkpt>
      <trkpt lat="48.50542" lon="7.14084">
        <ele>734.47</ele>
        <time>2013-08-11T11:35:38Z</time>
      </trkpt>
      <trkpt lat="48.50549" lon="7.14053">
        <ele>735.04</ele>
        <time>2013-08-11T11:35:43Z</time>
      </trkpt>
      <trkpt lat="48.5056" lon="7.1403">
        <ele>735.17</ele>
        <time>2013-08-11T11:35:48Z</time>
      </trkpt>
      <trkpt lat="48.50574" lon="7.1401">
        <ele>734.95</ele>
        <time>2013-08-11T11:35:55Z</time>
      </trkpt>
      <trkpt lat="48.5059" lon="7.1399">
        <ele>735.26</ele>
        <time>2013-08-11T11:36:00Z</time>
      </trkpt>
      <trkpt lat="48.50601" lon="7.13968">
        <ele>735.75</ele>
        <time>2013-08-11T11:36:04Z</time>
      </trkpt>
      <trkpt lat="48.50613" lon="7.13942">
        <ele>736.16</ele>
        <time>2013-08-11T11:36:08Z</time>
      </trkpt>
      <trkpt lat="48.50624" lon="7.13917">
        <ele>736.11</ele>
        <time>2013-08-11T11:36:11Z</time>
      </trkpt>
      <trkpt lat="48.50631" lon="7.13889">
        <ele>735.22</ele>
        <time>2013-08-11T11:36:14Z</time>
      </trkpt>
      <trkpt lat="48.50636" lon="7.13857">
        <ele>734.41</ele>
        <time>2013-08-11T11:36:17Z</time>
      </trkpt>
      <trkpt lat="48.50639" lon="7.13825">
        <ele>733.23</ele>
        <time>2013-08-11T11:36:20Z</time>
      </trkpt>
      <trkpt lat="48.50644" lon="7.13791">
        <ele>731.8</ele>
        <time>2013-08-11T11:36:23Z</time>
      </trkpt>
      <trkpt lat="48.5065" lon="7.13754">
        <ele>730.14</ele>
        <time>2013-08-11T11:36:26Z</time>
      </trkpt>
      <trkpt lat="48.50655" lon="7.13716">
        <ele>728.84</ele>
        <time>2013-08-11T11:36:29Z</time>
      </trkpt>
      <trkpt lat="48.50659" lon="7.13677">
        <ele>728.06</ele>
        <time>2013-08-11T11:36:32Z</time>
      </trkpt>
      <trkpt lat="48.50663" lon="7.13649">
        <ele>727.67</ele>
        <time>2013-08-11T11:36:34Z</time>
      </trkpt>
      <trkpt lat="48.50668" lon="7.13622">
        <ele>727.05</ele>
        <time>2013-08-11T11:36:36Z</time>
      </trkpt>
      <trkpt lat="48.50673" lon="7.13596">
        <ele>726.35</ele>
        <time>2013-08-11T11:36:38Z</time>
      </trkpt>
      <trkpt lat="48.50678" lon="7.13569">
        <ele>726.1</ele>
        <time>2013-08-11T11:36:40Z</time>
      </trkpt>
      <trkpt lat="48.50683" lon="7.13542">
        <ele>725.64</ele>
        <time>2013-08-11T11:36:42Z</time>
      </trkpt>
      <trkpt lat="48.50686" lon="7.13515">
        <ele>725.13</ele>
        <time>2013-08-11T11:36:44Z</time>
      </trkpt>
      <trkpt lat="48.50688" lon="7.13487">
        <ele>724.36</ele>
        <time>2013-08-11T11:36:46Z</time>
      </trkpt>
      <trkpt lat="48.5069" lon="7.1346">
        <ele>723.21</ele>
        <time>2013-08-11T11:36:48Z</time>
      </trkpt>
      <trkpt lat="48.5069" lon="7.13432">
        <ele>721.84</ele>
        <time>2013-08-11T11:36:50Z</time>
      </trkpt>
      <trkpt lat="48.50688" lon="7.13403">
        <ele>720.35</ele>
        <time>2013-08-11T11:36:52Z</time>
      </trkpt>
      <trkpt lat="48.50685" lon="7.13375">
        <ele>718.79</ele>
        <time>2013-08-11T11:36:54Z</time>
      </trkpt>
      <trkpt lat="48.50675" lon="7.13338">
        <ele>715.78</ele>
        <time>2013-08-11T11:36:57Z</time>
      </trkpt>
      <trkpt lat="48.50666" lon="7.13314">
        <ele>714.05</ele>
        <time>2013-08-11T11:36:59Z</time>
      </trkpt>
      <trkpt lat="48.50654" lon="7.13292">
        <ele>712.4</ele>
        <time>2013-08-11T11:37:01Z</time>
      </trkpt>
      <trkpt lat="48.50639" lon="7.13259">
        <ele>709.98</ele>
        <time>2013-08-11T11:37:04Z</time>
      </trkpt>
      <trkpt lat="48.50628" lon="7.13236">
        <ele>708.45</ele>
        <time>2013-08-11T11:37:06Z</time>
      </trkpt>
      <trkpt lat="48.50618" lon="7.13213">
        <ele>707.11</ele>
        <time>2013-08-11T11:37:08Z</time>
      </trkpt>
      <trkpt lat="48.50606" lon="7.1319">
        <ele>705.98</ele>
        <time>2013-08-11T11:37:10Z</time>
      </trkpt>
      <trkpt lat="48.50596" lon="7.13166">
        <ele>704.77</ele>
        <time>2013-08-11T11:37:12Z</time>
      </trkpt>
      <trkpt lat="48.50583" lon="7.13142">
        <ele>703.33</ele>
        <time>2013-08-11T11:37:14Z</time>
      </trkpt>
      <trkpt lat="48.50571" lon="7.13116">
        <ele>701.78</ele>
        <time>2013-08-11T11:37:16Z</time>
      </trkpt>
      <trkpt lat="48.50558" lon="7.13092">
        <ele>700.15</ele>
        <time>2013-08-11T11:37:18Z</time>
      </trkpt>
      <trkpt lat="48.50546" lon="7.13065">
        <ele>698.34</ele>
        <time>2013-08-11T11:37:20Z</time>
      </trkpt>
      <trkpt lat="48.50537" lon="7.13039">
        <ele>696.42</ele>
        <time>2013-08-11T11:37:22Z</time>
      </trkpt>
      <trkpt lat="48.50527" lon="7.13014">
        <ele>694.5</ele>
        <time>2013-08-11T11:37:24Z</time>
      </trkpt>
      <trkpt lat="48.50516" lon="7.12989">
        <ele>692.56</ele>
        <time>2013-08-11T11:37:26Z</time>
      </trkpt>
      <trkpt lat="48.50505" lon="7.12964">
        <ele>690.73</ele>
        <time>2013-08-11T11:37:28Z</time>
      </trkpt>
      <trkpt lat="48.50494" lon="7.12939">
        <ele>689.14</ele>
        <time>2013-08-11T11:37:30Z</time>
      </trkpt>
      <trkpt lat="48.50485" lon="7.12914">
        <ele>687.88</ele>
        <time>2013-08-11T11:37:32Z</time>
      </trkpt>
      <trkpt lat="48.50474" lon="7.1289">
        <ele>686.87</ele>
        <time>2013-08-11T11:37:34Z</time>
      </trkpt>
      <trkpt lat="48.50464" lon="7.12868">
        <ele>686.03</ele>
        <time>2013-08-11T11:37:36Z</time>
      </trkpt>
      <trkpt lat="48.5045" lon="7.12836">
        <ele>684.57</ele>
        <time>2013-08-11T11:37:39Z</time>
      </trkpt>
      <trkpt lat="48.50434" lon="7.12807">
        <ele>683.32</ele>
        <time>2013-08-11T11:37:42Z</time>
      </trkpt>
      <trkpt lat="48.5042" lon="7.1278">
        <ele>682.44</ele>
        <time>2013-08-11T11:37:45Z</time>
      </trkpt>
      <trkpt lat="48.50408" lon="7.12753">
        <ele>682.11</ele>
        <time>2013-08-11T11:37:48Z</time>
      </trkpt>
      <trkpt lat="48.50402" lon="7.12728">
        <ele>681.74</ele>
        <time>2013-08-11T11:37:51Z</time>
      </trkpt>
      <trkpt lat="48.504" lon="7.12698">
        <ele>681.7</ele>
        <time>2013-08-11T11:37:54Z</time>
      </trkpt>
      <trkpt lat="48.50405" lon="7.12666">
        <ele>682.19</ele>
        <time>2013-08-11T11:37:57Z</time>
      </trkpt>
      <trkpt lat="48.50411" lon="7.12635">
        <ele>682.17</ele>
        <time>2013-08-11T11:38:00Z</time>
      </trkpt>
      <trkpt lat="48.5042" lon="7.12606">
        <ele>681.99</ele>
        <time>2013-08-11T11:38:03Z</time>
      </trkpt>
      <trkpt lat="48.50424" lon="7.12576">
        <ele>681.05</ele>
        <time>2013-08-11T11:38:06Z</time>
      </trkpt>
      <trkpt lat="48.50427" lon="7.12546">
        <ele>679.64</ele>
        <time>2013-08-11T11:38:09Z</time>
      </trkpt>
      <trkpt lat="48.50432" lon="7.12513">
        <ele>678.32</ele>
        <time>2013-08-11T11:38:12Z</time>
      </trkpt>
      <trkpt lat="48.50437" lon="7.12478">
        <ele>676.33</ele>
        <time>2013-08-11T11:38:15Z</time>
      </trkpt>
      <trkpt lat="48.50444" lon="7.1244">
        <ele>673.62</ele>
        <time>2013-08-11T11:38:18Z</time>
      </trkpt>
      <trkpt lat="48.50449" lon="7.12413">
        <ele>671.71</ele>
        <time>2013-08-11T11:38:20Z</time>
      </trkpt>
      <trkpt lat="48.50452" lon="7.12383">
        <ele>670.17</ele>
        <time>2013-08-11T11:38:22Z</time>
      </trkpt>
      <trkpt lat="48.50457" lon="7.12355">
        <ele>668.33</ele>
        <time>2013-08-11T11:38:24Z</time>
      </trkpt>
      <trkpt lat="48.50463" lon="7.12326">
        <ele>665.96</ele>
        <time>2013-08-11T11:38:26Z</time>
      </trkpt>
      <trkpt lat="48.50468" lon="7.12298">
        <ele>663.55</ele>
        <time>2013-08-11T11:38:28Z</time>
      </trkpt>
      <trkpt lat="48.50474" lon="7.12268">
        <ele>661.47</ele>
        <time>2013-08-11T11:38:30Z</time>
      </trkpt>
      <trkpt lat="48.50481" lon="7.12239">
        <ele>659.22</ele>
        <time>2013-08-11T11:38:32Z</time>
      </trkpt>
      <trkpt lat="48.50487" lon="7.1221">
        <ele>657.28</ele>
        <time>2013-08-11T11:38:34Z</time>
      </trkpt>
      <trkpt lat="48.50494" lon="7.12181">
        <ele>655.55</ele>
        <time>2013-08-11T11:38:36Z</time>
      </trkpt>
      <trkpt lat="48.50501" lon="7.12151">
        <ele>654.31</ele>
        <time>2013-08-11T11:38:38Z</time>
      </trkpt>
      <trkpt lat="48.50508" lon="7.12121">
        <ele>653.23</ele>
        <time>2013-08-11T11:38:40Z</time>
      </trkpt>
      <trkpt lat="48.50517" lon="7.12092">
        <ele>651.78</ele>
        <time>2013-08-11T11:38:42Z</time>
      </trkpt>
      <trkpt lat="48.50526" lon="7.12064">
        <ele>650.55</ele>
        <time>2013-08-11T11:38:44Z</time>
      </trkpt>
      <trkpt lat="48.50534" lon="7.12039">
        <ele>649.48</ele>
        <time>2013-08-11T11:38:46Z</time>
      </trkpt>
      <trkpt lat="48.50542" lon="7.12012">
        <ele>648.43</ele>
        <time>2013-08-11T11:38:48Z</time>
      </trkpt>
      <trkpt lat="48.5055" lon="7.11983">
        <ele>647.5</ele>
        <time>2013-08-11T11:38:50Z</time>
      </trkpt>
      <trkpt lat="48.50558" lon="7.11952">
        <ele>646.89</ele>
        <time>2013-08-11T11:38:52Z</time>
      </trkpt>
      <trkpt lat="48.50568" lon="7.11922">
        <ele>646.17</ele>
        <time>2013-08-11T11:38:54Z</time>
      </trkpt>
      <trkpt lat="48.50574" lon="7.11891">
        <ele>645.27</ele>
        <time>2013-08-11T11:38:56Z</time>
      </trkpt>
      <trkpt lat="48.50582" lon="7.11861">
        <ele>643.9</ele>
        <time>2013-08-11T11:38:58Z</time>
      </trkpt>
      <trkpt lat="48.50587" lon="7.1183">
        <ele>642.05</ele>
        <time>2013-08-11T11:39:00Z</time>
      </trkpt>
      <trkpt lat="48.50595" lon="7.11799">
        <ele>639.34</ele>
        <time>2013-08-11T11:39:02Z</time>
      </trkpt>
      <trkpt lat="48.50604" lon="7.11768">
        <ele>636.47</ele>
        <time>2013-08-11T11:39:04Z</time>
      </trkpt>
      <trkpt lat="48.50612" lon="7.11738">
        <ele>633.73</ele>
        <time>2013-08-11T11:39:06Z</time>
      </trkpt>
      <trkpt lat="48.50618" lon="7.1171">
        <ele>631.44</ele>
        <time>2013-08-11T11:39:08Z</time>
      </trkpt>
      <trkpt lat="48.50618" lon="7.11681">
        <ele>627.84</ele>
        <time>2013-08-11T11:39:10Z</time>
      </trkpt>
      <trkpt lat="48.50619" lon="7.11654">
        <ele>625.07</ele>
        <time>2013-08-11T11:39:12Z</time>
      </trkpt>
      <trkpt lat="48.50621" lon="7.11617">
        <ele>622.54</ele>
        <time>2013-08-11T11:39:15Z</time>
      </trkpt>
      <trkpt lat="48.5062" lon="7.1158">
        <ele>620.88</ele>
        <time>2013-08-11T11:39:18Z</time>
      </trkpt>
      <trkpt lat="48.50612" lon="7.11541">
        <ele>617.43</ele>
        <time>2013-08-11T11:39:21Z</time>
      </trkpt>
      <trkpt lat="48.50606" lon="7.11512">
        <ele>614.48</ele>
        <time>2013-08-11T11:39:23Z</time>
      </trkpt>
      <trkpt lat="48.50599" lon="7.11482">
        <ele>611.64</ele>
        <time>2013-08-11T11:39:25Z</time>
      </trkpt>
      <trkpt lat="48.50593" lon="7.11452">
        <ele>609.09</ele>
        <time>2013-08-11T11:39:27Z</time>
      </trkpt>
      <trkpt lat="48.50586" lon="7.11422">
        <ele>606.68</ele>
        <time>2013-08-11T11:39:29Z</time>
      </trkpt>
      <trkpt lat="48.50579" lon="7.11392">
        <ele>604.17</ele>
        <time>2013-08-11T11:39:31Z</time>
      </trkpt>
      <trkpt lat="48.50573" lon="7.11364">
        <ele>601.71</ele>
        <time>2013-08-11T11:39:33Z</time>
      </trkpt>
      <trkpt lat="48.50569" lon="7.11337">
        <ele>598.73</ele>
        <time>2013-08-11T11:39:35Z</time>
      </trkpt>
      <trkpt lat="48.50566" lon="7.1131">
        <ele>595.7</ele>
        <time>2013-08-11T11:39:37Z</time>
      </trkpt>
      <trkpt lat="48.50566" lon="7.1127">
        <ele>591.91</ele>
        <time>2013-08-11T11:39:40Z</time>
      </trkpt>
      <trkpt lat="48.50569" lon="7.11243">
        <ele>589.96</ele>
        <time>2013-08-11T11:39:42Z</time>
      </trkpt>
      <trkpt lat="48.50572" lon="7.11216">
        <ele>588.41</ele>
        <time>2013-08-11T11:39:44Z</time>
      </trkpt>
      <trkpt lat="48.50574" lon="7.11187">
        <ele>587.24</ele>
        <time>2013-08-11T11:39:46Z</time>
      </trkpt>
      <trkpt lat="48.50574" lon="7.11159">
        <ele>586.02</ele>
        <time>2013-08-11T11:39:48Z</time>
      </trkpt>
      <trkpt lat="48.50574" lon="7.11131">
        <ele>584.78</ele>
        <time>2013-08-11T11:39:50Z</time>
      </trkpt>
      <trkpt lat="48.5058" lon="7.11091">
        <ele>581.96</ele>
        <time>2013-08-11T11:39:53Z</time>
      </trkpt>
      <trkpt lat="48.50589" lon="7.11067">
        <ele>579.52</ele>
        <time>2013-08-11T11:39:55Z</time>
      </trkpt>
      <trkpt lat="48.50601" lon="7.11044">
        <ele>576.98</ele>
        <time>2013-08-11T11:39:57Z</time>
      </trkpt>
      <trkpt lat="48.50614" lon="7.11021">
        <ele>574.78</ele>
        <time>2013-08-11T11:39:59Z</time>
      </trkpt>
      <trkpt lat="48.50626" lon="7.11001">
        <ele>572.47</ele>
        <time>2013-08-11T11:40:01Z</time>
      </trkpt>
      <trkpt lat="48.5064" lon="7.10981">
        <ele>570.36</ele>
        <time>2013-08-11T11:40:03Z</time>
      </trkpt>
      <trkpt lat="48.50654" lon="7.10965">
        <ele>568.52</ele>
        <time>2013-08-11T11:40:05Z</time>
      </trkpt>
      <trkpt lat="48.5067" lon="7.10952">
        <ele>566.88</ele>
        <time>2013-08-11T11:40:07Z</time>
      </trkpt>
      <trkpt lat="48.50695" lon="7.10942">
        <ele>564.57</ele>
        <time>2013-08-11T11:40:10Z</time>
      </trkpt>
      <trkpt lat="48.50718" lon="7.10935">
        <ele>562.38</ele>
        <time>2013-08-11T11:40:13Z</time>
      </trkpt>
      <trkpt lat="48.50735" lon="7.10913">
        <ele>560.84</ele>
        <time>2013-08-11T11:40:16Z</time>
      </trkpt>
      <trkpt lat="48.50736" lon="7.10875">
        <ele>558.53</ele>
        <time>2013-08-11T11:40:19Z</time>
      </trkpt>
      <trkpt lat="48.50734" lon="7.10848">
        <ele>555.64</ele>
        <time>2013-08-11T11:40:21Z</time>
      </trkpt>
      <trkpt lat="48.50732" lon="7.10821">
        <ele>552.92</ele>
        <time>2013-08-11T11:40:23Z</time>
      </trkpt>
      <trkpt lat="48.50729" lon="7.10794">
        <ele>550.88</ele>
        <time>2013-08-11T11:40:25Z</time>
      </trkpt>
      <trkpt lat="48.50726" lon="7.1076">
        <ele>548.35</ele>
        <time>2013-08-11T11:40:28Z</time>
      </trkpt>
      <trkpt lat="48.50723" lon="7.1073">
        <ele>546.37</ele>
        <time>2013-08-11T11:40:31Z</time>
      </trkpt>
      <trkpt lat="48.5073" lon="7.10705">
        <ele>543.21</ele>
        <time>2013-08-11T11:40:38Z</time>
      </trkpt>
      <trkpt lat="48.5072" lon="7.10681">
        <ele>539.47</ele>
        <time>2013-08-11T11:42:53Z</time>
      </trkpt>
      <trkpt lat="48.50711" lon="7.10653">
        <ele>537.91</ele>
        <time>2013-08-11T11:43:00Z</time>
      </trkpt>
      <trkpt lat="48.50701" lon="7.10623">
        <ele>536.5</ele>
        <time>2013-08-11T11:43:05Z</time>
      </trkpt>
      <trkpt lat="48.50687" lon="7.10599">
        <ele>535.11</ele>
        <time>2013-08-11T11:43:10Z</time>
      </trkpt>
      <trkpt lat="48.5067" lon="7.1058">
        <ele>533.16</ele>
        <time>2013-08-11T11:43:15Z</time>
      </trkpt>
      <trkpt lat="48.50655" lon="7.10566">
        <ele>531.05</ele>
        <time>2013-08-11T11:43:19Z</time>
      </trkpt>
      <trkpt lat="48.50641" lon="7.10548">
        <ele>529.51</ele>
        <time>2013-08-11T11:43:23Z</time>
      </trkpt>
      <trkpt lat="48.50641" lon="7.1052">
        <ele>527.04</ele>
        <time>2013-08-11T11:43:27Z</time>
      </trkpt>
      <trkpt lat="48.50657" lon="7.10503">
        <ele>524.65</ele>
        <time>2013-08-11T11:43:30Z</time>
      </trkpt>
      <trkpt lat="48.50676" lon="7.10488">
        <ele>522.63</ele>
        <time>2013-08-11T11:43:33Z</time>
      </trkpt>
      <trkpt lat="48.50695" lon="7.10475">
        <ele>520.93</ele>
        <time>2013-08-11T11:43:36Z</time>
      </trkpt>
      <trkpt lat="48.50714" lon="7.10461">
        <ele>519.28</ele>
        <time>2013-08-11T11:43:39Z</time>
      </trkpt>
      <trkpt lat="48.50733" lon="7.10446">
        <ele>517.38</ele>
        <time>2013-08-11T11:43:42Z</time>
      </trkpt>
      <trkpt lat="48.50752" lon="7.1043">
        <ele>514.98</ele>
        <time>2013-08-11T11:43:45Z</time>
      </trkpt>
      <trkpt lat="48.50776" lon="7.10415">
        <ele>512.15</ele>
        <time>2013-08-11T11:43:48Z</time>
      </trkpt>
      <trkpt lat="48.50802" lon="7.10407">
        <ele>509.15</ele>
        <time>2013-08-11T11:43:51Z</time>
      </trkpt>
      <trkpt lat="48.50828" lon="7.10407">
        <ele>506.29</ele>
        <time>2013-08-11T11:43:54Z</time>
      </trkpt>
      <trkpt lat="48.50845" lon="7.10413">
        <ele>504.7</ele>
        <time>2013-08-11T11:43:56Z</time>
      </trkpt>
      <trkpt lat="48.5087" lon="7.10427">
        <ele>502.56</ele>
        <time>2013-08-11T11:43:59Z</time>
      </trkpt>
      <trkpt lat="48.50888" lon="7.10437">
        <ele>501.45</ele>
        <time>2013-08-11T11:44:01Z</time>
      </trkpt>
      <trkpt lat="48.50905" lon="7.10447">
        <ele>500.65</ele>
        <time>2013-08-11T11:44:03Z</time>
      </trkpt>
      <trkpt lat="48.50922" lon="7.10456">
        <ele>499.8</ele>
        <time>2013-08-11T11:44:05Z</time>
      </trkpt>
      <trkpt lat="48.50946" lon="7.10469">
        <ele>498.4</ele>
        <time>2013-08-11T11:44:08Z</time>
      </trkpt>
      <trkpt lat="48.50971" lon="7.10479">
        <ele>496.8</ele>
        <time>2013-08-11T11:44:11Z</time>
      </trkpt>
      <trkpt lat="48.50994" lon="7.10485">
        <ele>494.71</ele>
        <time>2013-08-11T11:44:14Z</time>
      </trkpt>
      <trkpt lat="48.51016" lon="7.10483">
        <ele>492.15</ele>
        <time>2013-08-11T11:44:17Z</time>
      </trkpt>
      <trkpt lat="48.51037" lon="7.10469">
        <ele>489.31</ele>
        <time>2013-08-11T11:44:20Z</time>
      </trkpt>
      <trkpt lat="48.51051" lon="7.10439">
        <ele>485.48</ele>
        <time>2013-08-11T11:44:23Z</time>
      </trkpt>
      <trkpt lat="48.51056" lon="7.104">
        <ele>480.66</ele>
        <time>2013-08-11T11:44:26Z</time>
      </trkpt>
      <trkpt lat="48.51058" lon="7.10372">
        <ele>477.89</ele>
        <time>2013-08-11T11:44:28Z</time>
      </trkpt>
      <trkpt lat="48.51059" lon="7.10344">
        <ele>475.41</ele>
        <time>2013-08-11T11:44:30Z</time>
      </trkpt>
      <trkpt lat="48.51061" lon="7.10304">
        <ele>472.16</ele>
        <time>2013-08-11T11:44:33Z</time>
      </trkpt>
      <trkpt lat="48.51063" lon="7.10263">
        <ele>469.31</ele>
        <time>2013-08-11T11:44:36Z</time>
      </trkpt>
      <trkpt lat="48.51064" lon="7.10224">
        <ele>466.71</ele>
        <time>2013-08-11T11:44:39Z</time>
      </trkpt>
      <trkpt lat="48.51065" lon="7.10184">
        <ele>464.39</ele>
        <time>2013-08-11T11:44:42Z</time>
      </trkpt>
      <trkpt lat="48.51067" lon="7.10145">
        <ele>462.35</ele>
        <time>2013-08-11T11:44:45Z</time>
      </trkpt>
      <trkpt lat="48.51068" lon="7.10111">
        <ele>460.45</ele>
        <time>2013-08-11T11:44:48Z</time>
      </trkpt>
      <trkpt lat="48.51069" lon="7.10083">
        <ele>458.95</ele>
        <time>2013-08-11T11:44:51Z</time>
      </trkpt>
      <trkpt lat="48.51072" lon="7.10055">
        <ele>456.72</ele>
        <time>2013-08-11T11:44:59Z</time>
      </trkpt>
      <trkpt lat="48.51077" lon="7.10048">
        <ele>457.59</ele>
        <time>2013-08-11T11:45:47Z</time>
      </trkpt>
      <trkpt lat="48.51071" lon="7.10018">
        <ele>456.07</ele>
        <time>2013-08-11T11:47:07Z</time>
      </trkpt>
      <trkpt lat="48.51074" lon="7.09986">
        <ele>456.24</ele>
        <time>2013-08-11T11:47:13Z</time>
      </trkpt>
      <trkpt lat="48.51077" lon="7.09956">
        <ele>455.83</ele>
        <time>2013-08-11T11:47:18Z</time>
      </trkpt>
      <trkpt lat="48.51077" lon="7.09925">
        <ele>454</ele>
        <time>2013-08-11T11:47:22Z</time>
      </trkpt>
      <trkpt lat="48.51078" lon="7.09894">
        <ele>452.21</ele>
        <time>2013-08-11T11:47:26Z</time>
      </trkpt>
      <trkpt lat="48.51079" lon="7.09863">
        <ele>450.96</ele>
        <time>2013-08-11T11:47:30Z</time>
      </trkpt>
      <trkpt lat="48.51083" lon="7.0983">
        <ele>450.44</ele>
        <time>2013-08-11T11:47:35Z</time>
      </trkpt>
      <trkpt lat="48.51089" lon="7.09805">
        <ele>450.22</ele>
        <time>2013-08-11T11:47:38Z</time>
      </trkpt>
      <trkpt lat="48.51098" lon="7.09775">
        <ele>449.87</ele>
        <time>2013-08-11T11:47:41Z</time>
      </trkpt>
      <trkpt lat="48.51109" lon="7.09747">
        <ele>449.54</ele>
        <time>2013-08-11T11:47:44Z</time>
      </trkpt>
      <trkpt lat="48.51116" lon="7.09722">
        <ele>448.98</ele>
        <time>2013-08-11T11:47:47Z</time>
      </trkpt>
      <trkpt lat="48.51123" lon="7.09695">
        <ele>448.42</ele>
        <time>2013-08-11T11:47:50Z</time>
      </trkpt>
      <trkpt lat="48.51122" lon="7.09665">
        <ele>446.2</ele>
        <time>2013-08-11T11:47:53Z</time>
      </trkpt>
      <trkpt lat="48.51115" lon="7.09634">
        <ele>442.39</ele>
        <time>2013-08-11T11:47:56Z</time>
      </trkpt>
      <trkpt lat="48.51107" lon="7.09607">
        <ele>438.8</ele>
        <time>2013-08-11T11:47:59Z</time>
      </trkpt>
      <trkpt lat="48.511" lon="7.09581">
        <ele>436.27</ele>
        <time>2013-08-11T11:48:02Z</time>
      </trkpt>
      <trkpt lat="48.51094" lon="7.09551">
        <ele>434.51</ele>
        <time>2013-08-11T11:48:06Z</time>
      </trkpt>
      <trkpt lat="48.5109" lon="7.09524">
        <ele>433.8</ele>
        <time>2013-08-11T11:48:10Z</time>
      </trkpt>
      <trkpt lat="48.51086" lon="7.09492">
        <ele>433.73</ele>
        <time>2013-08-11T11:48:15Z</time>
      </trkpt>
      <trkpt lat="48.51081" lon="7.0946">
        <ele>434.1</ele>
        <time>2013-08-11T11:48:20Z</time>
      </trkpt>
      <trkpt lat="48.51077" lon="7.09432">
        <ele>434.41</ele>
        <time>2013-08-11T11:48:25Z</time>
      </trkpt>
      <trkpt lat="48.51074" lon="7.09405">
        <ele>435.01</ele>
        <time>2013-08-11T11:48:32Z</time>
      </trkpt>
      <trkpt lat="48.51073" lon="7.09373">
        <ele>436.87</ele>
        <time>2013-08-11T11:48:39Z</time>
      </trkpt>
      <trkpt lat="48.51067" lon="7.09345">
        <ele>437.08</ele>
        <time>2013-08-11T11:48:45Z</time>
      </trkpt>
      <trkpt lat="48.51056" lon="7.09323">
        <ele>436.71</ele>
        <time>2013-08-11T11:48:50Z</time>
      </trkpt>
      <trkpt lat="48.51043" lon="7.09303">
        <ele>436.58</ele>
        <time>2013-08-11T11:48:55Z</time>
      </trkpt>
      <trkpt lat="48.51029" lon="7.09284">
        <ele>436.94</ele>
        <time>2013-08-11T11:49:00Z</time>
      </trkpt>
      <trkpt lat="48.51016" lon="7.09263">
        <ele>437.17</ele>
        <time>2013-08-11T11:49:06Z</time>
      </trkpt>
      <trkpt lat="48.51004" lon="7.09241">
        <ele>437.79</ele>
        <time>2013-08-11T11:49:11Z</time>
      </trkpt>
      <trkpt lat="48.5099" lon="7.09218">
        <ele>438.14</ele>
        <time>2013-08-11T11:49:16Z</time>
      </trkpt>
      <trkpt lat="48.50978" lon="7.09193">
        <ele>438.16</ele>
        <time>2013-08-11T11:49:21Z</time>
      </trkpt>
      <trkpt lat="48.50967" lon="7.09165">
        <ele>438.24</ele>
        <time>2013-08-11T11:49:26Z</time>
      </trkpt>
      <trkpt lat="48.50959" lon="7.09137">
        <ele>438.34</ele>
        <time>2013-08-11T11:49:31Z</time>
      </trkpt>
      <trkpt lat="48.5095" lon="7.09111">
        <ele>438.88</ele>
        <time>2013-08-11T11:49:36Z</time>
      </trkpt>
      <trkpt lat="48.50942" lon="7.09085">
        <ele>439.85</ele>
        <time>2013-08-11T11:49:41Z</time>
      </trkpt>
      <trkpt lat="48.50931" lon="7.09056">
        <ele>440.77</ele>
        <time>2013-08-11T11:49:46Z</time>
      </trkpt>
      <trkpt lat="48.50923" lon="7.09028">
        <ele>441.47</ele>
        <time>2013-08-11T11:49:50Z</time>
      </trkpt>
      <trkpt lat="48.5092" lon="7.09">
        <ele>441.89</ele>
        <time>2013-08-11T11:49:54Z</time>
      </trkpt>
      <trkpt lat="48.50929" lon="7.08975">
        <ele>440.89</ele>
        <time>2013-08-11T11:50:27Z</time>
      </trkpt>
      <trkpt lat="48.50937" lon="7.08947">
        <ele>441.26</ele>
        <time>2013-08-11T11:50:33Z</time>
      </trkpt>
      <trkpt lat="48.50943" lon="7.08919">
        <ele>440.73</ele>
        <time>2013-08-11T11:50:40Z</time>
      </trkpt>
      <trkpt lat="48.50934" lon="7.08893">
        <ele>438.99</ele>
        <time>2013-08-11T11:50:47Z</time>
      </trkpt>
      <trkpt lat="48.50926" lon="7.08865">
        <ele>438.94</ele>
        <time>2013-08-11T11:50:53Z</time>
      </trkpt>
      <trkpt lat="48.50918" lon="7.08838">
        <ele>439.39</ele>
        <time>2013-08-11T11:50:59Z</time>
      </trkpt>
      <trkpt lat="48.50909" lon="7.08809">
        <ele>440.38</ele>
        <time>2013-08-11T11:51:05Z</time>
      </trkpt>
      <trkpt lat="48.50899" lon="7.08781">
        <ele>440.77</ele>
        <time>2013-08-11T11:51:10Z</time>
      </trkpt>
      <trkpt lat="48.50889" lon="7.0875">
        <ele>440.2</ele>
        <time>2013-08-11T11:51:15Z</time>
      </trkpt>
      <trkpt lat="48.50881" lon="7.08723">
        <ele>440.07</ele>
        <time>2013-08-11T11:51:20Z</time>
      </trkpt>
      <trkpt lat="48.50872" lon="7.08693">
        <ele>439.82</ele>
        <time>2013-08-11T11:51:25Z</time>
      </trkpt>
      <trkpt lat="48.50865" lon="7.08668">
        <ele>439.22</ele>
        <time>2013-08-11T11:51:29Z</time>
      </trkpt>
      <trkpt lat="48.50856" lon="7.08642">
        <ele>438.41</ele>
        <time>2013-08-11T11:51:33Z</time>
      </trkpt>
      <trkpt lat="48.5085" lon="7.08615">
        <ele>437.86</ele>
        <time>2013-08-11T11:51:38Z</time>
      </trkpt>
      <trkpt lat="48.50841" lon="7.08585">
        <ele>438.58</ele>
        <time>2013-08-11T11:51:42Z</time>
      </trkpt>
      <trkpt lat="48.50833" lon="7.08558">
        <ele>439.42</ele>
        <time>2013-08-11T11:51:46Z</time>
      </trkpt>
      <trkpt lat="48.50825" lon="7.0853">
        <ele>439.86</ele>
        <time>2013-08-11T11:51:50Z</time>
      </trkpt>
      <trkpt lat="48.50816" lon="7.08502">
        <ele>440.02</ele>
        <time>2013-08-11T11:51:54Z</time>
      </trkpt>
      <trkpt lat="48.50807" lon="7.08473">
        <ele>440.14</ele>
        <time>2013-08-11T11:51:58Z</time>
      </trkpt>
      <trkpt lat="48.50798" lon="7.08442">
        <ele>440.39</ele>
        <time>2013-08-11T11:52:02Z</time>
      </trkpt>
      <trkpt lat="48.5079" lon="7.08411">
        <ele>440.65</ele>
        <time>2013-08-11T11:52:06Z</time>
      </trkpt>
      <trkpt lat="48.50778" lon="7.0838">
        <ele>440.7</ele>
        <time>2013-08-11T11:52:10Z</time>
      </trkpt>
      <trkpt lat="48.50769" lon="7.08348">
        <ele>440.59</ele>
        <time>2013-08-11T11:52:14Z</time>
      </trkpt>
      <trkpt lat="48.5076" lon="7.08317">
        <ele>440.49</ele>
        <time>2013-08-11T11:52:18Z</time>
      </trkpt>
      <trkpt lat="48.5075" lon="7.08285">
        <ele>440.19</ele>
        <time>2013-08-11T11:52:22Z</time>
      </trkpt>
      <trkpt lat="48.50742" lon="7.0826">
        <ele>439.98</ele>
        <time>2013-08-11T11:52:25Z</time>
      </trkpt>
      <trkpt lat="48.50732" lon="7.08228">
        <ele>439.32</ele>
        <time>2013-08-11T11:52:29Z</time>
      </trkpt>
      <trkpt lat="48.50723" lon="7.08195">
        <ele>438.93</ele>
        <time>2013-08-11T11:52:33Z</time>
      </trkpt>
      <trkpt lat="48.50715" lon="7.0817">
        <ele>438.58</ele>
        <time>2013-08-11T11:52:36Z</time>
      </trkpt>
      <trkpt lat="48.50708" lon="7.08145">
        <ele>438.25</ele>
        <time>2013-08-11T11:52:39Z</time>
      </trkpt>
      <trkpt lat="48.50698" lon="7.08114">
        <ele>437.85</ele>
        <time>2013-08-11T11:52:43Z</time>
      </trkpt>
      <trkpt lat="48.5069" lon="7.08084">
        <ele>437.51</ele>
        <time>2013-08-11T11:52:47Z</time>
      </trkpt>
      <trkpt lat="48.50679" lon="7.08052">
        <ele>436.95</ele>
        <time>2013-08-11T11:52:51Z</time>
      </trkpt>
      <trkpt lat="48.50673" lon="7.08022">
        <ele>435.63</ele>
        <time>2013-08-11T11:52:56Z</time>
      </trkpt>
      <trkpt lat="48.50674" lon="7.07994">
        <ele>434.91</ele>
        <time>2013-08-11T11:53:00Z</time>
      </trkpt>
      <trkpt lat="48.50676" lon="7.07967">
        <ele>434.67</ele>
        <time>2013-08-11T11:53:04Z</time>
      </trkpt>
      <trkpt lat="48.50672" lon="7.07939">
        <ele>434.8</ele>
        <time>2013-08-11T11:53:08Z</time>
      </trkpt>
      <trkpt lat="48.50651" lon="7.07907">
        <ele>432.09</ele>
        <time>2013-08-11T11:53:12Z</time>
      </trkpt>
      <trkpt lat="48.5065" lon="7.0788">
        <ele>427.72</ele>
        <time>2013-08-11T11:53:17Z</time>
      </trkpt>
      <trkpt lat="48.50646" lon="7.0785">
        <ele>425.26</ele>
        <time>2013-08-11T11:53:38Z</time>
      </trkpt>
      <trkpt lat="48.50637" lon="7.07823">
        <ele>421.07</ele>
        <time>2013-08-11T11:53:48Z</time>
      </trkpt>
      <trkpt lat="48.50632" lon="7.07797">
        <ele>415.5</ele>
        <time>2013-08-11T11:57:14Z</time>
      </trkpt>
      <trkpt lat="48.50623" lon="7.07774">
        <ele>415.22</ele>
        <time>2013-08-11T11:57:23Z</time>
      </trkpt>
      <trkpt lat="48.50599" lon="7.07753">
        <ele>417.86</ele>
        <time>2013-08-11T11:58:50Z</time>
      </trkpt>
      <trkpt lat="48.506" lon="7.07724">
        <ele>421.5</ele>
        <time>2013-08-11T11:59:04Z</time>
      </trkpt>
      <trkpt lat="48.50584" lon="7.07708">
        <ele>422.56</ele>
        <time>2013-08-11T11:59:10Z</time>
      </trkpt>
      <trkpt lat="48.50566" lon="7.07699">
        <ele>423.47</ele>
        <time>2013-08-11T11:59:14Z</time>
      </trkpt>
      <trkpt lat="48.50548" lon="7.07689">
        <ele>424.36</ele>
        <time>2013-08-11T11:59:18Z</time>
      </trkpt>
      <trkpt lat="48.50528" lon="7.07683">
        <ele>424.89</ele>
        <time>2013-08-11T11:59:22Z</time>
      </trkpt>
      <trkpt lat="48.50511" lon="7.07674">
        <ele>424.69</ele>
        <time>2013-08-11T11:59:30Z</time>
      </trkpt>
      <trkpt lat="48.50492" lon="7.07662">
        <ele>424.1</ele>
        <time>2013-08-11T11:59:33Z</time>
      </trkpt>
      <trkpt lat="48.50475" lon="7.0765">
        <ele>423.83</ele>
        <time>2013-08-11T11:59:36Z</time>
      </trkpt>
      <trkpt lat="48.50459" lon="7.07637">
        <ele>424.13</ele>
        <time>2013-08-11T11:59:39Z</time>
      </trkpt>
      <trkpt lat="48.50441" lon="7.07618">
        <ele>425.03</ele>
        <time>2013-08-11T11:59:43Z</time>
      </trkpt>
      <trkpt lat="48.50421" lon="7.07597">
        <ele>425.92</ele>
        <time>2013-08-11T11:59:47Z</time>
      </trkpt>
      <trkpt lat="48.50406" lon="7.07581">
        <ele>426.02</ele>
        <time>2013-08-11T11:59:50Z</time>
      </trkpt>
      <trkpt lat="48.50384" lon="7.07557">
        <ele>424.77</ele>
        <time>2013-08-11T11:59:54Z</time>
      </trkpt>
      <trkpt lat="48.50365" lon="7.07537">
        <ele>422.27</ele>
        <time>2013-08-11T11:59:57Z</time>
      </trkpt>
      <trkpt lat="48.50351" lon="7.07511">
        <ele>419.53</ele>
        <time>2013-08-11T12:00:01Z</time>
      </trkpt>
      <trkpt lat="48.50335" lon="7.07489">
        <ele>416.28</ele>
        <time>2013-08-11T12:00:05Z</time>
      </trkpt>
      <trkpt lat="48.50318" lon="7.07465">
        <ele>413.85</ele>
        <time>2013-08-11T12:00:09Z</time>
      </trkpt>
      <trkpt lat="48.50304" lon="7.07447">
        <ele>412.81</ele>
        <time>2013-08-11T12:00:12Z</time>
      </trkpt>
      <trkpt lat="48.50294" lon="7.07422">
        <ele>412.2</ele>
        <time>2013-08-11T12:00:16Z</time>
      </trkpt>
      <trkpt lat="48.50286" lon="7.07397">
        <ele>412.16</ele>
        <time>2013-08-11T12:00:20Z</time>
      </trkpt>
      <trkpt lat="48.5028" lon="7.07367">
        <ele>411.81</ele>
        <time>2013-08-11T12:00:24Z</time>
      </trkpt>
      <trkpt lat="48.5027" lon="7.07338">
        <ele>410.19</ele>
        <time>2013-08-11T12:00:28Z</time>
      </trkpt>
      <trkpt lat="48.50263" lon="7.07309">
        <ele>408.74</ele>
        <time>2013-08-11T12:00:32Z</time>
      </trkpt>
      <trkpt lat="48.50257" lon="7.0728">
        <ele>407.81</ele>
        <time>2013-08-11T12:00:36Z</time>
      </trkpt>
      <trkpt lat="48.50251" lon="7.0725">
        <ele>406.71</ele>
        <time>2013-08-11T12:00:40Z</time>
      </trkpt>
      <trkpt lat="48.50245" lon="7.07218">
        <ele>405.3</ele>
        <time>2013-08-11T12:00:44Z</time>
      </trkpt>
      <trkpt lat="48.5024" lon="7.07187">
        <ele>403.98</ele>
        <time>2013-08-11T12:00:48Z</time>
      </trkpt>
      <trkpt lat="48.50233" lon="7.07154">
        <ele>403.15</ele>
        <time>2013-08-11T12:00:52Z</time>
      </trkpt>
      <trkpt lat="48.50227" lon="7.07121">
        <ele>402.82</ele>
        <time>2013-08-11T12:00:56Z</time>
      </trkpt>
      <trkpt lat="48.50222" lon="7.07088">
        <ele>402.43</ele>
        <time>2013-08-11T12:01:00Z</time>
      </trkpt>
      <trkpt lat="48.50224" lon="7.07061">
        <ele>402.73</ele>
        <time>2013-08-11T12:01:04Z</time>
      </trkpt>
      <trkpt lat="48.50218" lon="7.07029">
        <ele>403.93</ele>
        <time>2013-08-11T12:01:09Z</time>
      </trkpt>
      <trkpt lat="48.50214" lon="7.06998">
        <ele>404.88</ele>
        <time>2013-08-11T12:01:14Z</time>
      </trkpt>
      <trkpt lat="48.50203" lon="7.06977">
        <ele>405.42</ele>
        <time>2013-08-11T12:01:21Z</time>
      </trkpt>
      <trkpt lat="48.50198" lon="7.0695">
        <ele>400.14</ele>
        <time>2013-08-11T12:04:43Z</time>
      </trkpt>
      <trkpt lat="48.50207" lon="7.06925">
        <ele>398.36</ele>
        <time>2013-08-11T12:04:53Z</time>
      </trkpt>
      <trkpt lat="48.50222" lon="7.06904">
        <ele>398.03</ele>
        <time>2013-08-11T12:05:00Z</time>
      </trkpt>
      <trkpt lat="48.50231" lon="7.06877">
        <ele>397.86</ele>
        <time>2013-08-11T12:05:09Z</time>
      </trkpt>
      <trkpt lat="48.50218" lon="7.06856">
        <ele>397.67</ele>
        <time>2013-08-11T12:05:25Z</time>
      </trkpt>
      <trkpt lat="48.50205" lon="7.06837">
        <ele>397.41</ele>
        <time>2013-08-11T12:05:31Z</time>
      </trkpt>
      <trkpt lat="48.50191" lon="7.06815">
        <ele>396.67</ele>
        <time>2013-08-11T12:05:37Z</time>
      </trkpt>
      <trkpt lat="48.50174" lon="7.06792">
        <ele>395.84</ele>
        <time>2013-08-11T12:05:42Z</time>
      </trkpt>
      <trkpt lat="48.5016" lon="7.06766">
        <ele>395.56</ele>
        <time>2013-08-11T12:05:46Z</time>
      </trkpt>
      <trkpt lat="48.5015" lon="7.06738">
        <ele>395.55</ele>
        <time>2013-08-11T12:05:50Z</time>
      </trkpt>
      <trkpt lat="48.50144" lon="7.06708">
        <ele>395.23</ele>
        <time>2013-08-11T12:05:54Z</time>
      </trkpt>
      <trkpt lat="48.50137" lon="7.06677">
        <ele>394.81</ele>
        <time>2013-08-11T12:05:58Z</time>
      </trkpt>
      <trkpt lat="48.50132" lon="7.06648">
        <ele>394.78</ele>
        <time>2013-08-11T12:06:02Z</time>
      </trkpt>
      <trkpt lat="48.50129" lon="7.0662">
        <ele>394.94</ele>
        <time>2013-08-11T12:06:06Z</time>
      </trkpt>
      <trkpt lat="48.50126" lon="7.06593">
        <ele>395.18</ele>
        <time>2013-08-11T12:06:10Z</time>
      </trkpt>
      <trkpt lat="48.50123" lon="7.06566">
        <ele>394.91</ele>
        <time>2013-08-11T12:06:14Z</time>
      </trkpt>
      <trkpt lat="48.50116" lon="7.06537">
        <ele>394.39</ele>
        <time>2013-08-11T12:06:18Z</time>
      </trkpt>
      <trkpt lat="48.50109" lon="7.06505">
        <ele>394.7</ele>
        <time>2013-08-11T12:06:22Z</time>
      </trkpt>
      <trkpt lat="48.50101" lon="7.06475">
        <ele>395.42</ele>
        <time>2013-08-11T12:06:26Z</time>
      </trkpt>
      <trkpt lat="48.50094" lon="7.06446">
        <ele>396.17</ele>
        <time>2013-08-11T12:06:30Z</time>
      </trkpt>
      <trkpt lat="48.50085" lon="7.06421">
        <ele>397.32</ele>
        <time>2013-08-11T12:06:34Z</time>
      </trkpt>
      <trkpt lat="48.50076" lon="7.06389">
        <ele>398.32</ele>
        <time>2013-08-11T12:06:39Z</time>
      </trkpt>
      <trkpt lat="48.50069" lon="7.06361">
        <ele>399.54</ele>
        <time>2013-08-11T12:06:43Z</time>
      </trkpt>
      <trkpt lat="48.50063" lon="7.06332">
        <ele>401.2</ele>
        <time>2013-08-11T12:06:47Z</time>
      </trkpt>
      <trkpt lat="48.50059" lon="7.06303">
        <ele>402.72</ele>
        <time>2013-08-11T12:06:51Z</time>
      </trkpt>
      <trkpt lat="48.50054" lon="7.06277">
        <ele>403.08</ele>
        <time>2013-08-11T12:06:55Z</time>
      </trkpt>
      <trkpt lat="48.50046" lon="7.06253">
        <ele>402.99</ele>
        <time>2013-08-11T12:06:59Z</time>
      </trkpt>
      <trkpt lat="48.50042" lon="7.06224">
        <ele>402.91</ele>
        <time>2013-08-11T12:07:03Z</time>
      </trkpt>
      <trkpt lat="48.50047" lon="7.06195">
        <ele>403.07</ele>
        <time>2013-08-11T12:07:07Z</time>
      </trkpt>
      <trkpt lat="48.50047" lon="7.06166">
        <ele>403.25</ele>
        <time>2013-08-11T12:07:11Z</time>
      </trkpt>
      <trkpt lat="48.50046" lon="7.06134">
        <ele>402.97</ele>
        <time>2013-08-11T12:07:16Z</time>
      </trkpt>
      <trkpt lat="48.50043" lon="7.06107">
        <ele>402.47</ele>
        <time>2013-08-11T12:07:21Z</time>
      </trkpt>
      <trkpt lat="48.50034" lon="7.06077">
        <ele>402.03</ele>
        <time>2013-08-11T12:07:26Z</time>
      </trkpt>
      <trkpt lat="48.50025" lon="7.06047">
        <ele>401.59</ele>
        <time>2013-08-11T12:07:31Z</time>
      </trkpt>
      <trkpt lat="48.50017" lon="7.06022">
        <ele>401.2</ele>
        <time>2013-08-11T12:07:35Z</time>
      </trkpt>
      <trkpt lat="48.50007" lon="7.05994">
        <ele>401.06</ele>
        <time>2013-08-11T12:07:39Z</time>
      </trkpt>
      <trkpt lat="48.49999" lon="7.05967">
        <ele>401.13</ele>
        <time>2013-08-11T12:07:42Z</time>
      </trkpt>
      <trkpt lat="48.49992" lon="7.05936">
        <ele>401.27</ele>
        <time>2013-08-11T12:07:46Z</time>
      </trkpt>
      <trkpt lat="48.49986" lon="7.05905">
        <ele>401.57</ele>
        <time>2013-08-11T12:07:51Z</time>
      </trkpt>
      <trkpt lat="48.49978" lon="7.05875">
        <ele>402.31</ele>
        <time>2013-08-11T12:07:56Z</time>
      </trkpt>
      <trkpt lat="48.49969" lon="7.05849">
        <ele>402.87</ele>
        <time>2013-08-11T12:08:00Z</time>
      </trkpt>
      <trkpt lat="48.49956" lon="7.0582">
        <ele>403.16</ele>
        <time>2013-08-11T12:08:04Z</time>
      </trkpt>
      <trkpt lat="48.49946" lon="7.05797">
        <ele>403.08</ele>
        <time>2013-08-11T12:08:07Z</time>
      </trkpt>
      <trkpt lat="48.49935" lon="7.05764">
        <ele>402.98</ele>
        <time>2013-08-11T12:08:11Z</time>
      </trkpt>
      <trkpt lat="48.49927" lon="7.0574">
        <ele>403.02</ele>
        <time>2013-08-11T12:08:14Z</time>
      </trkpt>
      <trkpt lat="48.49917" lon="7.05711">
        <ele>402.94</ele>
        <time>2013-08-11T12:08:18Z</time>
      </trkpt>
      <trkpt lat="48.49906" lon="7.05684">
        <ele>402.66</ele>
        <time>2013-08-11T12:08:22Z</time>
      </trkpt>
      <trkpt lat="48.49891" lon="7.05656">
        <ele>402.82</ele>
        <time>2013-08-11T12:08:26Z</time>
      </trkpt>
      <trkpt lat="48.4988" lon="7.05634">
        <ele>402.53</ele>
        <time>2013-08-11T12:08:29Z</time>
      </trkpt>
      <trkpt lat="48.49867" lon="7.05606">
        <ele>399.84</ele>
        <time>2013-08-11T12:08:33Z</time>
      </trkpt>
      <trkpt lat="48.49855" lon="7.05579">
        <ele>398.63</ele>
        <time>2013-08-11T12:08:36Z</time>
      </trkpt>
      <trkpt lat="48.49844" lon="7.05546">
        <ele>398</ele>
        <time>2013-08-11T12:08:39Z</time>
      </trkpt>
      <trkpt lat="48.49844" lon="7.05511">
        <ele>398.22</ele>
        <time>2013-08-11T12:08:42Z</time>
      </trkpt>
      <trkpt lat="48.49839" lon="7.05479">
        <ele>398.2</ele>
        <time>2013-08-11T12:08:45Z</time>
      </trkpt>
      <trkpt lat="48.49829" lon="7.05453">
        <ele>397.75</ele>
        <time>2013-08-11T12:08:48Z</time>
      </trkpt>
      <trkpt lat="48.49817" lon="7.05433">
        <ele>397.47</ele>
        <time>2013-08-11T12:08:51Z</time>
      </trkpt>
      <trkpt lat="48.49804" lon="7.05413">
        <ele>396.52</ele>
        <time>2013-08-11T12:08:55Z</time>
      </trkpt>
      <trkpt lat="48.49789" lon="7.05394">
        <ele>396.53</ele>
        <time>2013-08-11T12:08:59Z</time>
      </trkpt>
      <trkpt lat="48.49774" lon="7.05367">
        <ele>398.01</ele>
        <time>2013-08-11T12:09:03Z</time>
      </trkpt>
      <trkpt lat="48.49762" lon="7.05336">
        <ele>399.33</ele>
        <time>2013-08-11T12:09:07Z</time>
      </trkpt>
      <trkpt lat="48.49753" lon="7.05309">
        <ele>399.27</ele>
        <time>2013-08-11T12:09:11Z</time>
      </trkpt>
      <trkpt lat="48.49744" lon="7.05281">
        <ele>397.83</ele>
        <time>2013-08-11T12:09:16Z</time>
      </trkpt>
      <trkpt lat="48.49735" lon="7.05255">
        <ele>396.34</ele>
        <time>2013-08-11T12:09:20Z</time>
      </trkpt>
      <trkpt lat="48.49723" lon="7.05232">
        <ele>396.32</ele>
        <time>2013-08-11T12:09:24Z</time>
      </trkpt>
      <trkpt lat="48.49705" lon="7.05218">
        <ele>396.29</ele>
        <time>2013-08-11T12:09:29Z</time>
      </trkpt>
      <trkpt lat="48.49684" lon="7.05223">
        <ele>391.88</ele>
        <time>2013-08-11T12:09:35Z</time>
      </trkpt>
      <trkpt lat="48.49664" lon="7.05236">
        <ele>388.26</ele>
        <time>2013-08-11T12:09:40Z</time>
      </trkpt>
      <trkpt lat="48.49646" lon="7.05245">
        <ele>386.11</ele>
        <time>2013-08-11T12:09:45Z</time>
      </trkpt>
      <trkpt lat="48.49625" lon="7.05231">
        <ele>385.2</ele>
        <time>2013-08-11T12:09:50Z</time>
      </trkpt>
      <trkpt lat="48.49615" lon="7.05208">
        <ele>384.94</ele>
        <time>2013-08-11T12:09:54Z</time>
      </trkpt>
      <trkpt lat="48.49604" lon="7.05182">
        <ele>384.96</ele>
        <time>2013-08-11T12:09:58Z</time>
      </trkpt>
      <trkpt lat="48.49585" lon="7.05176">
        <ele>384.19</ele>
        <time>2013-08-11T12:10:03Z</time>
      </trkpt>
      <trkpt lat="48.49574" lon="7.05152">
        <ele>383.54</ele>
        <time>2013-08-11T12:10:07Z</time>
      </trkpt>
      <trkpt lat="48.49567" lon="7.05122">
        <ele>383.19</ele>
        <time>2013-08-11T12:10:11Z</time>
      </trkpt>
      <trkpt lat="48.49551" lon="7.05103">
        <ele>382.83</ele>
        <time>2013-08-11T12:10:16Z</time>
      </trkpt>
      <trkpt lat="48.49533" lon="7.05096">
        <ele>382.75</ele>
        <time>2013-08-11T12:10:20Z</time>
      </trkpt>
      <trkpt lat="48.49515" lon="7.05078">
        <ele>383.08</ele>
        <time>2013-08-11T12:10:25Z</time>
      </trkpt>
      <trkpt lat="48.49504" lon="7.0505">
        <ele>383.41</ele>
        <time>2013-08-11T12:10:30Z</time>
      </trkpt>
      <trkpt lat="48.49496" lon="7.05022">
        <ele>383.26</ele>
        <time>2013-08-11T12:10:34Z</time>
      </trkpt>
      <trkpt lat="48.49496" lon="7.04993">
        <ele>383.3</ele>
        <time>2013-08-11T12:10:38Z</time>
      </trkpt>
      <trkpt lat="48.49495" lon="7.04965">
        <ele>383.41</ele>
        <time>2013-08-11T12:10:42Z</time>
      </trkpt>
      <trkpt lat="48.49496" lon="7.04932">
        <ele>383.72</ele>
        <time>2013-08-11T12:10:47Z</time>
      </trkpt>
      <trkpt lat="48.495" lon="7.049">
        <ele>383.75</ele>
        <time>2013-08-11T12:10:52Z</time>
      </trkpt>
      <trkpt lat="48.49502" lon="7.04868">
        <ele>383.29</ele>
        <time>2013-08-11T12:10:57Z</time>
      </trkpt>
      <trkpt lat="48.49503" lon="7.0484">
        <ele>382.38</ele>
        <time>2013-08-11T12:11:01Z</time>
      </trkpt>
      <trkpt lat="48.49497" lon="7.04811">
        <ele>381.69</ele>
        <time>2013-08-11T12:11:05Z</time>
      </trkpt>
      <trkpt lat="48.49478" lon="7.04787">
        <ele>381.16</ele>
        <time>2013-08-11T12:11:08Z</time>
      </trkpt>
      <trkpt lat="48.49466" lon="7.04767">
        <ele>380.78</ele>
        <time>2013-08-11T12:11:11Z</time>
      </trkpt>
      <trkpt lat="48.49452" lon="7.04749">
        <ele>381.25</ele>
        <time>2013-08-11T12:11:19Z</time>
      </trkpt>
      <trkpt lat="48.49448" lon="7.04719">
        <ele>382.01</ele>
        <time>2013-08-11T12:11:26Z</time>
      </trkpt>
      <trkpt lat="48.4945" lon="7.0469">
        <ele>382.23</ele>
        <time>2013-08-11T12:11:32Z</time>
      </trkpt>
      <trkpt lat="48.49453" lon="7.04659">
        <ele>382.4</ele>
        <time>2013-08-11T12:11:37Z</time>
      </trkpt>
      <trkpt lat="48.49459" lon="7.0463">
        <ele>380.95</ele>
        <time>2013-08-11T12:11:41Z</time>
      </trkpt>
      <trkpt lat="48.49462" lon="7.04603">
        <ele>379.58</ele>
        <time>2013-08-11T12:11:45Z</time>
      </trkpt>
      <trkpt lat="48.49466" lon="7.0457">
        <ele>378.04</ele>
        <time>2013-08-11T12:11:50Z</time>
      </trkpt>
      <trkpt lat="48.49464" lon="7.04539">
        <ele>376.46</ele>
        <time>2013-08-11T12:11:55Z</time>
      </trkpt>
      <trkpt lat="48.49461" lon="7.0451">
        <ele>375.55</ele>
        <time>2013-08-11T12:12:00Z</time>
      </trkpt>
      <trkpt lat="48.49449" lon="7.04486">
        <ele>374.48</ele>
        <time>2013-08-11T12:12:06Z</time>
      </trkpt>
      <trkpt lat="48.49437" lon="7.04466">
        <ele>373.66</ele>
        <time>2013-08-11T12:12:11Z</time>
      </trkpt>
      <trkpt lat="48.49423" lon="7.04447">
        <ele>373.36</ele>
        <time>2013-08-11T12:12:16Z</time>
      </trkpt>
      <trkpt lat="48.49407" lon="7.04431">
        <ele>372.96</ele>
        <time>2013-08-11T12:13:04Z</time>
      </trkpt>
      <trkpt lat="48.49397" lon="7.04407">
        <ele>373.27</ele>
        <time>2013-08-11T12:13:11Z</time>
      </trkpt>
      <trkpt lat="48.49413" lon="7.04394">
        <ele>374.48</ele>
        <time>2013-08-11T12:13:16Z</time>
      </trkpt>
      <trkpt lat="48.49433" lon="7.04381">
        <ele>374.44</ele>
        <time>2013-08-11T12:13:21Z</time>
      </trkpt>
      <trkpt lat="48.49452" lon="7.04367">
        <ele>374.18</ele>
        <time>2013-08-11T12:13:26Z</time>
      </trkpt>
      <trkpt lat="48.4947" lon="7.04358">
        <ele>373.83</ele>
        <time>2013-08-11T12:13:31Z</time>
      </trkpt>
      <trkpt lat="48.49491" lon="7.04349">
        <ele>373.76</ele>
        <time>2013-08-11T12:13:38Z</time>
      </trkpt>
      <trkpt lat="48.49509" lon="7.04342">
        <ele>373.27</ele>
        <time>2013-08-11T12:13:43Z</time>
      </trkpt>
      <trkpt lat="48.49526" lon="7.04327">
        <ele>373.3</ele>
        <time>2013-08-11T12:13:51Z</time>
      </trkpt>
      <trkpt lat="48.49509" lon="7.04344">
        <ele>372.04</ele>
        <time>2013-08-11T12:14:01Z</time>
      </trkpt>
      <trkpt lat="48.49526" lon="7.0433">
        <ele>372.15</ele>
        <time>2013-08-11T12:20:58Z</time>
      </trkpt>
      <trkpt lat="48.4954" lon="7.0431">
        <ele>371.91</ele>
        <time>2013-08-11T12:21:06Z</time>
      </trkpt>
      <trkpt lat="48.49554" lon="7.04292">
        <ele>372.15</ele>
        <time>2013-08-11T12:21:12Z</time>
      </trkpt>
      <trkpt lat="48.49569" lon="7.04273">
        <ele>372.41</ele>
        <time>2013-08-11T12:21:19Z</time>
      </trkpt>
      <trkpt lat="48.49586" lon="7.04257">
        <ele>372.69</ele>
        <time>2013-08-11T12:21:26Z</time>
      </trkpt>
      <trkpt lat="48.49603" lon="7.04247">
        <ele>373.28</ele>
        <time>2013-08-11T12:21:33Z</time>
      </trkpt>
      <trkpt lat="48.4962" lon="7.0423">
        <ele>374.17</ele>
        <time>2013-08-11T12:21:42Z</time>
      </trkpt>
      <trkpt lat="48.49637" lon="7.04216">
        <ele>376.25</ele>
        <time>2013-08-11T12:21:53Z</time>
      </trkpt>
      <trkpt lat="48.49636" lon="7.04189">
        <ele>377.12</ele>
        <time>2013-08-11T12:22:03Z</time>
      </trkpt>
      <trkpt lat="48.49626" lon="7.04161">
        <ele>377.33</ele>
        <time>2013-08-11T12:22:10Z</time>
      </trkpt>
      <trkpt lat="48.49618" lon="7.04135">
        <ele>377.31</ele>
        <time>2013-08-11T12:22:16Z</time>
      </trkpt>
      <trkpt lat="48.49615" lon="7.04106">
        <ele>377.66</ele>
        <time>2013-08-11T12:22:22Z</time>
      </trkpt>
      <trkpt lat="48.49617" lon="7.04078">
        <ele>378.07</ele>
        <time>2013-08-11T12:22:28Z</time>
      </trkpt>
      <trkpt lat="48.49623" lon="7.04048">
        <ele>378.33</ele>
        <time>2013-08-11T12:22:34Z</time>
      </trkpt>
      <trkpt lat="48.4963" lon="7.04019">
        <ele>378.43</ele>
        <time>2013-08-11T12:22:40Z</time>
      </trkpt>
      <trkpt lat="48.49642" lon="7.03996">
        <ele>378.8</ele>
        <time>2013-08-11T12:22:46Z</time>
      </trkpt>
      <trkpt lat="48.49654" lon="7.0397">
        <ele>379.9</ele>
        <time>2013-08-11T12:22:52Z</time>
      </trkpt>
      <trkpt lat="48.49667" lon="7.03944">
        <ele>380.74</ele>
        <time>2013-08-11T12:22:58Z</time>
      </trkpt>
      <trkpt lat="48.49677" lon="7.03918">
        <ele>381.65</ele>
        <time>2013-08-11T12:23:03Z</time>
      </trkpt>
      <trkpt lat="48.49683" lon="7.03888">
        <ele>381.9</ele>
        <time>2013-08-11T12:23:08Z</time>
      </trkpt>
      <trkpt lat="48.49682" lon="7.03857">
        <ele>381.48</ele>
        <time>2013-08-11T12:23:13Z</time>
      </trkpt>
      <trkpt lat="48.49674" lon="7.0383">
        <ele>380.35</ele>
        <time>2013-08-11T12:23:18Z</time>
      </trkpt>
      <trkpt lat="48.49657" lon="7.0381">
        <ele>379.23</ele>
        <time>2013-08-11T12:23:24Z</time>
      </trkpt>
      <trkpt lat="48.49642" lon="7.03791">
        <ele>379.48</ele>
        <time>2013-08-11T12:23:31Z</time>
      </trkpt>
      <trkpt lat="48.49633" lon="7.03765">
        <ele>379.68</ele>
        <time>2013-08-11T12:23:38Z</time>
      </trkpt>
      <trkpt lat="48.49626" lon="7.03739">
        <ele>380.51</ele>
        <time>2013-08-11T12:23:44Z</time>
      </trkpt>
      <trkpt lat="48.49616" lon="7.03715">
        <ele>380.87</ele>
        <time>2013-08-11T12:23:49Z</time>
      </trkpt>
      <trkpt lat="48.49604" lon="7.0369">
        <ele>381.87</ele>
        <time>2013-08-11T12:23:54Z</time>
      </trkpt>
      <trkpt lat="48.49593" lon="7.03664">
        <ele>382.35</ele>
        <time>2013-08-11T12:23:59Z</time>
      </trkpt>
      <trkpt lat="48.49581" lon="7.03637">
        <ele>382.57</ele>
        <time>2013-08-11T12:24:04Z</time>
      </trkpt>
      <trkpt lat="48.49572" lon="7.03609">
        <ele>383.12</ele>
        <time>2013-08-11T12:24:09Z</time>
      </trkpt>
      <trkpt lat="48.49566" lon="7.03576">
        <ele>383.83</ele>
        <time>2013-08-11T12:24:14Z</time>
      </trkpt>
      <trkpt lat="48.49563" lon="7.03549">
        <ele>384.44</ele>
        <time>2013-08-11T12:24:18Z</time>
      </trkpt>
      <trkpt lat="48.49559" lon="7.03523">
        <ele>385.13</ele>
        <time>2013-08-11T12:24:22Z</time>
      </trkpt>
      <trkpt lat="48.49557" lon="7.03489">
        <ele>385.63</ele>
        <time>2013-08-11T12:24:27Z</time>
      </trkpt>
      <trkpt lat="48.49556" lon="7.03458">
        <ele>386.01</ele>
        <time>2013-08-11T12:24:32Z</time>
      </trkpt>
      <trkpt lat="48.49557" lon="7.03427">
        <ele>385.9</ele>
        <time>2013-08-11T12:24:37Z</time>
      </trkpt>
      <trkpt lat="48.49559" lon="7.03397">
        <ele>385.91</ele>
        <time>2013-08-11T12:24:42Z</time>
      </trkpt>
      <trkpt lat="48.4956" lon="7.03367">
        <ele>386.05</ele>
        <time>2013-08-11T12:24:47Z</time>
      </trkpt>
      <trkpt lat="48.4956" lon="7.03336">
        <ele>386.1</ele>
        <time>2013-08-11T12:24:53Z</time>
      </trkpt>
      <trkpt lat="48.49558" lon="7.03307">
        <ele>385.98</ele>
        <time>2013-08-11T12:24:59Z</time>
      </trkpt>
      <trkpt lat="48.49554" lon="7.0328">
        <ele>385.95</ele>
        <time>2013-08-11T12:25:05Z</time>
      </trkpt>
      <trkpt lat="48.49551" lon="7.03254">
        <ele>385.83</ele>
        <time>2013-08-11T12:25:12Z</time>
      </trkpt>
      <trkpt lat="48.49546" lon="7.03225">
        <ele>385.51</ele>
        <time>2013-08-11T12:25:34Z</time>
      </trkpt>
      <trkpt lat="48.4954" lon="7.03195">
        <ele>385.95</ele>
        <time>2013-08-11T12:25:40Z</time>
      </trkpt>
      <trkpt lat="48.49536" lon="7.03165">
        <ele>386.07</ele>
        <time>2013-08-11T12:25:45Z</time>
      </trkpt>
      <trkpt lat="48.49531" lon="7.03135">
        <ele>386.15</ele>
        <time>2013-08-11T12:25:50Z</time>
      </trkpt>
      <trkpt lat="48.49527" lon="7.03108">
        <ele>386.45</ele>
        <time>2013-08-11T12:25:54Z</time>
      </trkpt>
      <trkpt lat="48.49522" lon="7.03079">
        <ele>386.81</ele>
        <time>2013-08-11T12:25:58Z</time>
      </trkpt>
      <trkpt lat="48.49516" lon="7.03053">
        <ele>387.59</ele>
        <time>2013-08-11T12:26:02Z</time>
      </trkpt>
      <trkpt lat="48.49511" lon="7.03022">
        <ele>388.07</ele>
        <time>2013-08-11T12:26:07Z</time>
      </trkpt>
      <trkpt lat="48.49508" lon="7.02991">
        <ele>387.85</ele>
        <time>2013-08-11T12:26:12Z</time>
      </trkpt>
      <trkpt lat="48.49505" lon="7.02961">
        <ele>387.39</ele>
        <time>2013-08-11T12:26:17Z</time>
      </trkpt>
      <trkpt lat="48.49495" lon="7.02935">
        <ele>387.53</ele>
        <time>2013-08-11T12:26:22Z</time>
      </trkpt>
      <trkpt lat="48.49482" lon="7.02909">
        <ele>387.77</ele>
        <time>2013-08-11T12:26:27Z</time>
      </trkpt>
      <trkpt lat="48.49471" lon="7.02887">
        <ele>388</ele>
        <time>2013-08-11T12:26:31Z</time>
      </trkpt>
      <trkpt lat="48.49458" lon="7.02858">
        <ele>387.83</ele>
        <time>2013-08-11T12:26:36Z</time>
      </trkpt>
      <trkpt lat="48.49445" lon="7.02829">
        <ele>387.4</ele>
        <time>2013-08-11T12:26:40Z</time>
      </trkpt>
      <trkpt lat="48.4943" lon="7.02806">
        <ele>386.79</ele>
        <time>2013-08-11T12:26:43Z</time>
      </trkpt>
      <trkpt lat="48.49409" lon="7.0279">
        <ele>386.1</ele>
        <time>2013-08-11T12:26:46Z</time>
      </trkpt>
      <trkpt lat="48.49391" lon="7.02782">
        <ele>385.63</ele>
        <time>2013-08-11T12:26:48Z</time>
      </trkpt>
      <trkpt lat="48.49371" lon="7.02776">
        <ele>385.41</ele>
        <time>2013-08-11T12:26:50Z</time>
      </trkpt>
      <trkpt lat="48.4935" lon="7.02772">
        <ele>385.36</ele>
        <time>2013-08-11T12:26:52Z</time>
      </trkpt>
      <trkpt lat="48.49328" lon="7.02772">
        <ele>385.1</ele>
        <time>2013-08-11T12:26:54Z</time>
      </trkpt>
      <trkpt lat="48.49306" lon="7.02774">
        <ele>384.34</ele>
        <time>2013-08-11T12:26:56Z</time>
      </trkpt>
      <trkpt lat="48.49284" lon="7.02778">
        <ele>383.38</ele>
        <time>2013-08-11T12:26:58Z</time>
      </trkpt>
      <trkpt lat="48.4926" lon="7.0278">
        <ele>382.4</ele>
        <time>2013-08-11T12:27:00Z</time>
      </trkpt>
      <trkpt lat="48.49236" lon="7.02775">
        <ele>381.27</ele>
        <time>2013-08-11T12:27:02Z</time>
      </trkpt>
      <trkpt lat="48.49219" lon="7.02761">
        <ele>380.33</ele>
        <time>2013-08-11T12:27:04Z</time>
      </trkpt>
      <trkpt lat="48.49208" lon="7.02736">
        <ele>379.32</ele>
        <time>2013-08-11T12:27:06Z</time>
      </trkpt>
      <trkpt lat="48.49197" lon="7.02709">
        <ele>377.96</ele>
        <time>2013-08-11T12:27:08Z</time>
      </trkpt>
      <trkpt lat="48.49187" lon="7.02685">
        <ele>376.47</ele>
        <time>2013-08-11T12:27:10Z</time>
      </trkpt>
      <trkpt lat="48.4918" lon="7.02659">
        <ele>375.13</ele>
        <time>2013-08-11T12:27:12Z</time>
      </trkpt>
      <trkpt lat="48.49178" lon="7.02625">
        <ele>373.48</ele>
        <time>2013-08-11T12:27:15Z</time>
      </trkpt>
      <trkpt lat="48.49174" lon="7.02593">
        <ele>372.7</ele>
        <time>2013-08-11T12:27:18Z</time>
      </trkpt>
      <trkpt lat="48.49168" lon="7.0256">
        <ele>372.29</ele>
        <time>2013-08-11T12:27:21Z</time>
      </trkpt>
      <trkpt lat="48.49163" lon="7.02528">
        <ele>371.58</ele>
        <time>2013-08-11T12:27:24Z</time>
      </trkpt>
      <trkpt lat="48.49157" lon="7.02498">
        <ele>370.38</ele>
        <time>2013-08-11T12:27:27Z</time>
      </trkpt>
      <trkpt lat="48.4915" lon="7.0247">
        <ele>369.21</ele>
        <time>2013-08-11T12:27:30Z</time>
      </trkpt>
      <trkpt lat="48.4914" lon="7.02444">
        <ele>368</ele>
        <time>2013-08-11T12:27:33Z</time>
      </trkpt>
      <trkpt lat="48.49116" lon="7.02433">
        <ele>366.98</ele>
        <time>2013-08-11T12:27:36Z</time>
      </trkpt>
      <trkpt lat="48.49092" lon="7.02429">
        <ele>366.25</ele>
        <time>2013-08-11T12:27:39Z</time>
      </trkpt>
      <trkpt lat="48.4907" lon="7.02422">
        <ele>365.46</ele>
        <time>2013-08-11T12:27:42Z</time>
      </trkpt>
      <trkpt lat="48.49055" lon="7.024">
        <ele>363.02</ele>
        <time>2013-08-11T12:28:09Z</time>
      </trkpt>
      <trkpt lat="48.49052" lon="7.02371">
        <ele>363.27</ele>
        <time>2013-08-11T12:28:15Z</time>
      </trkpt>
      <trkpt lat="48.49048" lon="7.02341">
        <ele>363.75</ele>
        <time>2013-08-11T12:28:20Z</time>
      </trkpt>
      <trkpt lat="48.49042" lon="7.02314">
        <ele>363.72</ele>
        <time>2013-08-11T12:28:24Z</time>
      </trkpt>
      <trkpt lat="48.49036" lon="7.02286">
        <ele>363.35</ele>
        <time>2013-08-11T12:28:28Z</time>
      </trkpt>
      <trkpt lat="48.49026" lon="7.0226">
        <ele>363.02</ele>
        <time>2013-08-11T12:28:32Z</time>
      </trkpt>
      <trkpt lat="48.49012" lon="7.02236">
        <ele>363.02</ele>
        <time>2013-08-11T12:28:36Z</time>
      </trkpt>
      <trkpt lat="48.48999" lon="7.02215">
        <ele>362.27</ele>
        <time>2013-08-11T12:28:40Z</time>
      </trkpt>
      <trkpt lat="48.48986" lon="7.02194">
        <ele>361.6</ele>
        <time>2013-08-11T12:28:44Z</time>
      </trkpt>
      <trkpt lat="48.48974" lon="7.02172">
        <ele>360.62</ele>
        <time>2013-08-11T12:28:48Z</time>
      </trkpt>
      <trkpt lat="48.4896" lon="7.02148">
        <ele>360.51</ele>
        <time>2013-08-11T12:28:52Z</time>
      </trkpt>
      <trkpt lat="48.48944" lon="7.02128">
        <ele>361.21</ele>
        <time>2013-08-11T12:28:56Z</time>
      </trkpt>
      <trkpt lat="48.48926" lon="7.02119">
        <ele>362</ele>
        <time>2013-08-11T12:29:00Z</time>
      </trkpt>
      <trkpt lat="48.48907" lon="7.02107">
        <ele>362.45</ele>
        <time>2013-08-11T12:29:05Z</time>
      </trkpt>
      <trkpt lat="48.48887" lon="7.02114">
        <ele>361.76</ele>
        <time>2013-08-11T12:29:10Z</time>
      </trkpt>
      <trkpt lat="48.48867" lon="7.02122">
        <ele>360.53</ele>
        <time>2013-08-11T12:29:15Z</time>
      </trkpt>
      <trkpt lat="48.48847" lon="7.02116">
        <ele>359.69</ele>
        <time>2013-08-11T12:29:21Z</time>
      </trkpt>
      <trkpt lat="48.48828" lon="7.021">
        <ele>359.33</ele>
        <time>2013-08-11T12:29:27Z</time>
      </trkpt>
      <trkpt lat="48.48817" lon="7.02078">
        <ele>358.89</ele>
        <time>2013-08-11T12:29:32Z</time>
      </trkpt>
      <trkpt lat="48.48809" lon="7.02052">
        <ele>358.67</ele>
        <time>2013-08-11T12:29:37Z</time>
      </trkpt>
      <trkpt lat="48.4881" lon="7.02021">
        <ele>359</ele>
        <time>2013-08-11T12:29:42Z</time>
      </trkpt>
      <trkpt lat="48.48803" lon="7.01993">
        <ele>359.31</ele>
        <time>2013-08-11T12:29:47Z</time>
      </trkpt>
      <trkpt lat="48.48783" lon="7.01987">
        <ele>359.9</ele>
        <time>2013-08-11T12:29:51Z</time>
      </trkpt>
      <trkpt lat="48.48765" lon="7.01972">
        <ele>360.52</ele>
        <time>2013-08-11T12:29:55Z</time>
      </trkpt>
      <trkpt lat="48.48749" lon="7.01951">
        <ele>360.9</ele>
        <time>2013-08-11T12:29:59Z</time>
      </trkpt>
      <trkpt lat="48.48737" lon="7.0193">
        <ele>361.05</ele>
        <time>2013-08-11T12:30:03Z</time>
      </trkpt>
      <trkpt lat="48.48724" lon="7.0191">
        <ele>360.84</ele>
        <time>2013-08-11T12:30:07Z</time>
      </trkpt>
      <trkpt lat="48.48704" lon="7.01911">
        <ele>360.84</ele>
        <time>2013-08-11T12:30:12Z</time>
      </trkpt>
      <trkpt lat="48.48684" lon="7.0191">
        <ele>361.76</ele>
        <time>2013-08-11T12:30:18Z</time>
      </trkpt>
      <trkpt lat="48.48667" lon="7.01892">
        <ele>362.16</ele>
        <time>2013-08-11T12:30:24Z</time>
      </trkpt>
      <trkpt lat="48.48654" lon="7.01864">
        <ele>362.11</ele>
        <time>2013-08-11T12:30:29Z</time>
      </trkpt>
      <trkpt lat="48.48642" lon="7.01839">
        <ele>361.65</ele>
        <time>2013-08-11T12:30:33Z</time>
      </trkpt>
      <trkpt lat="48.48627" lon="7.01816">
        <ele>361.18</ele>
        <time>2013-08-11T12:30:37Z</time>
      </trkpt>
      <trkpt lat="48.48618" lon="7.01789">
        <ele>360.88</ele>
        <time>2013-08-11T12:30:41Z</time>
      </trkpt>
      <trkpt lat="48.48619" lon="7.01761">
        <ele>360.69</ele>
        <time>2013-08-11T12:30:44Z</time>
      </trkpt>
      <trkpt lat="48.48623" lon="7.01733">
        <ele>360.12</ele>
        <time>2013-08-11T12:30:47Z</time>
      </trkpt>
      <trkpt lat="48.48626" lon="7.01706">
        <ele>359.58</ele>
        <time>2013-08-11T12:30:50Z</time>
      </trkpt>
      <trkpt lat="48.48623" lon="7.01675">
        <ele>358.95</ele>
        <time>2013-08-11T12:30:54Z</time>
      </trkpt>
      <trkpt lat="48.48604" lon="7.01671">
        <ele>358.56</ele>
        <time>2013-08-11T12:30:58Z</time>
      </trkpt>
      <trkpt lat="48.48584" lon="7.01681">
        <ele>358.25</ele>
        <time>2013-08-11T12:31:02Z</time>
      </trkpt>
      <trkpt lat="48.48564" lon="7.01691">
        <ele>358.42</ele>
        <time>2013-08-11T12:31:06Z</time>
      </trkpt>
      <trkpt lat="48.48546" lon="7.01676">
        <ele>358.71</ele>
        <time>2013-08-11T12:31:11Z</time>
      </trkpt>
      <trkpt lat="48.48546" lon="7.01646">
        <ele>358.09</ele>
        <time>2013-08-11T12:31:16Z</time>
      </trkpt>
      <trkpt lat="48.4855" lon="7.01618">
        <ele>356.89</ele>
        <time>2013-08-11T12:31:21Z</time>
      </trkpt>
      <trkpt lat="48.4855" lon="7.01586">
        <ele>355.66</ele>
        <time>2013-08-11T12:31:27Z</time>
      </trkpt>
      <trkpt lat="48.48547" lon="7.01559">
        <ele>355.31</ele>
        <time>2013-08-11T12:31:31Z</time>
      </trkpt>
      <trkpt lat="48.48539" lon="7.01531">
        <ele>354.91</ele>
        <time>2013-08-11T12:31:35Z</time>
      </trkpt>
      <trkpt lat="48.48526" lon="7.01505">
        <ele>354.45</ele>
        <time>2013-08-11T12:31:39Z</time>
      </trkpt>
      <trkpt lat="48.48509" lon="7.01481">
        <ele>353.85</ele>
        <time>2013-08-11T12:31:43Z</time>
      </trkpt>
      <trkpt lat="48.48491" lon="7.01463">
        <ele>353.6</ele>
        <time>2013-08-11T12:31:47Z</time>
      </trkpt>
      <trkpt lat="48.48474" lon="7.01444">
        <ele>353.05</ele>
        <time>2013-08-11T12:31:51Z</time>
      </trkpt>
      <trkpt lat="48.48459" lon="7.01422">
        <ele>352.26</ele>
        <time>2013-08-11T12:31:55Z</time>
      </trkpt>
      <trkpt lat="48.48445" lon="7.01397">
        <ele>351.34</ele>
        <time>2013-08-11T12:31:59Z</time>
      </trkpt>
      <trkpt lat="48.4843" lon="7.01372">
        <ele>350.71</ele>
        <time>2013-08-11T12:32:03Z</time>
      </trkpt>
      <trkpt lat="48.48414" lon="7.01345">
        <ele>350.36</ele>
        <time>2013-08-11T12:32:07Z</time>
      </trkpt>
      <trkpt lat="48.48399" lon="7.01321">
        <ele>350.55</ele>
        <time>2013-08-11T12:32:11Z</time>
      </trkpt>
      <trkpt lat="48.48385" lon="7.01297">
        <ele>350.67</ele>
        <time>2013-08-11T12:32:15Z</time>
      </trkpt>
      <trkpt lat="48.48371" lon="7.01273">
        <ele>350.89</ele>
        <time>2013-08-11T12:32:19Z</time>
      </trkpt>
      <trkpt lat="48.48359" lon="7.01249">
        <ele>351.19</ele>
        <time>2013-08-11T12:32:23Z</time>
      </trkpt>
      <trkpt lat="48.48351" lon="7.01221">
        <ele>351.04</ele>
        <time>2013-08-11T12:32:28Z</time>
      </trkpt>
      <trkpt lat="48.48344" lon="7.01196">
        <ele>349.76</ele>
        <time>2013-08-11T12:32:33Z</time>
      </trkpt>
      <trkpt lat="48.48337" lon="7.01165">
        <ele>349.5</ele>
        <time>2013-08-11T12:32:39Z</time>
      </trkpt>
      <trkpt lat="48.48331" lon="7.01139">
        <ele>349.98</ele>
        <time>2013-08-11T12:32:45Z</time>
      </trkpt>
      <trkpt lat="48.4833" lon="7.01111">
        <ele>350.46</ele>
        <time>2013-08-11T12:32:54Z</time>
      </trkpt>
      <trkpt lat="48.48323" lon="7.01083">
        <ele>350.54</ele>
        <time>2013-08-11T12:33:02Z</time>
      </trkpt>
      <trkpt lat="48.48308" lon="7.01063">
        <ele>350.3</ele>
        <time>2013-08-11T12:33:08Z</time>
      </trkpt>
      <trkpt lat="48.48293" lon="7.01044">
        <ele>349.77</ele>
        <time>2013-08-11T12:33:13Z</time>
      </trkpt>
      <trkpt lat="48.48275" lon="7.01033">
        <ele>349.49</ele>
        <time>2013-08-11T12:33:18Z</time>
      </trkpt>
      <trkpt lat="48.48254" lon="7.01027">
        <ele>349.07</ele>
        <time>2013-08-11T12:33:23Z</time>
      </trkpt>
      <trkpt lat="48.48232" lon="7.01022">
        <ele>348.58</ele>
        <time>2013-08-11T12:33:28Z</time>
      </trkpt>
      <trkpt lat="48.48211" lon="7.01019">
        <ele>348.79</ele>
        <time>2013-08-11T12:33:33Z</time>
      </trkpt>
      <trkpt lat="48.4819" lon="7.01011">
        <ele>349.32</ele>
        <time>2013-08-11T12:33:39Z</time>
      </trkpt>
      <trkpt lat="48.48174" lon="7.00996">
        <ele>349.69</ele>
        <time>2013-08-11T12:33:44Z</time>
      </trkpt>
      <trkpt lat="48.48157" lon="7.00978">
        <ele>350.35</ele>
        <time>2013-08-11T12:33:49Z</time>
      </trkpt>
      <trkpt lat="48.48143" lon="7.00957">
        <ele>351.52</ele>
        <time>2013-08-11T12:33:56Z</time>
      </trkpt>
      <trkpt lat="48.48156" lon="7.00982">
        <ele>352.48</ele>
        <time>2013-08-11T12:34:18Z</time>
      </trkpt>
      <trkpt lat="48.48172" lon="7.01">
        <ele>352.18</ele>
        <time>2013-08-11T12:34:23Z</time>
      </trkpt>
      <trkpt lat="48.48188" lon="7.01014">
        <ele>351.68</ele>
        <time>2013-08-11T12:34:28Z</time>
      </trkpt>
      <trkpt lat="48.48206" lon="7.01022">
        <ele>350.4</ele>
        <time>2013-08-11T12:34:33Z</time>
      </trkpt>
      <trkpt lat="48.48224" lon="7.01025">
        <ele>349.5</ele>
        <time>2013-08-11T12:34:38Z</time>
      </trkpt>
      <trkpt lat="48.48243" lon="7.0103">
        <ele>349.33</ele>
        <time>2013-08-11T12:34:43Z</time>
      </trkpt>
      <trkpt lat="48.48265" lon="7.01035">
        <ele>349.6</ele>
        <time>2013-08-11T12:34:48Z</time>
      </trkpt>
      <trkpt lat="48.48284" lon="7.01039">
        <ele>349.86</ele>
        <time>2013-08-11T12:34:53Z</time>
      </trkpt>
      <trkpt lat="48.48302" lon="7.01056">
        <ele>349.26</ele>
        <time>2013-08-11T12:34:58Z</time>
      </trkpt>
      <trkpt lat="48.48315" lon="7.01074">
        <ele>349.12</ele>
        <time>2013-08-11T12:35:02Z</time>
      </trkpt>
      <trkpt lat="48.48325" lon="7.01098">
        <ele>349.3</ele>
        <time>2013-08-11T12:35:07Z</time>
      </trkpt>
      <trkpt lat="48.48339" lon="7.01116">
        <ele>349.17</ele>
        <time>2013-08-11T12:35:16Z</time>
      </trkpt>
      <trkpt lat="48.48357" lon="7.011">
        <ele>349.04</ele>
        <time>2013-08-11T12:35:23Z</time>
      </trkpt>
      <trkpt lat="48.48373" lon="7.01078">
        <ele>349.75</ele>
        <time>2013-08-11T12:35:28Z</time>
      </trkpt>
      <trkpt lat="48.48387" lon="7.01055">
        <ele>350.16</ele>
        <time>2013-08-11T12:35:33Z</time>
      </trkpt>
      <trkpt lat="48.48402" lon="7.01023">
        <ele>351.07</ele>
        <time>2013-08-11T12:36:45Z</time>
      </trkpt>
      <trkpt lat="48.48416" lon="7.01007">
        <ele>352.73</ele>
        <time>2013-08-11T12:36:53Z</time>
      </trkpt>
      <trkpt lat="48.4843" lon="7.00985">
        <ele>352.79</ele>
        <time>2013-08-11T12:37:01Z</time>
      </trkpt>
      <trkpt lat="48.48439" lon="7.00956">
        <ele>353.56</ele>
        <time>2013-08-11T12:37:08Z</time>
      </trkpt>
      <trkpt lat="48.48443" lon="7.00926">
        <ele>353.74</ele>
        <time>2013-08-11T12:37:14Z</time>
      </trkpt>
      <trkpt lat="48.48448" lon="7.00898">
        <ele>353.7</ele>
        <time>2013-08-11T12:37:19Z</time>
      </trkpt>
      <trkpt lat="48.48452" lon="7.00869">
        <ele>353.79</ele>
        <time>2013-08-11T12:37:24Z</time>
      </trkpt>
      <trkpt lat="48.48458" lon="7.00842">
        <ele>354.1</ele>
        <time>2013-08-11T12:37:29Z</time>
      </trkpt>
      <trkpt lat="48.48464" lon="7.00814">
        <ele>354.15</ele>
        <time>2013-08-11T12:37:36Z</time>
      </trkpt>
      <trkpt lat="48.48472" lon="7.0079">
        <ele>354.09</ele>
        <time>2013-08-11T12:37:41Z</time>
      </trkpt>
      <trkpt lat="48.4848" lon="7.00764">
        <ele>353.99</ele>
        <time>2013-08-11T12:37:47Z</time>
      </trkpt>
      <trkpt lat="48.48486" lon="7.00736">
        <ele>355.21</ele>
        <time>2013-08-11T12:37:53Z</time>
      </trkpt>
      <trkpt lat="48.48487" lon="7.00708">
        <ele>355.51</ele>
        <time>2013-08-11T12:38:00Z</time>
      </trkpt>
      <trkpt lat="48.48486" lon="7.00678">
        <ele>355.24</ele>
        <time>2013-08-11T12:38:08Z</time>
      </trkpt>
      <trkpt lat="48.48482" lon="7.00646">
        <ele>354.49</ele>
        <time>2013-08-11T12:38:14Z</time>
      </trkpt>
      <trkpt lat="48.48478" lon="7.00616">
        <ele>353.78</ele>
        <time>2013-08-11T12:38:19Z</time>
      </trkpt>
      <trkpt lat="48.48474" lon="7.00587">
        <ele>353.48</ele>
        <time>2013-08-11T12:38:25Z</time>
      </trkpt>
      <trkpt lat="48.48471" lon="7.00555">
        <ele>353.53</ele>
        <time>2013-08-11T12:38:31Z</time>
      </trkpt>
      <trkpt lat="48.48464" lon="7.00528">
        <ele>354.88</ele>
        <time>2013-08-11T12:38:37Z</time>
      </trkpt>
      <trkpt lat="48.48462" lon="7.005">
        <ele>355.19</ele>
        <time>2013-08-11T12:38:42Z</time>
      </trkpt>
      <trkpt lat="48.48458" lon="7.00472">
        <ele>355.98</ele>
        <time>2013-08-11T12:38:48Z</time>
      </trkpt>
      <trkpt lat="48.48457" lon="7.00443">
        <ele>356.57</ele>
        <time>2013-08-11T12:38:54Z</time>
      </trkpt>
      <trkpt lat="48.48456" lon="7.00414">
        <ele>356.97</ele>
        <time>2013-08-11T12:39:00Z</time>
      </trkpt>
      <trkpt lat="48.48454" lon="7.00383">
        <ele>357.34</ele>
        <time>2013-08-11T12:39:06Z</time>
      </trkpt>
      <trkpt lat="48.48453" lon="7.00353">
        <ele>357.55</ele>
        <time>2013-08-11T12:39:12Z</time>
      </trkpt>
      <trkpt lat="48.48451" lon="7.00321">
        <ele>357.11</ele>
        <time>2013-08-11T12:39:17Z</time>
      </trkpt>
      <trkpt lat="48.48448" lon="7.00291">
        <ele>356.15</ele>
        <time>2013-08-11T12:39:22Z</time>
      </trkpt>
      <trkpt lat="48.48445" lon="7.0026">
        <ele>355.87</ele>
        <time>2013-08-11T12:39:27Z</time>
      </trkpt>
      <trkpt lat="48.48441" lon="7.00229">
        <ele>355.87</ele>
        <time>2013-08-11T12:39:33Z</time>
      </trkpt>
      <trkpt lat="48.48437" lon="7.00197">
        <ele>356.03</ele>
        <time>2013-08-11T12:39:39Z</time>
      </trkpt>
      <trkpt lat="48.48433" lon="7.00164">
        <ele>356.2</ele>
        <time>2013-08-11T12:39:44Z</time>
      </trkpt>
      <trkpt lat="48.4843" lon="7.00137">
        <ele>356.32</ele>
        <time>2013-08-11T12:39:48Z</time>
      </trkpt>
      <trkpt lat="48.48426" lon="7.0011">
        <ele>356.41</ele>
        <time>2013-08-11T12:39:52Z</time>
      </trkpt>
      <trkpt lat="48.48421" lon="7.0008">
        <ele>356.49</ele>
        <time>2013-08-11T12:39:56Z</time>
      </trkpt>
      <trkpt lat="48.48416" lon="7.00053">
        <ele>356.44</ele>
        <time>2013-08-11T12:40:00Z</time>
      </trkpt>
      <trkpt lat="48.48404" lon="7.00028">
        <ele>356.54</ele>
        <time>2013-08-11T12:40:04Z</time>
      </trkpt>
      <trkpt lat="48.48395" lon="7.00004">
        <ele>356.97</ele>
        <time>2013-08-11T12:40:07Z</time>
      </trkpt>
      <trkpt lat="48.48386" lon="6.99978">
        <ele>357.44</ele>
        <time>2013-08-11T12:40:10Z</time>
      </trkpt>
      <trkpt lat="48.48379" lon="6.99946">
        <ele>357.58</ele>
        <time>2013-08-11T12:40:14Z</time>
      </trkpt>
      <trkpt lat="48.48365" lon="6.99924">
        <ele>357.52</ele>
        <time>2013-08-11T12:40:18Z</time>
      </trkpt>
      <trkpt lat="48.48344" lon="6.99908">
        <ele>357.05</ele>
        <time>2013-08-11T12:40:22Z</time>
      </trkpt>
      <trkpt lat="48.48328" lon="6.99894">
        <ele>356.88</ele>
        <time>2013-08-11T12:40:25Z</time>
      </trkpt>
      <trkpt lat="48.48311" lon="6.99879">
        <ele>355.91</ele>
        <time>2013-08-11T12:40:28Z</time>
      </trkpt>
      <trkpt lat="48.48296" lon="6.99859">
        <ele>355.14</ele>
        <time>2013-08-11T12:40:31Z</time>
      </trkpt>
      <trkpt lat="48.4828" lon="6.99837">
        <ele>354.57</ele>
        <time>2013-08-11T12:40:35Z</time>
      </trkpt>
      <trkpt lat="48.48268" lon="6.99809">
        <ele>354.26</ele>
        <time>2013-08-11T12:40:40Z</time>
      </trkpt>
      <trkpt lat="48.48261" lon="6.99782">
        <ele>354.47</ele>
        <time>2013-08-11T12:40:44Z</time>
      </trkpt>
      <trkpt lat="48.48257" lon="6.99755">
        <ele>354.84</ele>
        <time>2013-08-11T12:40:48Z</time>
      </trkpt>
      <trkpt lat="48.48257" lon="6.99728">
        <ele>355.38</ele>
        <time>2013-08-11T12:40:52Z</time>
      </trkpt>
      <trkpt lat="48.4826" lon="6.99698">
        <ele>355.76</ele>
        <time>2013-08-11T12:40:56Z</time>
      </trkpt>
      <trkpt lat="48.48266" lon="6.99666">
        <ele>355.64</ele>
        <time>2013-08-11T12:41:00Z</time>
      </trkpt>
      <trkpt lat="48.48274" lon="6.99639">
        <ele>355.75</ele>
        <time>2013-08-11T12:41:05Z</time>
      </trkpt>
      <trkpt lat="48.48274" lon="6.99611">
        <ele>357.36</ele>
        <time>2013-08-11T12:41:14Z</time>
      </trkpt>
      <trkpt lat="48.48278" lon="6.99584">
        <ele>357.65</ele>
        <time>2013-08-11T12:41:19Z</time>
      </trkpt>
      <trkpt lat="48.48284" lon="6.99555">
        <ele>357.94</ele>
        <time>2013-08-11T12:41:23Z</time>
      </trkpt>
      <trkpt lat="48.48291" lon="6.99529">
        <ele>357.93</ele>
        <time>2013-08-11T12:41:26Z</time>
      </trkpt>
      <trkpt lat="48.48301" lon="6.99504">
        <ele>357.83</ele>
        <time>2013-08-11T12:41:29Z</time>
      </trkpt>
      <trkpt lat="48.48312" lon="6.99477">
        <ele>357.75</ele>
        <time>2013-08-11T12:41:32Z</time>
      </trkpt>
      <trkpt lat="48.48314" lon="6.99446">
        <ele>357.66</ele>
        <time>2013-08-11T12:41:35Z</time>
      </trkpt>
      <trkpt lat="48.48302" lon="6.99415">
        <ele>357.24</ele>
        <time>2013-08-11T12:41:38Z</time>
      </trkpt>
      <trkpt lat="48.48288" lon="6.99383">
        <ele>356.68</ele>
        <time>2013-08-11T12:41:41Z</time>
      </trkpt>
      <trkpt lat="48.48275" lon="6.9935">
        <ele>356.25</ele>
        <time>2013-08-11T12:41:44Z</time>
      </trkpt>
      <trkpt lat="48.48264" lon="6.99314">
        <ele>355.94</ele>
        <time>2013-08-11T12:41:47Z</time>
      </trkpt>
      <trkpt lat="48.4825" lon="6.9928">
        <ele>355.67</ele>
        <time>2013-08-11T12:41:50Z</time>
      </trkpt>
      <trkpt lat="48.4824" lon="6.99256">
        <ele>355.55</ele>
        <time>2013-08-11T12:41:52Z</time>
      </trkpt>
      <trkpt lat="48.48233" lon="6.99231">
        <ele>355.03</ele>
        <time>2013-08-11T12:41:54Z</time>
      </trkpt>
      <trkpt lat="48.48225" lon="6.99206">
        <ele>354.34</ele>
        <time>2013-08-11T12:41:56Z</time>
      </trkpt>
      <trkpt lat="48.48215" lon="6.99169">
        <ele>353.09</ele>
        <time>2013-08-11T12:41:59Z</time>
      </trkpt>
      <trkpt lat="48.48208" lon="6.99134">
        <ele>351.74</ele>
        <time>2013-08-11T12:42:02Z</time>
      </trkpt>
      <trkpt lat="48.48203" lon="6.99101">
        <ele>350.75</ele>
        <time>2013-08-11T12:42:05Z</time>
      </trkpt>
      <trkpt lat="48.48198" lon="6.99071">
        <ele>350.34</ele>
        <time>2013-08-11T12:42:08Z</time>
      </trkpt>
      <trkpt lat="48.48191" lon="6.99045">
        <ele>350.34</ele>
        <time>2013-08-11T12:42:11Z</time>
      </trkpt>
      <trkpt lat="48.48183" lon="6.99019">
        <ele>351.59</ele>
        <time>2013-08-11T12:42:14Z</time>
      </trkpt>
      <trkpt lat="48.48176" lon="6.98991">
        <ele>352.93</ele>
        <time>2013-08-11T12:42:17Z</time>
      </trkpt>
      <trkpt lat="48.48168" lon="6.98966">
        <ele>353.71</ele>
        <time>2013-08-11T12:42:20Z</time>
      </trkpt>
      <trkpt lat="48.48164" lon="6.98938">
        <ele>353.56</ele>
        <time>2013-08-11T12:42:23Z</time>
      </trkpt>
      <trkpt lat="48.48159" lon="6.98912">
        <ele>353.09</ele>
        <time>2013-08-11T12:42:26Z</time>
      </trkpt>
      <trkpt lat="48.48152" lon="6.98887">
        <ele>353.61</ele>
        <time>2013-08-11T12:42:29Z</time>
      </trkpt>
      <trkpt lat="48.48141" lon="6.98856">
        <ele>354.68</ele>
        <time>2013-08-11T12:42:33Z</time>
      </trkpt>
      <trkpt lat="48.48125" lon="6.9883">
        <ele>355.14</ele>
        <time>2013-08-11T12:42:37Z</time>
      </trkpt>
      <trkpt lat="48.4811" lon="6.98803">
        <ele>355.18</ele>
        <time>2013-08-11T12:42:41Z</time>
      </trkpt>
      <trkpt lat="48.48102" lon="6.98778">
        <ele>355.94</ele>
        <time>2013-08-11T12:42:44Z</time>
      </trkpt>
      <trkpt lat="48.48098" lon="6.9875">
        <ele>357.07</ele>
        <time>2013-08-11T12:42:47Z</time>
      </trkpt>
      <trkpt lat="48.48095" lon="6.98722">
        <ele>358.58</ele>
        <time>2013-08-11T12:42:50Z</time>
      </trkpt>
      <trkpt lat="48.48092" lon="6.98693">
        <ele>360.17</ele>
        <time>2013-08-11T12:42:53Z</time>
      </trkpt>
      <trkpt lat="48.48091" lon="6.98664">
        <ele>361.28</ele>
        <time>2013-08-11T12:42:56Z</time>
      </trkpt>
      <trkpt lat="48.48088" lon="6.98636">
        <ele>362.59</ele>
        <time>2013-08-11T12:42:59Z</time>
      </trkpt>
      <trkpt lat="48.48082" lon="6.98602">
        <ele>364.9</ele>
        <time>2013-08-11T12:43:03Z</time>
      </trkpt>
      <trkpt lat="48.47965" lon="6.9829">
        <ele>353.39</ele>
        <time>2013-08-11T12:51:35Z</time>
      </trkpt>
      <trkpt lat="48.47961" lon="6.98261">
        <ele>354.13</ele>
        <time>2013-08-11T12:51:43Z</time>
      </trkpt>
      <trkpt lat="48.47956" lon="6.98227">
        <ele>355.05</ele>
        <time>2013-08-11T12:51:49Z</time>
      </trkpt>
      <trkpt lat="48.47951" lon="6.98201">
        <ele>356.12</ele>
        <time>2013-08-11T12:51:53Z</time>
      </trkpt>
      <trkpt lat="48.47946" lon="6.98169">
        <ele>354.65</ele>
        <time>2013-08-11T12:51:58Z</time>
      </trkpt>
      <trkpt lat="48.47939" lon="6.98139">
        <ele>352.62</ele>
        <time>2013-08-11T12:52:02Z</time>
      </trkpt>
      <trkpt lat="48.47917" lon="6.98131">
        <ele>350.25</ele>
        <time>2013-08-11T12:52:06Z</time>
      </trkpt>
      <trkpt lat="48.47899" lon="6.98133">
        <ele>348.52</ele>
        <time>2013-08-11T12:52:09Z</time>
      </trkpt>
      <trkpt lat="48.47877" lon="6.9814">
        <ele>346.99</ele>
        <time>2013-08-11T12:52:13Z</time>
      </trkpt>
      <trkpt lat="48.47859" lon="6.98153">
        <ele>344.3</ele>
        <time>2013-08-11T12:52:17Z</time>
      </trkpt>
      <trkpt lat="48.47842" lon="6.9816">
        <ele>342.67</ele>
        <time>2013-08-11T12:52:21Z</time>
      </trkpt>
      <trkpt lat="48.4783" lon="6.98139">
        <ele>341.74</ele>
        <time>2013-08-11T12:52:25Z</time>
      </trkpt>
      <trkpt lat="48.47831" lon="6.98109">
        <ele>341.6</ele>
        <time>2013-08-11T12:52:29Z</time>
      </trkpt>
      <trkpt lat="48.47837" lon="6.98078">
        <ele>341.12</ele>
        <time>2013-08-11T12:52:33Z</time>
      </trkpt>
      <trkpt lat="48.47848" lon="6.9805">
        <ele>340.68</ele>
        <time>2013-08-11T12:52:37Z</time>
      </trkpt>
      <trkpt lat="48.47857" lon="6.98021">
        <ele>340.58</ele>
        <time>2013-08-11T12:52:41Z</time>
      </trkpt>
      <trkpt lat="48.47859" lon="6.97988">
        <ele>340.62</ele>
        <time>2013-08-11T12:52:45Z</time>
      </trkpt>
      <trkpt lat="48.4785" lon="6.97963">
        <ele>339.27</ele>
        <time>2013-08-11T12:52:49Z</time>
      </trkpt>
      <trkpt lat="48.47835" lon="6.97945">
        <ele>338.64</ele>
        <time>2013-08-11T12:52:53Z</time>
      </trkpt>
      <trkpt lat="48.47817" lon="6.97932">
        <ele>338.19</ele>
        <time>2013-08-11T12:52:57Z</time>
      </trkpt>
      <trkpt lat="48.47799" lon="6.97922">
        <ele>337.64</ele>
        <time>2013-08-11T12:53:01Z</time>
      </trkpt>
      <trkpt lat="48.47784" lon="6.97901">
        <ele>337.06</ele>
        <time>2013-08-11T12:53:05Z</time>
      </trkpt>
      <trkpt lat="48.47765" lon="6.9789">
        <ele>336.46</ele>
        <time>2013-08-11T12:53:09Z</time>
      </trkpt>
      <trkpt lat="48.47744" lon="6.97888">
        <ele>336.12</ele>
        <time>2013-08-11T12:53:13Z</time>
      </trkpt>
      <trkpt lat="48.47726" lon="6.97877">
        <ele>335.67</ele>
        <time>2013-08-11T12:53:17Z</time>
      </trkpt>
      <trkpt lat="48.47716" lon="6.97851">
        <ele>335.44</ele>
        <time>2013-08-11T12:53:21Z</time>
      </trkpt>
      <trkpt lat="48.477" lon="6.97833">
        <ele>335.18</ele>
        <time>2013-08-11T12:53:25Z</time>
      </trkpt>
      <trkpt lat="48.47681" lon="6.97847">
        <ele>335.31</ele>
        <time>2013-08-11T12:53:31Z</time>
      </trkpt>
      <trkpt lat="48.47666" lon="6.97865">
        <ele>335.69</ele>
        <time>2013-08-11T12:53:36Z</time>
      </trkpt>
      <trkpt lat="48.4765" lon="6.9788">
        <ele>336.27</ele>
        <time>2013-08-11T12:53:41Z</time>
      </trkpt>
      <trkpt lat="48.47638" lon="6.97901">
        <ele>336.53</ele>
        <time>2013-08-11T12:53:47Z</time>
      </trkpt>
      <trkpt lat="48.47654" lon="6.97886">
        <ele>337.69</ele>
        <time>2013-08-11T12:54:19Z</time>
      </trkpt>
      <trkpt lat="48.47676" lon="6.97899">
        <ele>340.14</ele>
        <time>2013-08-11T12:55:26Z</time>
      </trkpt>
      <trkpt lat="48.4766" lon="6.97884">
        <ele>347.38</ele>
        <time>2013-08-11T13:01:07Z</time>
      </trkpt>
      <trkpt lat="48.47643" lon="6.97896">
        <ele>343.92</ele>
        <time>2013-08-11T13:01:39Z</time>
      </trkpt>
      <trkpt lat="48.47629" lon="6.97916">
        <ele>338.83</ele>
        <time>2013-08-11T13:01:48Z</time>
      </trkpt>
      <trkpt lat="48.47608" lon="6.97916">
        <ele>337</ele>
        <time>2013-08-11T13:01:56Z</time>
      </trkpt>
      <trkpt lat="48.4759" lon="6.97907">
        <ele>336.98</ele>
        <time>2013-08-11T13:02:01Z</time>
      </trkpt>
      <trkpt lat="48.4757" lon="6.97897">
        <ele>337.21</ele>
        <time>2013-08-11T13:02:06Z</time>
      </trkpt>
      <trkpt lat="48.47551" lon="6.97885">
        <ele>337.13</ele>
        <time>2013-08-11T13:02:11Z</time>
      </trkpt>
      <trkpt lat="48.47532" lon="6.97873">
        <ele>337.32</ele>
        <time>2013-08-11T13:02:16Z</time>
      </trkpt>
      <trkpt lat="48.47515" lon="6.97852">
        <ele>337.92</ele>
        <time>2013-08-11T13:02:21Z</time>
      </trkpt>
      <trkpt lat="48.47502" lon="6.97832">
        <ele>338.6</ele>
        <time>2013-08-11T13:02:25Z</time>
      </trkpt>
      <trkpt lat="48.47487" lon="6.97814">
        <ele>339.1</ele>
        <time>2013-08-11T13:02:29Z</time>
      </trkpt>
      <trkpt lat="48.47474" lon="6.97794">
        <ele>339.2</ele>
        <time>2013-08-11T13:02:33Z</time>
      </trkpt>
      <trkpt lat="48.47462" lon="6.97772">
        <ele>339.09</ele>
        <time>2013-08-11T13:02:37Z</time>
      </trkpt>
      <trkpt lat="48.47447" lon="6.97756">
        <ele>338.94</ele>
        <time>2013-08-11T13:02:41Z</time>
      </trkpt>
      <trkpt lat="48.47429" lon="6.97744">
        <ele>338.7</ele>
        <time>2013-08-11T13:02:45Z</time>
      </trkpt>
      <trkpt lat="48.47411" lon="6.97731">
        <ele>338.67</ele>
        <time>2013-08-11T13:02:49Z</time>
      </trkpt>
      <trkpt lat="48.47395" lon="6.97716">
        <ele>338.63</ele>
        <time>2013-08-11T13:02:53Z</time>
      </trkpt>
      <trkpt lat="48.47379" lon="6.97698">
        <ele>338.82</ele>
        <time>2013-08-11T13:02:58Z</time>
      </trkpt>
      <trkpt lat="48.47364" lon="6.97678">
        <ele>339.04</ele>
        <time>2013-08-11T13:03:03Z</time>
      </trkpt>
      <trkpt lat="48.47349" lon="6.97659">
        <ele>338.74</ele>
        <time>2013-08-11T13:03:08Z</time>
      </trkpt>
      <trkpt lat="48.47334" lon="6.97639">
        <ele>338.38</ele>
        <time>2013-08-11T13:03:13Z</time>
      </trkpt>
      <trkpt lat="48.47316" lon="6.97628">
        <ele>338.49</ele>
        <time>2013-08-11T13:03:19Z</time>
      </trkpt>
      <trkpt lat="48.47301" lon="6.97609">
        <ele>338.95</ele>
        <time>2013-08-11T13:03:28Z</time>
      </trkpt>
      <trkpt lat="48.47283" lon="6.97604">
        <ele>339.75</ele>
        <time>2013-08-11T13:03:40Z</time>
      </trkpt>
      <trkpt lat="48.47272" lon="6.97581">
        <ele>340.92</ele>
        <time>2013-08-11T13:03:53Z</time>
      </trkpt>
      <trkpt lat="48.47259" lon="6.97559">
        <ele>343.37</ele>
        <time>2013-08-11T13:04:02Z</time>
      </trkpt>
      <trkpt lat="48.47245" lon="6.97536">
        <ele>344.71</ele>
        <time>2013-08-11T13:04:11Z</time>
      </trkpt>
      <trkpt lat="48.47232" lon="6.97513">
        <ele>344.69</ele>
        <time>2013-08-11T13:04:16Z</time>
      </trkpt>
      <trkpt lat="48.4722" lon="6.97491">
        <ele>345.66</ele>
        <time>2013-08-11T13:04:21Z</time>
      </trkpt>
      <trkpt lat="48.47206" lon="6.97469">
        <ele>346.68</ele>
        <time>2013-08-11T13:04:27Z</time>
      </trkpt>
      <trkpt lat="48.47191" lon="6.97449">
        <ele>346.79</ele>
        <time>2013-08-11T13:04:33Z</time>
      </trkpt>
      <trkpt lat="48.47178" lon="6.97424">
        <ele>346.87</ele>
        <time>2013-08-11T13:04:38Z</time>
      </trkpt>
      <trkpt lat="48.47162" lon="6.97402">
        <ele>346.93</ele>
        <time>2013-08-11T13:04:43Z</time>
      </trkpt>
      <trkpt lat="48.47149" lon="6.97374">
        <ele>347.21</ele>
        <time>2013-08-11T13:04:48Z</time>
      </trkpt>
      <trkpt lat="48.47137" lon="6.97353">
        <ele>347.48</ele>
        <time>2013-08-11T13:04:52Z</time>
      </trkpt>
      <trkpt lat="48.47123" lon="6.97331">
        <ele>347.52</ele>
        <time>2013-08-11T13:04:56Z</time>
      </trkpt>
      <trkpt lat="48.47109" lon="6.97309">
        <ele>348.53</ele>
        <time>2013-08-11T13:05:01Z</time>
      </trkpt>
      <trkpt lat="48.47096" lon="6.97285">
        <ele>349.81</ele>
        <time>2013-08-11T13:05:07Z</time>
      </trkpt>
      <trkpt lat="48.47082" lon="6.97261">
        <ele>350.73</ele>
        <time>2013-08-11T13:05:12Z</time>
      </trkpt>
      <trkpt lat="48.47067" lon="6.97243">
        <ele>351.7</ele>
        <time>2013-08-11T13:05:16Z</time>
      </trkpt>
      <trkpt lat="48.47052" lon="6.97227">
        <ele>352.9</ele>
        <time>2013-08-11T13:05:20Z</time>
      </trkpt>
      <trkpt lat="48.47033" lon="6.97222">
        <ele>353.6</ele>
        <time>2013-08-11T13:05:24Z</time>
      </trkpt>
      <trkpt lat="48.4701" lon="6.97223">
        <ele>354.02</ele>
        <time>2013-08-11T13:05:28Z</time>
      </trkpt>
      <trkpt lat="48.46991" lon="6.97228">
        <ele>354.22</ele>
        <time>2013-08-11T13:05:32Z</time>
      </trkpt>
      <trkpt lat="48.46971" lon="6.97236">
        <ele>354.14</ele>
        <time>2013-08-11T13:05:36Z</time>
      </trkpt>
      <trkpt lat="48.46952" lon="6.97239">
        <ele>353.54</ele>
        <time>2013-08-11T13:05:40Z</time>
      </trkpt>
      <trkpt lat="48.46933" lon="6.97236">
        <ele>352.81</ele>
        <time>2013-08-11T13:05:44Z</time>
      </trkpt>
      <trkpt lat="48.46915" lon="6.97229">
        <ele>352.44</ele>
        <time>2013-08-11T13:05:48Z</time>
      </trkpt>
      <trkpt lat="48.46895" lon="6.97217">
        <ele>352.16</ele>
        <time>2013-08-11T13:05:53Z</time>
      </trkpt>
      <trkpt lat="48.46877" lon="6.97211">
        <ele>350.96</ele>
        <time>2013-08-11T13:05:59Z</time>
      </trkpt>
      <trkpt lat="48.46885" lon="6.97186">
        <ele>336.99</ele>
        <time>2013-08-11T13:09:21Z</time>
      </trkpt>
      <trkpt lat="48.46872" lon="6.97165">
        <ele>337.35</ele>
        <time>2013-08-11T13:09:42Z</time>
      </trkpt>
      <trkpt lat="48.46867" lon="6.97139">
        <ele>337.67</ele>
        <time>2013-08-11T13:10:03Z</time>
      </trkpt>
      <trkpt lat="48.46869" lon="6.97166">
        <ele>338.8</ele>
        <time>2013-08-11T13:10:40Z</time>
      </trkpt>
      <trkpt lat="48.46878" lon="6.97191">
        <ele>336.61</ele>
        <time>2013-08-11T13:18:23Z</time>
      </trkpt>
      <trkpt lat="48.46872" lon="6.97164">
        <ele>334.53</ele>
        <time>2013-08-11T13:37:50Z</time>
      </trkpt>
      <trkpt lat="48.46868" lon="6.97191">
        <ele>336.56</ele>
        <time>2013-08-11T13:44:11Z</time>
      </trkpt>
      <trkpt lat="48.46848" lon="6.97199">
        <ele>336.22</ele>
        <time>2013-08-11T13:44:37Z</time>
      </trkpt>
      <trkpt lat="48.46828" lon="6.97193">
        <ele>336.51</ele>
        <time>2013-08-11T13:44:44Z</time>
      </trkpt>
      <trkpt lat="48.4681" lon="6.97189">
        <ele>336.55</ele>
        <time>2013-08-11T13:44:51Z</time>
      </trkpt>
      <trkpt lat="48.4679" lon="6.97185">
        <ele>336.69</ele>
        <time>2013-08-11T13:44:58Z</time>
      </trkpt>
      <trkpt lat="48.46771" lon="6.9718">
        <ele>337.45</ele>
        <time>2013-08-11T13:45:04Z</time>
      </trkpt>
      <trkpt lat="48.46752" lon="6.97177">
        <ele>337.73</ele>
        <time>2013-08-11T13:45:11Z</time>
      </trkpt>
      <trkpt lat="48.46732" lon="6.97173">
        <ele>338.47</ele>
        <time>2013-08-11T13:45:17Z</time>
      </trkpt>
      <trkpt lat="48.46714" lon="6.97169">
        <ele>339.06</ele>
        <time>2013-08-11T13:45:23Z</time>
      </trkpt>
      <trkpt lat="48.46693" lon="6.97163">
        <ele>339.73</ele>
        <time>2013-08-11T13:45:28Z</time>
      </trkpt>
      <trkpt lat="48.46674" lon="6.97157">
        <ele>340.7</ele>
        <time>2013-08-11T13:45:33Z</time>
      </trkpt>
      <trkpt lat="48.46655" lon="6.97151">
        <ele>342.05</ele>
        <time>2013-08-11T13:45:40Z</time>
      </trkpt>
      <trkpt lat="48.46636" lon="6.97149">
        <ele>343.09</ele>
        <time>2013-08-11T13:45:46Z</time>
      </trkpt>
      <trkpt lat="48.46618" lon="6.97144">
        <ele>343.2</ele>
        <time>2013-08-11T13:45:53Z</time>
      </trkpt>
      <trkpt lat="48.46599" lon="6.97132">
        <ele>343.31</ele>
        <time>2013-08-11T13:45:58Z</time>
      </trkpt>
      <trkpt lat="48.46578" lon="6.9712">
        <ele>343.34</ele>
        <time>2013-08-11T13:46:02Z</time>
      </trkpt>
      <trkpt lat="48.46559" lon="6.9711">
        <ele>342.76</ele>
        <time>2013-08-11T13:46:05Z</time>
      </trkpt>
      <trkpt lat="48.46542" lon="6.97092">
        <ele>341.92</ele>
        <time>2013-08-11T13:46:08Z</time>
      </trkpt>
      <trkpt lat="48.46526" lon="6.97072">
        <ele>341.14</ele>
        <time>2013-08-11T13:46:11Z</time>
      </trkpt>
      <trkpt lat="48.46511" lon="6.97051">
        <ele>340.39</ele>
        <time>2013-08-11T13:46:14Z</time>
      </trkpt>
      <trkpt lat="48.46498" lon="6.97031">
        <ele>339.91</ele>
        <time>2013-08-11T13:46:17Z</time>
      </trkpt>
      <trkpt lat="48.4648" lon="6.97009">
        <ele>339.45</ele>
        <time>2013-08-11T13:46:21Z</time>
      </trkpt>
      <trkpt lat="48.46466" lon="6.96992">
        <ele>339.22</ele>
        <time>2013-08-11T13:46:25Z</time>
      </trkpt>
      <trkpt lat="48.46448" lon="6.96977">
        <ele>340.17</ele>
        <time>2013-08-11T13:46:32Z</time>
      </trkpt>
      <trkpt lat="48.46429" lon="6.96963">
        <ele>340.78</ele>
        <time>2013-08-11T13:46:38Z</time>
      </trkpt>
      <trkpt lat="48.46414" lon="6.96949">
        <ele>340.98</ele>
        <time>2013-08-11T13:46:43Z</time>
      </trkpt>
      <trkpt lat="48.46399" lon="6.96932">
        <ele>341.17</ele>
        <time>2013-08-11T13:46:48Z</time>
      </trkpt>
      <trkpt lat="48.46384" lon="6.96909">
        <ele>341.49</ele>
        <time>2013-08-11T13:46:53Z</time>
      </trkpt>
      <trkpt lat="48.46372" lon="6.96884">
        <ele>341.77</ele>
        <time>2013-08-11T13:46:58Z</time>
      </trkpt>
      <trkpt lat="48.46362" lon="6.96861">
        <ele>342.03</ele>
        <time>2013-08-11T13:47:02Z</time>
      </trkpt>
      <trkpt lat="48.46352" lon="6.96838">
        <ele>342.99</ele>
        <time>2013-08-11T13:47:06Z</time>
      </trkpt>
      <trkpt lat="48.46341" lon="6.96815">
        <ele>344.25</ele>
        <time>2013-08-11T13:47:10Z</time>
      </trkpt>
      <trkpt lat="48.46331" lon="6.96793">
        <ele>345.48</ele>
        <time>2013-08-11T13:47:14Z</time>
      </trkpt>
      <trkpt lat="48.46319" lon="6.96766">
        <ele>346.92</ele>
        <time>2013-08-11T13:47:19Z</time>
      </trkpt>
      <trkpt lat="48.46307" lon="6.96737">
        <ele>348.21</ele>
        <time>2013-08-11T13:47:24Z</time>
      </trkpt>
      <trkpt lat="48.46296" lon="6.9671">
        <ele>349.62</ele>
        <time>2013-08-11T13:47:29Z</time>
      </trkpt>
      <trkpt lat="48.46284" lon="6.96686">
        <ele>350.89</ele>
        <time>2013-08-11T13:47:34Z</time>
      </trkpt>
      <trkpt lat="48.46272" lon="6.96664">
        <ele>351.94</ele>
        <time>2013-08-11T13:47:39Z</time>
      </trkpt>
      <trkpt lat="48.46261" lon="6.96642">
        <ele>352.68</ele>
        <time>2013-08-11T13:47:44Z</time>
      </trkpt>
      <trkpt lat="48.46247" lon="6.96617">
        <ele>353.05</ele>
        <time>2013-08-11T13:47:49Z</time>
      </trkpt>
      <trkpt lat="48.46236" lon="6.96597">
        <ele>353.08</ele>
        <time>2013-08-11T13:47:53Z</time>
      </trkpt>
      <trkpt lat="48.46222" lon="6.96576">
        <ele>352.95</ele>
        <time>2013-08-11T13:47:57Z</time>
      </trkpt>
      <trkpt lat="48.46207" lon="6.96554">
        <ele>352.73</ele>
        <time>2013-08-11T13:48:01Z</time>
      </trkpt>
      <trkpt lat="48.46191" lon="6.96534">
        <ele>352.44</ele>
        <time>2013-08-11T13:48:05Z</time>
      </trkpt>
      <trkpt lat="48.46175" lon="6.96515">
        <ele>352.07</ele>
        <time>2013-08-11T13:48:09Z</time>
      </trkpt>
      <trkpt lat="48.46159" lon="6.96495">
        <ele>351.79</ele>
        <time>2013-08-11T13:48:13Z</time>
      </trkpt>
      <trkpt lat="48.46146" lon="6.96474">
        <ele>351.62</ele>
        <time>2013-08-11T13:48:17Z</time>
      </trkpt>
      <trkpt lat="48.46133" lon="6.96453">
        <ele>351.62</ele>
        <time>2013-08-11T13:48:21Z</time>
      </trkpt>
      <trkpt lat="48.46121" lon="6.96428">
        <ele>351.59</ele>
        <time>2013-08-11T13:48:25Z</time>
      </trkpt>
      <trkpt lat="48.46111" lon="6.96402">
        <ele>351.8</ele>
        <time>2013-08-11T13:48:29Z</time>
      </trkpt>
      <trkpt lat="48.46101" lon="6.96376">
        <ele>352.14</ele>
        <time>2013-08-11T13:48:33Z</time>
      </trkpt>
      <trkpt lat="48.46091" lon="6.96353">
        <ele>352.52</ele>
        <time>2013-08-11T13:48:37Z</time>
      </trkpt>
      <trkpt lat="48.46083" lon="6.96326">
        <ele>352.46</ele>
        <time>2013-08-11T13:48:41Z</time>
      </trkpt>
      <trkpt lat="48.46069" lon="6.96301">
        <ele>351.89</ele>
        <time>2013-08-11T13:48:45Z</time>
      </trkpt>
      <trkpt lat="48.46054" lon="6.96275">
        <ele>351.07</ele>
        <time>2013-08-11T13:48:49Z</time>
      </trkpt>
      <trkpt lat="48.46037" lon="6.9625">
        <ele>350.16</ele>
        <time>2013-08-11T13:48:53Z</time>
      </trkpt>
      <trkpt lat="48.46021" lon="6.96224">
        <ele>349.28</ele>
        <time>2013-08-11T13:48:57Z</time>
      </trkpt>
      <trkpt lat="48.46008" lon="6.96205">
        <ele>348.6</ele>
        <time>2013-08-11T13:49:00Z</time>
      </trkpt>
      <trkpt lat="48.45995" lon="6.96183">
        <ele>347.85</ele>
        <time>2013-08-11T13:49:03Z</time>
      </trkpt>
      <trkpt lat="48.45981" lon="6.96159">
        <ele>347.16</ele>
        <time>2013-08-11T13:49:06Z</time>
      </trkpt>
      <trkpt lat="48.45968" lon="6.9613">
        <ele>346.22</ele>
        <time>2013-08-11T13:49:09Z</time>
      </trkpt>
      <trkpt lat="48.45955" lon="6.96102">
        <ele>345.43</ele>
        <time>2013-08-11T13:49:12Z</time>
      </trkpt>
      <trkpt lat="48.45944" lon="6.96075">
        <ele>344.95</ele>
        <time>2013-08-11T13:49:15Z</time>
      </trkpt>
      <trkpt lat="48.45934" lon="6.96048">
        <ele>344.7</ele>
        <time>2013-08-11T13:49:18Z</time>
      </trkpt>
      <trkpt lat="48.45925" lon="6.96021">
        <ele>344.45</ele>
        <time>2013-08-11T13:49:21Z</time>
      </trkpt>
      <trkpt lat="48.45918" lon="6.95994">
        <ele>343.9</ele>
        <time>2013-08-11T13:49:24Z</time>
      </trkpt>
      <trkpt lat="48.45911" lon="6.95968">
        <ele>343.52</ele>
        <time>2013-08-11T13:49:27Z</time>
      </trkpt>
      <trkpt lat="48.45905" lon="6.95941">
        <ele>342.88</ele>
        <time>2013-08-11T13:49:30Z</time>
      </trkpt>
      <trkpt lat="48.45899" lon="6.95911">
        <ele>342.07</ele>
        <time>2013-08-11T13:49:33Z</time>
      </trkpt>
      <trkpt lat="48.45894" lon="6.9588">
        <ele>341.4</ele>
        <time>2013-08-11T13:49:36Z</time>
      </trkpt>
      <trkpt lat="48.45888" lon="6.9585">
        <ele>340.52</ele>
        <time>2013-08-11T13:49:39Z</time>
      </trkpt>
      <trkpt lat="48.45881" lon="6.95819">
        <ele>339.72</ele>
        <time>2013-08-11T13:49:42Z</time>
      </trkpt>
      <trkpt lat="48.45874" lon="6.95787">
        <ele>338.76</ele>
        <time>2013-08-11T13:49:45Z</time>
      </trkpt>
      <trkpt lat="48.45867" lon="6.95756">
        <ele>337.78</ele>
        <time>2013-08-11T13:49:48Z</time>
      </trkpt>
      <trkpt lat="48.4586" lon="6.95726">
        <ele>336.83</ele>
        <time>2013-08-11T13:49:51Z</time>
      </trkpt>
      <trkpt lat="48.45852" lon="6.95694">
        <ele>335.85</ele>
        <time>2013-08-11T13:49:54Z</time>
      </trkpt>
      <trkpt lat="48.45845" lon="6.95661">
        <ele>334.48</ele>
        <time>2013-08-11T13:49:57Z</time>
      </trkpt>
      <trkpt lat="48.45837" lon="6.95626">
        <ele>333.28</ele>
        <time>2013-08-11T13:50:00Z</time>
      </trkpt>
      <trkpt lat="48.45828" lon="6.95593">
        <ele>331.97</ele>
        <time>2013-08-11T13:50:03Z</time>
      </trkpt>
      <trkpt lat="48.4582" lon="6.95563">
        <ele>330.84</ele>
        <time>2013-08-11T13:50:07Z</time>
      </trkpt>
      <trkpt lat="48.45811" lon="6.95535">
        <ele>330.43</ele>
        <time>2013-08-11T13:50:18Z</time>
      </trkpt>
      <trkpt lat="48.458" lon="6.95508">
        <ele>329.63</ele>
        <time>2013-08-11T13:50:23Z</time>
      </trkpt>
      <trkpt lat="48.45789" lon="6.95484">
        <ele>329.4</ele>
        <time>2013-08-11T13:50:27Z</time>
      </trkpt>
      <trkpt lat="48.45779" lon="6.95457">
        <ele>329.38</ele>
        <time>2013-08-11T13:50:31Z</time>
      </trkpt>
      <trkpt lat="48.45768" lon="6.95429">
        <ele>329.45</ele>
        <time>2013-08-11T13:50:35Z</time>
      </trkpt>
      <trkpt lat="48.45757" lon="6.95403">
        <ele>329.2</ele>
        <time>2013-08-11T13:50:39Z</time>
      </trkpt>
      <trkpt lat="48.45747" lon="6.95376">
        <ele>328.35</ele>
        <time>2013-08-11T13:50:43Z</time>
      </trkpt>
      <trkpt lat="48.45735" lon="6.95348">
        <ele>328.5</ele>
        <time>2013-08-11T13:50:47Z</time>
      </trkpt>
      <trkpt lat="48.45724" lon="6.95318">
        <ele>328.9</ele>
        <time>2013-08-11T13:50:51Z</time>
      </trkpt>
      <trkpt lat="48.45714" lon="6.95288">
        <ele>328.88</ele>
        <time>2013-08-11T13:50:55Z</time>
      </trkpt>
      <trkpt lat="48.45706" lon="6.95263">
        <ele>328.84</ele>
        <time>2013-08-11T13:50:58Z</time>
      </trkpt>
      <trkpt lat="48.45695" lon="6.95233">
        <ele>328.69</ele>
        <time>2013-08-11T13:51:02Z</time>
      </trkpt>
      <trkpt lat="48.45684" lon="6.95203">
        <ele>328.27</ele>
        <time>2013-08-11T13:51:06Z</time>
      </trkpt>
      <trkpt lat="48.45673" lon="6.95174">
        <ele>327.7</ele>
        <time>2013-08-11T13:51:10Z</time>
      </trkpt>
      <trkpt lat="48.45661" lon="6.95143">
        <ele>327.26</ele>
        <time>2013-08-11T13:51:14Z</time>
      </trkpt>
      <trkpt lat="48.45649" lon="6.95114">
        <ele>326.54</ele>
        <time>2013-08-11T13:51:18Z</time>
      </trkpt>
      <trkpt lat="48.45637" lon="6.95086">
        <ele>325.63</ele>
        <time>2013-08-11T13:51:22Z</time>
      </trkpt>
      <trkpt lat="48.45626" lon="6.95059">
        <ele>325.44</ele>
        <time>2013-08-11T13:51:26Z</time>
      </trkpt>
      <trkpt lat="48.45615" lon="6.95034">
        <ele>326.65</ele>
        <time>2013-08-11T13:51:30Z</time>
      </trkpt>
      <trkpt lat="48.45603" lon="6.95012">
        <ele>326.94</ele>
        <time>2013-08-11T13:51:33Z</time>
      </trkpt>
      <trkpt lat="48.45591" lon="6.94989">
        <ele>326.85</ele>
        <time>2013-08-11T13:51:36Z</time>
      </trkpt>
      <trkpt lat="48.4558" lon="6.94966">
        <ele>327.04</ele>
        <time>2013-08-11T13:51:39Z</time>
      </trkpt>
      <trkpt lat="48.45563" lon="6.94945">
        <ele>329.43</ele>
        <time>2013-08-11T13:51:43Z</time>
      </trkpt>
      <trkpt lat="48.45544" lon="6.9494">
        <ele>330.51</ele>
        <time>2013-08-11T13:51:47Z</time>
      </trkpt>
      <trkpt lat="48.45525" lon="6.94954">
        <ele>327.32</ele>
        <time>2013-08-11T13:51:51Z</time>
      </trkpt>
      <trkpt lat="48.45506" lon="6.94967">
        <ele>325.95</ele>
        <time>2013-08-11T13:51:56Z</time>
      </trkpt>
      <trkpt lat="48.45487" lon="6.94977">
        <ele>325.55</ele>
        <time>2013-08-11T13:52:00Z</time>
      </trkpt>
      <trkpt lat="48.45468" lon="6.94991">
        <ele>325.97</ele>
        <time>2013-08-11T13:52:05Z</time>
      </trkpt>
      <trkpt lat="48.45449" lon="6.94989">
        <ele>325.72</ele>
        <time>2013-08-11T13:52:10Z</time>
      </trkpt>
      <trkpt lat="48.45438" lon="6.94967">
        <ele>325.3</ele>
        <time>2013-08-11T13:52:14Z</time>
      </trkpt>
      <trkpt lat="48.45428" lon="6.94943">
        <ele>324.78</ele>
        <time>2013-08-11T13:52:18Z</time>
      </trkpt>
      <trkpt lat="48.45419" lon="6.94917">
        <ele>324.3</ele>
        <time>2013-08-11T13:52:22Z</time>
      </trkpt>
      <trkpt lat="48.4541" lon="6.94888">
        <ele>324.14</ele>
        <time>2013-08-11T13:52:26Z</time>
      </trkpt>
      <trkpt lat="48.454" lon="6.94858">
        <ele>324.2</ele>
        <time>2013-08-11T13:52:30Z</time>
      </trkpt>
      <trkpt lat="48.45391" lon="6.94827">
        <ele>324.24</ele>
        <time>2013-08-11T13:52:34Z</time>
      </trkpt>
      <trkpt lat="48.45382" lon="6.94796">
        <ele>324.26</ele>
        <time>2013-08-11T13:52:38Z</time>
      </trkpt>
      <trkpt lat="48.45374" lon="6.94771">
        <ele>324.04</ele>
        <time>2013-08-11T13:52:41Z</time>
      </trkpt>
      <trkpt lat="48.45366" lon="6.94746">
        <ele>323.93</ele>
        <time>2013-08-11T13:52:44Z</time>
      </trkpt>
      <trkpt lat="48.45355" lon="6.94715">
        <ele>323.6</ele>
        <time>2013-08-11T13:52:48Z</time>
      </trkpt>
      <trkpt lat="48.45348" lon="6.9469">
        <ele>323.5</ele>
        <time>2013-08-11T13:52:51Z</time>
      </trkpt>
      <trkpt lat="48.45339" lon="6.94666">
        <ele>323.56</ele>
        <time>2013-08-11T13:52:54Z</time>
      </trkpt>
      <trkpt lat="48.45327" lon="6.94645">
        <ele>323.83</ele>
        <time>2013-08-11T13:52:57Z</time>
      </trkpt>
      <trkpt lat="48.4531" lon="6.9462">
        <ele>323.87</ele>
        <time>2013-08-11T13:53:01Z</time>
      </trkpt>
      <trkpt lat="48.45298" lon="6.946">
        <ele>324.23</ele>
        <time>2013-08-11T13:53:04Z</time>
      </trkpt>
      <trkpt lat="48.45281" lon="6.94574">
        <ele>324.36</ele>
        <time>2013-08-11T13:53:08Z</time>
      </trkpt>
      <trkpt lat="48.45269" lon="6.94554">
        <ele>324.74</ele>
        <time>2013-08-11T13:53:11Z</time>
      </trkpt>
      <trkpt lat="48.45258" lon="6.94531">
        <ele>324.93</ele>
        <time>2013-08-11T13:53:14Z</time>
      </trkpt>
      <trkpt lat="48.45249" lon="6.94505">
        <ele>325.15</ele>
        <time>2013-08-11T13:53:17Z</time>
      </trkpt>
      <trkpt lat="48.45239" lon="6.94482">
        <ele>324.86</ele>
        <time>2013-08-11T13:53:20Z</time>
      </trkpt>
      <trkpt lat="48.45229" lon="6.94459">
        <ele>324.54</ele>
        <time>2013-08-11T13:53:23Z</time>
      </trkpt>
      <trkpt lat="48.45219" lon="6.94434">
        <ele>324.25</ele>
        <time>2013-08-11T13:53:26Z</time>
      </trkpt>
      <trkpt lat="48.45208" lon="6.94412">
        <ele>323.74</ele>
        <time>2013-08-11T13:53:29Z</time>
      </trkpt>
      <trkpt lat="48.45195" lon="6.94392">
        <ele>323.01</ele>
        <time>2013-08-11T13:53:32Z</time>
      </trkpt>
      <trkpt lat="48.45175" lon="6.94378">
        <ele>321.7</ele>
        <time>2013-08-11T13:53:36Z</time>
      </trkpt>
      <trkpt lat="48.45153" lon="6.94371">
        <ele>320.45</ele>
        <time>2013-08-11T13:53:40Z</time>
      </trkpt>
      <trkpt lat="48.45131" lon="6.94364">
        <ele>319.27</ele>
        <time>2013-08-11T13:53:44Z</time>
      </trkpt>
      <trkpt lat="48.45108" lon="6.94352">
        <ele>318.28</ele>
        <time>2013-08-11T13:53:48Z</time>
      </trkpt>
      <trkpt lat="48.45087" lon="6.94338">
        <ele>317.89</ele>
        <time>2013-08-11T13:53:52Z</time>
      </trkpt>
      <trkpt lat="48.45067" lon="6.94324">
        <ele>317.34</ele>
        <time>2013-08-11T13:53:56Z</time>
      </trkpt>
      <trkpt lat="48.45049" lon="6.94308">
        <ele>317.09</ele>
        <time>2013-08-11T13:54:00Z</time>
      </trkpt>
      <trkpt lat="48.45029" lon="6.94292">
        <ele>317.06</ele>
        <time>2013-08-11T13:54:04Z</time>
      </trkpt>
      <trkpt lat="48.45011" lon="6.94274">
        <ele>317.1</ele>
        <time>2013-08-11T13:54:08Z</time>
      </trkpt>
      <trkpt lat="48.44995" lon="6.94251">
        <ele>317.07</ele>
        <time>2013-08-11T13:54:12Z</time>
      </trkpt>
      <trkpt lat="48.4498" lon="6.94226">
        <ele>317.46</ele>
        <time>2013-08-11T13:54:16Z</time>
      </trkpt>
      <trkpt lat="48.44965" lon="6.94202">
        <ele>318.36</ele>
        <time>2013-08-11T13:54:20Z</time>
      </trkpt>
      <trkpt lat="48.44948" lon="6.94179">
        <ele>318.96</ele>
        <time>2013-08-11T13:54:24Z</time>
      </trkpt>
      <trkpt lat="48.44932" lon="6.9416">
        <ele>319.38</ele>
        <time>2013-08-11T13:54:28Z</time>
      </trkpt>
      <trkpt lat="48.44916" lon="6.94142">
        <ele>319.62</ele>
        <time>2013-08-11T13:54:32Z</time>
      </trkpt>
      <trkpt lat="48.449" lon="6.94126">
        <ele>319.87</ele>
        <time>2013-08-11T13:54:36Z</time>
      </trkpt>
      <trkpt lat="48.44885" lon="6.9411">
        <ele>319.98</ele>
        <time>2013-08-11T13:54:40Z</time>
      </trkpt>
      <trkpt lat="48.44868" lon="6.94096">
        <ele>320.09</ele>
        <time>2013-08-11T13:54:44Z</time>
      </trkpt>
      <trkpt lat="48.4485" lon="6.94084">
        <ele>319.88</ele>
        <time>2013-08-11T13:54:48Z</time>
      </trkpt>
      <trkpt lat="48.44831" lon="6.94071">
        <ele>319.55</ele>
        <time>2013-08-11T13:54:52Z</time>
      </trkpt>
      <trkpt lat="48.44811" lon="6.94056">
        <ele>319.13</ele>
        <time>2013-08-11T13:54:56Z</time>
      </trkpt>
      <trkpt lat="48.44791" lon="6.94041">
        <ele>318.74</ele>
        <time>2013-08-11T13:55:00Z</time>
      </trkpt>
      <trkpt lat="48.44773" lon="6.94024">
        <ele>318.81</ele>
        <time>2013-08-11T13:55:04Z</time>
      </trkpt>
      <trkpt lat="48.44754" lon="6.9401">
        <ele>318.74</ele>
        <time>2013-08-11T13:55:08Z</time>
      </trkpt>
      <trkpt lat="48.44736" lon="6.93996">
        <ele>318.56</ele>
        <time>2013-08-11T13:55:12Z</time>
      </trkpt>
      <trkpt lat="48.44717" lon="6.93982">
        <ele>318.53</ele>
        <time>2013-08-11T13:55:16Z</time>
      </trkpt>
      <trkpt lat="48.44699" lon="6.93968">
        <ele>318.45</ele>
        <time>2013-08-11T13:55:20Z</time>
      </trkpt>
      <trkpt lat="48.4468" lon="6.93953">
        <ele>318.41</ele>
        <time>2013-08-11T13:55:24Z</time>
      </trkpt>
      <trkpt lat="48.44661" lon="6.93938">
        <ele>318.64</ele>
        <time>2013-08-11T13:55:28Z</time>
      </trkpt>
      <trkpt lat="48.44643" lon="6.93924">
        <ele>318.77</ele>
        <time>2013-08-11T13:55:32Z</time>
      </trkpt>
      <trkpt lat="48.44625" lon="6.93911">
        <ele>318.73</ele>
        <time>2013-08-11T13:55:36Z</time>
      </trkpt>
      <trkpt lat="48.44608" lon="6.93897">
        <ele>318.7</ele>
        <time>2013-08-11T13:55:40Z</time>
      </trkpt>
      <trkpt lat="48.4459" lon="6.93881">
        <ele>318.81</ele>
        <time>2013-08-11T13:55:44Z</time>
      </trkpt>
      <trkpt lat="48.44574" lon="6.93862">
        <ele>318.96</ele>
        <time>2013-08-11T13:55:48Z</time>
      </trkpt>
      <trkpt lat="48.44559" lon="6.93842">
        <ele>319.15</ele>
        <time>2013-08-11T13:55:52Z</time>
      </trkpt>
      <trkpt lat="48.44544" lon="6.93823">
        <ele>319.28</ele>
        <time>2013-08-11T13:55:56Z</time>
      </trkpt>
      <trkpt lat="48.4453" lon="6.93803">
        <ele>319.35</ele>
        <time>2013-08-11T13:56:00Z</time>
      </trkpt>
      <trkpt lat="48.44514" lon="6.93784">
        <ele>319.48</ele>
        <time>2013-08-11T13:56:04Z</time>
      </trkpt>
      <trkpt lat="48.44498" lon="6.93759">
        <ele>319.53</ele>
        <time>2013-08-11T13:56:08Z</time>
      </trkpt>
      <trkpt lat="48.44486" lon="6.93739">
        <ele>319.38</ele>
        <time>2013-08-11T13:56:11Z</time>
      </trkpt>
      <trkpt lat="48.4447" lon="6.93712">
        <ele>319.12</ele>
        <time>2013-08-11T13:56:15Z</time>
      </trkpt>
      <trkpt lat="48.44456" lon="6.93686">
        <ele>318.9</ele>
        <time>2013-08-11T13:56:19Z</time>
      </trkpt>
      <trkpt lat="48.44446" lon="6.93663">
        <ele>318.57</ele>
        <time>2013-08-11T13:56:22Z</time>
      </trkpt>
      <trkpt lat="48.44433" lon="6.93641">
        <ele>318.26</ele>
        <time>2013-08-11T13:56:25Z</time>
      </trkpt>
      <trkpt lat="48.4442" lon="6.93617">
        <ele>317.96</ele>
        <time>2013-08-11T13:56:28Z</time>
      </trkpt>
      <trkpt lat="48.44408" lon="6.93595">
        <ele>317.75</ele>
        <time>2013-08-11T13:56:31Z</time>
      </trkpt>
      <trkpt lat="48.44396" lon="6.93573">
        <ele>317.7</ele>
        <time>2013-08-11T13:56:34Z</time>
      </trkpt>
      <trkpt lat="48.44383" lon="6.9355">
        <ele>317.6</ele>
        <time>2013-08-11T13:56:37Z</time>
      </trkpt>
      <trkpt lat="48.44371" lon="6.93527">
        <ele>317.45</ele>
        <time>2013-08-11T13:56:40Z</time>
      </trkpt>
      <trkpt lat="48.44358" lon="6.93505">
        <ele>317.4</ele>
        <time>2013-08-11T13:56:43Z</time>
      </trkpt>
      <trkpt lat="48.44346" lon="6.93483">
        <ele>317.26</ele>
        <time>2013-08-11T13:56:46Z</time>
      </trkpt>
      <trkpt lat="48.44334" lon="6.93462">
        <ele>316.95</ele>
        <time>2013-08-11T13:56:49Z</time>
      </trkpt>
      <trkpt lat="48.44319" lon="6.93435">
        <ele>316.86</ele>
        <time>2013-08-11T13:56:53Z</time>
      </trkpt>
      <trkpt lat="48.44303" lon="6.93409">
        <ele>316.97</ele>
        <time>2013-08-11T13:56:57Z</time>
      </trkpt>
      <trkpt lat="48.44289" lon="6.9339">
        <ele>316.69</ele>
        <time>2013-08-11T13:57:00Z</time>
      </trkpt>
      <trkpt lat="48.44275" lon="6.93372">
        <ele>316.15</ele>
        <time>2013-08-11T13:57:03Z</time>
      </trkpt>
      <trkpt lat="48.4426" lon="6.93355">
        <ele>315.38</ele>
        <time>2013-08-11T13:57:06Z</time>
      </trkpt>
      <trkpt lat="48.44244" lon="6.93338">
        <ele>314.5</ele>
        <time>2013-08-11T13:57:09Z</time>
      </trkpt>
      <trkpt lat="48.44229" lon="6.93321">
        <ele>313.65</ele>
        <time>2013-08-11T13:57:12Z</time>
      </trkpt>
      <trkpt lat="48.44215" lon="6.93304">
        <ele>313.1</ele>
        <time>2013-08-11T13:57:15Z</time>
      </trkpt>
      <trkpt lat="48.44198" lon="6.93281">
        <ele>312.54</ele>
        <time>2013-08-11T13:57:19Z</time>
      </trkpt>
      <trkpt lat="48.44183" lon="6.93256">
        <ele>311.92</ele>
        <time>2013-08-11T13:57:23Z</time>
      </trkpt>
      <trkpt lat="48.44167" lon="6.93231">
        <ele>311.34</ele>
        <time>2013-08-11T13:57:27Z</time>
      </trkpt>
      <trkpt lat="48.44154" lon="6.9321">
        <ele>312.14</ele>
        <time>2013-08-11T13:57:31Z</time>
      </trkpt>
      <trkpt lat="48.4414" lon="6.93187">
        <ele>312.4</ele>
        <time>2013-08-11T13:57:37Z</time>
      </trkpt>
      <trkpt lat="48.44126" lon="6.93164">
        <ele>312.36</ele>
        <time>2013-08-11T13:57:44Z</time>
      </trkpt>
      <trkpt lat="48.44112" lon="6.93144">
        <ele>312.56</ele>
        <time>2013-08-11T13:57:50Z</time>
      </trkpt>
      <trkpt lat="48.44096" lon="6.93124">
        <ele>312.39</ele>
        <time>2013-08-11T13:57:55Z</time>
      </trkpt>
      <trkpt lat="48.44082" lon="6.93105">
        <ele>312.34</ele>
        <time>2013-08-11T13:57:59Z</time>
      </trkpt>
      <trkpt lat="48.44064" lon="6.93086">
        <ele>311.58</ele>
        <time>2013-08-11T13:58:03Z</time>
      </trkpt>
      <trkpt lat="48.44046" lon="6.93064">
        <ele>310.82</ele>
        <time>2013-08-11T13:58:07Z</time>
      </trkpt>
      <trkpt lat="48.4403" lon="6.93037">
        <ele>310.51</ele>
        <time>2013-08-11T13:58:11Z</time>
      </trkpt>
      <trkpt lat="48.44019" lon="6.93013">
        <ele>310.42</ele>
        <time>2013-08-11T13:58:14Z</time>
      </trkpt>
      <trkpt lat="48.4401" lon="6.92984">
        <ele>311.21</ele>
        <time>2013-08-11T13:58:17Z</time>
      </trkpt>
      <trkpt lat="48.44003" lon="6.92956">
        <ele>312.19</ele>
        <time>2013-08-11T13:58:20Z</time>
      </trkpt>
      <trkpt lat="48.43998" lon="6.92928">
        <ele>312.55</ele>
        <time>2013-08-11T13:58:23Z</time>
      </trkpt>
      <trkpt lat="48.43994" lon="6.929">
        <ele>312.51</ele>
        <time>2013-08-11T13:58:26Z</time>
      </trkpt>
      <trkpt lat="48.43989" lon="6.92873">
        <ele>311.92</ele>
        <time>2013-08-11T13:58:29Z</time>
      </trkpt>
      <trkpt lat="48.43985" lon="6.92847">
        <ele>311.12</ele>
        <time>2013-08-11T13:58:32Z</time>
      </trkpt>
      <trkpt lat="48.43981" lon="6.9282">
        <ele>310.43</ele>
        <time>2013-08-11T13:58:35Z</time>
      </trkpt>
      <trkpt lat="48.43976" lon="6.92793">
        <ele>310.03</ele>
        <time>2013-08-11T13:58:38Z</time>
      </trkpt>
      <trkpt lat="48.43971" lon="6.92766">
        <ele>309.7</ele>
        <time>2013-08-11T13:58:41Z</time>
      </trkpt>
      <trkpt lat="48.43965" lon="6.92732">
        <ele>309.64</ele>
        <time>2013-08-11T13:58:45Z</time>
      </trkpt>
      <trkpt lat="48.43956" lon="6.92701">
        <ele>309.84</ele>
        <time>2013-08-11T13:58:49Z</time>
      </trkpt>
      <trkpt lat="48.43944" lon="6.92672">
        <ele>309.98</ele>
        <time>2013-08-11T13:58:53Z</time>
      </trkpt>
      <trkpt lat="48.43928" lon="6.92646">
        <ele>309.86</ele>
        <time>2013-08-11T13:58:57Z</time>
      </trkpt>
      <trkpt lat="48.43909" lon="6.92625">
        <ele>309.68</ele>
        <time>2013-08-11T13:59:01Z</time>
      </trkpt>
      <trkpt lat="48.43894" lon="6.9261">
        <ele>309.64</ele>
        <time>2013-08-11T13:59:04Z</time>
      </trkpt>
      <trkpt lat="48.43875" lon="6.92593">
        <ele>310.04</ele>
        <time>2013-08-11T13:59:08Z</time>
      </trkpt>
      <trkpt lat="48.43853" lon="6.92584">
        <ele>310.12</ele>
        <time>2013-08-11T13:59:12Z</time>
      </trkpt>
      <trkpt lat="48.4383" lon="6.92576">
        <ele>310.23</ele>
        <time>2013-08-11T13:59:16Z</time>
      </trkpt>
      <trkpt lat="48.43811" lon="6.92575">
        <ele>310.11</ele>
        <time>2013-08-11T13:59:19Z</time>
      </trkpt>
      <trkpt lat="48.4379" lon="6.92571">
        <ele>309.96</ele>
        <time>2013-08-11T13:59:23Z</time>
      </trkpt>
      <trkpt lat="48.43769" lon="6.92566">
        <ele>309.91</ele>
        <time>2013-08-11T13:59:27Z</time>
      </trkpt>
      <trkpt lat="48.43748" lon="6.92561">
        <ele>310.15</ele>
        <time>2013-08-11T13:59:31Z</time>
      </trkpt>
      <trkpt lat="48.43727" lon="6.92558">
        <ele>310.43</ele>
        <time>2013-08-11T13:59:35Z</time>
      </trkpt>
      <trkpt lat="48.43707" lon="6.92557">
        <ele>310.59</ele>
        <time>2013-08-11T13:59:39Z</time>
      </trkpt>
      <trkpt lat="48.43688" lon="6.92546">
        <ele>310.73</ele>
        <time>2013-08-11T13:59:43Z</time>
      </trkpt>
      <trkpt lat="48.4367" lon="6.92533">
        <ele>310.99</ele>
        <time>2013-08-11T13:59:47Z</time>
      </trkpt>
      <trkpt lat="48.43653" lon="6.92519">
        <ele>311.38</ele>
        <time>2013-08-11T13:59:51Z</time>
      </trkpt>
      <trkpt lat="48.43635" lon="6.92505">
        <ele>311.77</ele>
        <time>2013-08-11T13:59:55Z</time>
      </trkpt>
      <trkpt lat="48.43617" lon="6.9249">
        <ele>312.22</ele>
        <time>2013-08-11T13:59:59Z</time>
      </trkpt>
      <trkpt lat="48.43598" lon="6.92474">
        <ele>312.53</ele>
        <time>2013-08-11T14:00:03Z</time>
      </trkpt>
      <trkpt lat="48.43581" lon="6.92455">
        <ele>312.9</ele>
        <time>2013-08-11T14:00:07Z</time>
      </trkpt>
      <trkpt lat="48.43564" lon="6.92435">
        <ele>313.33</ele>
        <time>2013-08-11T14:00:11Z</time>
      </trkpt>
      <trkpt lat="48.43547" lon="6.92411">
        <ele>313.73</ele>
        <time>2013-08-11T14:00:15Z</time>
      </trkpt>
      <trkpt lat="48.43532" lon="6.92385">
        <ele>313.66</ele>
        <time>2013-08-11T14:00:19Z</time>
      </trkpt>
      <trkpt lat="48.4352" lon="6.92365">
        <ele>313.38</ele>
        <time>2013-08-11T14:00:22Z</time>
      </trkpt>
      <trkpt lat="48.43507" lon="6.92342">
        <ele>313.22</ele>
        <time>2013-08-11T14:00:25Z</time>
      </trkpt>
      <trkpt lat="48.43493" lon="6.9232">
        <ele>313.22</ele>
        <time>2013-08-11T14:00:28Z</time>
      </trkpt>
      <trkpt lat="48.43478" lon="6.92297">
        <ele>313.11</ele>
        <time>2013-08-11T14:00:31Z</time>
      </trkpt>
      <trkpt lat="48.43463" lon="6.92275">
        <ele>312.96</ele>
        <time>2013-08-11T14:00:34Z</time>
      </trkpt>
      <trkpt lat="48.43449" lon="6.92252">
        <ele>312.71</ele>
        <time>2013-08-11T14:00:37Z</time>
      </trkpt>
      <trkpt lat="48.43434" lon="6.92229">
        <ele>312.39</ele>
        <time>2013-08-11T14:00:40Z</time>
      </trkpt>
      <trkpt lat="48.4342" lon="6.92206">
        <ele>312.28</ele>
        <time>2013-08-11T14:00:43Z</time>
      </trkpt>
      <trkpt lat="48.43406" lon="6.92184">
        <ele>312.27</ele>
        <time>2013-08-11T14:00:46Z</time>
      </trkpt>
      <trkpt lat="48.43391" lon="6.9216">
        <ele>312.36</ele>
        <time>2013-08-11T14:00:49Z</time>
      </trkpt>
      <trkpt lat="48.43377" lon="6.92137">
        <ele>312.25</ele>
        <time>2013-08-11T14:00:52Z</time>
      </trkpt>
      <trkpt lat="48.43363" lon="6.92115">
        <ele>312.03</ele>
        <time>2013-08-11T14:00:55Z</time>
      </trkpt>
      <trkpt lat="48.43349" lon="6.92092">
        <ele>311.83</ele>
        <time>2013-08-11T14:00:58Z</time>
      </trkpt>
      <trkpt lat="48.43336" lon="6.92067">
        <ele>311.81</ele>
        <time>2013-08-11T14:01:01Z</time>
      </trkpt>
      <trkpt lat="48.43323" lon="6.92042">
        <ele>311.77</ele>
        <time>2013-08-11T14:01:04Z</time>
      </trkpt>
      <trkpt lat="48.4331" lon="6.92018">
        <ele>311.72</ele>
        <time>2013-08-11T14:01:07Z</time>
      </trkpt>
      <trkpt lat="48.43297" lon="6.91993">
        <ele>311.66</ele>
        <time>2013-08-11T14:01:10Z</time>
      </trkpt>
      <trkpt lat="48.43283" lon="6.91968">
        <ele>311.56</ele>
        <time>2013-08-11T14:01:13Z</time>
      </trkpt>
      <trkpt lat="48.4327" lon="6.91943">
        <ele>311.48</ele>
        <time>2013-08-11T14:01:16Z</time>
      </trkpt>
      <trkpt lat="48.43258" lon="6.91919">
        <ele>311.3</ele>
        <time>2013-08-11T14:01:19Z</time>
      </trkpt>
      <trkpt lat="48.43245" lon="6.91894">
        <ele>311.05</ele>
        <time>2013-08-11T14:01:22Z</time>
      </trkpt>
      <trkpt lat="48.43233" lon="6.91868">
        <ele>310.75</ele>
        <time>2013-08-11T14:01:25Z</time>
      </trkpt>
      <trkpt lat="48.43221" lon="6.9184">
        <ele>310.39</ele>
        <time>2013-08-11T14:01:28Z</time>
      </trkpt>
      <trkpt lat="48.43209" lon="6.91811">
        <ele>310.38</ele>
        <time>2013-08-11T14:01:31Z</time>
      </trkpt>
      <trkpt lat="48.432" lon="6.9178">
        <ele>310.64</ele>
        <time>2013-08-11T14:01:34Z</time>
      </trkpt>
      <trkpt lat="48.43192" lon="6.91749">
        <ele>310.28</ele>
        <time>2013-08-11T14:01:37Z</time>
      </trkpt>
      <trkpt lat="48.43186" lon="6.91717">
        <ele>309.79</ele>
        <time>2013-08-11T14:01:40Z</time>
      </trkpt>
      <trkpt lat="48.43182" lon="6.91684">
        <ele>309.45</ele>
        <time>2013-08-11T14:01:43Z</time>
      </trkpt>
      <trkpt lat="48.43179" lon="6.91652">
        <ele>309.35</ele>
        <time>2013-08-11T14:01:46Z</time>
      </trkpt>
      <trkpt lat="48.43177" lon="6.91622">
        <ele>309.69</ele>
        <time>2013-08-11T14:01:49Z</time>
      </trkpt>
      <trkpt lat="48.43174" lon="6.91593">
        <ele>310.69</ele>
        <time>2013-08-11T14:01:52Z</time>
      </trkpt>
      <trkpt lat="48.43171" lon="6.91566">
        <ele>311.49</ele>
        <time>2013-08-11T14:01:55Z</time>
      </trkpt>
      <trkpt lat="48.43167" lon="6.91539">
        <ele>312.1</ele>
        <time>2013-08-11T14:01:58Z</time>
      </trkpt>
      <trkpt lat="48.4316" lon="6.91512">
        <ele>312.44</ele>
        <time>2013-08-11T14:02:01Z</time>
      </trkpt>
      <trkpt lat="48.43154" lon="6.91485">
        <ele>312.16</ele>
        <time>2013-08-11T14:02:04Z</time>
      </trkpt>
      <trkpt lat="48.43147" lon="6.91459">
        <ele>312.24</ele>
        <time>2013-08-11T14:02:07Z</time>
      </trkpt>
      <trkpt lat="48.43139" lon="6.91435">
        <ele>312.58</ele>
        <time>2013-08-11T14:02:10Z</time>
      </trkpt>
      <trkpt lat="48.43127" lon="6.91405">
        <ele>312.73</ele>
        <time>2013-08-11T14:02:14Z</time>
      </trkpt>
      <trkpt lat="48.43114" lon="6.91378">
        <ele>312.33</ele>
        <time>2013-08-11T14:02:18Z</time>
      </trkpt>
      <trkpt lat="48.43098" lon="6.9135">
        <ele>311.83</ele>
        <time>2013-08-11T14:02:22Z</time>
      </trkpt>
      <trkpt lat="48.43086" lon="6.9133">
        <ele>311.43</ele>
        <time>2013-08-11T14:02:25Z</time>
      </trkpt>
      <trkpt lat="48.43074" lon="6.91309">
        <ele>311.11</ele>
        <time>2013-08-11T14:02:28Z</time>
      </trkpt>
      <trkpt lat="48.43062" lon="6.91287">
        <ele>310.56</ele>
        <time>2013-08-11T14:02:31Z</time>
      </trkpt>
      <trkpt lat="48.43049" lon="6.91265">
        <ele>310.27</ele>
        <time>2013-08-11T14:02:34Z</time>
      </trkpt>
      <trkpt lat="48.43037" lon="6.91244">
        <ele>310.14</ele>
        <time>2013-08-11T14:02:37Z</time>
      </trkpt>
      <trkpt lat="48.43024" lon="6.91222">
        <ele>309.9</ele>
        <time>2013-08-11T14:02:40Z</time>
      </trkpt>
      <trkpt lat="48.43011" lon="6.912">
        <ele>309.62</ele>
        <time>2013-08-11T14:02:43Z</time>
      </trkpt>
      <trkpt lat="48.42998" lon="6.91177">
        <ele>309.39</ele>
        <time>2013-08-11T14:02:46Z</time>
      </trkpt>
      <trkpt lat="48.42986" lon="6.91156">
        <ele>309.2</ele>
        <time>2013-08-11T14:02:49Z</time>
      </trkpt>
      <trkpt lat="48.42974" lon="6.91135">
        <ele>308.95</ele>
        <time>2013-08-11T14:02:52Z</time>
      </trkpt>
      <trkpt lat="48.42961" lon="6.91113">
        <ele>308.8</ele>
        <time>2013-08-11T14:02:55Z</time>
      </trkpt>
      <trkpt lat="48.42951" lon="6.9109">
        <ele>308.84</ele>
        <time>2013-08-11T14:02:58Z</time>
      </trkpt>
      <trkpt lat="48.42944" lon="6.91064">
        <ele>308.65</ele>
        <time>2013-08-11T14:03:01Z</time>
      </trkpt>
      <trkpt lat="48.42939" lon="6.91038">
        <ele>308.62</ele>
        <time>2013-08-11T14:03:04Z</time>
      </trkpt>
      <trkpt lat="48.42932" lon="6.91004">
        <ele>309.26</ele>
        <time>2013-08-11T14:03:08Z</time>
      </trkpt>
      <trkpt lat="48.42927" lon="6.90969">
        <ele>309.76</ele>
        <time>2013-08-11T14:03:12Z</time>
      </trkpt>
      <trkpt lat="48.42921" lon="6.90935">
        <ele>310.05</ele>
        <time>2013-08-11T14:03:16Z</time>
      </trkpt>
      <trkpt lat="48.42914" lon="6.909">
        <ele>310.02</ele>
        <time>2013-08-11T14:03:20Z</time>
      </trkpt>
      <trkpt lat="48.42908" lon="6.90867">
        <ele>310</ele>
        <time>2013-08-11T14:03:24Z</time>
      </trkpt>
      <trkpt lat="48.42902" lon="6.90833">
        <ele>309.93</ele>
        <time>2013-08-11T14:03:28Z</time>
      </trkpt>
      <trkpt lat="48.42896" lon="6.90799">
        <ele>309.96</ele>
        <time>2013-08-11T14:03:32Z</time>
      </trkpt>
      <trkpt lat="48.42889" lon="6.90768">
        <ele>310.25</ele>
        <time>2013-08-11T14:03:36Z</time>
      </trkpt>
      <trkpt lat="48.42879" lon="6.90739">
        <ele>310.54</ele>
        <time>2013-08-11T14:03:40Z</time>
      </trkpt>
      <trkpt lat="48.42865" lon="6.90713">
        <ele>310.69</ele>
        <time>2013-08-11T14:03:44Z</time>
      </trkpt>
      <trkpt lat="48.42848" lon="6.90691">
        <ele>310.78</ele>
        <time>2013-08-11T14:03:48Z</time>
      </trkpt>
      <trkpt lat="48.42828" lon="6.90673">
        <ele>310.75</ele>
        <time>2013-08-11T14:03:52Z</time>
      </trkpt>
      <trkpt lat="48.42807" lon="6.90661">
        <ele>310.65</ele>
        <time>2013-08-11T14:03:56Z</time>
      </trkpt>
      <trkpt lat="48.42784" lon="6.90653">
        <ele>310.64</ele>
        <time>2013-08-11T14:04:00Z</time>
      </trkpt>
      <trkpt lat="48.4276" lon="6.9065">
        <ele>310.67</ele>
        <time>2013-08-11T14:04:04Z</time>
      </trkpt>
      <trkpt lat="48.42741" lon="6.90649">
        <ele>310.59</ele>
        <time>2013-08-11T14:04:07Z</time>
      </trkpt>
      <trkpt lat="48.42722" lon="6.90648">
        <ele>310.43</ele>
        <time>2013-08-11T14:04:10Z</time>
      </trkpt>
      <trkpt lat="48.42703" lon="6.90644">
        <ele>310.15</ele>
        <time>2013-08-11T14:04:13Z</time>
      </trkpt>
      <trkpt lat="48.42684" lon="6.90637">
        <ele>309.73</ele>
        <time>2013-08-11T14:04:16Z</time>
      </trkpt>
      <trkpt lat="48.42666" lon="6.90625">
        <ele>309.51</ele>
        <time>2013-08-11T14:04:19Z</time>
      </trkpt>
      <trkpt lat="48.42649" lon="6.90608">
        <ele>309.6</ele>
        <time>2013-08-11T14:04:22Z</time>
      </trkpt>
      <trkpt lat="48.42633" lon="6.90588">
        <ele>309.78</ele>
        <time>2013-08-11T14:04:25Z</time>
      </trkpt>
      <trkpt lat="48.42617" lon="6.90566">
        <ele>309.85</ele>
        <time>2013-08-11T14:04:28Z</time>
      </trkpt>
      <trkpt lat="48.42601" lon="6.90544">
        <ele>309.91</ele>
        <time>2013-08-11T14:04:31Z</time>
      </trkpt>
      <trkpt lat="48.42586" lon="6.90521">
        <ele>310.26</ele>
        <time>2013-08-11T14:04:34Z</time>
      </trkpt>
      <trkpt lat="48.42569" lon="6.90502">
        <ele>309.95</ele>
        <time>2013-08-11T14:04:37Z</time>
      </trkpt>
      <trkpt lat="48.42552" lon="6.9048">
        <ele>309.83</ele>
        <time>2013-08-11T14:04:40Z</time>
      </trkpt>
      <trkpt lat="48.42537" lon="6.90458">
        <ele>310.22</ele>
        <time>2013-08-11T14:04:43Z</time>
      </trkpt>
      <trkpt lat="48.42525" lon="6.90437">
        <ele>311.13</ele>
        <time>2013-08-11T14:04:46Z</time>
      </trkpt>
      <trkpt lat="48.42511" lon="6.90411">
        <ele>311.55</ele>
        <time>2013-08-11T14:04:49Z</time>
      </trkpt>
      <trkpt lat="48.42497" lon="6.90383">
        <ele>311.53</ele>
        <time>2013-08-11T14:04:52Z</time>
      </trkpt>
      <trkpt lat="48.42487" lon="6.90354">
        <ele>311.08</ele>
        <time>2013-08-11T14:04:55Z</time>
      </trkpt>
      <trkpt lat="48.4248" lon="6.90322">
        <ele>311.2</ele>
        <time>2013-08-11T14:04:58Z</time>
      </trkpt>
      <trkpt lat="48.42475" lon="6.90291">
        <ele>311.01</ele>
        <time>2013-08-11T14:05:01Z</time>
      </trkpt>
      <trkpt lat="48.4247" lon="6.90261">
        <ele>311.12</ele>
        <time>2013-08-11T14:05:04Z</time>
      </trkpt>
      <trkpt lat="48.42462" lon="6.90234">
        <ele>311.46</ele>
        <time>2013-08-11T14:05:07Z</time>
      </trkpt>
      <trkpt lat="48.42451" lon="6.90208">
        <ele>311.49</ele>
        <time>2013-08-11T14:05:10Z</time>
      </trkpt>
      <trkpt lat="48.42437" lon="6.90186">
        <ele>311.4</ele>
        <time>2013-08-11T14:05:13Z</time>
      </trkpt>
      <trkpt lat="48.42421" lon="6.9017">
        <ele>311.25</ele>
        <time>2013-08-11T14:05:16Z</time>
      </trkpt>
      <trkpt lat="48.42405" lon="6.90156">
        <ele>311.01</ele>
        <time>2013-08-11T14:05:19Z</time>
      </trkpt>
      <trkpt lat="48.42385" lon="6.90137">
        <ele>310.91</ele>
        <time>2013-08-11T14:05:23Z</time>
      </trkpt>
      <trkpt lat="48.42367" lon="6.90118">
        <ele>311.36</ele>
        <time>2013-08-11T14:05:26Z</time>
      </trkpt>
      <trkpt lat="48.4235" lon="6.90097">
        <ele>311.09</ele>
        <time>2013-08-11T14:05:29Z</time>
      </trkpt>
      <trkpt lat="48.42335" lon="6.90072">
        <ele>310.19</ele>
        <time>2013-08-11T14:05:32Z</time>
      </trkpt>
      <trkpt lat="48.42321" lon="6.9005">
        <ele>309.46</ele>
        <time>2013-08-11T14:05:35Z</time>
      </trkpt>
      <trkpt lat="48.42304" lon="6.90025">
        <ele>308.92</ele>
        <time>2013-08-11T14:05:38Z</time>
      </trkpt>
      <trkpt lat="48.42288" lon="6.90001">
        <ele>308.14</ele>
        <time>2013-08-11T14:05:41Z</time>
      </trkpt>
      <trkpt lat="48.42272" lon="6.89977">
        <ele>307.46</ele>
        <time>2013-08-11T14:05:44Z</time>
      </trkpt>
      <trkpt lat="48.42257" lon="6.89956">
        <ele>307.07</ele>
        <time>2013-08-11T14:05:47Z</time>
      </trkpt>
      <trkpt lat="48.42243" lon="6.89936">
        <ele>306.88</ele>
        <time>2013-08-11T14:05:50Z</time>
      </trkpt>
      <trkpt lat="48.42228" lon="6.89917">
        <ele>306.49</ele>
        <time>2013-08-11T14:05:53Z</time>
      </trkpt>
      <trkpt lat="48.42213" lon="6.89902">
        <ele>305.94</ele>
        <time>2013-08-11T14:05:56Z</time>
      </trkpt>
      <trkpt lat="48.42195" lon="6.89884">
        <ele>305.34</ele>
        <time>2013-08-11T14:05:59Z</time>
      </trkpt>
      <trkpt lat="48.42174" lon="6.89866">
        <ele>304.58</ele>
        <time>2013-08-11T14:06:02Z</time>
      </trkpt>
      <trkpt lat="48.42155" lon="6.89846">
        <ele>303.97</ele>
        <time>2013-08-11T14:06:05Z</time>
      </trkpt>
      <trkpt lat="48.42137" lon="6.89825">
        <ele>302.87</ele>
        <time>2013-08-11T14:06:08Z</time>
      </trkpt>
      <trkpt lat="48.4212" lon="6.89803">
        <ele>301.67</ele>
        <time>2013-08-11T14:06:11Z</time>
      </trkpt>
      <trkpt lat="48.42103" lon="6.8978">
        <ele>301.28</ele>
        <time>2013-08-11T14:06:14Z</time>
      </trkpt>
      <trkpt lat="48.42088" lon="6.89758">
        <ele>301.6</ele>
        <time>2013-08-11T14:06:17Z</time>
      </trkpt>
      <trkpt lat="48.42074" lon="6.89735">
        <ele>302.18</ele>
        <time>2013-08-11T14:06:20Z</time>
      </trkpt>
      <trkpt lat="48.42061" lon="6.89714">
        <ele>302.74</ele>
        <time>2013-08-11T14:06:23Z</time>
      </trkpt>
      <trkpt lat="48.42045" lon="6.8969">
        <ele>303.24</ele>
        <time>2013-08-11T14:06:26Z</time>
      </trkpt>
      <trkpt lat="48.4203" lon="6.89667">
        <ele>303.53</ele>
        <time>2013-08-11T14:06:29Z</time>
      </trkpt>
      <trkpt lat="48.42016" lon="6.89643">
        <ele>304.17</ele>
        <time>2013-08-11T14:06:32Z</time>
      </trkpt>
      <trkpt lat="48.42002" lon="6.89621">
        <ele>304.8</ele>
        <time>2013-08-11T14:06:35Z</time>
      </trkpt>
      <trkpt lat="48.41987" lon="6.896">
        <ele>305.15</ele>
        <time>2013-08-11T14:06:38Z</time>
      </trkpt>
      <trkpt lat="48.41974" lon="6.89579">
        <ele>305.35</ele>
        <time>2013-08-11T14:06:41Z</time>
      </trkpt>
      <trkpt lat="48.4196" lon="6.89557">
        <ele>306.22</ele>
        <time>2013-08-11T14:06:44Z</time>
      </trkpt>
      <trkpt lat="48.41947" lon="6.89536">
        <ele>307.43</ele>
        <time>2013-08-11T14:06:47Z</time>
      </trkpt>
      <trkpt lat="48.41931" lon="6.8951">
        <ele>308.39</ele>
        <time>2013-08-11T14:06:51Z</time>
      </trkpt>
      <trkpt lat="48.41917" lon="6.89488">
        <ele>308.99</ele>
        <time>2013-08-11T14:06:54Z</time>
      </trkpt>
      <trkpt lat="48.41903" lon="6.89467">
        <ele>309.41</ele>
        <time>2013-08-11T14:06:57Z</time>
      </trkpt>
      <trkpt lat="48.41889" lon="6.89444">
        <ele>310.57</ele>
        <time>2013-08-11T14:07:00Z</time>
      </trkpt>
      <trkpt lat="48.41875" lon="6.89422">
        <ele>312.38</ele>
        <time>2013-08-11T14:07:03Z</time>
      </trkpt>
      <trkpt lat="48.41859" lon="6.89397">
        <ele>312.48</ele>
        <time>2013-08-11T14:07:07Z</time>
      </trkpt>
      <trkpt lat="48.41847" lon="6.89376">
        <ele>311.87</ele>
        <time>2013-08-11T14:07:10Z</time>
      </trkpt>
      <trkpt lat="48.41835" lon="6.89353">
        <ele>311.71</ele>
        <time>2013-08-11T14:07:13Z</time>
      </trkpt>
      <trkpt lat="48.41824" lon="6.89329">
        <ele>311.25</ele>
        <time>2013-08-11T14:07:16Z</time>
      </trkpt>
      <trkpt lat="48.41812" lon="6.89305">
        <ele>310.79</ele>
        <time>2013-08-11T14:07:19Z</time>
      </trkpt>
      <trkpt lat="48.418" lon="6.8928">
        <ele>310.18</ele>
        <time>2013-08-11T14:07:22Z</time>
      </trkpt>
      <trkpt lat="48.41788" lon="6.89255">
        <ele>309.48</ele>
        <time>2013-08-11T14:07:25Z</time>
      </trkpt>
      <trkpt lat="48.41776" lon="6.89231">
        <ele>309.34</ele>
        <time>2013-08-11T14:07:28Z</time>
      </trkpt>
      <trkpt lat="48.41764" lon="6.89205">
        <ele>309.37</ele>
        <time>2013-08-11T14:07:31Z</time>
      </trkpt>
      <trkpt lat="48.41752" lon="6.8918">
        <ele>309.57</ele>
        <time>2013-08-11T14:07:34Z</time>
      </trkpt>
      <trkpt lat="48.41739" lon="6.89154">
        <ele>308.89</ele>
        <time>2013-08-11T14:07:37Z</time>
      </trkpt>
      <trkpt lat="48.41731" lon="6.89125">
        <ele>307.91</ele>
        <time>2013-08-11T14:07:40Z</time>
      </trkpt>
      <trkpt lat="48.41726" lon="6.89094">
        <ele>306.98</ele>
        <time>2013-08-11T14:07:43Z</time>
      </trkpt>
      <trkpt lat="48.41725" lon="6.89062">
        <ele>306.15</ele>
        <time>2013-08-11T14:07:46Z</time>
      </trkpt>
      <trkpt lat="48.41726" lon="6.89031">
        <ele>305.92</ele>
        <time>2013-08-11T14:07:49Z</time>
      </trkpt>
      <trkpt lat="48.41732" lon="6.89002">
        <ele>306.12</ele>
        <time>2013-08-11T14:07:52Z</time>
      </trkpt>
      <trkpt lat="48.41741" lon="6.88975">
        <ele>306.28</ele>
        <time>2013-08-11T14:07:55Z</time>
      </trkpt>
      <trkpt lat="48.41751" lon="6.8895">
        <ele>306.07</ele>
        <time>2013-08-11T14:07:58Z</time>
      </trkpt>
      <trkpt lat="48.4176" lon="6.88926">
        <ele>305.68</ele>
        <time>2013-08-11T14:08:01Z</time>
      </trkpt>
      <trkpt lat="48.41767" lon="6.88894">
        <ele>305.24</ele>
        <time>2013-08-11T14:08:05Z</time>
      </trkpt>
      <trkpt lat="48.4177" lon="6.88861">
        <ele>305.08</ele>
        <time>2013-08-11T14:08:09Z</time>
      </trkpt>
      <trkpt lat="48.41767" lon="6.88833">
        <ele>305.01</ele>
        <time>2013-08-11T14:08:13Z</time>
      </trkpt>
      <trkpt lat="48.41759" lon="6.88807">
        <ele>304.94</ele>
        <time>2013-08-11T14:08:17Z</time>
      </trkpt>
      <trkpt lat="48.41751" lon="6.88777">
        <ele>304.86</ele>
        <time>2013-08-11T14:08:21Z</time>
      </trkpt>
      <trkpt lat="48.41742" lon="6.88747">
        <ele>304.59</ele>
        <time>2013-08-11T14:08:25Z</time>
      </trkpt>
      <trkpt lat="48.41734" lon="6.88715">
        <ele>304.61</ele>
        <time>2013-08-11T14:08:29Z</time>
      </trkpt>
      <trkpt lat="48.41725" lon="6.88683">
        <ele>304.7</ele>
        <time>2013-08-11T14:08:33Z</time>
      </trkpt>
      <trkpt lat="48.41718" lon="6.88657">
        <ele>304.75</ele>
        <time>2013-08-11T14:08:36Z</time>
      </trkpt>
      <trkpt lat="48.41711" lon="6.88629">
        <ele>304.67</ele>
        <time>2013-08-11T14:08:39Z</time>
      </trkpt>
      <trkpt lat="48.41703" lon="6.88599">
        <ele>304.68</ele>
        <time>2013-08-11T14:08:42Z</time>
      </trkpt>
      <trkpt lat="48.41695" lon="6.88571">
        <ele>304.65</ele>
        <time>2013-08-11T14:08:45Z</time>
      </trkpt>
      <trkpt lat="48.41687" lon="6.88544">
        <ele>304.44</ele>
        <time>2013-08-11T14:08:48Z</time>
      </trkpt>
      <trkpt lat="48.4168" lon="6.88517">
        <ele>304.26</ele>
        <time>2013-08-11T14:08:51Z</time>
      </trkpt>
      <trkpt lat="48.41672" lon="6.88491">
        <ele>304</ele>
        <time>2013-08-11T14:08:54Z</time>
      </trkpt>
      <trkpt lat="48.41665" lon="6.88463">
        <ele>303.78</ele>
        <time>2013-08-11T14:08:57Z</time>
      </trkpt>
      <trkpt lat="48.41656" lon="6.88434">
        <ele>303.83</ele>
        <time>2013-08-11T14:09:00Z</time>
      </trkpt>
      <trkpt lat="48.41648" lon="6.88404">
        <ele>304.12</ele>
        <time>2013-08-11T14:09:03Z</time>
      </trkpt>
      <trkpt lat="48.41639" lon="6.88375">
        <ele>304.56</ele>
        <time>2013-08-11T14:09:06Z</time>
      </trkpt>
      <trkpt lat="48.41631" lon="6.88346">
        <ele>304.8</ele>
        <time>2013-08-11T14:09:09Z</time>
      </trkpt>
      <trkpt lat="48.41623" lon="6.88317">
        <ele>304.75</ele>
        <time>2013-08-11T14:09:12Z</time>
      </trkpt>
      <trkpt lat="48.41618" lon="6.88285">
        <ele>304.62</ele>
        <time>2013-08-11T14:09:15Z</time>
      </trkpt>
      <trkpt lat="48.41617" lon="6.88252">
        <ele>304.53</ele>
        <time>2013-08-11T14:09:18Z</time>
      </trkpt>
      <trkpt lat="48.41617" lon="6.88218">
        <ele>305.06</ele>
        <time>2013-08-11T14:09:21Z</time>
      </trkpt>
      <trkpt lat="48.41617" lon="6.88185">
        <ele>305.94</ele>
        <time>2013-08-11T14:09:24Z</time>
      </trkpt>
      <trkpt lat="48.41615" lon="6.88151">
        <ele>306.63</ele>
        <time>2013-08-11T14:09:27Z</time>
      </trkpt>
      <trkpt lat="48.41614" lon="6.8812">
        <ele>306.38</ele>
        <time>2013-08-11T14:09:30Z</time>
      </trkpt>
      <trkpt lat="48.41614" lon="6.88089">
        <ele>305.44</ele>
        <time>2013-08-11T14:09:33Z</time>
      </trkpt>
      <trkpt lat="48.41613" lon="6.8806">
        <ele>304.16</ele>
        <time>2013-08-11T14:09:36Z</time>
      </trkpt>
      <trkpt lat="48.41611" lon="6.88029">
        <ele>303.27</ele>
        <time>2013-08-11T14:09:39Z</time>
      </trkpt>
      <trkpt lat="48.41609" lon="6.87999">
        <ele>302.52</ele>
        <time>2013-08-11T14:09:42Z</time>
      </trkpt>
      <trkpt lat="48.41605" lon="6.87969">
        <ele>301.94</ele>
        <time>2013-08-11T14:09:45Z</time>
      </trkpt>
      <trkpt lat="48.41597" lon="6.8794">
        <ele>301.72</ele>
        <time>2013-08-11T14:09:48Z</time>
      </trkpt>
      <trkpt lat="48.41584" lon="6.87915">
        <ele>301.56</ele>
        <time>2013-08-11T14:09:51Z</time>
      </trkpt>
      <trkpt lat="48.41568" lon="6.87895">
        <ele>301.42</ele>
        <time>2013-08-11T14:09:54Z</time>
      </trkpt>
      <trkpt lat="48.4155" lon="6.87881">
        <ele>300.82</ele>
        <time>2013-08-11T14:09:57Z</time>
      </trkpt>
      <trkpt lat="48.41529" lon="6.87869">
        <ele>300.2</ele>
        <time>2013-08-11T14:10:00Z</time>
      </trkpt>
      <trkpt lat="48.41508" lon="6.87856">
        <ele>299.62</ele>
        <time>2013-08-11T14:10:03Z</time>
      </trkpt>
      <trkpt lat="48.41487" lon="6.87842">
        <ele>299.06</ele>
        <time>2013-08-11T14:10:06Z</time>
      </trkpt>
      <trkpt lat="48.41467" lon="6.87825">
        <ele>298.6</ele>
        <time>2013-08-11T14:10:09Z</time>
      </trkpt>
      <trkpt lat="48.41449" lon="6.87802">
        <ele>298.8</ele>
        <time>2013-08-11T14:10:12Z</time>
      </trkpt>
      <trkpt lat="48.41433" lon="6.87775">
        <ele>298.67</ele>
        <time>2013-08-11T14:10:15Z</time>
      </trkpt>
      <trkpt lat="48.41421" lon="6.87746">
        <ele>298.37</ele>
        <time>2013-08-11T14:10:18Z</time>
      </trkpt>
      <trkpt lat="48.41411" lon="6.87716">
        <ele>298</ele>
        <time>2013-08-11T14:10:21Z</time>
      </trkpt>
      <trkpt lat="48.41401" lon="6.87687">
        <ele>297.47</ele>
        <time>2013-08-11T14:10:24Z</time>
      </trkpt>
      <trkpt lat="48.41392" lon="6.87659">
        <ele>296.89</ele>
        <time>2013-08-11T14:10:27Z</time>
      </trkpt>
      <trkpt lat="48.41383" lon="6.87632">
        <ele>296.38</ele>
        <time>2013-08-11T14:10:30Z</time>
      </trkpt>
      <trkpt lat="48.41374" lon="6.87605">
        <ele>296.21</ele>
        <time>2013-08-11T14:10:33Z</time>
      </trkpt>
      <trkpt lat="48.41366" lon="6.87577">
        <ele>296.44</ele>
        <time>2013-08-11T14:10:36Z</time>
      </trkpt>
      <trkpt lat="48.41358" lon="6.87551">
        <ele>296.89</ele>
        <time>2013-08-11T14:10:39Z</time>
      </trkpt>
      <trkpt lat="48.41349" lon="6.87526">
        <ele>297.29</ele>
        <time>2013-08-11T14:10:42Z</time>
      </trkpt>
      <trkpt lat="48.41341" lon="6.87501">
        <ele>297.44</ele>
        <time>2013-08-11T14:10:45Z</time>
      </trkpt>
      <trkpt lat="48.41332" lon="6.87477">
        <ele>297.74</ele>
        <time>2013-08-11T14:10:48Z</time>
      </trkpt>
      <trkpt lat="48.41321" lon="6.87455">
        <ele>298.11</ele>
        <time>2013-08-11T14:10:51Z</time>
      </trkpt>
      <trkpt lat="48.41307" lon="6.87436">
        <ele>298.41</ele>
        <time>2013-08-11T14:10:54Z</time>
      </trkpt>
      <trkpt lat="48.41291" lon="6.87421">
        <ele>298.53</ele>
        <time>2013-08-11T14:10:57Z</time>
      </trkpt>
      <trkpt lat="48.41274" lon="6.87409">
        <ele>298.46</ele>
        <time>2013-08-11T14:11:00Z</time>
      </trkpt>
      <trkpt lat="48.41256" lon="6.87398">
        <ele>298.53</ele>
        <time>2013-08-11T14:11:03Z</time>
      </trkpt>
      <trkpt lat="48.41239" lon="6.87386">
        <ele>298.71</ele>
        <time>2013-08-11T14:11:06Z</time>
      </trkpt>
      <trkpt lat="48.41221" lon="6.87376">
        <ele>299</ele>
        <time>2013-08-11T14:11:09Z</time>
      </trkpt>
      <trkpt lat="48.41203" lon="6.87366">
        <ele>299.12</ele>
        <time>2013-08-11T14:11:12Z</time>
      </trkpt>
      <trkpt lat="48.41186" lon="6.87355">
        <ele>299.48</ele>
        <time>2013-08-11T14:11:15Z</time>
      </trkpt>
      <trkpt lat="48.41164" lon="6.87341">
        <ele>299.7</ele>
        <time>2013-08-11T14:11:19Z</time>
      </trkpt>
      <trkpt lat="48.41148" lon="6.87328">
        <ele>299.98</ele>
        <time>2013-08-11T14:11:22Z</time>
      </trkpt>
      <trkpt lat="48.41131" lon="6.87308">
        <ele>300.17</ele>
        <time>2013-08-11T14:11:26Z</time>
      </trkpt>
      <trkpt lat="48.41115" lon="6.87283">
        <ele>299.99</ele>
        <time>2013-08-11T14:11:30Z</time>
      </trkpt>
      <trkpt lat="48.41101" lon="6.87263">
        <ele>299.82</ele>
        <time>2013-08-11T14:11:33Z</time>
      </trkpt>
      <trkpt lat="48.41088" lon="6.87243">
        <ele>299.83</ele>
        <time>2013-08-11T14:11:36Z</time>
      </trkpt>
      <trkpt lat="48.41074" lon="6.87222">
        <ele>299.89</ele>
        <time>2013-08-11T14:11:39Z</time>
      </trkpt>
      <trkpt lat="48.4106" lon="6.87202">
        <ele>300.09</ele>
        <time>2013-08-11T14:11:42Z</time>
      </trkpt>
      <trkpt lat="48.41046" lon="6.87182">
        <ele>300.21</ele>
        <time>2013-08-11T14:11:45Z</time>
      </trkpt>
      <trkpt lat="48.41033" lon="6.87162">
        <ele>300.25</ele>
        <time>2013-08-11T14:11:48Z</time>
      </trkpt>
      <trkpt lat="48.41019" lon="6.87141">
        <ele>300.23</ele>
        <time>2013-08-11T14:11:51Z</time>
      </trkpt>
      <trkpt lat="48.41006" lon="6.87119">
        <ele>300.22</ele>
        <time>2013-08-11T14:11:54Z</time>
      </trkpt>
      <trkpt lat="48.40996" lon="6.87096">
        <ele>300.4</ele>
        <time>2013-08-11T14:11:57Z</time>
      </trkpt>
      <trkpt lat="48.40987" lon="6.87065">
        <ele>301.11</ele>
        <time>2013-08-11T14:12:01Z</time>
      </trkpt>
      <trkpt lat="48.40981" lon="6.87033">
        <ele>302.05</ele>
        <time>2013-08-11T14:12:05Z</time>
      </trkpt>
      <trkpt lat="48.40977" lon="6.87001">
        <ele>302.5</ele>
        <time>2013-08-11T14:12:09Z</time>
      </trkpt>
      <trkpt lat="48.40973" lon="6.86967">
        <ele>302.74</ele>
        <time>2013-08-11T14:12:13Z</time>
      </trkpt>
      <trkpt lat="48.40969" lon="6.8694">
        <ele>303.25</ele>
        <time>2013-08-11T14:12:16Z</time>
      </trkpt>
      <trkpt lat="48.40965" lon="6.86912">
        <ele>303.62</ele>
        <time>2013-08-11T14:12:19Z</time>
      </trkpt>
      <trkpt lat="48.40961" lon="6.86883">
        <ele>303.65</ele>
        <time>2013-08-11T14:12:22Z</time>
      </trkpt>
      <trkpt lat="48.40957" lon="6.86853">
        <ele>303.54</ele>
        <time>2013-08-11T14:12:25Z</time>
      </trkpt>
      <trkpt lat="48.40953" lon="6.86823">
        <ele>303.27</ele>
        <time>2013-08-11T14:12:28Z</time>
      </trkpt>
      <trkpt lat="48.40949" lon="6.86794">
        <ele>302.94</ele>
        <time>2013-08-11T14:12:31Z</time>
      </trkpt>
      <trkpt lat="48.40946" lon="6.86764">
        <ele>302.63</ele>
        <time>2013-08-11T14:12:34Z</time>
      </trkpt>
      <trkpt lat="48.40942" lon="6.86734">
        <ele>302.42</ele>
        <time>2013-08-11T14:12:37Z</time>
      </trkpt>
      <trkpt lat="48.40937" lon="6.86704">
        <ele>302.49</ele>
        <time>2013-08-11T14:12:40Z</time>
      </trkpt>
      <trkpt lat="48.40934" lon="6.86676">
        <ele>302.36</ele>
        <time>2013-08-11T14:12:43Z</time>
      </trkpt>
      <trkpt lat="48.4093" lon="6.86649">
        <ele>302.19</ele>
        <time>2013-08-11T14:12:46Z</time>
      </trkpt>
      <trkpt lat="48.40926" lon="6.86621">
        <ele>301.72</ele>
        <time>2013-08-11T14:12:49Z</time>
      </trkpt>
      <trkpt lat="48.40923" lon="6.86592">
        <ele>301.53</ele>
        <time>2013-08-11T14:12:52Z</time>
      </trkpt>
      <trkpt lat="48.40919" lon="6.86564">
        <ele>301.83</ele>
        <time>2013-08-11T14:12:55Z</time>
      </trkpt>
      <trkpt lat="48.40915" lon="6.8653">
        <ele>302.12</ele>
        <time>2013-08-11T14:12:59Z</time>
      </trkpt>
      <trkpt lat="48.40909" lon="6.86497">
        <ele>302.29</ele>
        <time>2013-08-11T14:13:03Z</time>
      </trkpt>
      <trkpt lat="48.40903" lon="6.86464">
        <ele>302.67</ele>
        <time>2013-08-11T14:13:07Z</time>
      </trkpt>
      <trkpt lat="48.40896" lon="6.86433">
        <ele>302.88</ele>
        <time>2013-08-11T14:13:11Z</time>
      </trkpt>
      <trkpt lat="48.4089" lon="6.86406">
        <ele>302.98</ele>
        <time>2013-08-11T14:13:14Z</time>
      </trkpt>
      <trkpt lat="48.40884" lon="6.8638">
        <ele>302.98</ele>
        <time>2013-08-11T14:13:17Z</time>
      </trkpt>
      <trkpt lat="48.40877" lon="6.86352">
        <ele>303.1</ele>
        <time>2013-08-11T14:13:20Z</time>
      </trkpt>
      <trkpt lat="48.4087" lon="6.86324">
        <ele>303.1</ele>
        <time>2013-08-11T14:13:23Z</time>
      </trkpt>
      <trkpt lat="48.40863" lon="6.86296">
        <ele>303.05</ele>
        <time>2013-08-11T14:13:26Z</time>
      </trkpt>
      <trkpt lat="48.40856" lon="6.86268">
        <ele>303.09</ele>
        <time>2013-08-11T14:13:29Z</time>
      </trkpt>
      <trkpt lat="48.40849" lon="6.8624">
        <ele>302.87</ele>
        <time>2013-08-11T14:13:32Z</time>
      </trkpt>
      <trkpt lat="48.40843" lon="6.86211">
        <ele>302.47</ele>
        <time>2013-08-11T14:13:35Z</time>
      </trkpt>
      <trkpt lat="48.40836" lon="6.86182">
        <ele>302.18</ele>
        <time>2013-08-11T14:13:38Z</time>
      </trkpt>
      <trkpt lat="48.40829" lon="6.86152">
        <ele>301.74</ele>
        <time>2013-08-11T14:13:41Z</time>
      </trkpt>
      <trkpt lat="48.40821" lon="6.86121">
        <ele>301.4</ele>
        <time>2013-08-11T14:13:44Z</time>
      </trkpt>
      <trkpt lat="48.40813" lon="6.86091">
        <ele>301.18</ele>
        <time>2013-08-11T14:13:47Z</time>
      </trkpt>
      <trkpt lat="48.40807" lon="6.8606">
        <ele>301.02</ele>
        <time>2013-08-11T14:13:50Z</time>
      </trkpt>
      <trkpt lat="48.40799" lon="6.86029">
        <ele>300.95</ele>
        <time>2013-08-11T14:13:53Z</time>
      </trkpt>
      <trkpt lat="48.40792" lon="6.85998">
        <ele>300.75</ele>
        <time>2013-08-11T14:13:56Z</time>
      </trkpt>
      <trkpt lat="48.40785" lon="6.85967">
        <ele>300.85</ele>
        <time>2013-08-11T14:13:59Z</time>
      </trkpt>
      <trkpt lat="48.40778" lon="6.85937">
        <ele>301.05</ele>
        <time>2013-08-11T14:14:02Z</time>
      </trkpt>
      <trkpt lat="48.40771" lon="6.85908">
        <ele>301.28</ele>
        <time>2013-08-11T14:14:05Z</time>
      </trkpt>
      <trkpt lat="48.40765" lon="6.85881">
        <ele>301.71</ele>
        <time>2013-08-11T14:14:08Z</time>
      </trkpt>
      <trkpt lat="48.40758" lon="6.85853">
        <ele>301.96</ele>
        <time>2013-08-11T14:14:11Z</time>
      </trkpt>
      <trkpt lat="48.40751" lon="6.85824">
        <ele>301.91</ele>
        <time>2013-08-11T14:14:14Z</time>
      </trkpt>
      <trkpt lat="48.40744" lon="6.85795">
        <ele>301.72</ele>
        <time>2013-08-11T14:14:17Z</time>
      </trkpt>
      <trkpt lat="48.40738" lon="6.85767">
        <ele>301.52</ele>
        <time>2013-08-11T14:14:20Z</time>
      </trkpt>
      <trkpt lat="48.40731" lon="6.85738">
        <ele>301.32</ele>
        <time>2013-08-11T14:14:23Z</time>
      </trkpt>
      <trkpt lat="48.40724" lon="6.85707">
        <ele>301.22</ele>
        <time>2013-08-11T14:14:26Z</time>
      </trkpt>
      <trkpt lat="48.40718" lon="6.85675">
        <ele>300.92</ele>
        <time>2013-08-11T14:14:29Z</time>
      </trkpt>
      <trkpt lat="48.40712" lon="6.85641">
        <ele>300.46</ele>
        <time>2013-08-11T14:14:32Z</time>
      </trkpt>
      <trkpt lat="48.40706" lon="6.85607">
        <ele>300</ele>
        <time>2013-08-11T14:14:35Z</time>
      </trkpt>
      <trkpt lat="48.407" lon="6.85573">
        <ele>299.68</ele>
        <time>2013-08-11T14:14:38Z</time>
      </trkpt>
      <trkpt lat="48.40694" lon="6.85539">
        <ele>299.46</ele>
        <time>2013-08-11T14:14:41Z</time>
      </trkpt>
      <trkpt lat="48.40688" lon="6.85505">
        <ele>299.09</ele>
        <time>2013-08-11T14:14:44Z</time>
      </trkpt>
      <trkpt lat="48.40682" lon="6.85471">
        <ele>298.73</ele>
        <time>2013-08-11T14:14:47Z</time>
      </trkpt>
      <trkpt lat="48.40677" lon="6.85436">
        <ele>298.49</ele>
        <time>2013-08-11T14:14:50Z</time>
      </trkpt>
      <trkpt lat="48.40672" lon="6.85403">
        <ele>298.39</ele>
        <time>2013-08-11T14:14:53Z</time>
      </trkpt>
      <trkpt lat="48.40668" lon="6.85371">
        <ele>298.36</ele>
        <time>2013-08-11T14:14:56Z</time>
      </trkpt>
      <trkpt lat="48.40665" lon="6.8534">
        <ele>298.27</ele>
        <time>2013-08-11T14:14:59Z</time>
      </trkpt>
      <trkpt lat="48.40662" lon="6.85309">
        <ele>298.18</ele>
        <time>2013-08-11T14:15:02Z</time>
      </trkpt>
      <trkpt lat="48.4066" lon="6.8528">
        <ele>298.37</ele>
        <time>2013-08-11T14:15:05Z</time>
      </trkpt>
      <trkpt lat="48.40658" lon="6.85251">
        <ele>298.6</ele>
        <time>2013-08-11T14:15:08Z</time>
      </trkpt>
      <trkpt lat="48.40655" lon="6.85221">
        <ele>298.51</ele>
        <time>2013-08-11T14:15:11Z</time>
      </trkpt>
      <trkpt lat="48.40654" lon="6.8519">
        <ele>298.2</ele>
        <time>2013-08-11T14:15:14Z</time>
      </trkpt>
      <trkpt lat="48.40654" lon="6.85158">
        <ele>298.1</ele>
        <time>2013-08-11T14:15:17Z</time>
      </trkpt>
      <trkpt lat="48.40655" lon="6.85123">
        <ele>298.73</ele>
        <time>2013-08-11T14:15:20Z</time>
      </trkpt>
      <trkpt lat="48.40656" lon="6.8509">
        <ele>299.55</ele>
        <time>2013-08-11T14:15:23Z</time>
      </trkpt>
      <trkpt lat="48.40658" lon="6.85055">
        <ele>300.2</ele>
        <time>2013-08-11T14:15:26Z</time>
      </trkpt>
      <trkpt lat="48.4066" lon="6.85022">
        <ele>300.78</ele>
        <time>2013-08-11T14:15:29Z</time>
      </trkpt>
      <trkpt lat="48.40661" lon="6.84988">
        <ele>301.28</ele>
        <time>2013-08-11T14:15:32Z</time>
      </trkpt>
      <trkpt lat="48.4066" lon="6.84958">
        <ele>300.48</ele>
        <time>2013-08-11T14:15:35Z</time>
      </trkpt>
      <trkpt lat="48.40656" lon="6.84929">
        <ele>298.71</ele>
        <time>2013-08-11T14:15:38Z</time>
      </trkpt>
      <trkpt lat="48.40651" lon="6.84901">
        <ele>297.48</ele>
        <time>2013-08-11T14:15:41Z</time>
      </trkpt>
      <trkpt lat="48.40646" lon="6.84875">
        <ele>296.67</ele>
        <time>2013-08-11T14:15:44Z</time>
      </trkpt>
      <trkpt lat="48.4064" lon="6.84842">
        <ele>295.95</ele>
        <time>2013-08-11T14:15:48Z</time>
      </trkpt>
      <trkpt lat="48.40633" lon="6.84811">
        <ele>295.56</ele>
        <time>2013-08-11T14:15:52Z</time>
      </trkpt>
      <trkpt lat="48.40619" lon="6.84787">
        <ele>294.89</ele>
        <time>2013-08-11T14:15:56Z</time>
      </trkpt>
      <trkpt lat="48.40601" lon="6.84765">
        <ele>294.08</ele>
        <time>2013-08-11T14:16:00Z</time>
      </trkpt>
      <trkpt lat="48.40583" lon="6.84744">
        <ele>293.27</ele>
        <time>2013-08-11T14:16:04Z</time>
      </trkpt>
      <trkpt lat="48.40564" lon="6.84723">
        <ele>293.25</ele>
        <time>2013-08-11T14:16:08Z</time>
      </trkpt>
      <trkpt lat="48.40547" lon="6.84698">
        <ele>293.22</ele>
        <time>2013-08-11T14:16:12Z</time>
      </trkpt>
      <trkpt lat="48.40533" lon="6.84677">
        <ele>292.98</ele>
        <time>2013-08-11T14:16:16Z</time>
      </trkpt>
      <trkpt lat="48.40528" lon="6.8465">
        <ele>293.38</ele>
        <time>2013-08-11T14:16:30Z</time>
      </trkpt>
      <trkpt lat="48.40538" lon="6.84622">
        <ele>295.02</ele>
        <time>2013-08-11T14:16:36Z</time>
      </trkpt>
      <trkpt lat="48.40549" lon="6.84599">
        <ele>296.93</ele>
        <time>2013-08-11T14:16:40Z</time>
      </trkpt>
      <trkpt lat="48.40562" lon="6.84574">
        <ele>299.38</ele>
        <time>2013-08-11T14:16:44Z</time>
      </trkpt>
      <trkpt lat="48.40578" lon="6.84548">
        <ele>301.45</ele>
        <time>2013-08-11T14:16:48Z</time>
      </trkpt>
      <trkpt lat="48.40596" lon="6.84527">
        <ele>301.98</ele>
        <time>2013-08-11T14:16:52Z</time>
      </trkpt>
      <trkpt lat="48.40613" lon="6.84508">
        <ele>302.44</ele>
        <time>2013-08-11T14:16:56Z</time>
      </trkpt>
      <trkpt lat="48.40631" lon="6.84498">
        <ele>302.79</ele>
        <time>2013-08-11T14:16:59Z</time>
      </trkpt>
      <trkpt lat="48.40648" lon="6.84486">
        <ele>303.33</ele>
        <time>2013-08-11T14:17:02Z</time>
      </trkpt>
      <trkpt lat="48.40668" lon="6.8447">
        <ele>304.33</ele>
        <time>2013-08-11T14:17:06Z</time>
      </trkpt>
      <trkpt lat="48.40689" lon="6.84466">
        <ele>306.26</ele>
        <time>2013-08-11T14:17:09Z</time>
      </trkpt>
      <trkpt lat="48.40705" lon="6.8445">
        <ele>314.47</ele>
        <time>2013-08-11T14:17:17Z</time>
      </trkpt>
      <trkpt lat="48.40711" lon="6.84422">
        <ele>314.2</ele>
        <time>2013-08-11T14:17:24Z</time>
      </trkpt>
      <trkpt lat="48.40713" lon="6.84391">
        <ele>309.21</ele>
        <time>2013-08-11T14:17:29Z</time>
      </trkpt>
      <trkpt lat="48.40717" lon="6.84363">
        <ele>306.6</ele>
        <time>2013-08-11T14:17:33Z</time>
      </trkpt>
      <trkpt lat="48.4072" lon="6.84333">
        <ele>304.63</ele>
        <time>2013-08-11T14:17:37Z</time>
      </trkpt>
      <trkpt lat="48.40729" lon="6.84304">
        <ele>304.21</ele>
        <time>2013-08-11T14:17:41Z</time>
      </trkpt>
      <trkpt lat="48.40732" lon="6.84273">
        <ele>304.72</ele>
        <time>2013-08-11T14:17:45Z</time>
      </trkpt>
      <trkpt lat="48.40711" lon="6.84254">
        <ele>302.98</ele>
        <time>2013-08-11T14:17:49Z</time>
      </trkpt>
      <trkpt lat="48.40694" lon="6.84239">
        <ele>301.79</ele>
        <time>2013-08-11T14:17:52Z</time>
      </trkpt>
      <trkpt lat="48.40678" lon="6.84226">
        <ele>300.79</ele>
        <time>2013-08-11T14:17:55Z</time>
      </trkpt>
      <trkpt lat="48.40662" lon="6.84209">
        <ele>300.24</ele>
        <time>2013-08-11T14:17:58Z</time>
      </trkpt>
      <trkpt lat="48.40644" lon="6.84188">
        <ele>299.13</ele>
        <time>2013-08-11T14:18:02Z</time>
      </trkpt>
      <trkpt lat="48.40629" lon="6.8417">
        <ele>296.57</ele>
        <time>2013-08-11T14:18:06Z</time>
      </trkpt>
      <trkpt lat="48.40611" lon="6.84151">
        <ele>294.06</ele>
        <time>2013-08-11T14:18:11Z</time>
      </trkpt>
      <trkpt lat="48.40595" lon="6.84133">
        <ele>292.79</ele>
        <time>2013-08-11T14:18:17Z</time>
      </trkpt>
      <trkpt lat="48.40578" lon="6.84123">
        <ele>292.03</ele>
        <time>2013-08-11T14:18:22Z</time>
      </trkpt>
      <trkpt lat="48.4056" lon="6.84109">
        <ele>292.45</ele>
        <time>2013-08-11T14:18:26Z</time>
      </trkpt>
      <trkpt lat="48.40544" lon="6.84096">
        <ele>293.04</ele>
        <time>2013-08-11T14:18:30Z</time>
      </trkpt>
      <trkpt lat="48.40527" lon="6.84081">
        <ele>293.61</ele>
        <time>2013-08-11T14:18:34Z</time>
      </trkpt>
      <trkpt lat="48.40509" lon="6.84062">
        <ele>294.38</ele>
        <time>2013-08-11T14:18:38Z</time>
      </trkpt>
      <trkpt lat="48.40491" lon="6.84044">
        <ele>295.3</ele>
        <time>2013-08-11T14:18:42Z</time>
      </trkpt>
      <trkpt lat="48.40474" lon="6.84028">
        <ele>295.7</ele>
        <time>2013-08-11T14:18:46Z</time>
      </trkpt>
      <trkpt lat="48.40456" lon="6.84011">
        <ele>296.06</ele>
        <time>2013-08-11T14:18:50Z</time>
      </trkpt>
      <trkpt lat="48.40442" lon="6.83993">
        <ele>296.2</ele>
        <time>2013-08-11T14:18:54Z</time>
      </trkpt>
      <trkpt lat="48.40428" lon="6.83969">
        <ele>296.33</ele>
        <time>2013-08-11T14:18:59Z</time>
      </trkpt>
      <trkpt lat="48.40416" lon="6.83942">
        <ele>296.88</ele>
        <time>2013-08-11T14:19:04Z</time>
      </trkpt>
      <trkpt lat="48.40405" lon="6.83916">
        <ele>298.87</ele>
        <time>2013-08-11T14:19:09Z</time>
      </trkpt>
      <trkpt lat="48.40396" lon="6.83893">
        <ele>300.55</ele>
        <time>2013-08-11T14:19:15Z</time>
      </trkpt>
      <trkpt lat="48.40384" lon="6.83868">
        <ele>303.06</ele>
        <time>2013-08-11T14:19:21Z</time>
      </trkpt>
      <trkpt lat="48.40378" lon="6.83838">
        <ele>301.66</ele>
        <time>2013-08-11T14:19:27Z</time>
      </trkpt>
      <trkpt lat="48.4037" lon="6.83814">
        <ele>300.31</ele>
        <time>2013-08-11T14:19:33Z</time>
      </trkpt>
      <trkpt lat="48.4038" lon="6.83785">
        <ele>300.26</ele>
        <time>2013-08-11T14:19:39Z</time>
      </trkpt>
      <trkpt lat="48.40385" lon="6.83754">
        <ele>300.6</ele>
        <time>2013-08-11T14:19:44Z</time>
      </trkpt>
      <trkpt lat="48.40375" lon="6.83729">
        <ele>298.5</ele>
        <time>2013-08-11T14:20:30Z</time>
      </trkpt>
      <trkpt lat="48.40393" lon="6.83731">
        <ele>296.92</ele>
        <time>2013-08-11T14:23:32Z</time>
      </trkpt>
      <trkpt lat="48.40372" lon="6.83735">
        <ele>300.26</ele>
        <time>2013-08-11T14:25:06Z</time>
      </trkpt>
    </trkseg>
  </trk>
</gpx>